SondeTracker

Meteorological Radiosondes Database

Operations
Statistics for the Launch Site: innsbruck (AT)

2063

91

33219.00 m / 23006.62 m / 23576.00 m

4.91 m/s / 4.89 m/s

10.91 m/s / 9.58 m/s

187

24

29

Radiosondes Table with Launch Site: innsbruck (AT) (2063)
Number Type Last Frame [UTC] φ λ Course Speed Altitude Climbing Frequency Nearest City Distance from QTH Status
T2420613 RS41 2022-12-07 05:40:10 46.778 12.9845 237 ° 11 km/h 2051 m -1.9 m/s 404.10 MHz Dölsach (AT) 0.00 km UNKNOWN
T2421049 RS41 2022-12-06 05:05:01 46.8427 12.6135 139 ° 59 km/h 3617 m -5.8 m/s 404.10 MHz Lienz (AT) 0.00 km UNKNOWN
T2440042 RS41-SG 2022-12-05 05:08:27 47.484 12.4383 277 ° 7 km/h 1808 m -5.0 m/s 404.10 MHz Oberndorf in Tirol (AT) 0.00 km UNKNOWN
T2420609 RS41 2022-12-04 04:32:34 47.5832 11.5841 298 ° 17 km/h 1800 m -7.5 m/s 404.10 MHz Achenkirch (AT) 0.00 km UNKNOWN
T2420655 RS41 2022-12-03 05:13:01 47.594 12.1316 31 ° 17 km/h 1752 m -2.6 m/s 404.10 MHz Kufstein (AT) 0.00 km UNKNOWN
T2421047 RS41 2022-12-02 05:00:04 47.296 11.1749 135 ° 2 km/h 1064 m -7.3 m/s 404.10 MHz Inzing (AT) 0.00 km UNKNOWN
T2430983 RS41 2022-12-01 04:56:56 47.2842 11.1427 293 ° 4 km/h 692 m -7.3 m/s 404.10 MHz Inzing (AT) 0.00 km FOUND
T2420292 RS41 2022-11-30 04:53:48 47.5599 11.1905 335 ° 2 km/h 1697 m -7.2 m/s 405.50 MHz Garmisch-Partenkirchen (DE) 0.00 km UNKNOWN
T2420906 RS41 2022-11-29 04:50:12 47.5537 11.4083 129 ° 19 km/h 2396 m -9.6 m/s 404.10 MHz Achenkirch (AT) 0.00 km UNKNOWN
T2420796 RS41 2022-11-28 04:47:52 47.1362 12.1175 152 ° 9 km/h 3385 m -12.3 m/s 404.10 MHz Neukirchen am Großvenediger (AT) 0.00 km UNKNOWN
T2440122 RS41 2022-11-27 04:47:08 46.2857 11.7278 181 ° 20 km/h 2776 m -7.6 m/s 404.10 MHz Feltre (IT) 0.00 km UNKNOWN
T2420810 RS41-SG 2022-11-26 04:51:23 46.9159 11.9145 198 ° 33 km/h 3392 m -12.0 m/s 404.10 MHz Brunico (IT) 0.00 km FOUND
T2440125 RS41 2022-11-25 04:45:12 47.0531 12.4915 97 ° 43 km/h 4296 m -16.2 m/s 404.10 MHz Virgen (AT) 0.00 km UNKNOWN
T2440121 RS41 2022-11-24 04:48:39 46.8932 12.5292 142 ° 31 km/h 2660 m -7.8 m/s 404.10 MHz Matrei in Osttirol (AT) 0.00 km UNKNOWN
T2420793 RS41 2022-11-23 05:08:30 47.2228 11.9404 181 ° 24 km/h 2777 m -3.4 m/s 404.10 MHz Mayrhofen (AT) 0.00 km UNKNOWN
T2421048 RS41 2022-11-22 05:32:56 47.8671 12.4705 91 ° 30 km/h 907 m -2.2 m/s 404.10 MHz Traunreut (DE) 0.00 km LOST
T2421045 RS41 2022-11-21 04:46:38 46.953 12.4323 140 ° 56 km/h 4037 m -3.3 m/s 404.10 MHz Virgen (AT) 0.00 km UNKNOWN
T2440123 RS41 2022-11-20 04:39:16 47.3214 11.9853 94 ° 4 km/h 1881 m -5.1 m/s 404.10 MHz Alpbach (AT) 0.00 km UNKNOWN
T2440124 RS41 2022-11-19 04:37:23 47.4629 12.7604 94 ° 41 km/h 2665 m -5.9 m/s 404.10 MHz Leogang (AT) 0.00 km UNKNOWN
T2420662 RS41-SG 2022-11-18 05:12:39 47.4602 13.3109 97 ° 15 km/h 2604 m -4.0 m/s 404.10 MHz Bischofshofen (AT) 0.00 km UNKNOWN
T2420661 RS41 2022-11-17 04:53:00 46.8838 13.0033 107 ° 54 km/h 3400 m -12.0 m/s 404.10 MHz Dölsach (AT) 0.00 km UNKNOWN
T2430138 RS41 2022-11-16 11:13:28 47.402 12.4055 143 ° 26 km/h 2572 m -3.1 m/s 404.10 MHz Kitzbühel (AT) 0.00 km UNKNOWN
T2420298 RS41-SG 2022-11-14 05:39:01 47.777 11.176 181 ° 4 km/h 771 m -1.9 m/s 404.10 MHz Weilheim in Oberbayern (DE) 0.00 km FOUND
T2420299 RS41 2022-11-13 05:41:11 47.1835 9.87025 252 ° 33 km/h 3351 m -4.4 m/s 405.50 MHz Bludenz (AT) 0.00 km UNKNOWN
T2420297 RS41 2022-11-12 05:36:44 47.5137 10.2006 206 ° 2 km/h 1242 m -4.1 m/s 404.10 MHz Sonthofen (DE) 0.00 km UNKNOWN
T2420309 RS41 2022-11-11 05:25:12 46.5868 10.3977 210 ° 41 km/h 5137 m -2.9 m/s 404.10 MHz Pfunds (AT) 0.00 km UNKNOWN
T2420305 RS41 2022-11-10 05:23:52 47.3519 12.6118 143 ° 31 km/h 2742 m -3.3 m/s 404.10 MHz Niedernsill (AT) 0.00 km UNKNOWN
T2420301 RS41 2022-11-09 06:29:08 47.4351 12.5339 72 ° 78 km/h 9137 m -5.7 m/s 404.10 MHz Fieberbrunn (AT) 0.00 km UNKNOWN
T2420312 RS41 2022-11-08 05:59:30 47.0953 12.6333 113 ° 31 km/h 4101 m -4.8 m/s 405.50 MHz Matrei in Osttirol (AT) 0.00 km UNKNOWN
T2420302 RS41 2022-11-07 05:17:44 47.2955 12.7059 92 ° 31 km/h 2651 m -3.4 m/s 404.10 MHz Piesendorf (AT) 0.00 km UNKNOWN
T2430139 RS41 2022-11-06 05:03:36 46.6842 11.9442 194 ° 52 km/h 4262 m -5.7 m/s 404.10 MHz Brunico (IT) 0.00 km UNKNOWN
T2420311 RS41-SG 2022-11-05 04:55:46 47.2255 11.8588 181 ° 20 km/h 2660 m -5.6 m/s 404.10 MHz Mayrhofen (AT) 0.00 km UNKNOWN
T2420296 RS41 2022-11-04 05:39:02 47.7668 11.9223 69 ° 61 km/h 14981 m 1.5 m/s 404.10 MHz Rosenheim (DE) 0.00 km UNKNOWN
T2420289 RS41 2022-11-03 05:03:46 47.144 12.4813 56 ° 28 km/h 3623 m -6.2 m/s 404.10 MHz Mittersill (AT) 0.00 km UNKNOWN
T2420663 RS41-SG 2022-11-02 05:03:15 47.4662 12.8536 125 ° 11 km/h 2333 m -3.0 m/s 404.10 MHz Saalfelden am Steinernen Meer (AT) 0.00 km UNKNOWN
T2420656 RS41 2022-11-01 05:28:55 47.4843 12.2674 26 ° 15 km/h 1721 m -4.8 m/s 405.50 MHz Brixen im Thale (AT) 0.00 km UNKNOWN
T2420306 RS41 2022-10-31 04:06:48 47.3927 12.0144 36 ° 15 km/h 1926 m -5.0 m/s 404.10 MHz Alpbach (AT) 0.00 km UNKNOWN
T2420303 RS41 2022-10-30 04:20:59 47.1605 12.0315 12 ° 24 km/h 2739 m -6.0 m/s 404.10 MHz Mayrhofen (AT) 0.00 km UNKNOWN
T2420304 RS41 2022-10-29 04:14:52 46.8638 12.1346 129 ° 33 km/h 4582 m -5.4 m/s 404.10 MHz Brunico (IT) 0.00 km UNKNOWN
T2420300 RS41 2022-10-28 04:10:53 46.9548 12.2365 133 ° 20 km/h 4011 m -5.7 m/s 404.10 MHz Virgen (AT) 0.00 km UNKNOWN
T2420307 RS41 2022-10-27 04:12:10 47.0994 12.349 135 ° 39 km/h 3694 m -6.8 m/s 404.10 MHz Virgen (AT) 0.00 km UNKNOWN
T2420633 RS41 2022-10-26 04:13:04 47.1717 12.9678 90 ° 24 km/h 3337 m -4.6 m/s 404.10 MHz Rauris (AT) 0.00 km UNKNOWN
T2420647 RS41 2022-10-25 04:26:02 47.5072 13.9765 120 ° 44 km/h 2491 m -4.8 m/s 405.50 MHz Gröbming (AT) 0.00 km UNKNOWN
T2420685 RS41 2022-10-24 04:02:02 47.5846 13.1878 285 ° 13 km/h 1720 m -8.4 m/s 404.10 MHz Golling an der Salzach (AT) 0.00 km UNKNOWN
T2420637 RS41 2022-10-23 04:05:34 47.2179 12.9938 91 ° 26 km/h 3192 m -10.7 m/s 404.10 MHz Rauris (AT) 0.00 km UNKNOWN
T2420630 RS41 2022-10-22 03:03:18 47.5366 12.2782 1 ° 57 km/h 13512 m 0.0 m/s 404.10 MHz Ellmau (AT) 0.00 km UNKNOWN
T2420632 RS41 2022-10-21 04:20:07 47.5086 12.8308 59 ° 22 km/h 2481 m -5.4 m/s 405.50 MHz Saalfelden am Steinernen Meer (AT) 0.00 km UNKNOWN
T2420688 RS41 2022-10-20 04:46:54 46.7325 12.7698 101 ° 19 km/h 2310 m -2.0 m/s 405.50 MHz Lienz (AT) 0.00 km UNKNOWN
T2420628 RS41 2022-10-19 03:55:41 46.8846 12.4399 159 ° 35 km/h 3457 m -8.0 m/s 405.50 MHz Virgen (AT) 0.00 km UNKNOWN
T2420642 RS41 2022-10-18 03:04:55 47.3466 11.6507 38 ° 19 km/h 1595 m -9.3 m/s 404.10 MHz Terfens (AT) 0.00 km FOUND
T2420653 RS41 2022-10-16 04:26:31 47.4066 12.6431 360 ° 20 km/h 2389 m -2.6 m/s 404.10 MHz Leogang (AT) 0.00 km UNKNOWN
T2420639 RS41 2022-10-15 04:02:59 46.7424 12.5758 71 ° 17 km/h 2161 m -9.6 m/s 405.50 MHz Lienz (AT) 0.00 km UNKNOWN
T2420643 RS41 2022-10-14 04:19:38 46.4711 12.2851 165 ° 13 km/h 2677 m -2.7 m/s 405.50 MHz Belluno (IT) 0.00 km UNKNOWN
S4430671 RS41 2022-10-13 03:57:06 46.9893 11.9656 171 ° 6 km/h 3229 m -4.1 m/s 405.50 MHz Mayrhofen (AT) 0.00 km FOUND
S4430669 RS41 2022-10-12 03:57:48 47.1928 12.3654 125 ° 28 km/h 3574 m -9.5 m/s 404.10 MHz Bramberg am Wildkogel (AT) 0.00 km UNKNOWN
S4430673 RS41 2022-10-11 03:46:40 47.1519 11.9839 233 ° 4 km/h 2720 m -7.0 m/s 405.50 MHz Mayrhofen (AT) 0.00 km UNKNOWN
S4430658 RS41 2022-10-10 04:26:21 47.3999 11.8555 41 ° 9 km/h 1227 m -3.4 m/s 405.50 MHz Reith im Alpbachtal (AT) 0.00 km UNKNOWN
S4430701 RS41 2022-10-09 04:00:01 47.3644 12.2522 16 ° 7 km/h 2207 m -6.2 m/s 405.50 MHz Westendorf (AT) 0.00 km UNKNOWN
S4430668 RS41 2022-10-08 04:22:49 47.5958 12.3653 143 ° 6 km/h 1279 m -4.3 m/s 405.50 MHz Kirchdorf in Tirol (AT) 0.00 km UNKNOWN
S4350191 RS41 2022-10-07 04:26:58 47.6172 12.3325 34 ° 2 km/h 1588 m -4.0 m/s 404.10 MHz Kössen (AT) 0.00 km UNKNOWN
S4420601 RS41 2022-10-05 04:02:02 46.7672 11.0867 131 ° 13 km/h 3689 m -10.5 m/s 404.10 MHz Merano (IT) 0.00 km UNKNOWN
S4430659 RS41 2022-10-04 03:57:32 46.4063 11.6702 140 ° 22 km/h 2994 m -8.9 m/s 405.50 MHz Laives (IT) 0.00 km FOUND
S4430667 RS41 2022-10-03 04:21:52 46.3401 12.9632 111 ° 6 km/h 1301 m -4.7 m/s 405.50 MHz Tolmezzo (IT) 0.00 km NEED ATTENTION
S4350188 RS41-SG 2022-10-02 04:16:29 46.4296 13.7736 274 ° 4 km/h 2140 m -4.9 m/s 405.50 MHz Kranjska Gora (SI) 0.00 km UNKNOWN
S4420602 RS41 2022-10-01 04:27:08 47.1828 12.258 4 ° 22 km/h 2744 m -4.1 m/s 404.10 MHz Neukirchen am Großvenediger (AT) 0.00 km UNKNOWN
S4430675 RS41 2022-09-30 04:17:49 47.8702 12.2377 252 ° 6 km/h 1095 m -10.0 m/s 405.50 MHz Rosenheim (DE) 0.00 km LOST
S4430677 RS41 2022-09-29 03:55:08 47.5589 12.3002 358 ° 7 km/h 2208 m -10.2 m/s 405.50 MHz Ellmau (AT) 0.00 km UNKNOWN
S4430631 RS41 2022-09-28 04:09:40 47.3341 13.2078 24 ° 33 km/h 2243 m -9.1 m/s 405.50 MHz Sankt Johann im Pongau (AT) 0.00 km UNKNOWN
S4430690 RS41 2022-09-27 04:04:31 47.2733 12.6098 23 ° 39 km/h 2859 m -2.8 m/s 405.50 MHz Niedernsill (AT) 0.00 km UNKNOWN
S4430685 RS41 2022-09-26 03:49:56 47.261 12.0689 119 ° 17 km/h 2676 m -6.2 m/s 404.10 MHz Neukirchen am Großvenediger (AT) 0.00 km UNKNOWN
S4430686 RS41-SG 2022-09-25 04:03:27 47.6665 12.4249 148 ° 9 km/h 1885 m -13.0 m/s 405.50 MHz Kössen (AT) 0.00 km UNKNOWN
S4430689 RS41 2022-09-24 21:51:10 47.6739 12.6101 23 ° 6 km/h 1737 m -7.2 m/s 405.50 MHz Kössen (AT) 0.00 km UNKNOWN
S4430702 RS41 2022-09-24 16:03:21 47.6734 12.6164 211 ° 4 km/h 1660 m -12.8 m/s 405.50 MHz Kössen (AT) 0.00 km UNKNOWN
S4430699 RS41 2022-09-24 09:55:22 47.5217 12.4322 193 ° 2 km/h 761 m -3.9 m/s 404.10 MHz Sankt Johann in Tirol (AT) 0.00 km UNKNOWN
S4430688 RS41 2022-09-24 04:22:56 47.441 12.6322 122 ° 6 km/h 1850 m -4.2 m/s 405.50 MHz Fieberbrunn (AT) 0.00 km UNKNOWN
S4350187 RS41 2022-09-23 21:45:50 47.2332 12.2359 104 ° 31 km/h 2971 m -11.2 m/s 405.50 MHz Neukirchen am Großvenediger (AT) 0.00 km UNKNOWN
S4350190 RS41 2022-09-23 15:43:14 47.09 12.0875 115 ° 44 km/h 4137 m -9.3 m/s 404.10 MHz Mayrhofen (AT) 0.00 km UNKNOWN
S4430657 RS41 2022-09-23 09:33:26 46.8666 11.7023 159 ° 44 km/h 3907 m -6.4 m/s 404.10 MHz Bressanone (IT) 0.00 km UNKNOWN
S4430655 RS41 2022-09-23 03:53:27 46.5909 11.5689 177 ° 43 km/h 4712 m -10.6 m/s 404.10 MHz Bressanone (IT) 0.00 km FOUND
S4430660 RS41 2022-09-22 22:36:32 46.4032 11.4422 191 ° 61 km/h 4499 m -5.0 m/s 405.50 MHz Laives (IT) 0.00 km UNKNOWN
S4430672 RS41 2022-09-22 17:17:53 46.0612 11.7411 71 ° 6 km/h 2055 m -2.5 m/s 405.50 MHz Feltre (IT) 0.00 km UNKNOWN
S4430670 RS41 2022-09-22 10:03:36 46.3583 11.7704 193 ° 24 km/h 3166 m -2.7 m/s 404.10 MHz Laives (IT) 0.00 km UNKNOWN
S4430632 RS41 2022-09-21 05:35:44 46.1405 12.4104 149 ° 11 km/h 1848 m -2.9 m/s 405.50 MHz Belluno (IT) 0.00 km UNKNOWN
S4430636 RS41 2022-09-20 03:23:07 46.5165 12.3367 94 ° 46 km/h 2889 m -11.9 m/s 405.50 MHz Belluno (IT) 0.00 km UNKNOWN
S4430674 RS41 2022-09-19 04:15:24 46.6737 13.3395 115 ° 26 km/h 2000 m -3.8 m/s 405.50 MHz Hermagor (AT) 0.00 km UNKNOWN
S4430676 RS41 2022-09-18 04:45:05 46.4223 13.5212 338 ° 6 km/h 2213 m -3.4 m/s 404.10 MHz Bovec (SI) 0.00 km UNKNOWN
S4430633 RS41 2022-09-17 04:18:24 47.7444 13.3572 131 ° 33 km/h 1495 m -4.2 m/s 405.50 MHz Sankt Gilgen (AT) 0.00 km UNKNOWN
S4310048 RS41 2022-09-15 04:40:56 47.4678 13.1326 93 ° 33 km/h 2308 m -7.0 m/s 405.50 MHz Werfen (AT) 0.00 km UNKNOWN
P4930556 RS41 2022-09-14 22:07:47 47.6343 13.454 75 ° 9 km/h 1815 m -13.1 m/s 405.50 MHz Strobl (AT) 0.00 km UNKNOWN
S4310047 RS41 2022-09-14 16:01:54 47.5878 13.3744 153 ° 6 km/h 2006 m -10.3 m/s 405.50 MHz Abtenau (AT) 0.00 km UNKNOWN
S4310045 RS41 2022-09-14 08:52:57 47.3376 12.7738 85 ° 43 km/h 2550 m -8.6 m/s 404.10 MHz Maishofen (AT) 0.00 km UNKNOWN
S4310043 RS41 2022-09-14 03:09:30 47.3196 12.1071 197 ° 4 km/h 2284 m -14.8 m/s 405.50 MHz Westendorf (AT) 0.00 km UNKNOWN
S4420608 RS41 2022-09-13 21:59:58 47.0676 12.6286 104 ° 59 km/h 4241 m -10.3 m/s 405.50 MHz Matrei in Osttirol (AT) 0.00 km UNKNOWN
S4420606 RS41 2022-09-13 15:55:04 46.7649 12.5643 137 ° 28 km/h 3649 m -5.9 m/s 405.50 MHz Lienz (AT) 0.00 km UNKNOWN
S4420603 RS41 2022-09-13 10:34:28 46.4018 12.6726 105 ° 28 km/h 2209 m -2.6 m/s 405.50 MHz Maniago (IT) 0.00 km FOUND
S4420617 RS41 2022-09-13 04:06:36 46.7535 12.159 149 ° 46 km/h 3360 m -7.2 m/s 405.50 MHz Brunico (IT) 0.00 km FOUND
S4420615 RS41 2022-09-12 21:45:24 46.769 12.0805 141 ° 52 km/h 3435 m -8.0 m/s 405.50 MHz Brunico (IT) 0.00 km FOUND
S4420604 RS41 2022-09-12 15:32:40 46.889 12.0248 149 ° 59 km/h 3894 m -10.0 m/s 405.50 MHz Brunico (IT) 0.00 km UNKNOWN
S4420609 RS41 2022-09-12 10:50:38 46.4129 12.1528 286 ° 7 km/h 2705 m -4.8 m/s 405.50 MHz Belluno (IT) 0.00 km UNKNOWN
S4420607 RS41 2022-09-12 04:02:14 46.5643 12.1257 105 ° 31 km/h 3018 m -6.1 m/s 405.50 MHz Brunico (IT) 0.00 km UNKNOWN
S4420616 RS41 2022-09-11 04:16:04 46.8068 12.5696 105 ° 26 km/h 2755 m -3.1 m/s 404.10 MHz Lienz (AT) 0.00 km UNKNOWN
S4420631 RS41 2022-09-10 03:59:47 47.3596 12.6054 112 ° 13 km/h 2236 m -9.4 m/s 405.50 MHz Niedernsill (AT) 0.00 km UNKNOWN
S4420636 RS41 2022-09-09 04:18:45 47.6201 12.9605 101 ° 17 km/h 1870 m -4.4 m/s 405.50 MHz Hallein (AT) 0.00 km UNKNOWN
S4420614 RS41 2022-09-08 04:00:20 47.5272 12.254 38 ° 39 km/h 2416 m -8.2 m/s 404.10 MHz Ellmau (AT) 0.00 km FOUND
S4420613 RS41 2022-09-07 04:04:10 47.2812 12.5372 110 ° 19 km/h 3161 m -6.0 m/s 405.50 MHz Uttendorf (AT) 0.00 km UNKNOWN
S4420633 RS41-SG 2022-09-06 04:19:42 47.0498 12.6913 129 ° 39 km/h 3117 m -7.2 m/s 404.10 MHz Matrei in Osttirol (AT) 0.00 km UNKNOWN
S4420612 RS41 2022-09-05 21:43:16 47.12 12.146 121 ° 24 km/h 3064 m -6.2 m/s 405.50 MHz Neukirchen am Großvenediger (AT) 0.00 km UNKNOWN
S4420632 RS41 2022-09-05 15:41:30 47.1574 12.2212 99 ° 24 km/h 3580 m -11.9 m/s 405.50 MHz Neukirchen am Großvenediger (AT) 0.00 km UNKNOWN
S4420605 RS41 2022-09-05 09:54:47 47.3124 12.1816 185 ° 6 km/h 2331 m -3.6 m/s 405.50 MHz Neukirchen am Großvenediger (AT) 0.00 km UNKNOWN
S4420634 RS41 2022-09-05 04:32:56 47.3481 12.3026 110 ° 33 km/h 2657 m -3.8 m/s 404.10 MHz Bramberg am Wildkogel (AT) 0.00 km UNKNOWN
S4420610 RS41 2022-09-04 21:51:18 47.0455 11.9408 89 ° 13 km/h 3333 m -4.7 m/s 405.50 MHz Mayrhofen (AT) 0.00 km UNKNOWN
S4420635 RS41 2022-09-04 10:17:42 46.8903 12.2052 296 ° 6 km/h 2806 m -2.2 m/s 404.100 MHz Brunico (IT) 0.00 km LOST
S4340308 RS41 2022-09-04 04:21:18 47.0441 12.4399 204 ° 17 km/h 3198 m -2.5 m/s 404.100 MHz Virgen (AT) 0.00 km UNKNOWN
S4430764 RS41-SG 2022-09-03 22:45:00 47.3192 12.508 102 ° 43 km/h 3085 m -5.3 m/s 404.10 MHz Mittersill (AT) 0.00 km UNKNOWN
S4430768 RS41 2022-09-03 16:02:27 47.4058 12.4063 321 ° 4 km/h 2240 m -14.6 m/s 405.50 MHz Kitzbühel (AT) 0.00 km UNKNOWN
S4430766 RS41-SG 2022-09-03 09:21:44 47.4308 12.145 83 ° 7 km/h 2203 m -8.7 m/s 405.50 MHz Hopfgarten im Brixental (AT) 0.00 km UNKNOWN
S4430763 RS41 2022-09-03 04:09:47 47.3339 12.3082 55 ° 17 km/h 2416 m -10.6 m/s 405.50 MHz Bramberg am Wildkogel (AT) 0.00 km UNKNOWN
S4430752 RS41 2022-09-02 22:03:26 47.2673 12.1686 76 ° 24 km/h 2675 m -7.1 m/s 405.500 MHz Neukirchen am Großvenediger (AT) 0.00 km UNKNOWN
S4430754 RS41 2022-09-02 16:28:02 47.2074 12.2988 103 ° 19 km/h 3228 m -5.9 m/s 405.50 MHz Neukirchen am Großvenediger (AT) 0.00 km UNKNOWN
S4430765 RS41 2022-09-02 10:03:25 47.2157 12.1732 111 ° 17 km/h 2974 m -3.0 m/s 405.50 MHz Neukirchen am Großvenediger (AT) 0.00 km UNKNOWN
S4430747 RS41 2022-09-02 04:13:52 47.1638 12.15 148 ° 4 km/h 2890 m -8.4 m/s 405.50 MHz Neukirchen am Großvenediger (AT) 0.00 km UNKNOWN
S4340309 RS41 2022-09-01 04:09:22 47.2163 12.1074 249 ° 6 km/h 2711 m -5.4 m/s 405.50 MHz Neukirchen am Großvenediger (AT) 0.00 km UNKNOWN
S4310109 RS41 2022-08-31 04:52:38 47.3578 11.941 60 ° 41 km/h 7931 m -6.6 m/s 405.50 MHz Alpbach (AT) 0.00 km UNKNOWN
S4340310 RS41 2022-08-30 04:03:48 47.19 11.9005 105 ° 19 km/h 2691 m -10.3 m/s 405.50 MHz Mayrhofen (AT) 0.00 km UNKNOWN
S4320268 RS41 2022-08-29 04:49:42 47.2993 11.6087 275 ° 17 km/h 25829 m 6.9 m/s 405.50 MHz Wattens (AT) 0.00 km UNKNOWN
S4430751 RS41 2022-08-28 04:01:26 47.3826 11.5349 165 ° 4 km/h 2398 m -9.3 m/s 405.50 MHz Terfens (AT) 0.00 km UNKNOWN
S4340307 RS41 2022-08-27 04:20:50 47.493 11.4563 268 ° 7 km/h 2083 m -5.9 m/s 405.50 MHz Achenkirch (AT) 0.00 km UNKNOWN
S4430755 RS41 2022-08-26 21:36:53 47.364 11.48 236 ° 13 km/h 2846 m -11.0 m/s 404.10 MHz Thaur (AT) 0.00 km UNKNOWN
S4430750 RS41 2022-08-26 15:12:48 47.3022 11.5879 280 ° 20 km/h 613 m -4.0 m/s 404.10 MHz Wattens (AT) 0.00 km UNKNOWN
S4420517 RS41 2022-08-26 10:54:01 47.2673 11.6134 152 ° 6 km/h 1362 m -5.2 m/s 404.10 MHz Wattens (AT) 0.00 km UNKNOWN
S4430753 RS41 2022-08-26 04:10:04 47.2157 11.5008 146 ° 11 km/h 2299 m -10.6 m/s 404.10 MHz Sistrans (AT) 0.00 km UNKNOWN
S4420537 RS41 2022-08-25 22:35:45 47.252 11.5387 50 ° 2 km/h 1230 m -2.9 m/s 405.50 MHz Volders (AT) 0.00 km UNKNOWN
S4310110 RS41 2022-08-25 16:16:06 47.2367 11.3987 255 ° 26 km/h 905 m -8.2 m/s 405.50 MHz Mutters (AT) 0.00 km UNKNOWN
S4420512 RS41 2022-08-25 10:18:47 47.2772 11.412 219 ° 11 km/h 655 m -3.1 m/s 404.10 MHz Innsbruck (AT) 0.00 km UNKNOWN
S4350448 RS41 2022-08-25 04:05:03 47.1527 11.4752 344 ° 4 km/h 1720 m -8.3 m/s 404.10 MHz Steinach am Brenner (AT) 0.00 km UNKNOWN
S4420520 RS41 2022-08-24 22:32:38 47.0485 11.372 84 ° 4 km/h 3285 m -11.8 m/s 405.50 MHz Steinach am Brenner (AT) 0.00 km UNKNOWN
S4420539 RS41 2022-08-24 17:21:10 47.054 11.2744 179 ° 15 km/h 4624 m -8.6 m/s 404.10 MHz Neustift im Stubaital (AT) 0.00 km UNKNOWN
S4420519 RS41 2022-08-24 11:29:38 46.8899 11.1203 155 ° 15 km/h 3748 m -3.6 m/s 405.50 MHz Sölden (AT) 0.00 km UNKNOWN
S4420511 RS41 2022-08-24 04:28:50 46.7331 11.1309 213 ° 28 km/h 3519 m -3.9 m/s 405.50 MHz Merano (IT) 0.00 km UNKNOWN
S4420514 RS41 2022-08-23 21:05:54 46.6931 11.3154 246 ° 20 km/h 3770 m -7.6 m/s 405.50 MHz Merano (IT) 0.00 km UNKNOWN
S4430697 RS41 2022-08-23 16:02:32 46.5944 11.3007 180 ° 17 km/h 3542 m -4.3 m/s 404.10 MHz Lana (IT) 0.00 km UNKNOWN
S4420515 RS41 2022-08-23 09:11:40 47.0275 11.3699 215 ° 28 km/h 5752 m -15.8 m/s 404.10 MHz Steinach am Brenner (AT) 0.00 km UNKNOWN
S4350367 RS41 2022-08-23 04:02:22 47.0222 11.3751 183 ° 44 km/h 3247 m -7.4 m/s 405.50 MHz Steinach am Brenner (AT) 0.00 km UNKNOWN
S4350339 RS41 2022-08-22 04:10:11 47.0428 11.3377 154 ° 28 km/h 2963 m -13.9 m/s 405.50 MHz Neustift im Stubaital (AT) 0.00 km UNKNOWN
S4350368 RS41 2022-08-21 04:22:34 47.0285 11.6608 196 ° 24 km/h 3573 m -3.6 m/s 405.50 MHz Steinach am Brenner (AT) 0.00 km UNKNOWN
S4350340 RS41-SG 2022-08-20 04:19:08 47.0043 11.7578 194 ° 20 km/h 3219 m -3.0 m/s 405.50 MHz Mayrhofen (AT) 0.00 km UNKNOWN
S4350342 RS41 2022-08-19 04:05:05 47.8317 11.164 95 ° 17 km/h 1259 m -5.4 m/s 405.50 MHz Weilheim in Oberbayern (DE) 0.00 km UNKNOWN
S4350460 RS41 2022-08-18 04:03:50 47.8985 12.0002 61 ° 20 km/h 743 m -6.5 m/s 405.50 MHz Rosenheim (DE) 0.00 km UNKNOWN
S4420538 RS41 2022-08-17 16:46:16 47.8923 12.022 245 ° 11 km/h 655 m -6.8 m/s 404.10 MHz Rosenheim (DE) 0.00 km UNKNOWN
S4420536 RS41 2022-08-17 04:28:45 47.8079 11.8991 33 ° 7 km/h 879 m -2.8 m/s 405.50 MHz Rosenheim (DE) 0.00 km UNKNOWN
S4430700 RS41 2022-08-16 04:09:48 47.0736 11.8015 145 ° 20 km/h 3138 m -7.4 m/s 405.50 MHz Mayrhofen (AT) 0.00 km UNKNOWN
S4420516 RS41 2022-08-15 04:00:09 47.4687 11.5563 4 ° 4 km/h 2221 m -5.8 m/s 404.10 MHz Achenkirch (AT) 0.00 km UNKNOWN
S4350113 RS41 2022-08-13 03:59:26 46.9621 11.1222 233 ° 20 km/h 3683 m -9.2 m/s 405.50 MHz Sölden (AT) 0.00 km UNKNOWN
S4350577 RS41 2022-08-12 03:30:34 46.4567 11.2956 99 ° 31 km/h 3104 m -5.1 m/s 404.10 MHz Laives (IT) 0.00 km LOST
D17050667 DFM09 2022-08-11 12:34:56 47.0414 10.4004 182 ° 6 km/h 4007 m -12.4 m/s 402.008 MHz Kappl (AT) 0.00 km UNKNOWN
S4420521 RS41 2022-08-11 03:49:30 46.9429 10.9289 181 ° 19 km/h 4014 m -10.0 m/s 405.50 MHz Sölden (AT) 0.00 km UNKNOWN
S4430698 RS41 2022-08-10 04:22:20 47.0837 11.6371 162 ° 20 km/h 3715 m -5.6 m/s 404.100 MHz Steinach am Brenner (AT) 0.00 km UNKNOWN
S4350337 RS41 2022-08-09 04:17:16 46.9627 11.3699 201 ° 30 km/h 4308 m -11.7 m/s 404.10 MHz Steinach am Brenner (AT) 0.00 km UNKNOWN
S4350341 RS41 2022-08-08 03:01:40 47.2378 11.405 198 ° 9 km/h 3414 m -15.9 m/s 405.50 MHz Aldrans (AT) 0.00 km FOUND
S4350449 RS41 2022-08-07 04:31:11 47.4295 11.9227 241 ° 13 km/h 1086 m -5.8 m/s 405.50 MHz Radfeld (AT) 0.00 km FOUND
S4350458 RS41 2022-08-06 02:59:36 47.4056 11.6756 143 ° 17 km/h 2066 m -15.4 m/s 404.10 MHz Eben am Achensee (AT) 0.00 km UNKNOWN
S4350459 RS41 2022-08-04 04:08:12 47.2702 11.6035 35 ° 7 km/h 1288 m -9.4 m/s 405.50 MHz Wattens (AT) 0.00 km UNKNOWN
S4350338 RS41 2022-08-03 03:10:36 46.9605 11.3323 195 ° 17 km/h 4909 m -18.8 m/s 404.10 MHz Neustift im Stubaital (AT) 0.00 km UNKNOWN
S4350461 RS41 2022-08-02 03:55:28 47.1261 11.8149 147 ° 33 km/h 3117 m -10.5 m/s 405.50 MHz Mayrhofen (AT) 0.00 km UNKNOWN
S4350462 RS41 2022-08-01 03:59:20 46.9872 12.349 128 ° 7 km/h 2742 m -5.5 m/s 405.50 MHz Virgen (AT) 0.00 km UNKNOWN
S4350450 RS41 2022-07-31 04:17:36 46.5209 12.2408 159 ° 22 km/h 3249 m -5.5 m/s 405.50 MHz Brunico (IT) 0.00 km UNKNOWN
S4350447 RS41 2022-07-30 04:16:01 47.3529 12.1847 119 ° 44 km/h 2338 m -6.6 m/s 405.50 MHz Westendorf (AT) 0.00 km UNKNOWN
S4350369 RS41-SG 2022-07-29 04:34:18 47.4147 12.394 64 ° 13 km/h 2345 m -4.0 m/s 405.50 MHz Kitzbühel (AT) 0.00 km FOUND
S4350457 RS41 2022-07-28 04:03:34 47.2659 12.1324 345 ° 20 km/h 2389 m -15.9 m/s 404.10 MHz Neukirchen am Großvenediger (AT) 0.00 km UNKNOWN
S4430250 RS41 2022-07-27 03:58:45 47.4464 12.158 261 ° 7 km/h 1684 m -16.5 m/s 405.50 MHz Hopfgarten im Brixental (AT) 0.00 km FOUND
S4430252 RS41 2022-07-26 04:11:18 47.581 12.3029 31 ° 4 km/h 1741 m -6.2 m/s 405.50 MHz Ellmau (AT) 0.00 km UNKNOWN
S4430251 RS41 2022-07-25 04:09:20 47.1271 11.9704 120 ° 44 km/h 3615 m -7.3 m/s 405.50 MHz Mayrhofen (AT) 0.00 km UNKNOWN
S4350410 RS41 2022-07-24 04:04:25 46.8762 12.1053 93 ° 11 km/h 2886 m -9.6 m/s 404.10 MHz Brunico (IT) 0.00 km FOUND
S4350590 RS41 2022-07-23 04:06:58 47.5263 12.0952 99 ° 20 km/h 1946 m -10.6 m/s 405.50 MHz Kirchbichl (AT) 0.00 km UNKNOWN
S4350592 RS41 2022-07-22 03:59:44 47.0969 11.8461 65 ° 31 km/h 3856 m -12.9 m/s 405.50 MHz Mayrhofen (AT) 0.00 km UNKNOWN
S4350411 RS41 2022-07-21 04:22:22 47.4488 11.6453 281 ° 9 km/h 2077 m -4.5 m/s 404.10 MHz Eben am Achensee (AT) 0.00 km UNKNOWN
S4350561 RS41 2022-07-20 04:29:25 47.1913 11.4548 351 ° 11 km/h 1470 m -4.7 m/s 404.10 MHz Sistrans (AT) 0.00 km UNKNOWN
S4350413 RS41 2022-07-19 04:18:00 46.762 11.288 185 ° 15 km/h 4290 m -4.7 m/s 404.10 MHz Merano (IT) 0.00 km UNKNOWN
S4350139 RS41 2022-07-18 03:42:55 46.838 11.9958 354 ° 6 km/h 2962 m -5.3 m/s 404.10 MHz Brunico (IT) 0.00 km UNKNOWN
S4350431 RS41 2022-07-17 04:09:02 46.7346 12.1552 128 ° 33 km/h 3741 m -7.1 m/s 405.50 MHz Brunico (IT) 0.00 km UNKNOWN
S4430031 RS41 2022-07-16 03:17:24 46.9653 12.2466 118 ° 61 km/h 4859 m -19.2 m/s 405.50 MHz Virgen (AT) 0.00 km UNKNOWN
S4430034 RS41 2022-07-15 03:39:24 46.9451 12.717 105 ° 61 km/h 4278 m -6.7 m/s 405.50 MHz Lienz (AT) 0.00 km UNKNOWN
S4350428 RS41 2022-07-14 04:06:20 47.206 12.3124 119 ° 35 km/h 3392 m -9.0 m/s 405.50 MHz Neukirchen am Großvenediger (AT) 0.00 km UNKNOWN
S4350409 RS41 2022-07-13 04:35:16 46.2106 11.1952 212 ° 9 km/h 1415 m -3.6 m/s 405.50 MHz Lavis (IT) 0.00 km FOUND
S4350429 RS41 2022-07-12 04:07:38 46.4713 11.8559 129 ° 30 km/h 3490 m -12.7 m/s 405.50 MHz Bressanone (IT) 0.00 km UNKNOWN
S4350142 RS41 2022-07-10 03:10:38 46.6882 11.6483 174 ° 65 km/h 4681 m -13.7 m/s 405.50 MHz Bressanone (IT) 0.00 km UNKNOWN
S4340327 RS41 2022-07-09 04:04:16 46.6249 11.8198 162 ° 30 km/h 3416 m -5.1 m/s 405.50 MHz Bressanone (IT) 0.00 km UNKNOWN
S4440052 RS41-SG 2022-07-08 03:51:26 46.189 11.3562 188 ° 46 km/h 2496 m -14.2 m/s 405.50 MHz Pergine Valsugana (IT) 0.00 km UNKNOWN
S4310053 RS41 2022-07-07 04:17:16 46.8867 12.0744 116 ° 37 km/h 3753 m -4.1 m/s 405.50 MHz Brunico (IT) 0.00 km UNKNOWN
S4350140 RS41 2022-07-06 04:24:32 47.0744 12.7115 136 ° 39 km/h 3777 m -4.4 m/s 405.50 MHz Matrei in Osttirol (AT) 0.00 km UNKNOWN
S4430035 RS41 2022-07-05 04:37:21 47.4123 12.2567 113 ° 4 km/h 1774 m -3.1 m/s 405.50 MHz Brixen im Thale (AT) 0.00 km UNKNOWN
S4350412 RS41-SG 2022-07-04 04:06:24 47.4179 12.1219 5 ° 19 km/h 1829 m -9.8 m/s 404.10 MHz Hopfgarten im Brixental (AT) 0.00 km UNKNOWN
S4350594 RS41 2022-07-03 04:26:40 47.5123 11.9507 128 ° 20 km/h 1700 m -3.3 m/s 405.50 MHz Breitenbach am Inn (AT) 0.00 km UNKNOWN
S4350414 RS41 2022-07-02 04:40:24 47.1183 12.4508 65 ° 13 km/h 3709 m -3.6 m/s 404.10 MHz Virgen (AT) 0.00 km UNKNOWN
S4350591 RS41 2022-07-01 04:35:21 47.975 11.7175 49 ° 7 km/h 702 m -4.1 m/s 405.50 MHz Unterhaching (DE) 0.00 km FOUND
S4350427 RS41 2022-06-30 04:26:14 47.5554 11.6086 78 ° 2 km/h 1584 m -6.3 m/s 405.50 MHz Achenkirch (AT) 0.00 km UNKNOWN
S4350554 RS41 2022-06-29 04:02:28 47.6424 11.4483 118 ° 15 km/h 1533 m -10.2 m/s 405.50 MHz Achenkirch (AT) 0.00 km UNKNOWN
S4350553 RS41 2022-06-28 04:14:50 47.869 11.987 156 ° 6 km/h 947 m -8.4 m/s 404.10 MHz Rosenheim (DE) 0.00 km FOUND
S4350430 RS41 2022-06-26 04:31:42 47.6132 12.1869 65 ° 11 km/h 1484 m -2.6 m/s 405.50 MHz Ebbs (AT) 0.00 km UNKNOWN
S4350593 RS41 2022-06-25 04:32:52 47.2216 12.246 124 ° 33 km/h 2996 m -3.9 m/s 404.10 MHz Neukirchen am Großvenediger (AT) 0.00 km UNKNOWN
S4350432 RS41 2022-06-24 04:17:24 47.5089 12.2402 140 ° 15 km/h 2175 m -6.1 m/s 404.10 MHz Söll (AT) 0.00 km UNKNOWN
S4430032 RS41 2022-06-23 04:23:02 47.0266 12.1605 162 ° 30 km/h 3327 m -4.2 m/s 405.50 MHz Virgen (AT) 0.00 km UNKNOWN
S4350141 RS41 2022-06-22 04:20:16 47.1545 12.6095 112 ° 57 km/h 4210 m -4.5 m/s 404.10 MHz Uttendorf (AT) 0.00 km UNKNOWN
S4440053 RS41 2022-06-21 04:18:46 47.1015 12.9164 110 ° 70 km/h 4784 m -5.5 m/s 404.10 MHz Rauris (AT) 0.00 km UNKNOWN
S4350144 RS41 2022-06-20 04:23:05 47.4713 12.1494 337 ° 7 km/h 1508 m -3.6 m/s 404.10 MHz Hopfgarten im Brixental (AT) 0.00 km FOUND
S4350004 RS41 2022-06-19 03:59:25 47.3599 11.7492 37 ° 20 km/h 944 m -8.3 m/s 404.10 MHz Schwaz (AT) 0.00 km UNKNOWN
S4430020 RS41 2022-06-17 04:19:42 46.3522 12.041 115 ° 13 km/h 2523 m -5.0 m/s 405.50 MHz Sedico (IT) 0.00 km UNKNOWN
S4440046 RS41-SG 2022-06-16 04:03:36 46.8087 11.8362 138 ° 50 km/h 3845 m -5.9 m/s 404.10 MHz Brunico (IT) 0.00 km FOUND
S4430036 RS41 2022-06-15 04:02:20 46.9421 11.9659 127 ° 46 km/h 4198 m -15.4 m/s 405.50 MHz Brunico (IT) 0.00 km FOUND
S4420618 RS41 2022-06-14 03:13:28 46.9451 11.8122 115 ° 41 km/h 4136 m -12.7 m/s 404.10 MHz Brunico (IT) 0.00 km UNKNOWN
S4430033 RS41 2022-06-13 04:12:48 47.205 12.3147 96 ° 43 km/h 2954 m -8.1 m/s 405.50 MHz Neukirchen am Großvenediger (AT) 0.00 km UNKNOWN
S2420144 RS41 2022-06-12 04:12:32 46.8697 11.5705 176 ° 37 km/h 4718 m -5.9 m/s 404.10 MHz Bressanone (IT) 0.00 km UNKNOWN
S2420143 RS41-SG 2022-06-11 04:05:56 46.8278 11.4312 182 ° 33 km/h 4029 m -8.4 m/s 405.50 MHz Bressanone (IT) 0.00 km UNKNOWN
S2421006 RS41-SG 2022-06-10 04:03:16 46.5027 11.4339 211 ° 31 km/h 3295 m -6.5 m/s 405.50 MHz Bolzano (IT) 0.00 km FOUND
S2421007 RS41 2022-06-09 03:50:23 47.3025 11.5497 300 ° 4 km/h 914 m -8.7 m/s 405.50 MHz Volders (AT) 0.00 km FOUND
S2430547 RS41 2022-06-08 04:10:46 47.0016 11.713 203 ° 19 km/h 3537 m -9.3 m/s 405.50 MHz Steinach am Brenner (AT) 0.00 km UNKNOWN
S2421008 RS41 2022-06-07 04:25:34 47.5288 12.0967 51 ° 15 km/h 1896 m -5.2 m/s 405.50 MHz Kirchbichl (AT) 0.00 km FOUND
S2430550 RS41 2022-06-06 04:04:05 47.1375 12.1349 130 ° 11 km/h 2949 m -4.1 m/s 405.50 MHz Neukirchen am Großvenediger (AT) 0.00 km UNKNOWN
S2430678 RS41 2022-06-05 04:24:22 47.3349 12.5125 81 ° 22 km/h 2756 m -5.3 m/s 404.10 MHz Mittersill (AT) 0.00 km UNKNOWN
S2420095 RS41 2022-06-04 03:59:39 47.2707 12.1884 89 ° 26 km/h 2629 m -9.1 m/s 404.10 MHz Neukirchen am Großvenediger (AT) 0.00 km UNKNOWN
S2430558 RS41 2022-06-03 03:54:44 47.2464 12.4277 95 ° 48 km/h 3630 m -9.0 m/s 404.10 MHz Mittersill (AT) 0.00 km UNKNOWN
S2430549 RS41 2022-06-02 04:14:54 47.3255 13.16 80 ° 56 km/h 2672 m -1.9 m/s 405.50 MHz Sankt Veit im Pongau (AT) 0.00 km UNKNOWN
S2430556 RS41-SG 2022-06-01 04:17:22 47.1847 13.2078 86 ° 56 km/h 3629 m -6.0 m/s 404.10 MHz Grossarl (AT) 0.00 km UNKNOWN
S2430552 RS41 2022-05-31 04:12:20 47.4795 12.7857 63 ° 20 km/h 2442 m -4.9 m/s 404.10 MHz Leogang (AT) 0.00 km UNKNOWN
S2421014 RS41 2022-05-30 03:57:22 47.5604 12.8023 74 ° 15 km/h 2206 m -12.9 m/s 404.10 MHz Saalfelden am Steinernen Meer (AT) 0.00 km UNKNOWN
S2430548 RS41 2022-05-29 04:14:35 47.4392 12.6823 37 ° 17 km/h 2541 m -4.5 m/s 405.50 MHz Leogang (AT) 0.00 km UNKNOWN
S2420094 RS41 2022-05-28 03:54:46 47.171 12.5609 100 ° 50 km/h 3977 m -2.5 m/s 405.50 MHz Uttendorf (AT) 0.00 km UNKNOWN
S2420096 RS41 2022-05-28 03:52:10 47.1391 12.1995 84 ° 22 km/h 3519 m -8.9 m/s 404.10 MHz Neukirchen am Großvenediger (AT) 0.00 km UNKNOWN
S2420092 RS41 2022-05-27 04:00:02 47.1903 12.0068 91 ° 24 km/h 3872 m -7.4 m/s 404.10 MHz Mayrhofen (AT) 0.00 km UNKNOWN
S2430557 RS41 2022-05-26 03:27:48 47.2168 11.7587 345 ° 4 km/h 2704 m -5.0 m/s 404.10 MHz Mayrhofen (AT) 0.00 km UNKNOWN
S2420142 RS41 2022-05-25 04:48:30 47.8489 12.5749 90 ° 13 km/h 676 m -2.8 m/s 404.10 MHz Traunreut (DE) 0.00 km UNKNOWN
S2420140 RS41 2022-05-24 04:07:40 47.5197 12.0969 184 ° 4 km/h 1739 m -5.5 m/s 404.10 MHz Kirchbichl (AT) 0.00 km FOUND
S2421009 RS41-SG 2022-05-23 04:12:56 46.8596 12.2363 122 ° 50 km/h 4137 m -4.6 m/s 404.10 MHz Virgen (AT) 0.00 km FOUND
S2530360 RS41 2022-05-22 04:38:44 46.5999 12.6562 134 ° 20 km/h 2952 m -3.0 m/s 405.50 MHz Lienz (AT) 0.00 km UNKNOWN
S2421004 RS41-SG 2022-05-21 04:22:50 47.0097 12.5146 126 ° 48 km/h 3852 m -5.1 m/s 404.10 MHz Matrei in Osttirol (AT) 0.00 km FOUND
S2421005 RS41 2022-05-20 04:04:50 47.0271 11.827 165 ° 28 km/h 4304 m -9.7 m/s 404.10 MHz Mayrhofen (AT) 0.00 km UNKNOWN
S2421021 RS41-SG 2022-05-19 04:20:02 46.7545 11.5814 167 ° 28 km/h 3911 m -5.1 m/s 404.10 MHz Bressanone (IT) 0.00 km FOUND
S2421112 RS41 2022-05-18 04:46:00 46.5508 11.953 163 ° 31 km/h 3050 m -4.5 m/s 404.10 MHz Brunico (IT) 0.00 km UNKNOWN
S2421020 RS41 2022-05-17 04:08:20 46.9272 11.8186 160 ° 56 km/h 3661 m -9.4 m/s 405.50 MHz Brunico (IT) 0.00 km FOUND
S2530245 RS41 2022-05-16 03:52:02 47.1929 11.7521 138 ° 11 km/h 2796 m -10.5 m/s 404.10 MHz Mayrhofen (AT) 0.00 km UNKNOWN
S2530328 RS41-SG 2022-05-15 04:08:28 47.0012 12.0014 124 ° 24 km/h 3720 m -11.5 m/s 404.10 MHz Mayrhofen (AT) 0.00 km FOUND
S2530327 RS41 2022-05-14 03:50:08 47.2772 12.004 114 ° 28 km/h 2676 m -9.5 m/s 404.10 MHz Alpbach (AT) 0.00 km UNKNOWN
S2421012 RS41 2022-05-13 04:20:08 47.2648 12.6731 84 ° 20 km/h 3364 m -4.8 m/s 404.10 MHz Niedernsill (AT) 0.00 km UNKNOWN
S2421011 RS41 2022-05-12 04:30:34 47.3748 12.5389 95 ° 31 km/h 2574 m -5.0 m/s 405.50 MHz Fieberbrunn (AT) 0.00 km UNKNOWN
S2421010 RS41 2022-05-11 04:17:22 46.866 11.4707 120 ° 15 km/h 4369 m -7.3 m/s 404.10 MHz Bressanone (IT) 0.00 km UNKNOWN
S2530326 RS41 2022-05-10 03:55:06 46.8435 11.1037 211 ° 17 km/h 5007 m -10.3 m/s 404.10 MHz Sölden (AT) 0.00 km UNKNOWN
S2530325 RS41 2022-05-09 04:19:53 47.0688 11.2126 19 ° 11 km/h 2975 m -6.0 m/s 404.10 MHz Neustift im Stubaital (AT) 0.00 km UNKNOWN
S2530329 RS41-SG 2022-05-08 04:02:14 47.2786 11.2008 264 ° 6 km/h 663 m -6.4 m/s 405.50 MHz Inzing (AT) 0.00 km FOUND
S2421013 RS41 2022-05-07 04:08:10 47.3241 11.4653 195 ° 11 km/h 1996 m -5.5 m/s 405.50 MHz Thaur (AT) 0.00 km UNKNOWN
S2530330 RS41 2022-05-06 04:24:07 47.4491 11.6941 345 ° 4 km/h 2158 m -2.4 m/s 404.10 MHz Eben am Achensee (AT) 0.00 km UNKNOWN
S2421003 RS41 2022-05-05 04:00:38 47.1977 11.9154 45 ° 19 km/h 2576 m -7.0 m/s 405.50 MHz Mayrhofen (AT) 0.00 km UNKNOWN
S4350400 RS41 2022-05-04 04:23:51 47.366 11.7304 84 ° 22 km/h 1466 m -3.1 m/s 405.50 MHz Schwaz (AT) 0.00 km UNKNOWN
S4350401 RS41 2022-05-03 03:54:06 47.2178 11.5452 41 ° 2 km/h 2359 m -6.3 m/s 405.50 MHz Sistrans (AT) 0.00 km UNKNOWN
S4350402 RS41 2022-05-02 04:12:01 47.2048 11.3511 16 ° 9 km/h 1650 m -2.3 m/s 404.10 MHz Mutters (AT) 0.00 km FOUND
S4241122 RS41 2022-05-01 04:09:24 47.2828 11.4979 255 ° 11 km/h 650 m -7.3 m/s 405.50 MHz Absam (AT) 0.00 km UNKNOWN
S4350405 RS41 2022-04-30 04:16:36 47.4157 12.0362 162 ° 4 km/h 1722 m -3.1 m/s 404.10 MHz Kundl (AT) 0.00 km UNKNOWN
S4241118 RS41 2022-04-29 04:16:08 46.712 11.4679 188 ° 43 km/h 4357 m -7.8 m/s 404.10 MHz Bressanone (IT) 0.00 km UNKNOWN
S4350580 RS41-SG 2022-04-28 04:07:32 46.898 11.6639 195 ° 37 km/h 4196 m -4.9 m/s 404.10 MHz Bressanone (IT) 0.00 km FOUND
S4241121 RS41 2022-04-27 03:50:54 47.1415 12.1166 143 ° 13 km/h 3244 m -5.7 m/s 404.100 MHz Neukirchen am Großvenediger (AT) 0.00 km UNKNOWN
S4241119 RS41 2022-04-26 04:09:09 47.3298 12.0401 123 ° 6 km/h 2249 m -6.2 m/s 404.10 MHz Alpbach (AT) 0.00 km UNKNOWN
S4241120 RS41 2022-04-25 04:29:05 47.159 12.1767 2 ° 15 km/h 2851 m -2.2 m/s 405.50 MHz Neukirchen am Großvenediger (AT) 0.00 km UNKNOWN
S4350398 RS41 2022-04-24 04:29:52 47.9365 11.4167 100 ° 44 km/h 905 m -3.9 m/s 404.10 MHz Starnberg (DE) 0.00 km NEED ATTENTION
S4350579 RS41 2022-04-23 03:58:25 47.4416 11.9023 48 ° 6 km/h 797 m -11.0 m/s 405.50 MHz Radfeld (AT) 0.00 km UNKNOWN
S4350399 RS41 2022-04-22 04:13:07 47.6414 11.615 298 ° 9 km/h 1554 m -6.4 m/s 404.10 MHz Achenkirch (AT) 0.00 km NEED ATTENTION
S4350406 RS41 2022-04-21 03:30:42 47.1856 11.8662 87 ° 17 km/h 2764 m -9.6 m/s 405.50 MHz Mayrhofen (AT) 0.00 km UNKNOWN
S4350556 RS41 2022-04-20 03:38:12 46.7326 11.9149 186 ° 31 km/h 3801 m -4.7 m/s 405.50 MHz Brunico (IT) 0.00 km FOUND
S4350581 RS41 2022-04-19 03:38:04 46.5368 11.6277 146 ° 33 km/h 3147 m -10.9 m/s 404.10 MHz Bressanone (IT) 0.00 km UNKNOWN
S4241117 RS41 2022-04-18 03:51:38 46.63 10.9541 205 ° 50 km/h 4606 m -11.8 m/s 405.50 MHz Lana (IT) 0.00 km UNKNOWN
S4430044 RS41 2022-04-17 03:50:04 46.534 10.7486 227 ° 69 km/h 4243 m -2.6 m/s 404.10 MHz Lana (IT) 0.00 km UNKNOWN
S4350557 RS41 2022-04-16 04:09:44 46.38 12.0584 151 ° 46 km/h 3353 m -11.1 m/s 405.50 MHz Belluno (IT) 0.00 km UNKNOWN
S4430051 RS41 2022-04-15 03:29:52 46.9995 11.7772 151 ° 30 km/h 3982 m -7.4 m/s 405.50 MHz Mayrhofen (AT) 0.00 km UNKNOWN
S4430050 RS41-SG 2022-04-14 04:19:19 47.2416 11.5205 39 ° 7 km/h 1462 m -3.5 m/s 405.50 MHz Absam (AT) 0.00 km UNKNOWN
S4430019 RS41 2022-04-13 04:19:28 47.2329 11.7157 191 ° 9 km/h 2476 m -4.9 m/s 404.10 MHz Wattens (AT) 0.00 km UNKNOWN
S4430038 RS41 2022-04-12 03:59:26 46.9812 12.376 117 ° 19 km/h 4476 m -11.3 m/s 404.10 MHz Virgen (AT) 0.00 km UNKNOWN
S4430046 RS41 2022-04-11 04:28:59 46.2995 13.352 110 ° 6 km/h 1608 m -1.6 m/s 404.10 MHz Tarcento (IT) 0.00 km UNKNOWN
S4430047 RS41 2022-04-10 04:11:25 46.4834 12.5386 190 ° 28 km/h 2438 m -8.2 m/s 404.10 MHz Maniago (IT) 0.00 km UNKNOWN
S4430022 RS41 2022-04-09 04:00:32 47.5763 13.7291 147 ° 19 km/h 1964 m -5.8 m/s 404.10 MHz Bad Aussee (AT) 0.00 km UNKNOWN
S4430041 RS41 2022-04-08 02:59:10 47.0593 12.5733 108 ° 80 km/h 4097 m -12.3 m/s 405.50 MHz Matrei in Osttirol (AT) 0.00 km UNKNOWN
S4430024 RS41 2022-04-07 04:14:04 47.1015 12.6807 105 ° 30 km/h 3536 m -7.4 m/s 405.50 MHz Matrei in Osttirol (AT) 0.00 km UNKNOWN
S4430037 RS41 2022-04-06 04:18:44 47.0081 12.7518 98 ° 35 km/h 3556 m -4.2 m/s 404.10 MHz Matrei in Osttirol (AT) 0.00 km UNKNOWN
S4430039 RS41 2022-04-05 04:00:58 46.7117 12.4682 129 ° 46 km/h 2950 m -4.5 m/s 404.10 MHz Lienz (AT) 0.00 km UNKNOWN
S4430043 RS41 2022-04-04 03:48:00 46.8552 12.2383 92 ° 33 km/h 3938 m -7.9 m/s 405.50 MHz Virgen (AT) 0.00 km UNKNOWN
S4430021 RS41 2022-04-03 03:40:58 47.0877 11.9091 245 ° 24 km/h 4399 m -9.6 m/s 404.10 MHz Mayrhofen (AT) 0.00 km UNKNOWN
S4430023 RS41 2022-04-02 03:35:39 47.3836 11.51 259 ° 17 km/h 2727 m -7.4 m/s 405.50 MHz Thaur (AT) 0.00 km UNKNOWN
S4430045 RS41 2022-04-01 04:06:06 47.6578 12.8967 172 ° 6 km/h 1724 m -7.8 m/s 405.50 MHz Grossgmain (AT) 0.00 km UNKNOWN
S4430048 RS41 2022-03-31 04:13:13 47.5728 13.113 303 ° 4 km/h 2120 m -4.1 m/s 404.10 MHz Golling an der Salzach (AT) 0.00 km UNKNOWN
S4420540 RS41 2022-03-30 03:51:42 47.1522 13.1274 88 ° 44 km/h 4114 m -10.0 m/s 404.10 MHz Bad Hofgastein (AT) 0.00 km UNKNOWN
S4430049 RS41 2022-03-29 04:00:46 46.9882 12.7036 99 ° 17 km/h 4052 m -3.7 m/s 404.10 MHz Matrei in Osttirol (AT) 0.00 km UNKNOWN
S4430040 RS41 2022-03-28 04:15:02 47.013 11.8648 349 ° 11 km/h 3588 m -5.3 m/s 404.10 MHz Mayrhofen (AT) 0.00 km UNKNOWN
S4420513 RS41 2022-03-27 04:42:23 47.2486 11.1028 1 ° 4 km/h 1797 m -6.2 m/s 404.10 MHz Rietz (AT) 0.00 km UNKNOWN
S4420518 RS41 2022-03-26 05:05:00 47.0531 11.7462 315 ° 9 km/h 4610 m -5.6 m/s 404.10 MHz Mayrhofen (AT) 0.00 km UNKNOWN
S2420107 RS41 2022-03-25 05:21:46 47.0993 11.8221 96 ° 9 km/h 3609 m -3.6 m/s 404.10 MHz Mayrhofen (AT) 0.00 km UNKNOWN
S2420224 RS41 2022-03-24 05:06:54 47.355 11.6147 81 ° 2 km/h 1690 m -5.6 m/s 404.10 MHz Terfens (AT) 0.00 km UNKNOWN
S2420106 RS41 2022-03-23 05:10:46 47.411 11.1212 256 ° 6 km/h 2653 m -3.1 m/s 404.10 MHz Leutasch (AT) 0.00 km UNKNOWN
S2430537 RS41 2022-03-22 05:02:59 47.3476 10.9174 260 ° 9 km/h 2553 m -5.9 m/s 404.10 MHz Ehrwald (AT) 0.00 km UNKNOWN
S2420226 RS41 2022-03-21 05:05:21 47.4108 10.8364 190 ° 13 km/h 2364 m -3.4 m/s 404.10 MHz Ehrwald (AT) 0.00 km UNKNOWN
S2420138 RS41 2022-03-20 04:58:43 47.3244 11.294 68 ° 13 km/h 2326 m -3.8 m/s 404.10 MHz Zirl (AT) 0.00 km UNKNOWN
S2420158 RS41 2022-03-19 04:58:32 46.999 11.2634 267 ° 11 km/h 3418 m -4.8 m/s 404.10 MHz Neustift im Stubaital (AT) 0.00 km UNKNOWN
S2420110 RS41 2022-03-18 03:55:20 47.207 11.313 201 ° 9 km/h 1789 m -8.7 m/s 404.10 MHz Götzens (AT) 0.00 km UNKNOWN
S2420159 RS41 2022-03-17 05:09:33 47.0626 11.6201 150 ° 13 km/h 2598 m -3.4 m/s 404.10 MHz Steinach am Brenner (AT) 0.00 km UNKNOWN
S2420135 RS41 2022-03-16 04:54:54 46.7723 12.165 134 ° 78 km/h 3693 m -12.0 m/s 404.10 MHz Brunico (IT) 0.00 km UNKNOWN
S2420113 RS41 2022-03-15 04:51:14 47.0749 12.5284 83 ° 48 km/h 4464 m -12.4 m/s 404.10 MHz Matrei in Osttirol (AT) 0.00 km UNKNOWN
S2420120 RS41-SG 2022-03-14 04:50:35 47.4635 11.9292 62 ° 41 km/h 978 m -8.5 m/s 404.10 MHz Radfeld (AT) 0.00 km UNKNOWN
S2420157 RS41 2022-03-13 05:07:29 47.2445 11.5265 274 ° 2 km/h 1417 m -2.4 m/s 404.10 MHz Absam (AT) 0.00 km UNKNOWN
S2420136 RS41 2022-03-12 04:46:38 47.0792 11.8276 319 ° 6 km/h 3299 m -8.4 m/s 405.50 MHz Mayrhofen (AT) 0.00 km UNKNOWN
S2420103 RS41 2022-03-11 05:08:50 47.1362 11.7806 54 ° 13 km/h 3204 m -5.6 m/s 404.10 MHz Mayrhofen (AT) 0.00 km UNKNOWN
S2420117 RS41-SG 2022-03-10 04:51:40 47.0947 11.7972 210 ° 31 km/h 3995 m -6.7 m/s 404.10 MHz Mayrhofen (AT) 0.00 km UNKNOWN
S2420108 RS41 2022-03-09 04:49:10 46.9866 11.2938 190 ° 50 km/h 3940 m -12.8 m/s 404.10 MHz Neustift im Stubaital (AT) 0.00 km UNKNOWN
S2420225 RS41 2022-03-08 04:46:56 46.8398 11.1634 224 ° 52 km/h 4762 m -10.2 m/s 404.10 MHz Sölden (AT) 0.00 km UNKNOWN
S2420102 RS41-SG 2022-03-06 04:53:28 46.9434 11.0841 225 ° 35 km/h 4177 m -5.1 m/s 404.10 MHz Sölden (AT) 0.00 km UNKNOWN
S2420163 RS41 2022-03-05 04:49:22 46.7345 11.1768 217 ° 20 km/h 3236 m -10.4 m/s 404.10 MHz Merano (IT) 0.00 km FOUND
S2420227 RS41 2022-03-04 04:44:44 46.7051 11.237 164 ° 50 km/h 3728 m -12.5 m/s 404.10 MHz Merano (IT) 0.00 km FOUND
S2420134 RS41 2022-03-02 04:52:12 46.5795 11.4435 184 ° 39 km/h 3545 m -10.4 m/s 404.10 MHz Bolzano (IT) 0.00 km UNKNOWN
S2420164 RS41 2022-03-01 04:52:16 46.4512 10.8612 233 ° 65 km/h 4384 m -12.4 m/s 405.50 MHz Lana (IT) 0.00 km UNKNOWN
S2420168 RS41 2022-02-28 05:08:24 46.4842 10.5024 223 ° 56 km/h 3811 m -5.0 m/s 405.50 MHz Tirano (IT) 0.00 km UNKNOWN
S2420160 RS41 2022-02-27 04:45:14 46.5041 10.4742 231 ° 113 km/h 4743 m -3.4 m/s 404.10 MHz Tirano (IT) 0.00 km UNKNOWN
S2420167 RS41 2022-02-26 04:14:30 46.7222 11.4386 193 ° 80 km/h 4809 m -16.0 m/s 404.10 MHz Bressanone (IT) 0.00 km UNKNOWN
S2420098 RS41 2022-02-24 04:56:20 47.1622 12.6122 101 ° 30 km/h 4266 m -6.1 m/s 405.50 MHz Uttendorf (AT) 0.00 km UNKNOWN
S2420228 RS41 2022-02-23 05:00:56 46.3695 12.6059 136 ° 33 km/h 2388 m -8.6 m/s 405.50 MHz Maniago (IT) 0.00 km UNKNOWN
S2420165 RS41-SG 2022-02-22 04:52:18 45.8474 11.6939 160 ° 30 km/h 1349 m -11.4 m/s 405.50 MHz Bassano del Grappa (IT) 0.00 km UNKNOWN
S2420166 RS41 2022-02-21 05:02:41 47.4047 13.4268 84 ° 43 km/h 2455 m -2.8 m/s 405.50 MHz Eben im Pongau (AT) 0.00 km UNKNOWN
S2420099 RS41 2022-02-20 05:20:29 46.6873 13.1739 143 ° 57 km/h 2942 m -4.2 m/s 405.50 MHz Kirchbach (AT) 0.00 km UNKNOWN
S2420100 RS41 2022-02-19 05:17:30 47.6822 14.2335 92 ° 33 km/h 1635 m -3.8 m/s 405.50 MHz Spital am Pyhrn (AT) 0.00 km UNKNOWN
S2430609 RS41 2022-02-18 05:33:31 45.9433 13.7609 122 ° 6 km/h 514 m -2.2 m/s 404.10 MHz Volčja Draga (SI) 0.00 km FOUND
S2430610 RS41 2022-02-17 05:06:05 46.291 12.8096 292 ° 2 km/h 1115 m -8.0 m/s 405.50 MHz Maniago (IT) 0.00 km UNKNOWN
S2420097 RS41 2022-02-15 04:57:27 47.659 12.295 159 ° 15 km/h 1688 m -5.7 m/s 405.50 MHz Niederndorf (AT) 0.00 km UNKNOWN
S2430607 RS41 2022-02-14 04:58:43 47.1438 11.6868 287 ° 7 km/h 2904 m -4.7 m/s 405.50 MHz Mayrhofen (AT) 0.00 km UNKNOWN
S2420223 RS41 2022-02-13 04:37:34 47.2364 11.9776 9 ° 9 km/h 2669 m -11.9 m/s 405.50 MHz Mayrhofen (AT) 0.00 km UNKNOWN
S2430608 RS41 2022-02-12 05:05:02 46.8666 11.9635 242 ° 33 km/h 4019 m -3.3 m/s 405.50 MHz Brunico (IT) 0.00 km UNKNOWN
S2430110 RS41 2022-02-11 05:14:30 47.7022 13.9248 79 ° 17 km/h 1858 m -4.3 m/s 405.50 MHz Bad Aussee (AT) 0.00 km UNKNOWN
S2530311 RS41 2022-02-10 04:58:18 47.4417 12.7556 62 ° 24 km/h 2858 m -7.1 m/s 405.50 MHz Leogang (AT) 0.00 km UNKNOWN
S2430622 RS41 2022-02-09 04:04:24 46.8735 11.7732 146 ° 67 km/h 5269 m -10.8 m/s 404.10 MHz Brunico (IT) 0.00 km FOUND
S2430515 RS41 2022-02-07 05:21:17 46.2173 13.4041 259 ° 11 km/h 966 m -3.9 m/s 404.10 MHz Kobarid (SI) 0.00 km FOUND
S2420463 RS41-SG 2022-02-06 04:09:06 47.0168 12.1225 108 ° 81 km/h 4995 m -13.8 m/s 405.50 MHz Virgen (AT) 0.00 km UNKNOWN
S2430513 RS41 2022-02-05 05:04:08 47.0172 13.3839 102 ° 43 km/h 3165 m -4.6 m/s 404.10 MHz Obervellach (AT) 0.00 km UNKNOWN
S2430623 RS41 2022-02-04 05:16:46 46.5727 12.7666 101 ° 26 km/h 2503 m -3.8 m/s 404.10 MHz Tolmezzo (IT) 0.00 km FOUND
S2430514 RS41 2022-02-03 05:11:52 45.8482 12.7175 257 ° 19 km/h 91 m -3.6 m/s 405.50 MHz Azzano Decimo (IT) 0.00 km FOUND
S2530305 RS41-SG 2022-02-02 04:59:05 45.5106 12.7949 241 ° 31 km/h 108 m -13.4 m/s 405.50 MHz Eraclea (IT) 0.00 km LOST
S2420465 RS41-SG 2022-02-01 05:17:19 45.3865 11.9898 177 ° 17 km/h 80 m -5.9 m/s 404.10 MHz Legnaro (IT) 0.00 km FOUND
S2530274 RS41 2022-01-31 04:58:04 46.7852 13.5909 90 ° 39 km/h 2586 m -4.8 m/s 404.10 MHz Millstatt (AT) 0.00 km UNKNOWN
S2530310 RS41 2022-01-30 04:56:41 46.1643 12.7883 147 ° 6 km/h 428 m -6.9 m/s 404.10 MHz Maniago (IT) 0.00 km FOUND
S2530306 RS41-SG 2022-01-29 05:19:46 45.725 11.1748 220 ° 15 km/h 1606 m -4.1 m/s 404.10 MHz Valdagno (IT) 0.00 km UNKNOWN
S2420466 RS41 2022-01-28 05:31:06 46.3996 13.387 164 ° 15 km/h 1996 m -4.6 m/s 404.10 MHz Bovec (SI) 0.00 km UNKNOWN
S2530295 RS41 2022-01-27 04:00:22 46.892 11.2997 178 ° 69 km/h 4469 m -17.8 m/s 405.50 MHz Sölden (AT) 0.00 km UNKNOWN
S2530296 RS41 2022-01-26 04:36:30 46.6231 12.1245 145 ° 57 km/h 3207 m -6.7 m/s 404.10 MHz Brunico (IT) 0.00 km UNKNOWN
S2430621 RS41-SG 2022-01-25 05:09:16 46.5051 11.3233 188 ° 56 km/h 3185 m -5.5 m/s 405.50 MHz Bolzano (IT) 0.00 km UNKNOWN
S2430620 RS41 2022-01-24 05:07:04 46.4054 10.7795 226 ° 63 km/h 3620 m -3.5 m/s 405.50 MHz Lana (IT) 0.00 km UNKNOWN
S2430511 RS41-SG 2022-01-23 05:17:38 46.2976 11.5158 170 ° 61 km/h 2731 m -3.2 m/s 405.50 MHz Laives (IT) 0.00 km FOUND
S2420464 RS41 2022-01-22 04:57:07 46.0549 11.9156 95 ° 26 km/h 1566 m -7.2 m/s 404.10 MHz Feltre (IT) 0.00 km UNKNOWN
S2530308 RS41-SG 2022-01-21 04:23:10 46.3344 11.9648 155 ° 56 km/h 3078 m -8.6 m/s 404.10 MHz Sedico (IT) 0.00 km UNKNOWN
S2530272 RS41 2022-01-20 04:41:40 47.0616 12.5697 111 ° 33 km/h 4025 m -17.2 m/s 405.50 MHz Matrei in Osttirol (AT) 0.00 km UNKNOWN
S2530278 RS41 2022-01-19 05:21:10 46.8369 12.1353 143 ° 13 km/h 4107 m -7.9 m/s 405.50 MHz Brunico (IT) 0.00 km UNKNOWN
S2530282 RS41 2022-01-18 05:04:02 46.3305 11.9235 183 ° 31 km/h 2590 m -3.8 m/s 404.10 MHz Sedico (IT) 0.00 km UNKNOWN
S2530279 RS41 2022-01-17 04:22:18 46.6376 11.4969 168 ° 81 km/h 3832 m -9.6 m/s 404.10 MHz Bressanone (IT) 0.00 km UNKNOWN
S2420468 RS41 2022-01-16 05:01:04 47.1697 12.5927 80 ° 28 km/h 3726 m -10.1 m/s 405.50 MHz Uttendorf (AT) 0.00 km UNKNOWN
S2530230 RS41 2022-01-15 04:50:46 46.794 11.8138 174 ° 22 km/h 3865 m -3.4 m/s 405.50 MHz Brunico (IT) 0.00 km UNKNOWN
S2530312 RS41 2022-01-14 05:18:40 46.6637 11.1253 245 ° 30 km/h 4169 m -2.4 m/s 405.50 MHz Merano (IT) 0.00 km UNKNOWN
S2530301 RS41 2022-01-13 05:19:22 46.245 9.663 288 ° 13 km/h 3001 m -3.0 m/s 405.50 MHz Morbegno (IT) 0.00 km UNKNOWN
S2530304 RS41 2022-01-12 05:21:56 46.3601 10.6355 238 ° 80 km/h 4408 m -2.4 m/s 404.10 MHz Tirano (IT) 0.00 km UNKNOWN
S2530298 RS41 2022-01-11 04:57:52 46.6598 10.8404 254 ° 54 km/h 4128 m -5.1 m/s 405.50 MHz Merano (IT) 0.00 km UNKNOWN
S2530309 RS41 2022-01-10 04:52:14 46.935 11.8466 229 ° 26 km/h 3684 m -13.6 m/s 405.50 MHz Brunico (IT) 0.00 km UNKNOWN
S2530241 RS41 2022-01-09 04:04:31 47.3472 11.8984 33 ° 39 km/h 2289 m -16.2 m/s 405.50 MHz Fügen (AT) 0.00 km UNKNOWN
S2530299 RS41 2022-01-08 04:40:59 47.3267 12.2978 89 ° 19 km/h 2593 m -10.1 m/s 405.50 MHz Bramberg am Wildkogel (AT) 0.00 km UNKNOWN
S2420467 RS41 2022-01-07 04:45:50 46.9959 11.818 130 ° 15 km/h 4115 m -11.1 m/s 404.10 MHz Mayrhofen (AT) 0.00 km UNKNOWN
S2530281 RS41 2022-01-06 04:47:22 47.2115 12.3627 159 ° 31 km/h 3460 m -6.3 m/s 404.10 MHz Bramberg am Wildkogel (AT) 0.00 km UNKNOWN
S2530273 RS41 2022-01-05 05:02:09 47.9945 13.9601 88 ° 33 km/h 556 m -5.9 m/s 404.10 MHz Vorchdorf (AT) 0.00 km FOUND
S2530289 RS41 2022-01-04 05:00:05 46.8408 13.703 70 ° 54 km/h 2583 m -6.1 m/s 405.50 MHz Radenthein (AT) 0.00 km UNKNOWN
S2530243 RS41 2022-01-03 04:06:56 47.0915 12.813 105 ° 124 km/h 4447 m -12.0 m/s 405.50 MHz Bruck an der Großglocknerstraße (AT) 0.00 km UNKNOWN
S2530584 RS41-SG 2022-01-02 05:00:34 47.0296 12.5529 65 ° 26 km/h 3955 m -3.7 m/s 405.50 MHz Matrei in Osttirol (AT) 0.00 km UNKNOWN
S2430111 RS41 2022-01-01 04:53:21 46.5105 12.3517 129 ° 48 km/h 2900 m -11.0 m/s 405.50 MHz Belluno (IT) 0.00 km UNKNOWN
S2430132 RS41 2021-12-31 04:55:54 46.6473 12.5416 139 ° 43 km/h 3340 m -6.5 m/s 405.50 MHz Lienz (AT) 0.00 km UNKNOWN
S2430092 RS41 2021-12-30 04:52:21 46.0776 12.2966 44 ° 6 km/h 1706 m -8.2 m/s 404.10 MHz Belluno (IT) 0.00 km UNKNOWN
S2430611 RS41 2021-12-29 05:18:11 45.7733 12.8982 133 ° 6 km/h 67 m -2.4 m/s 405.50 MHz Concordia Sagittaria (IT) 0.00 km UNKNOWN
S2430131 RS41 2021-12-28 04:53:48 46.9412 12.6275 72 ° 35 km/h 3982 m -7.2 m/s 404.10 MHz Matrei in Osttirol (AT) 0.00 km UNKNOWN
S2430007 RS41 2021-12-27 05:21:50 46.6327 12.9665 272 ° 17 km/h 2232 m -3.5 m/s 405.50 MHz Kirchbach (AT) 0.00 km UNKNOWN
S2430096 RS41 2021-12-26 04:43:58 47.094 12.599 120 ° 35 km/h 4030 m -10.8 m/s 404.10 MHz Matrei in Osttirol (AT) 0.00 km UNKNOWN
S2430112 RS41 2021-12-25 05:11:41 47.3004 13.8338 123 ° 44 km/h 2636 m -2.8 m/s 404.10 MHz Schladming (AT) 0.00 km UNKNOWN
S2430113 RS41 2021-12-23 04:54:20 46.4914 12.4878 122 ° 35 km/h 2948 m -7.0 m/s 405.50 MHz Maniago (IT) 0.00 km UNKNOWN
S2530601 RS41 2021-12-22 04:35:02 46.6082 11.9556 151 ° 26 km/h 3432 m -4.2 m/s 405.50 MHz Brunico (IT) 0.00 km UNKNOWN
S2421186 RS41 2021-12-21 04:55:53 46.5311 12.5439 134 ° 22 km/h 2768 m -11.3 m/s 405.50 MHz Lienz (AT) 0.00 km UNKNOWN
S2421188 RS41 2021-12-20 04:07:34 46.7088 11.8624 158 ° 91 km/h 4189 m -7.3 m/s 405.50 MHz Brunico (IT) 0.00 km UNKNOWN
S2530595 RS41 2021-12-19 04:43:00 46.7074 11.3179 196 ° 46 km/h 3932 m -6.1 m/s 405.50 MHz Merano (IT) 0.00 km UNKNOWN
S2421183 RS41 2021-12-18 05:10:24 46.5092 10.6118 215 ° 72 km/h 3775 m -5.2 m/s 404.10 MHz Lana (IT) 0.00 km UNKNOWN
S2530600 RS41 2021-12-17 04:47:54 46.7254 10.7574 227 ° 50 km/h 4625 m -12.7 m/s 404.10 MHz Pfunds (AT) 0.00 km UNKNOWN
S2430130 RS41 2021-12-16 05:17:34 46.4837 11.3957 185 ° 43 km/h 3237 m -3.4 m/s 405.50 MHz Bolzano (IT) 0.00 km UNKNOWN
S2430612 RS41 2021-12-15 04:49:54 46.5273 10.9487 219 ° 74 km/h 5356 m -9.3 m/s 404.10 MHz Lana (IT) 0.00 km UNKNOWN
S2430128 RS41 2021-12-14 04:49:26 46.6126 11.865 187 ° 74 km/h 4072 m -10.2 m/s 405.50 MHz Bressanone (IT) 0.00 km UNKNOWN
S2430129 RS41 2021-12-13 04:39:54 46.8588 11.6966 175 ° 67 km/h 5101 m -8.7 m/s 405.50 MHz Bressanone (IT) 0.00 km FOUND
S2430114 RS41 2021-12-12 05:02:05 46.1393 11.1539 192 ° 26 km/h 889 m -5.3 m/s 405.50 MHz Lavis (IT) 0.00 km FOUND
S2430093 RS41 2021-12-11 05:03:38 46.9934 11.5639 154 ° 67 km/h 3591 m -5.2 m/s 405.50 MHz Steinach am Brenner (AT) 0.00 km UNKNOWN
S2530598 RS41 2021-12-10 04:41:22 46.7936 11.9415 75 ° 33 km/h 3925 m -5.0 m/s 404.10 MHz Brunico (IT) 0.00 km FOUND
S2530606 RS41 2021-12-09 04:52:21 47.7954 11.48 85 ° 13 km/h 756 m -2.9 m/s 405.50 MHz Geretsried (DE) 0.00 km FOUND
S2421187 RS41 2021-12-08 05:09:14 47.4767 12.8015 157 ° 11 km/h 2417 m -3.2 m/s 405.50 MHz Saalfelden am Steinernen Meer (AT) 0.00 km UNKNOWN
S2530599 RS41 2021-12-07 04:50:28 46.7892 12.2929 146 ° 70 km/h 3434 m -5.6 m/s 405.50 MHz Virgen (AT) 0.00 km UNKNOWN
S2530526 RS41 2021-12-06 04:41:32 47.0665 11.5708 205 ° 26 km/h 2556 m -9.1 m/s 405.50 MHz Steinach am Brenner (AT) 0.00 km UNKNOWN
S2530517 RS41 2021-12-05 04:48:54 47.8327 12.4433 96 ° 46 km/h 1035 m -10.5 m/s 405.50 MHz Traunreut (DE) 0.00 km FOUND
S2530518 RS41 2021-12-04 04:41:24 46.7377 12.8859 75 ° 17 km/h 2241 m -11.8 m/s 404.10 MHz Dölsach (AT) 0.00 km UNKNOWN
S2530597 RS41 2021-12-03 05:05:12 46.69 12.3996 118 ° 20 km/h 3296 m -4.4 m/s 405.50 MHz Lienz (AT) 0.00 km UNKNOWN
S2530527 RS41 2021-12-02 05:12:18 47.7593 13.2735 95 ° 31 km/h 1284 m -5.2 m/s 405.50 MHz Faistenau (AT) 0.00 km UNKNOWN
S2530604 RS41 2021-12-01 05:01:46 46.7721 12.684 96 ° 22 km/h 1804 m -5.0 m/s 405.50 MHz Lienz (AT) 0.00 km UNKNOWN
SC500B52 SRSC50 2021-11-30 13:44:50 46.486 12.3093 160 ° 130 km/h 9069 m -4.8 m/s 400.601 MHz Belluno (IT) 0.00 km UNKNOWN
S2530605 RS41 2021-11-30 04:58:52 46.1754 12.0127 164 ° 37 km/h 2726 m -5.6 m/s 405.50 MHz Sedico (IT) 0.00 km UNKNOWN
S2421184 RS41 2021-11-29 04:36:46 47.2537 11.8602 152 ° 26 km/h 2529 m -7.4 m/s 405.50 MHz Mayrhofen (AT) 0.00 km UNKNOWN
S2420933 RS41 2021-11-28 04:46:56 47.8662 12.243 133 ° 19 km/h 1061 m -5.3 m/s 405.50 MHz Rosenheim (DE) 0.00 km FOUND
S2530603 RS41 2021-11-27 05:28:41 47.9044 13.2291 47 ° 7 km/h 945 m -3.4 m/s 405.50 MHz Neumarkt am Wallersee (AT) 0.00 km FOUND
S2421088 RS41 2021-11-26 04:47:08 47.6953 12.1693 169 ° 7 km/h 858 m -9.0 m/s 404.10 MHz Niederndorf (AT) 0.00 km UNKNOWN
S2421185 RS41 2021-11-25 04:35:56 47.4214 12.0674 46 ° 11 km/h 1761 m -5.8 m/s 404.10 MHz Wörgl (AT) 0.00 km FOUND
S2421099 RS41 2021-11-24 04:48:48 47.2775 11.2201 109 ° 2 km/h 646 m -11.0 m/s 404.10 MHz Inzing (AT) 0.00 km UNKNOWN
S2421100 RS41 2021-11-23 04:46:00 47.054 11.6784 243 ° 19 km/h 3277 m -5.8 m/s 404.10 MHz Steinach am Brenner (AT) 0.00 km UNKNOWN
R2510336 RS41 2021-11-22 05:20:05 47.5693 12.1503 203 ° 9 km/h 1167 m -3.1 m/s 404.10 MHz Kufstein (AT) 0.00 km UNKNOWN
R2450056 RS41 2021-11-21 04:47:23 47.4608 12.1569 92 ° 15 km/h 1861 m -5.2 m/s 404.10 MHz Hopfgarten im Brixental (AT) 0.00 km FOUND
R2450843 RS41 2021-11-20 04:59:20 46.9573 11.5133 187 ° 20 km/h 3817 m -6.3 m/s 405.50 MHz Steinach am Brenner (AT) 0.00 km UNKNOWN
R2450439 RS41 2021-11-19 04:51:58 46.6394 11.1336 184 ° 31 km/h 3441 m -10.9 m/s 404.10 MHz Lana (IT) 0.00 km FOUND
R2450845 RS41 2021-11-18 04:54:14 46.7588 11.3418 125 ° 26 km/h 3922 m -2.9 m/s 404.10 MHz Merano (IT) 0.00 km FOUND
R2510332 RS41 2021-11-17 04:52:25 47.4416 11.4909 73 ° 7 km/h 2617 m -7.5 m/s 404.10 MHz Thaur (AT) 0.00 km UNKNOWN
R2450444 RS41 2021-11-16 05:10:28 47.5727 11.4292 1 ° 7 km/h 2366 m -5.1 m/s 405.50 MHz Achenkirch (AT) 0.00 km UNKNOWN
R2450493 RS41 2021-11-15 05:04:32 47.5683 11.1713 338 ° 41 km/h 1586 m -4.2 m/s 404.10 MHz Garmisch-Partenkirchen (DE) 0.00 km UNKNOWN
R2510335 RS41 2021-11-14 05:41:22 47.5666 11.2698 219 ° 11 km/h 1804 m -2.6 m/s 405.50 MHz Garmisch-Partenkirchen (DE) 0.00 km UNKNOWN
R2450496 RS41 2021-11-13 05:14:57 47.3375 11.5005 232 ° 2 km/h 1948 m -4.3 m/s 404.10 MHz Thaur (AT) 0.00 km UNKNOWN
R2450840 RS41 2021-11-12 04:58:15 47.5153 11.4188 12 ° 20 km/h 2415 m -7.9 m/s 404.10 MHz Achenkirch (AT) 0.00 km UNKNOWN
R2450854 RS41 2021-11-11 05:02:00 47.5652 11.5367 13 ° 6 km/h 1547 m -6.7 m/s 404.10 MHz Achenkirch (AT) 0.00 km UNKNOWN
R2450841 RS41 2021-11-10 05:04:28 47.7768 11.3959 238 ° 9 km/h 816 m -4.9 m/s 404.10 MHz Geretsried (DE) 0.00 km UNKNOWN
R2510333 RS41 2021-11-09 05:08:12 47.009 10.7326 249 ° 52 km/h 3592 m -9.0 m/s 404.10 MHz Pfunds (AT) 0.00 km UNKNOWN
R2450057 RS41 2021-11-08 04:44:57 47.4004 12.6329 108 ° 17 km/h 2018 m -7.1 m/s 404.10 MHz Leogang (AT) 0.00 km UNKNOWN
R2450440 RS41 2021-11-06 05:28:09 47.3782 11.6318 244 ° 7 km/h 1621 m -2.9 m/s 404.10 MHz Vomp (AT) 0.00 km UNKNOWN
R2450495 RS41 2021-11-05 04:19:05 47.6852 12.0995 71 ° 4 km/h 1283 m -6.1 m/s 404.10 MHz Niederndorf (AT) 0.00 km UNKNOWN
R2440695 RS41 2021-11-04 05:25:15 48.4718 12.1296 109 ° 46 km/h 894 m -4.4 m/s 405.50 MHz Landshut (DE) 0.00 km UNKNOWN
R2450442 RS41 2021-11-03 05:19:25 47.8092 13.0283 326 ° 28 km/h 1087 m -2.8 m/s 404.10 MHz Salzburg (AT) 0.00 km FOUND
R2450203 RS41 2021-11-02 04:51:31 47.6558 12.0522 70 ° 7 km/h 1605 m -5.4 m/s 405.50 MHz Kufstein (AT) 0.00 km UNKNOWN
R2450202 RS41 2021-11-01 04:41:47 47.4826 11.9748 48 ° 41 km/h 1340 m -2.2 m/s 404.10 MHz Breitenbach am Inn (AT) 0.00 km UNKNOWN
R2450200 RS41 2021-10-30 04:17:00 48.1476 12.087 288 ° 19 km/h 723 m -4.0 m/s 404.10 MHz Erding (DE) 0.00 km LOST
R2450331 RS41 2021-10-29 03:53:33 47.7712 11.5776 351 ° 22 km/h 1014 m -6.0 m/s 404.10 MHz Geretsried (DE) 0.00 km NEED ATTENTION
R2450829 RS41 2021-10-28 04:33:19 47.7414 10.7347 77 ° 31 km/h 1166 m -2.5 m/s 404.10 MHz Kaufbeuren (DE) 0.00 km FOUND
R2450181 RS41 2021-10-27 03:55:10 46.8281 10.9771 229 ° 69 km/h 5193 m -8.8 m/s 404.10 MHz Sölden (AT) 0.00 km UNKNOWN
R2450101 RS41 2021-10-26 04:22:02 47.7037 12.4917 92 ° 24 km/h 1619 m -3.8 m/s 404.10 MHz Kössen (AT) 0.00 km UNKNOWN
R2450201 RS41 2021-10-25 03:57:23 47.6415 11.8237 164 ° 6 km/h 1546 m -7.3 m/s 404.10 MHz Achenkirch (AT) 0.00 km UNKNOWN
R2450199 RS41 2021-10-24 03:22:16 47.0259 11.4007 183 ° 19 km/h 5137 m -17.4 m/s 404.10 MHz Steinach am Brenner (AT) 0.00 km FOUND
R2450443 RS41 2021-10-23 04:01:00 47.1214 12.7212 113 ° 50 km/h 4188 m -10.1 m/s 404.10 MHz Piesendorf (AT) 0.00 km UNKNOWN
R2510334 RS41 2021-10-22 03:52:54 47.484 12.7745 77 ° 81 km/h 22797 m 0.1 m/s 404.10 MHz Leogang (AT) 0.00 km UNKNOWN
R2450186 RS41 2021-10-21 04:24:39 47.8619 13.5714 29 ° 26 km/h 1052 m -4.9 m/s 405.50 MHz Sankt Georgen im Attergau (AT) 0.00 km UNKNOWN
R2450185 RS41 2021-10-20 04:02:54 46.9996 12.31 71 ° 20 km/h 4704 m -9.9 m/s 404.10 MHz Virgen (AT) 0.00 km UNKNOWN
R2450184 RS41 2021-10-19 04:19:04 46.2144 11.8337 149 ° 17 km/h 2338 m -3.2 m/s 404.10 MHz Feltre (IT) 0.00 km UNKNOWN
R2450183 RS41 2021-10-18 04:10:44 46.826 12.3066 141 ° 37 km/h 3524 m -4.8 m/s 405.50 MHz Virgen (AT) 0.00 km UNKNOWN
R2450100 RS41 2021-10-17 04:02:36 46.8652 11.4419 183 ° 19 km/h 4102 m -4.9 m/s 404.10 MHz Bressanone (IT) 0.00 km UNKNOWN
R2450194 RS41 2021-10-16 03:56:19 47.0792 11.6103 209 ° 11 km/h 2730 m -6.6 m/s 404.10 MHz Steinach am Brenner (AT) 0.00 km UNKNOWN
R2450196 RS41 2021-10-15 04:11:44 46.7293 11.7559 173 ° 26 km/h 4408 m -8.3 m/s 404.10 MHz Bressanone (IT) 0.00 km UNKNOWN
R2450195 RS41 2021-10-13 04:20:45 46.2892 11.933 155 ° 44 km/h 2763 m -4.1 m/s 405.50 MHz Sedico (IT) 0.00 km UNKNOWN
R2450197 RS41 2021-10-12 04:04:45 46.523 12.4167 120 ° 24 km/h 2404 m -7.5 m/s 404.10 MHz Lienz (AT) 0.00 km UNKNOWN
R2450198 RS41 2021-10-11 03:57:02 46.7024 11.2948 237 ° 26 km/h 3949 m -6.1 m/s 404.10 MHz Merano (IT) 0.00 km UNKNOWN
R5130763 RS41 2021-10-10 03:44:26 46.4645 10.8899 225 ° 61 km/h 3721 m -12.2 m/s 404.10 MHz Lana (IT) 0.00 km UNKNOWN
R5130721 RS41 2021-10-09 03:52:00 46.7813 10.9081 209 ° 57 km/h 6178 m -10.2 m/s 405.50 MHz Sölden (AT) 0.00 km UNKNOWN
R5140171 RS41 2021-10-08 03:56:24 46.8809 10.8219 246 ° 61 km/h 5637 m -8.6 m/s 405.50 MHz Sölden (AT) 0.00 km UNKNOWN
R5130767 RS41 2021-10-07 03:44:35 47.0957 11.1995 192 ° 20 km/h 2846 m -5.3 m/s 405.50 MHz Neustift im Stubaital (AT) 0.00 km UNKNOWN
R5130723 RS41 2021-10-05 04:11:13 48.1665 11.7984 121 ° 9 km/h 595 m -7.6 m/s 405.50 MHz Vaterstetten (DE) 0.00 km FOUND
R5140582 RS41 2021-10-04 04:29:00 47.8356 12.0559 271 ° 11 km/h 1090 m -6.7 m/s 404.10 MHz Rosenheim (DE) 0.00 km UNKNOWN
R5130722 RS41 2021-10-03 04:02:47 47.2671 12.0676 25 ° 43 km/h 2678 m -6.6 m/s 404.10 MHz Neukirchen am Großvenediger (AT) 0.00 km UNKNOWN
R5130779 RS41 2021-10-02 04:14:34 47.5341 12.2287 152 ° 30 km/h 2256 m -5.4 m/s 405.50 MHz Söll (AT) 0.00 km LOST
P4930251 RS41 2021-10-01 09:15:38 47.1115 11.9162 69 ° 11 km/h 3902 m -5.0 m/s 404.10 MHz Mayrhofen (AT) 0.00 km UNKNOWN
R5130768 RS41 2021-09-28 04:22:10 46.964 12.4235 165 ° 35 km/h 4220 m -5.0 m/s 404.10 MHz Virgen (AT) 0.00 km UNKNOWN
R5130724 RS41 2021-09-27 04:11:46 47.3332 11.9832 83 ° 11 km/h 2366 m -7.6 m/s 405.50 MHz Alpbach (AT) 0.00 km UNKNOWN
R5130700 RS41 2021-09-26 04:04:47 47.462 12.0049 228 ° 11 km/h 1920 m -9.4 m/s 405.50 MHz Kundl (AT) 0.00 km UNKNOWN
R5130780 RS41 2021-09-25 04:20:55 47.28 11.9679 64 ° 15 km/h 2572 m -5.6 m/s 405.50 MHz Fügen (AT) 0.00 km UNKNOWN
R5130699 RS41 2021-09-24 04:10:32 46.7012 12.0132 117 ° 39 km/h 3839 m -4.7 m/s 404.10 MHz Brunico (IT) 0.00 km UNKNOWN
R5130764 RS41 2021-09-23 04:03:08 46.6431 11.7191 150 ° 24 km/h 3543 m -3.5 m/s 405.50 MHz Bressanone (IT) 0.00 km FOUND
R5130702 RS41 2021-09-22 03:58:30 46.6072 11.4325 177 ° 48 km/h 4132 m -8.8 m/s 405.50 MHz Bolzano (IT) 0.00 km UNKNOWN
R5130697 RS41 2021-09-21 04:04:54 46.9494 11.3092 125 ° 13 km/h 4282 m -9.2 m/s 405.50 MHz Neustift im Stubaital (AT) 0.00 km UNKNOWN
R5130727 RS41 2021-09-20 04:24:13 47.1115 11.684 182 ° 20 km/h 2864 m -2.9 m/s 405.50 MHz Mayrhofen (AT) 0.00 km UNKNOWN
R5130765 RS41 2021-09-19 04:27:46 47.1841 12.0283 89 ° 11 km/h 3231 m -3.7 m/s 405.50 MHz Mayrhofen (AT) 0.00 km UNKNOWN
R5130701 RS41 2021-09-18 04:13:16 46.9205 12.0844 131 ° 50 km/h 4470 m -10.8 m/s 405.50 MHz Brunico (IT) 0.00 km UNKNOWN
R5130698 RS41 2021-09-17 04:11:54 47.2425 12.1219 165 ° 19 km/h 2899 m -3.8 m/s 405.50 MHz Neukirchen am Großvenediger (AT) 0.00 km UNKNOWN
R5140237 RS41 2021-09-16 04:15:22 47.3436 12.5676 95 ° 28 km/h 2930 m -4.8 m/s 405.50 MHz Uttendorf (AT) 0.00 km UNKNOWN
R5140579 RS41 2021-09-15 04:08:20 47.1075 12.1954 65 ° 26 km/h 4147 m -5.6 m/s 405.50 MHz Neukirchen am Großvenediger (AT) 0.00 km UNKNOWN
R5140581 RS41 2021-09-14 04:16:34 47.0795 12.0541 106 ° 22 km/h 3753 m -4.9 m/s 405.50 MHz Mayrhofen (AT) 0.00 km UNKNOWN
R5140240 RS41 2021-09-13 03:29:44 47.1593 11.7752 139 ° 17 km/h 4428 m -10.5 m/s 405.50 MHz Mayrhofen (AT) 0.00 km UNKNOWN
R5140580 RS41 2021-09-12 03:54:52 46.8546 11.5426 218 ° 11 km/h 4941 m -9.7 m/s 405.50 MHz Bressanone (IT) 0.00 km FOUND
R5140238 RS41 2021-09-11 04:09:47 47.2095 11.803 53 ° 9 km/h 2959 m -6.6 m/s 405.50 MHz Mayrhofen (AT) 0.00 km FOUND
R5140236 RS41 2021-09-10 04:34:17 47.4193 11.577 56 ° 13 km/h 2182 m -3.2 m/s 405.50 MHz Terfens (AT) 0.00 km FOUND
R5140239 RS41 2021-09-09 04:05:44 47.2143 11.0414 121 ° 2 km/h 2521 m -11.0 m/s 404.10 MHz Rietz (AT) 0.00 km UNKNOWN
R5140578 RS41 2021-09-08 04:20:56 46.5977 10.406 215 ° 30 km/h 4561 m -4.1 m/s 405.50 MHz Pfunds (AT) 0.00 km UNKNOWN
R5140229 RS41 2021-09-07 03:55:00 46.8579 11.4905 146 ° 11 km/h 5030 m -10.3 m/s 405.50 MHz Bressanone (IT) 0.00 km FOUND
R5140577 RS41 2021-09-06 04:01:28 46.9061 11.6679 142 ° 28 km/h 3765 m -8.4 m/s 405.50 MHz Bressanone (IT) 0.00 km UNKNOWN
R5140235 RS41 2021-09-04 04:06:38 47.2168 11.6267 153 ° 2 km/h 2408 m -4.7 m/s 405.50 MHz Wattens (AT) 0.00 km UNKNOWN
R5140587 RS41 2021-09-02 03:56:38 47.0665 11.5551 10 ° 6 km/h 2613 m -9.1 m/s 405.50 MHz Steinach am Brenner (AT) 0.00 km UNKNOWN
R5140584 RS41 2021-09-01 04:25:22 46.9623 11.4155 187 ° 24 km/h 3573 m -6.6 m/s 405.50 MHz Steinach am Brenner (AT) 0.00 km UNKNOWN
R5140583 RS41 2021-08-30 04:12:44 46.881 11.9343 141 ° 43 km/h 4277 m -7.0 m/s 405.50 MHz Brunico (IT) 0.00 km FOUND
S0220092 RS41 2021-08-29 04:03:08 46.7436 11.6089 190 ° 33 km/h 4180 m -7.7 m/s 405.50 MHz Bressanone (IT) 0.00 km FOUND
R5140174 RS41 2021-08-28 04:16:28 47.2057 12.5051 126 ° 26 km/h 3409 m -2.7 m/s 405.50 MHz Mittersill (AT) 0.00 km UNKNOWN
R5140586 RS41 2021-08-27 03:57:27 46.6974 12.7622 127 ° 6 km/h 1495 m -12.4 m/s 405.50 MHz Lienz (AT) 0.00 km FOUND
R5140173 RS41 2021-08-26 03:59:34 46.8981 11.6728 137 ° 22 km/h 4246 m -10.3 m/s 405.50 MHz Bressanone (IT) 0.00 km FOUND
R5110682 RS41 2021-08-25 04:05:49 47.1158 11.3021 128 ° 7 km/h 2806 m -7.5 m/s 405.50 MHz Neustift im Stubaital (AT) 0.00 km UNKNOWN
R5130615 RS41 2021-08-24 04:28:06 47.1256 11.8397 158 ° 19 km/h 3488 m -7.4 m/s 405.50 MHz Mayrhofen (AT) 0.00 km UNKNOWN
S0220134 RS41 2021-08-23 04:07:00 47.4497 12.8827 124 ° 43 km/h 2631 m -3.4 m/s 405.50 MHz Saalfelden am Steinernen Meer (AT) 0.00 km UNKNOWN
S0220160 RS41 2021-08-22 03:47:20 47.2054 12.3419 113 ° 20 km/h 3601 m -3.0 m/s 405.50 MHz Bramberg am Wildkogel (AT) 0.00 km UNKNOWN
S0220157 RS41 2021-08-21 04:35:46 46.9415 12.3772 133 ° 31 km/h 4238 m -4.3 m/s 405.50 MHz Virgen (AT) 0.00 km UNKNOWN
R5130619 RS41 2021-08-19 04:05:16 47.1538 12.2155 101 ° 26 km/h 3487 m -5.7 m/s 405.50 MHz Neukirchen am Großvenediger (AT) 0.00 km UNKNOWN
R5130469 RS41 2021-08-18 04:05:17 46.7081 12.6366 257 ° 9 km/h 1898 m -2.9 m/s 405.50 MHz Lienz (AT) 0.00 km UNKNOWN
R5130622 RS41 2021-08-17 04:07:30 47.4093 12.9166 109 ° 48 km/h 2897 m -10.1 m/s 405.50 MHz Saalfelden am Steinernen Meer (AT) 0.00 km UNKNOWN
R5130117 RS41 2021-08-16 13:51:51 47.8005 12.7013 183 ° 24 km/h 1138 m -3.7 m/s 405.50 MHz Grossgmain (AT) 0.00 km FOUND
R5110837 RS41 2021-08-15 04:25:04 47.1626 12.314 103 ° 30 km/h 3469 m -4.9 m/s 405.50 MHz Neukirchen am Großvenediger (AT) 0.00 km UNKNOWN
R5121200 RS41 2021-08-14 04:08:32 46.9806 12.0625 91 ° 31 km/h 3955 m -7.4 m/s 405.50 MHz Brunico (IT) 0.00 km UNKNOWN
R5121186 RS41 2021-08-13 04:24:48 47.2464 12.3727 164 ° 17 km/h 3135 m -3.5 m/s 405.50 MHz Bramberg am Wildkogel (AT) 0.00 km UNKNOWN
R5121236 RS41 2021-08-12 04:20:12 46.9814 12.2723 116 ° 46 km/h 4329 m -4.7 m/s 405.50 MHz Virgen (AT) 0.00 km UNKNOWN
R5121188 RS41 2021-08-11 04:25:32 47.0577 12.9602 104 ° 54 km/h 4416 m -4.1 m/s 405.50 MHz Badgastein (AT) 0.00 km UNKNOWN
R5121192 RS41 2021-08-10 04:06:20 47.3521 12.791 80 ° 24 km/h 3189 m -10.9 m/s 405.50 MHz Maishofen (AT) 0.00 km UNKNOWN
R5121193 RS41 2021-08-09 04:39:24 47.6397 13.1463 337 ° 4 km/h 1746 m -3.2 m/s 405.50 MHz Kuchl (AT) 0.00 km UNKNOWN
R5121191 RS41 2021-08-08 04:37:39 48.2125 13.3621 43 ° 41 km/h 544 m -3.0 m/s 405.50 MHz Mettmach (AT) 0.00 km FOUND
R5121190 RS41 2021-08-07 03:45:12 47.3204 13.1646 59 ° 15 km/h 2803 m -8.3 m/s 404.10 MHz Schwarzach im Pongau (AT) 0.00 km UNKNOWN
R5121202 RS41 2021-08-05 04:19:04 47.4346 11.9759 293 ° 9 km/h 1573 m -5.2 m/s 405.50 MHz Kundl (AT) 0.00 km UNKNOWN
R5121201 RS41 2021-08-04 04:04:51 47.5065 12.7958 10 ° 7 km/h 2357 m -6.4 m/s 405.50 MHz Saalfelden am Steinernen Meer (AT) 0.00 km UNKNOWN
S0220159 RS41 2021-08-03 04:15:56 47.4491 12.2667 289 ° 4 km/h 1710 m -6.5 m/s 405.50 MHz Brixen im Thale (AT) 0.00 km FOUND
R5130620 RS41 2021-08-02 04:26:16 47.6621 12.3998 320 ° 4 km/h 1175 m -6.1 m/s 404.10 MHz Kössen (AT) 0.00 km FOUND
R5130623 RS41 2021-08-01 04:23:43 48.0981 12.3185 151 ° 17 km/h 631 m -4.1 m/s 404.10 MHz Waldkraiburg (DE) 0.00 km FOUND
S0220161 RS41 2021-07-31 04:53:24 47.7703 12.8023 65 ° 19 km/h 1185 m -3.2 m/s 405.50 MHz Grossgmain (AT) 0.00 km FOUND
R5130621 RS41 2021-07-30 04:11:21 47.4526 12.7959 81 ° 31 km/h 2500 m -3.0 m/s 405.50 MHz Saalfelden am Steinernen Meer (AT) 0.00 km FOUND
R5130624 RS41 2021-07-29 04:30:51 47.4274 12.5226 20 ° 9 km/h 1789 m -3.4 m/s 405.50 MHz Fieberbrunn (AT) 0.00 km UNKNOWN
R5130786 RS41 2021-07-28 04:02:59 47.6966 12.1051 254 ° 13 km/h 1347 m -8.7 m/s 405.50 MHz Niederndorf (AT) 0.00 km UNKNOWN
R5110791 RS41 2021-07-27 04:25:06 47.7647 12.1287 172 ° 4 km/h 1192 m -3.6 m/s 405.50 MHz Rosenheim (DE) 0.00 km UNKNOWN
S0220158 RS41 2021-07-26 04:04:59 47.7618 12.0872 351 ° 6 km/h 1679 m -6.0 m/s 405.50 MHz Rosenheim (DE) 0.00 km UNKNOWN
R5110694 RS41 2021-07-25 04:03:10 47.6109 12.0837 247 ° 6 km/h 1513 m -5.8 m/s 405.50 MHz Kufstein (AT) 0.00 km UNKNOWN
R5121197 RS41 2021-07-24 04:33:20 47.0969 12.2685 119 ° 57 km/h 3921 m -3.2 m/s 405.50 MHz Neukirchen am Großvenediger (AT) 0.00 km UNKNOWN
R5121187 RS41 2021-07-23 04:16:56 46.9189 12.3263 110 ° 41 km/h 4227 m -5.4 m/s 405.50 MHz Virgen (AT) 0.00 km UNKNOWN
R5121198 RS41 2021-07-22 04:06:55 47.2138 11.7181 92 ° 19 km/h 2850 m -5.2 m/s 405.50 MHz Mayrhofen (AT) 0.00 km UNKNOWN
R5121185 RS41 2021-07-20 04:29:46 47.0302 12.6151 114 ° 52 km/h 4118 m -2.2 m/s 404.10 MHz Matrei in Osttirol (AT) 0.00 km UNKNOWN
R5121199 RS41 2021-07-19 04:14:36 46.9858 11.4332 209 ° 43 km/h 3782 m -4.9 m/s 405.50 MHz Steinach am Brenner (AT) 0.00 km UNKNOWN
R5121196 RS41 2021-07-18 03:55:26 46.8269 11.0848 195 ° 63 km/h 4295 m -2.7 m/s 405.50 MHz Sölden (AT) 0.00 km UNKNOWN
R5121194 RS41 2021-07-17 02:57:21 47.2275 11.0786 225 ° 33 km/h 2878 m -17.3 m/s 405.50 MHz Rietz (AT) 0.00 km UNKNOWN
R5121184 RS41 2021-07-16 04:15:24 47.3532 11.2954 15 ° 4 km/h 2152 m -9.6 m/s 405.50 MHz Seefeld in Tirol (AT) 0.00 km UNKNOWN
R5121204 RS41 2021-07-15 04:22:22 47.3412 11.7062 213 ° 2 km/h 604 m -4.6 m/s 405.50 MHz Schwaz (AT) 0.00 km LOST
R5121203 RS41 2021-07-14 04:07:19 47.7813 10.8594 106 ° 15 km/h 1210 m -7.1 m/s 405.50 MHz Kaufbeuren (DE) 0.00 km LOST
S0220136 RS41 2021-07-13 04:24:00 47.9988 11.766 68 ° 13 km/h 795 m -3.2 m/s 405.50 MHz Vaterstetten (DE) 0.00 km FOUND
R5140377 RS41 2021-07-12 04:20:26 47.0907 12.3501 126 ° 70 km/h 4103 m -6.9 m/s 405.50 MHz Virgen (AT) 0.00 km UNKNOWN
R5140230 RS41 2021-07-11 06:25:37 47.3623 12.0387 103 ° 28 km/h 2179 m -5.9 m/s 405.50 MHz Alpbach (AT) 0.00 km UNKNOWN
S0220146 RS41 2021-07-10 04:12:08 47.1629 12.3136 82 ° 39 km/h 3730 m -5.1 m/s 405.50 MHz Neukirchen am Großvenediger (AT) 0.00 km UNKNOWN
R5140378 RS41 2021-07-09 04:05:56 47.7047 11.5876 82 ° 52 km/h 1410 m -5.4 m/s 405.50 MHz Geretsried (DE) 0.00 km FOUND
R5140367 RS41 2021-07-08 05:00:15 48.3872 12.1047 228 ° 20 km/h 640 m -3.4 m/s 405.50 MHz Erding (DE) 0.00 km NEED ATTENTION
R5140368 RS41 2021-07-07 04:27:47 48.1038 12.4797 129 ° 9 km/h 800 m -4.0 m/s 405.50 MHz Waldkraiburg (DE) 0.00 km UNKNOWN
R5140231 RS41 2021-07-06 04:41:16 47.5087 12.4307 165 ° 6 km/h 865 m -5.9 m/s 405.50 MHz Sankt Johann in Tirol (AT) 0.00 km UNKNOWN
R5140232 RS41 2021-07-05 04:15:35 46.724 12.4767 161 ° 20 km/h 2495 m -5.1 m/s 405.50 MHz Lienz (AT) 0.00 km UNKNOWN
R5140298 RS41 2021-07-04 04:10:23 47.2856 12.0988 64 ° 22 km/h 2982 m -4.7 m/s 405.50 MHz Neukirchen am Großvenediger (AT) 0.00 km UNKNOWN
R5140370 RS41 2021-07-03 04:16:20 46.7941 12.0898 123 ° 24 km/h 3922 m -6.8 m/s 405.50 MHz Brunico (IT) 0.00 km UNKNOWN
R5140373 RS41 2021-07-02 04:26:24 47.1553 12.0159 122 ° 37 km/h 3768 m -4.7 m/s 405.50 MHz Mayrhofen (AT) 0.00 km UNKNOWN
S0220131 RS41 2021-07-01 04:07:08 47.3176 12.1852 93 ° 41 km/h 2563 m -6.5 m/s 405.50 MHz Westendorf (AT) 0.00 km UNKNOWN
S0220139 RS41 2021-06-30 03:40:22 47.7951 12.4007 97 ° 48 km/h 1101 m -6.7 m/s 405.50 MHz Kössen (AT) 0.00 km UNKNOWN
R5130822 RS41 2021-06-29 04:10:00 47.8568 11.7619 83 ° 28 km/h 863 m -6.9 m/s 404.10 MHz Geretsried (DE) 0.00 km FOUND
S0220150 RS41 2021-06-28 04:43:43 47.4612 12.2878 148 ° 19 km/h 1736 m -3.2 m/s 405.50 MHz Kirchberg in Tirol (AT) 0.00 km UNKNOWN
R5140375 RS41 2021-06-26 04:39:01 47.3252 11.9652 77 ° 11 km/h 2615 m -2.9 m/s 405.50 MHz Alpbach (AT) 0.00 km UNKNOWN
R5140376 RS41 2021-06-25 04:30:18 47.5706 11.7968 94 ° 20 km/h 1959 m -7.1 m/s 405.50 MHz Achenkirch (AT) 0.00 km UNKNOWN
R5140371 RS41 2021-06-24 04:05:43 47.8801 11.9243 43 ° 15 km/h 1146 m -7.6 m/s 404.10 MHz Rosenheim (DE) 0.00 km UNKNOWN
R5140372 RS41 2021-06-23 03:14:41 47.7772 11.8746 161 ° 17 km/h 1522 m -17.0 m/s 404.10 MHz Rosenheim (DE) 0.00 km UNKNOWN
R5140361 RS41 2021-06-22 04:07:04 47.8243 11.9016 292 ° 11 km/h 1119 m -8.1 m/s 404.10 MHz Rosenheim (DE) 0.00 km FOUND
S0220143 RS41 2021-06-21 04:53:58 47.8146 11.7885 111 ° 28 km/h 1002 m -2.2 m/s 405.50 MHz Geretsried (DE) 0.00 km UNKNOWN
S0220151 RS41 2021-06-20 04:14:43 47.2604 11.9196 107 ° 4 km/h 2594 m -7.2 m/s 405.50 MHz Mayrhofen (AT) 0.00 km UNKNOWN
S0220152 RS41 2021-06-19 04:09:28 47.2146 11.6146 183 ° 11 km/h 2532 m -7.0 m/s 404.10 MHz Wattens (AT) 0.00 km UNKNOWN
S0220155 RS41 2021-06-18 04:12:38 47.2325 10.9204 49 ° 11 km/h 2449 m -9.7 m/s 404.10 MHz Silz (AT) 0.00 km UNKNOWN
S0220140 RS41 2021-06-17 04:09:47 47.2574 10.7897 83 ° 20 km/h 2876 m -8.4 m/s 405.50 MHz Tarrenz (AT) 0.00 km UNKNOWN
S0220142 RS41 2021-06-16 04:13:32 46.7605 11.0943 117 ° 28 km/h 3932 m -7.0 m/s 405.50 MHz Merano (IT) 0.00 km UNKNOWN
S0220137 RS41 2021-06-15 04:07:43 46.7855 11.3281 175 ° 17 km/h 2984 m -8.1 m/s 404.10 MHz Merano (IT) 0.00 km UNKNOWN
S0220153 RS41 2021-06-14 04:04:40 46.5848 11.4644 145 ° 19 km/h 2620 m -10.9 m/s 405.50 MHz Bolzano (IT) 0.00 km UNKNOWN
S0220145 RS41 2021-06-13 04:41:29 46.3315 11.7697 59 ° 17 km/h 2658 m -2.3 m/s 405.50 MHz Laives (IT) 0.00 km UNKNOWN
S0220144 RS41 2021-06-12 04:25:06 46.5372 11.0977 176 ° 19 km/h 4370 m -5.7 m/s 405.50 MHz Lana (IT) 0.00 km FOUND
S0220135 RS41 2021-06-11 04:30:52 46.7273 11.477 170 ° 39 km/h 2865 m -4.4 m/s 404.10 MHz Bressanone (IT) 0.00 km UNKNOWN
S0220148 RS41 2021-06-10 04:01:56 46.7366 11.2569 254 ° 4 km/h 3694 m -7.3 m/s 405.50 MHz Merano (IT) 0.00 km UNKNOWN
R5121225 RS41 2021-06-09 03:12:43 47.23 11.3793 347 ° 9 km/h 918 m -9.9 m/s 405.50 MHz Mutters (AT) 0.00 km UNKNOWN
R5121211 RS41 2021-06-08 04:49:29 47.2686 11.3794 328 ° 7 km/h 689 m -3.3 m/s 405.50 MHz Innsbruck (AT) 0.00 km FOUND
S0220154 RS41 2021-06-07 04:14:58 47.2907 11.1373 318 ° 2 km/h 677 m -9.7 m/s 405.50 MHz Inzing (AT) 0.00 km UNKNOWN
S0220219 RS41 2021-06-06 03:22:52 47.2433 11.3971 146 ° 7 km/h 1207 m -11.4 m/s 405.50 MHz Mutters (AT) 0.00 km FOUND
S0220200 RS41 2021-06-05 04:01:10 47.1688 11.7256 142 ° 7 km/h 3018 m -9.3 m/s 405.50 MHz Mayrhofen (AT) 0.00 km UNKNOWN
R5121046 RS41 2021-06-04 03:50:05 47.2432 11.7827 120 ° 6 km/h 2542 m -8.2 m/s 404.10 MHz Mayrhofen (AT) 0.00 km UNKNOWN
R5121064 RS41 2021-06-03 04:05:20 46.7529 11.7459 124 ° 24 km/h 4090 m -5.5 m/s 405.50 MHz Bressanone (IT) 0.00 km FOUND
S0220220 RS41 2021-06-02 04:00:58 46.9683 11.7974 98 ° 19 km/h 3422 m -7.9 m/s 405.50 MHz Brunico (IT) 0.00 km UNKNOWN
R5121068 RS41 2021-06-01 04:30:26 46.6762 11.6565 183 ° 31 km/h 3860 m -4.5 m/s 404.10 MHz Bressanone (IT) 0.00 km UNKNOWN
R5121066 RS41 2021-05-31 02:34:25 47.2035 11.3495 316 ° 9 km/h 1777 m -16.1 m/s 404.10 MHz Mutters (AT) 0.00 km UNKNOWN
S0220222 RS41 2021-05-30 03:20:32 46.8253 11.2201 177 ° 44 km/h 4067 m -7.7 m/s 404.10 MHz Merano (IT) 0.00 km UNKNOWN
R5140383 RS41 2021-05-29 03:03:12 47.0578 12.1808 107 ° 78 km/h 5170 m -17.3 m/s 405.50 MHz Virgen (AT) 0.00 km UNKNOWN
R5140380 RS41 2021-05-28 04:01:38 46.5734 12.2302 142 ° 43 km/h 3366 m -8.2 m/s 404.10 MHz Brunico (IT) 0.00 km UNKNOWN
R5140387 RS41 2021-05-27 04:04:42 47.3531 12.3923 95 ° 41 km/h 2614 m -6.4 m/s 404.10 MHz Bramberg am Wildkogel (AT) 0.00 km UNKNOWN
R5121067 RS41 2021-05-26 04:20:10 47.4261 13.1585 334 ° 13 km/h 2323 m -3.5 m/s 404.10 MHz Bischofshofen (AT) 0.00 km UNKNOWN
S0220202 RS41 2021-05-25 04:35:41 48.1425 13.0698 48 ° 13 km/h 521 m -2.6 m/s 405.50 MHz Neukirchen an der Enknach (AT) 0.00 km FOUND
S0220212 RS41 2021-05-24 04:21:54 47.8373 13.2918 295 ° 22 km/h 1115 m -5.7 m/s 404.10 MHz Thalgau (AT) 0.00 km FOUND
S0220213 RS41 2021-05-22 04:56:11 47.7478 13.6083 61 ° 28 km/h 1337 m -3.7 m/s 405.50 MHz Bad Ischl (AT) 0.00 km UNKNOWN
R5140379 RS41 2021-05-21 04:06:35 46.7601 12.8221 79 ° 7 km/h 2485 m -7.9 m/s 404.10 MHz Dölsach (AT) 0.00 km UNKNOWN
R5140382 RS41 2021-05-20 03:50:38 47.0126 11.7263 155 ° 31 km/h 3470 m -12.5 m/s 404.10 MHz Mayrhofen (AT) 0.00 km UNKNOWN
S0220233 RS41 2021-05-17 04:02:48 47.4054 12.3374 123 ° 13 km/h 1520 m -6.9 m/s 405.50 MHz Kirchberg in Tirol (AT) 0.00 km UNKNOWN
S0220211 RS41 2021-05-16 04:05:48 47.0379 12.8935 118 ° 48 km/h 3932 m -11.1 m/s 405.50 MHz Badgastein (AT) 0.00 km UNKNOWN
R5140381 RS41 2021-05-15 04:52:33 47.3056 12.0624 177 ° 17 km/h 2219 m -4.5 m/s 404.10 MHz Alpbach (AT) 0.00 km UNKNOWN
S0220227 RS41 2021-05-14 04:14:23 47.508 11.5097 106 ° 31 km/h 2459 m -7.8 m/s 405.50 MHz Achenkirch (AT) 0.00 km UNKNOWN
S0220218 RS41 2021-05-13 04:06:40 47.3495 11.261 343 ° 4 km/h 1559 m -5.4 m/s 404.10 MHz Seefeld in Tirol (AT) 0.00 km UNKNOWN
R5121047 RS41 2021-05-12 04:39:00 47.6845 11.0293 103 ° 46 km/h 1653 m -3.5 m/s 405.50 MHz Weilheim in Oberbayern (DE) 0.00 km UNKNOWN
P4930247 RS41 2021-05-11 14:38:00 48.2877 11.4685 103 ° 28 km/h 758 m -7.9 m/s 404.10 MHz Dachau (DE) 0.00 km FOUND
R5140507 RS41 2021-05-11 04:11:33 48.0525 11.7501 81 ° 20 km/h 678 m -7.0 m/s 404.10 MHz Vaterstetten (DE) 0.00 km FOUND
S0220201 RS41 2021-05-10 04:12:48 47.7743 12.0343 33 ° 22 km/h 1310 m -10.1 m/s 404.10 MHz Rosenheim (DE) 0.00 km UNKNOWN
R5121155 RS41 2021-05-09 04:04:42 47.2092 12.2368 92 ° 19 km/h 3351 m -12.3 m/s 404.10 MHz Neukirchen am Großvenediger (AT) 0.00 km UNKNOWN
R5121137 RS41 2021-05-08 03:52:15 46.5176 12.9729 244 ° 15 km/h 1422 m -4.8 m/s 404.10 MHz Tolmezzo (IT) 0.00 km FOUND
R5121045 RS41 2021-05-07 04:04:48 47.4715 13.5585 144 ° 13 km/h 2388 m -7.3 m/s 404.10 MHz Radstadt (AT) 0.00 km UNKNOWN
R5121063 RS41 2021-05-06 04:19:22 47.2516 14.0027 88 ° 41 km/h 3029 m -3.5 m/s 404.10 MHz Murau (AT) 0.00 km UNKNOWN
R5121065 RS41 2021-05-05 04:00:57 47.4996 12.8462 22 ° 33 km/h 2481 m -5.6 m/s 404.10 MHz Saalfelden am Steinernen Meer (AT) 0.00 km UNKNOWN
R5121158 RS41 2021-05-04 03:59:14 47.2481 12.521 101 ° 41 km/h 3167 m -9.9 m/s 404.10 MHz Uttendorf (AT) 0.00 km UNKNOWN
R5140384 RS41 2021-05-03 04:10:56 47.4697 12.8951 96 ° 17 km/h 2500 m -5.1 m/s 404.10 MHz Saalfelden am Steinernen Meer (AT) 0.00 km UNKNOWN
R5140388 RS41 2021-05-02 04:18:42 47.8322 12.9107 93 ° 76 km/h 980 m -4.0 m/s 405.50 MHz Viehausen (AT) 0.00 km FOUND
R5140389 RS41 2021-05-01 04:26:16 47.8508 13.3212 325 ° 2 km/h 1036 m -3.2 m/s 404.10 MHz Mondsee (AT) 0.00 km UNKNOWN
R5140390 RS41 2021-04-30 04:11:46 47.5576 13.0206 355 ° 2 km/h 2020 m -7.8 m/s 405.50 MHz Golling an der Salzach (AT) 0.00 km UNKNOWN
S0220231 RS41 2021-04-29 04:45:02 47.6684 13.0934 251 ° 11 km/h 1246 m -2.4 m/s 404.10 MHz Hallein (AT) 0.00 km UNKNOWN
S0220199 RS41-SG 2021-04-28 04:12:45 47.4451 12.5914 70 ° 15 km/h 2226 m -5.0 m/s 404.10 MHz Fieberbrunn (AT) 0.00 km FOUND
S0220230 RS41 2021-04-27 04:12:02 47.1489 12.8454 115 ° 22 km/h 4092 m -4.5 m/s 404.10 MHz Bruck an der Großglocknerstraße (AT) 0.00 km UNKNOWN
R5121075 RS41 2021-04-26 03:34:53 47.0113 12.934 101 ° 46 km/h 3901 m -4.3 m/s 404.10 MHz Badgastein (AT) 0.00 km UNKNOWN
S0220232 RS41 2021-04-25 03:48:09 46.8783 12.7247 123 ° 37 km/h 3812 m -4.0 m/s 404.10 MHz Lienz (AT) 0.00 km UNKNOWN
R2450085 RS41 2021-04-24 03:58:57 46.8627 12.1768 108 ° 7 km/h 3873 m -5.8 m/s 404.10 MHz Brunico (IT) 0.00 km NEED ATTENTION
R2450265 RS41 2021-04-23 04:02:28 46.755 11.84 155 ° 41 km/h 3855 m -9.9 m/s 404.10 MHz Brunico (IT) 0.00 km UNKNOWN
R2440799 RS41 2021-04-22 03:51:34 47.073 11.8505 125 ° 7 km/h 3044 m -7.9 m/s 404.10 MHz Mayrhofen (AT) 0.00 km UNKNOWN
R2450269 RS41 2021-04-21 04:28:09 47.0918 11.7053 91 ° 20 km/h 2939 m -2.1 m/s 404.10 MHz Mayrhofen (AT) 0.00 km UNKNOWN
R2450079 RS41 2021-04-20 03:45:14 46.9822 11.2404 179 ° 37 km/h 3585 m -5.1 m/s 404.10 MHz Neustift im Stubaital (AT) 0.00 km UNKNOWN
R2450446 RS41 2021-04-19 04:20:16 47.0463 11.148 156 ° 22 km/h 3446 m -4.2 m/s 404.10 MHz Neustift im Stubaital (AT) 0.00 km UNKNOWN
R2450084 RS41 2021-04-18 04:15:27 47.3564 11.4498 244 ° 7 km/h 2740 m -3.6 m/s 405.50 MHz Thaur (AT) 0.00 km UNKNOWN
R2450270 RS41 2021-04-17 02:58:23 47.3278 11.4078 171 ° 11 km/h 2814 m -20.6 m/s 404.10 MHz Rum (AT) 0.00 km UNKNOWN
R2450449 RS41 2021-04-16 04:10:31 47.3091 11.5533 70 ° 6 km/h 884 m -14.5 m/s 404.10 MHz Volders (AT) 0.00 km FOUND
R2450429 RS41 2021-04-15 04:11:27 47.236 12.1066 204 ° 9 km/h 2808 m -4.5 m/s 404.10 MHz Neukirchen am Großvenediger (AT) 0.00 km LOST
R2450450 RS41 2021-04-14 03:48:21 47.0166 12.0992 187 ° 54 km/h 3813 m -8.1 m/s 404.10 MHz Mayrhofen (AT) 0.00 km UNKNOWN
R2450081 RS41 2021-04-13 03:52:30 47.6603 11.7762 187 ° 6 km/h 1296 m -5.5 m/s 405.50 MHz Achenkirch (AT) 0.00 km UNKNOWN
R2450447 RS41 2021-04-12 04:26:22 47.8686 12.565 164 ° 11 km/h 862 m -2.7 m/s 404.10 MHz Traunreut (DE) 0.00 km FOUND
R2450263 RS41 2021-04-11 04:17:41 47.791 12.6663 29 ° 26 km/h 983 m -7.4 m/s 404.10 MHz Grossgmain (AT) 0.00 km NEED ATTENTION
R2450088 RS41 2021-04-10 03:54:48 47.3451 12.5274 111 ° 13 km/h 2859 m -9.8 m/s 404.10 MHz Uttendorf (AT) 0.00 km UNKNOWN
R2450445 RS41 2021-04-09 04:33:57 46.711 12.9622 311 ° 9 km/h 1362 m -3.1 m/s 404.10 MHz Dölsach (AT) 0.00 km FOUND
R2450264 RS41 2021-04-08 03:26:04 46.4386 12.2661 148 ° 30 km/h 2608 m -7.2 m/s 404.10 MHz Belluno (IT) 0.00 km UNKNOWN
R2450063 RS41 2021-04-07 04:00:24 47.0089 13.074 10 ° 9 km/h 2677 m -7.0 m/s 404.10 MHz Badgastein (AT) 0.00 km UNKNOWN
R2450268 RS41 2021-04-06 04:00:01 47.1123 13.2017 122 ° 72 km/h 3538 m -9.6 m/s 404.10 MHz Badgastein (AT) 0.00 km UNKNOWN
R2450448 RS41 2021-04-05 04:07:42 46.8287 11.8077 162 ° 35 km/h 3963 m -6.1 m/s 404.10 MHz Brunico (IT) 0.00 km UNKNOWN
R2450082 RS41 2021-04-04 03:37:51 46.6648 11.1055 181 ° 52 km/h 4065 m -8.8 m/s 404.10 MHz Merano (IT) 0.00 km UNKNOWN
R2450073 RS41 2021-04-03 03:59:12 46.5926 12.0078 140 ° 57 km/h 3324 m -8.9 m/s 404.10 MHz Brunico (IT) 0.00 km UNKNOWN
R2450071 RS41 2021-04-02 04:12:35 46.7026 11.6816 122 ° 30 km/h 3674 m -10.5 m/s 404.10 MHz Bressanone (IT) 0.00 km UNKNOWN
R2450072 RS41 2021-04-01 04:13:56 47.0873 11.6471 193 ° 13 km/h 2936 m -4.3 m/s 404.10 MHz Steinach am Brenner (AT) 0.00 km UNKNOWN
R2450075 RS41 2021-03-31 04:20:37 47.0972 11.2173 178 ° 11 km/h 2800 m -3.3 m/s 404.10 MHz Neustift im Stubaital (AT) 0.00 km UNKNOWN
R2450275 RS41 2021-03-30 04:13:08 46.8593 11.2778 179 ° 31 km/h 4164 m -4.4 m/s 404.10 MHz Merano (IT) 0.00 km UNKNOWN
R2450080 RS41 2021-03-29 04:07:18 46.4947 11.5894 166 ° 43 km/h 3474 m -5.4 m/s 404.10 MHz Bolzano (IT) 0.00 km UNKNOWN
R2450077 RS41 2021-03-28 04:53:30 46.8705 12.1231 101 ° 46 km/h 4262 m -7.7 m/s 404.10 MHz Brunico (IT) 0.00 km UNKNOWN
R2450076 RS41 2021-03-27 05:03:40 47.2915 12.4482 48 ° 28 km/h 3687 m -4.6 m/s 404.10 MHz Mittersill (AT) 0.00 km UNKNOWN
R2450083 RS41 2021-03-26 04:55:32 46.903 11.9773 41 ° 26 km/h 4022 m -3.2 m/s 404.10 MHz Brunico (IT) 0.00 km FOUND
R2450058 RS41 2021-03-25 05:28:26 46.67 11.7786 212 ° 24 km/h 3579 m -3.9 m/s 404.10 MHz Bressanone (IT) 0.00 km UNKNOWN
R2450059 RS41 2021-03-24 05:24:51 46.7999 11.4098 196 ° 44 km/h 2919 m -2.8 m/s 404.10 MHz Bressanone (IT) 0.00 km UNKNOWN
R2450069 RS41 2021-03-23 05:13:26 46.5734 11.2779 205 ° 57 km/h 3484 m -4.9 m/s 405.50 MHz Lana (IT) 0.00 km UNKNOWN
R2450844 RS41 2021-03-22 05:14:10 46.2219 10.6078 24 ° 11 km/h 3147 m -1.8 m/s 405.50 MHz Tirano (IT) 0.00 km UNKNOWN
R2450846 RS41 2021-03-21 04:50:20 46.5876 10.7937 212 ° 57 km/h 3600 m -8.4 m/s 405.50 MHz Lana (IT) 0.00 km UNKNOWN
R2450074 RS41 2021-03-20 04:35:24 46.4159 10.4311 221 ° 70 km/h 4730 m -1.7 m/s 404.10 MHz Tirano (IT) 0.00 km UNKNOWN
R2450094 RS41 2021-03-19 04:48:14 46.8059 11.3315 124 ° 11 km/h 3957 m -8.0 m/s 405.50 MHz Merano (IT) 0.00 km UNKNOWN
R2450095 RS41 2021-03-18 05:22:40 46.3615 11.3271 190 ° 30 km/h 1803 m -2.7 m/s 404.10 MHz Laives (IT) 0.00 km UNKNOWN
R2450067 RS41 2021-03-17 05:13:12 46.1536 11.7952 179 ° 20 km/h 2042 m -2.6 m/s 404.10 MHz Feltre (IT) 0.00 km UNKNOWN
R2450093 RS41 2021-03-16 04:49:24 46.4261 11.7101 177 ° 65 km/h 2921 m -4.4 m/s 404.10 MHz Laives (IT) 0.00 km UNKNOWN
R2450718 RS41 2021-03-15 04:41:40 46.6304 11.9899 146 ° 52 km/h 3456 m -6.0 m/s 404.10 MHz Brunico (IT) 0.00 km UNKNOWN
R2450719 RS41 2021-03-13 05:29:26 46.8719 13.4011 74 ° 37 km/h 2893 m -3.2 m/s 404.10 MHz Seeboden (AT) 0.00 km UNKNOWN
R2450716 RS41 2021-03-12 05:06:34 47.1111 13.9948 98 ° 31 km/h 2061 m -7.1 m/s 404.10 MHz Murau (AT) 0.00 km NEED ATTENTION
R2450717 RS41 2021-03-11 04:58:02 46.3679 12.4193 65 ° 24 km/h 2459 m -7.8 m/s 404.10 MHz Belluno (IT) 0.00 km UNKNOWN
R2450725 RS41 2021-03-10 04:51:25 46.5005 11.6852 161 ° 31 km/h 2680 m -6.4 m/s 405.50 MHz Bressanone (IT) 0.00 km UNKNOWN
R2450731 RS41 2021-03-09 05:35:37 47.0118 12.4956 125 ° 7 km/h 1870 m -3.8 m/s 405.50 MHz Virgen (AT) 0.00 km UNKNOWN
R2450724 RS41 2021-03-08 05:11:57 46.7938 12.6442 148 ° 9 km/h 1254 m -4.4 m/s 404.10 MHz Lienz (AT) 0.00 km FOUND
R2450722 RS41 2021-03-07 05:01:36 47.101 12.1656 133 ° 17 km/h 3413 m -4.2 m/s 404.10 MHz Neukirchen am Großvenediger (AT) 0.00 km UNKNOWN
R2450706 RS41 2021-03-06 04:46:44 46.8111 11.6798 193 ° 20 km/h 4376 m -7.9 m/s 405.50 MHz Bressanone (IT) 0.00 km UNKNOWN
R2450708 RS41 2021-03-05 05:03:38 47.1052 12.7967 126 ° 44 km/h 3807 m -2.8 m/s 404.10 MHz Bruck an der Großglocknerstraße (AT) 0.00 km NEED ATTENTION
R2450705 RS41 2021-03-04 05:02:52 47.2952 12.1282 90 ° 4 km/h 2639 m -6.0 m/s 405.50 MHz Neukirchen am Großvenediger (AT) 0.00 km UNKNOWN
R2450723 RS41 2021-03-03 04:50:28 47.2511 11.6685 122 ° 11 km/h 2288 m -6.3 m/s 404.10 MHz Wattens (AT) 0.00 km UNKNOWN
R2450726 RS41 2021-03-02 04:58:15 47.2551 11.3115 24 ° 6 km/h 659 m -6.7 m/s 405.50 MHz Völs (AT) 0.00 km UNKNOWN
R2450476 RS41 2021-03-01 04:43:54 47.0385 11.2914 307 ° 20 km/h 4169 m -7.6 m/s 405.50 MHz Neustift im Stubaital (AT) 0.00 km UNKNOWN
R2450721 RS41 2021-02-28 05:08:14 46.9862 11.0991 280 ° 43 km/h 3626 m -3.7 m/s 404.10 MHz Sölden (AT) 0.00 km NEED ATTENTION
R2450710 RS41 2021-02-27 05:30:46 47.0537 12.6552 161 ° 26 km/h 3623 m -4.6 m/s 404.10 MHz Matrei in Osttirol (AT) 0.00 km NEED ATTENTION
R2450711 RS41 2021-02-26 05:17:24 47.4682 12.1533 147 ° 7 km/h 1442 m -8.4 m/s 404.10 MHz Hopfgarten im Brixental (AT) 0.00 km FOUND
R2450720 RS41 2021-02-25 05:30:42 47.3653 11.4989 90 ° 19 km/h 2608 m -2.6 m/s 404.10 MHz Thaur (AT) 0.00 km UNKNOWN
R2450709 RS41 2021-02-24 04:19:31 47.1754 11.2848 202 ° 6 km/h 2318 m -10.9 m/s 405.50 MHz Fulpmes (AT) 0.00 km UNKNOWN
R2450712 RS41 2021-02-22 04:56:18 47.5901 11.6666 38 ° 7 km/h 1772 m -5.5 m/s 404.10 MHz Achenkirch (AT) 0.00 km NEED ATTENTION
R2450704 RS41 2021-02-21 05:22:10 47.1611 11.7795 31 ° 30 km/h 3046 m -3.5 m/s 404.10 MHz Mayrhofen (AT) 0.00 km NEED ATTENTION
R2450714 RS41 2021-02-20 04:56:30 46.8937 11.9956 134 ° 35 km/h 4293 m -7.0 m/s 404.10 MHz Brunico (IT) 0.00 km NEED ATTENTION
R2450703 RS41 2021-02-19 05:30:55 46.7557 12.6789 242 ° 11 km/h 2686 m -2.5 m/s 404.10 MHz Lienz (AT) 0.00 km FOUND
R2440607 RS41 2021-02-18 05:09:46 46.8685 12.4386 131 ° 37 km/h 4005 m -9.5 m/s 405.50 MHz Virgen (AT) 0.00 km NEED ATTENTION
R2440617 RS41 2021-02-17 05:09:28 47.2345 12.8701 93 ° 48 km/h 3359 m -4.1 m/s 404.10 MHz Bruck an der Großglocknerstraße (AT) 0.00 km UNKNOWN
R2440620 RS41 2021-02-16 05:19:45 46.1757 12.5057 76 ° 20 km/h 1737 m -3.69 m/s 405.50 MHz Aviano (IT) 0.00 km NEED ATTENTION
R2450480 RS41 2021-02-15 04:59:16 46.3204 11.7452 164 ° 43 km/h 2735 m -9.4 m/s 405.50 MHz Laives (IT) 0.00 km NEED ATTENTION
R2440694 RS41 2021-02-13 05:12:32 46.8271 12.6851 154 ° 37 km/h 3565 m -4.4 m/s 405.50 MHz Lienz (AT) 0.00 km NEED ATTENTION
R2450479 RS41 2021-02-11 04:06:32 46.942 12.1558 108 ° 87 km/h 4364 m -16.0 m/s 404.10 MHz Brunico (IT) 0.00 km NEED ATTENTION
R2440619 RS41 2021-02-10 05:28:18 47.7015 12.9259 339 ° 15 km/h 1025 m -3.8 m/s 404.10 MHz Grossgmain (AT) 0.00 km UNKNOWN
R2450478 RS41 2021-02-09 05:02:57 47.5858 12.9087 19 ° 2 km/h 1693 m -6.3 m/s 405.50 MHz Grossgmain (AT) 0.00 km NEED ATTENTION
R2440616 RS41 2021-02-08 04:56:54 47.6415 11.973 96 ° 17 km/h 1676 m -6.6 m/s 404.10 MHz Kirchbichl (AT) 0.00 km UNKNOWN
R2440618 RS41 2021-02-07 05:17:29 48.0969 13.2269 6 ° 4 km/h 689 m -3.6 m/s 404.10 MHz Munderfing (AT) 0.00 km FOUND
R2440584 RS41 2021-02-06 05:11:54 47.4436 13.2868 48 ° 28 km/h 2529 m -3.7 m/s 404.10 MHz Bischofshofen (AT) 0.00 km UNKNOWN
R2440609 RS41 2021-02-05 04:15:56 47.3652 12.6548 106 ° 78 km/h 3894 m -16.2 m/s 404.10 MHz Niedernsill (AT) 0.00 km UNKNOWN
R2440623 RS41 2021-02-04 05:18:13 47.0947 14.2712 109 ° 41 km/h 1901 m -3.4 m/s 404.10 MHz Murau (AT) 0.00 km NEED ATTENTION
P4930152 RS41 2021-02-02 04:32:19 46.5168 12.1903 98 ° 13 km/h 2841 m -5.9 m/s 404.10 MHz Brunico (IT) 0.00 km NEED ATTENTION
R2440601 RS41 2021-02-01 05:19:08 46.8467 12.5099 83 ° 22 km/h 2934 m -6.1 m/s 404.10 MHz Matrei in Osttirol (AT) 0.00 km NEED ATTENTION
P4930219 RS41 2021-01-31 04:57:24 47.0245 12.149 167 ° 41 km/h 3859 m -2.9 m/s 404.10 MHz Virgen (AT) 0.00 km NEED ATTENTION
P4930161 RS41 2021-01-29 05:37:25 46.5242 13.7413 58 ° 30 km/h 1967 m -3.8 m/s 405.50 MHz Arnoldstein (AT) 0.00 km UNKNOWN
P4930218 RS41 2021-01-28 05:02:44 45.7518 12.4512 267 ° 13 km/h 141 m -5.6 m/s 405.50 MHz Ponte di Piave (IT) 0.00 km UNKNOWN
P4930158 RS41 2021-01-26 04:55:08 46.279 12.335 172 ° 37 km/h 1925 m -8.8 m/s 405.50 MHz Belluno (IT) 0.00 km UNKNOWN
P4930155 RS41 2021-01-25 04:18:38 47.0984 12.3544 84 ° 46 km/h 3744 m -7.7 m/s 405.50 MHz Virgen (AT) 0.00 km UNKNOWN
P4930136 RS41 2021-01-24 04:44:40 47.2959 12.7732 49 ° 28 km/h 3265 m -5.5 m/s 404.10 MHz Kaprun (AT) 0.00 km UNKNOWN
P4930138 RS41 2021-01-23 04:36:56 47.6845 11.7339 324 ° 7 km/h 1198 m -5.7 m/s 405.50 MHz Achenkirch (AT) 0.00 km UNKNOWN
P4930240 RS41 2021-01-22 04:51:47 47.6415 12.8547 230 ° 4 km/h 1648 m -7.2 m/s 404.10 MHz Grossgmain (AT) 0.00 km UNKNOWN
P4930221 RS41 2021-01-21 04:18:56 47.508 12.0941 54 ° 28 km/h 1368 m -10.4 m/s 405.50 MHz Kirchbichl (AT) 0.00 km FOUND
P4930245 RS41 2021-01-20 04:48:12 47.0106 13.0573 96 ° 63 km/h 4326 m -5.7 m/s 405.50 MHz Badgastein (AT) 0.00 km UNKNOWN
P4930235 RS41 2021-01-19 04:14:10 46.4144 11.9286 137 ° 57 km/h 4194 m -6.7 m/s 405.50 MHz Sedico (IT) 0.00 km UNKNOWN
P4930237 RS41 2021-01-18 05:05:54 46.7005 12.3722 160 ° 57 km/h 3495 m -3.5 m/s 405.50 MHz Lienz (AT) 0.00 km UNKNOWN
P4930198 RS41 2021-01-17 05:14:48 46.227 12.6531 100 ° 22 km/h 1942 m -5.15 m/s 405.50 MHz Maniago (IT) 0.00 km UNKNOWN
P4930135 RS41 2021-01-16 05:04:41 45.9409 11.8018 151 ° 13 km/h 1595 m -4.7 m/s 405.50 MHz Valdobbiadene (IT) 0.00 km UNKNOWN
P4930134 RS41 2021-01-15 05:16:23 46.326 12.9076 93 ° 9 km/h 1256 m -3.7 m/s 405.50 MHz Tolmezzo (IT) 0.00 km UNKNOWN
P4930157 RS41 2021-01-14 04:40:11 46.0926 12.9678 214 ° 6 km/h 225 m -6.6 m/s 404.10 MHz Spilimbergo (IT) 0.00 km FOUND
P4930159 RS41 2021-01-13 04:15:48 46.4194 12.1992 141 ° 70 km/h 3205 m -9.4 m/s 405.50 MHz Belluno (IT) 0.00 km UNKNOWN
P4930160 RS41 2021-01-12 04:46:42 46.917 12.4986 157 ° 39 km/h 3718 m -11.1 m/s 405.50 MHz Matrei in Osttirol (AT) 0.00 km UNKNOWN
P4930220 RS41 2021-01-11 04:48:40 46.8845 11.5588 229 ° 76 km/h 4281 m -5.6 m/s 405.50 MHz Bressanone (IT) 0.00 km UNKNOWN
P4930156 RS41 2021-01-10 04:58:13 47.3676 13.2365 164 ° 9 km/h 2501 m -4.5 m/s 405.50 MHz Sankt Johann im Pongau (AT) 0.00 km FOUND
P4930153 RS41 2021-01-09 04:51:58 47.1747 13.3133 132 ° 43 km/h 4048 m -7.0 m/s 405.50 MHz Grossarl (AT) 0.00 km UNKNOWN
P4930154 RS41 2021-01-07 05:11:35 47.3426 12.768 104 ° 30 km/h 2943 m -3.7 m/s 405.50 MHz Maishofen (AT) 0.00 km UNKNOWN
P4930151 RS41 2021-01-06 04:54:05 47.5279 11.4287 188 ° 9 km/h 1925 m -5.5 m/s 405.50 MHz Achenkirch (AT) 0.00 km UNKNOWN
P4930243 RS41 2021-01-05 04:50:12 47.5051 11.503 22 ° 11 km/h 1883 m -8.5 m/s 405.50 MHz Achenkirch (AT) 0.00 km UNKNOWN
P4930239 RS41 2021-01-04 04:32:30 47.4673 11.5264 274 ° 11 km/h 2084 m -7.3 m/s 405.50 MHz Achenkirch (AT) 0.00 km UNKNOWN
P4930246 RS41 2021-01-03 04:50:05 47.7134 11.5779 76 ° 11 km/h 1144 m -5.9 m/s 405.50 MHz Geretsried (DE) 0.00 km FOUND
P4930236 RS41 2021-01-02 04:44:37 47.6691 12.0777 5 ° 13 km/h 1624 m -7.7 m/s 405.50 MHz Niederndorf (AT) 0.00 km UNKNOWN
P4930238 RS41 2021-01-01 05:05:44 47.427 12.8048 87 ° 20 km/h 2961 m -4.0 m/s 404.10 MHz Saalfelden am Steinernen Meer (AT) 0.00 km FOUND
P4930835 RS41 2020-12-31 05:13:58 47.2982 12.9358 8 ° 15 km/h 3331 m -4.4 m/s 405.50 MHz Taxenbach (AT) 0.00 km UNKNOWN
P4930227 RS41 2020-12-30 05:04:11 47.8778 13.0997 31 ° 11 km/h 809 m -6.6 m/s 405.50 MHz Eugendorf (AT) 0.00 km FOUND
P4930228 RS41 2020-12-28 04:48:43 47.9381 12.8193 320 ° 30 km/h 770 m -7.9 m/s 405.50 MHz Sankt Georgen bei Salzburg (AT) 0.00 km LOST
P4930207 RS41 2020-12-27 04:50:00 46.842 11.7611 270 ° 13 km/h 3942 m -7.0 m/s 405.50 MHz Brunico (IT) 0.00 km UNKNOWN
P4930836 RS41 2020-12-26 05:13:52 46.3938 11.5729 222 ° 41 km/h 3323 m -3.5 m/s 404.10 MHz Laives (IT) 0.00 km UNKNOWN
P4930837 RS41 2020-12-25 04:46:14 47.3326 13.0189 112 ° 46 km/h 3322 m -5.8 m/s 404.10 MHz Goldegg (AT) 0.00 km UNKNOWN
P4930838 RS41 2020-12-24 05:13:30 47.498 14.1317 345 ° 11 km/h 2274 m -3.8 m/s 405.50 MHz Irdning (AT) 0.00 km UNKNOWN
P4930839 RS41 2020-12-23 05:07:18 46.9115 13.44 300 ° 7 km/h 1783 m -3.4 m/s 405.50 MHz Gmünd (AT) 0.00 km UNKNOWN
P4930209 RS41 2020-12-22 05:21:29 46.5157 13.0941 87 ° 20 km/h 1886 m -3.9 m/s 404.10 MHz Tolmezzo (IT) 0.00 km UNKNOWN
P4930241 RS41 2020-12-21 05:00:20 46.9584 12.4643 88 ° 28 km/h 3807 m -3.9 m/s 404.10 MHz Virgen (AT) 0.00 km UNKNOWN
R2510432 RS41 2020-12-20 04:48:21 47.4184 11.9418 73 ° 9 km/h 1639 m -7.9 m/s 405.50 MHz Alpbach (AT) 0.00 km UNKNOWN
R2521212 RS41 2020-12-19 04:50:44 47.4042 11.5592 12 ° 6 km/h 2367 m -9.1 m/s 404.10 MHz Terfens (AT) 0.00 km UNKNOWN
R2521316 RS41 2020-12-18 04:58:56 47.2684 12.0118 104 ° 9 km/h 2688 m -8.0 m/s 404.10 MHz Alpbach (AT) 0.00 km UNKNOWN
R2521315 RS41 2020-12-17 05:22:32 47.11 12.446 139 ° 30 km/h 4014 m -3.5 m/s 404.10 MHz Virgen (AT) 0.00 km UNKNOWN
R2510371 RS41 2020-12-16 04:58:51 47.696 12.0448 309 ° 9 km/h 1518 m -6.7 m/s 404.10 MHz Niederndorf (AT) 0.00 km UNKNOWN
R2521318 RS41 2020-12-15 08:03:22 47.6393 13.7024 306 ° 30 km/h 1328 m -2.6 m/s 404.10 MHz Bad Goisern (AT) 0.00 km LOST
R2510319 RS41 2020-12-14 04:59:38 46.3805 12.2711 175 ° 30 km/h 2380 m -3.0 m/s 404.10 MHz Belluno (IT) 0.00 km UNKNOWN
R2450707 RS41 2020-12-13 04:51:02 46.7038 11.8291 172 ° 44 km/h 3777 m -5.7 m/s 405.50 MHz Brunico (IT) 0.00 km UNKNOWN
R2510372 RS41 2020-12-12 05:13:08 47.2568 12.0426 128 ° 19 km/h 2695 m -3.5 m/s 405.50 MHz Mayrhofen (AT) 0.00 km UNKNOWN
R2510320 RS41 2020-12-11 05:11:16 46.6388 12.1215 91 ° 11 km/h 3485 m -6.6 m/s 404.10 MHz Brunico (IT) 0.00 km UNKNOWN
R2510321 RS41 2020-12-10 05:18:06 47.4476 11.2268 337 ° 26 km/h 1996 m -4.1 m/s 404.10 MHz Leutasch (AT) 0.00 km UNKNOWN
R2510368 RS41 2020-12-09 05:18:05 47.9534 11.5691 76 ° 9 km/h 754 m -4.1 m/s 405.50 MHz Geretsried (DE) 0.00 km FOUND
R2510369 RS41 2020-12-08 04:42:53 47.8596 12.0674 352 ° 39 km/h 839 m -6.0 m/s 405.50 MHz Rosenheim (DE) 0.00 km UNKNOWN
R2510370 RS41 2020-12-07 04:57:02 48.1881 11.5517 107 ° 13 km/h 577 m -5.8 m/s 404.10 MHz München (DE) 0.00 km FOUND
R2510323 RS41 2020-12-06 05:39:40 49.1605 11.8417 313 ° 50 km/h 681 m -4.2 m/s 404.10 MHz Regensburg (DE) 0.00 km FOUND
R2520703 RS41 2020-12-05 05:15:43 48.8832 12.2714 6 ° 30 km/h 949 m -4.2 m/s 405.50 MHz Regensburg (DE) 0.00 km FOUND
R2520716 RS41 2020-12-04 05:15:36 48.0871 12.3126 4 ° 30 km/h 721 m -4.3 m/s 405.50 MHz Waldkraiburg (DE) 0.00 km LOST
R2520717 RS41 2020-12-03 04:47:12 47.7147 11.5782 91 ° 24 km/h 1125 m -8.0 m/s 404.10 MHz Geretsried (DE) 0.00 km FOUND
R2450715 RS41 2020-12-02 04:03:32 47.3703 11.1637 227 ° 20 km/h 1373 m -7.2 m/s 405.50 MHz Leutasch (AT) 0.00 km UNKNOWN
R2520718 RS41 2020-12-01 04:11:46 47.3015 11.7796 93 ° 31 km/h 2805 m -10.2 m/s 405.50 MHz Fügen (AT) 0.00 km UNKNOWN
R2520710 RS41 2020-11-30 05:09:08 46.9837 11.6382 157 ° 43 km/h 3713 m -4.6 m/s 404.10 MHz Steinach am Brenner (AT) 0.00 km UNKNOWN
R2520720 RS41 2020-11-29 04:45:12 46.9814 11.2935 159 ° 46 km/h 4093 m -8.4 m/s 404.10 MHz Neustift im Stubaital (AT) 0.00 km UNKNOWN
R2520701 RS41 2020-11-28 05:17:25 47.3416 11.331 229 ° 7 km/h 1971 m -4.0 m/s 405.50 MHz Innsbruck (AT) 0.00 km UNKNOWN
R2520697 RS41 2020-11-27 04:45:35 47.3449 11.7764 23 ° 15 km/h 1775 m -3.4 m/s 405.50 MHz Fügen (AT) 0.00 km UNKNOWN
R2520690 RS41 2020-11-26 04:36:12 47.3266 11.674 233 ° 6 km/h 653 m -9.2 m/s 404.10 MHz Vomp (AT) 0.00 km UNKNOWN
R2520719 RS41 2020-11-25 05:36:21 47.5303 11.4517 356 ° 11 km/h 1666 m -3.2 m/s 405.50 MHz Achenkirch (AT) 0.00 km UNKNOWN
R2520689 RS41 2020-11-24 05:16:22 46.8197 11.6977 210 ° 9 km/h 4223 m -5.6 m/s 404.10 MHz Bressanone (IT) 0.00 km FOUND
R2520712 RS41 2020-11-23 05:08:38 46.9717 12.8142 110 ° 35 km/h 3330 m -5.1 m/s 404.10 MHz Dölsach (AT) 0.00 km UNKNOWN
R2520702 RS41 2020-11-22 05:04:22 46.485 11.6353 233 ° 39 km/h 4294 m -4.3 m/s 405.50 MHz Bolzano (IT) 0.00 km UNKNOWN
R2520714 RS41 2020-11-21 05:24:27 45.7854 10.2657 118 ° 9 km/h 1212 m -2.4 m/s 404.10 MHz Pisogne (IT) 0.00 km UNKNOWN
R2520685 RS41 2020-11-20 05:16:54 47.0439 12.0501 176 ° 65 km/h 3669 m -6.2 m/s 404.10 MHz Mayrhofen (AT) 0.00 km UNKNOWN
R2520688 RS41 2020-11-19 04:47:57 47.2813 12.0351 53 ° 13 km/h 2882 m -4.0 m/s 404.10 MHz Alpbach (AT) 0.00 km UNKNOWN
R2520687 RS41 2020-11-18 05:33:11 46.1671 11.4196 65 ° 6 km/h 2821 m -2.9 m/s 404.10 MHz Pergine Valsugana (IT) 0.00 km UNKNOWN
R2520731 RS41 2020-11-17 05:22:17 45.715 11.3242 68 ° 4 km/h 641 m -4.0 m/s 404.10 MHz Schio (IT) 0.00 km LOST
R2520693 RS41 2020-11-16 04:59:50 47.4805 12.4264 334 ° 7 km/h 2225 m -5.4 m/s 405.50 MHz Oberndorf in Tirol (AT) 0.00 km UNKNOWN
R2520691 RS41 2020-11-13 05:10:07 47.0148 12.1749 130 ° 31 km/h 4002 m -5.9 m/s 404.10 MHz Virgen (AT) 0.00 km UNKNOWN
R2520694 RS41 2020-11-12 05:13:47 46.6114 12.2478 166 ° 13 km/h 3086 m -3.9 m/s 404.10 MHz Brunico (IT) 0.00 km UNKNOWN
R2520692 RS41 2020-11-11 05:07:32 47.6365 11.84 125 ° 6 km/h 1627 m -5.6 m/s 404.10 MHz Achenkirch (AT) 0.00 km UNKNOWN
S0220235 RS41 2020-11-10 05:25:09 47.324 11.9502 183 ° 2 km/h 2174 m -8.3 m/s 404.10 MHz Alpbach (AT) 0.00 km UNKNOWN
R5121109 RS41 2020-11-09 05:04:49 47.3668 11.9554 56 ° 9 km/h 2194 m -9.7 m/s 404.10 MHz Alpbach (AT) 0.00 km UNKNOWN
R5121153 RS41 2020-11-08 05:22:55 47.4553 11.857 235 ° 4 km/h 2252 m -3.3 m/s 404.10 MHz Kramsach (AT) 0.00 km UNKNOWN
R5121156 RS41 2020-11-07 05:20:47 47.6979 11.1115 85 ° 9 km/h 1280 m -5.8 m/s 404.10 MHz Weilheim in Oberbayern (DE) 0.00 km FOUND
R5121136 RS41 2020-11-06 05:45:51 47.4857 10.768 346 ° 26 km/h 1790 m -2.9 m/s 404.10 MHz Reutte (AT) 0.00 km UNKNOWN
R5140392 RS41 2020-11-05 05:13:50 47.2151 11.5564 242 ° 11 km/h 2442 m -5.0 m/s 404.10 MHz Volders (AT) 0.00 km UNKNOWN
R5121138 RS41 2020-11-04 05:42:57 48.2302 12.2944 133 ° 4 km/h 602 m -3.3 m/s 404.10 MHz Waldkraiburg (DE) 0.00 km LOST
S0220123 RS41 2020-11-03 05:28:14 47.8196 11.8604 107 ° 17 km/h 866 m -4.2 m/s 405.50 MHz Rosenheim (DE) 0.00 km UNKNOWN
S0220117 RS41 2020-11-01 10:05:42 46.6714 12.2387 117 ° 31 km/h 4034 m -4.6 m/s 404.10 MHz Brunico (IT) 0.00 km UNKNOWN
R5121050 RS41 2020-11-01 04:59:35 46.6663 11.9436 131 ° 31 km/h 4334 m -7.3 m/s 404.10 MHz Brunico (IT) 0.00 km UNKNOWN
S0220121 RS41 2020-10-31 05:08:11 46.5715 12.1421 143 ° 52 km/h 3485 m -5.1 m/s 404.10 MHz Brunico (IT) 0.00 km UNKNOWN
R5130907 RS41 2020-10-30 05:23:21 45.8347 12.3904 294 ° 7 km/h 1183 m -3.3 m/s 405.50 MHz Mareno di Piave (IT) 0.00 km UNKNOWN
R5140187 RS41 2020-10-29 05:24:50 47.1292 13.2499 55 ° 15 km/h 3033 m -3.5 m/s 404.10 MHz Badgastein (AT) 0.00 km UNKNOWN
S0220118 RS41 2020-10-28 05:35:57 47.3293 12.2735 66 ° 19 km/h 2784 m -3.1 m/s 404.10 MHz Bramberg am Wildkogel (AT) 0.00 km UNKNOWN
R5130923 RS41 2020-10-27 05:04:47 48.2407 12.0831 10 ° 17 km/h 641 m -5.6 m/s 405.50 MHz Erding (DE) 0.00 km NEED ATTENTION
R5140393 RS41 2020-10-26 05:22:59 48.144 13.1106 276 ° 17 km/h 557 m -3.8 m/s 405.50 MHz Schalchen (AT) 0.00 km NEED ATTENTION
R5140385 RS41 2020-10-25 04:11:16 46.9266 12.3465 122 ° 19 km/h 3648 m -3.9 m/s 404.10 MHz Virgen (AT) 0.00 km UNKNOWN
R5121048 RS41 2020-10-24 04:03:03 47.5547 12.8162 106 ° 28 km/h 2158 m -8.6 m/s 404.10 MHz Saalfelden am Steinernen Meer (AT) 0.00 km UNKNOWN
R5121139 RS41 2020-10-23 03:14:33 47.6318 12.3508 1 ° 20 km/h 14866 m 0.0 m/s 404.10 MHz Kössen (AT) 0.00 km UNKNOWN
R5121107 RS41 2020-10-22 04:08:35 47.8213 12.8994 115 ° 20 km/h 927 m -5.3 m/s 404.10 MHz Viehausen (AT) 0.00 km FOUND
R5121106 RS41 2020-10-20 04:02:57 46.705 12.1861 84 ° 19 km/h 3519 m -6.2 m/s 404.10 MHz Brunico (IT) 0.00 km UNKNOWN
R5121140 RS41 2020-10-19 04:11:35 47.1032 12.4119 151 ° 6 km/h 3263 m -5.5 m/s 404.10 MHz Virgen (AT) 0.00 km UNKNOWN
R5140386 RS41 2020-10-18 04:21:41 46.8153 11.7733 148 ° 31 km/h 4128 m -3.4 m/s 404.10 MHz Brunico (IT) 0.00 km FOUND
S0220122 RS41 2020-10-17 04:30:50 46.9409 11.8645 215 ° 31 km/h 3658 m -2.0 m/s 405.50 MHz Brunico (IT) 0.00 km FOUND
R5130820 RS41 2020-10-16 03:49:25 47.1705 11.1289 251 ° 26 km/h 2884 m -8.5 m/s 405.50 MHz Inzing (AT) 0.00 km UNKNOWN
S0220116 RS41 2020-10-15 04:30:13 47.5363 11.3726 269 ° 9 km/h 1734 m -3.2 m/s 404.10 MHz Garmisch-Partenkirchen (DE) 0.00 km UNKNOWN
R5121049 RS41 2020-10-14 04:04:12 47.4132 11.3982 122 ° 9 km/h 2533 m -7.8 m/s 404.10 MHz Thaur (AT) 0.00 km UNKNOWN
R5121135 RS41 2020-10-13 04:13:58 46.9414 11.632 35 ° 7 km/h 3804 m -3.4 m/s 405.50 MHz Steinach am Brenner (AT) 0.00 km UNKNOWN
R5121157 RS41 2020-10-12 04:02:38 47.1477 11.4704 187 ° 28 km/h 2823 m -5.2 m/s 404.10 MHz Steinach am Brenner (AT) 0.00 km UNKNOWN
S0220125 RS41 2020-10-11 04:19:29 47.8215 12.5209 144 ° 9 km/h 850 m -2.4 m/s 404.10 MHz Traunreut (DE) 0.00 km FOUND
R5121105 RS41 2020-10-10 04:08:35 47.5151 12.5122 313 ° 11 km/h 2129 m -5.3 m/s 404.10 MHz Fieberbrunn (AT) 0.00 km UNKNOWN
R5121110 RS41 2020-10-09 04:17:21 47.2069 12.8525 118 ° 24 km/h 3859 m -5.1 m/s 404.10 MHz Bruck an der Großglocknerstraße (AT) 0.00 km UNKNOWN
R5121108 RS41 2020-10-08 04:38:16 46.0005 12.7224 245 ° 9 km/h 215 m -2.6 m/s 404.10 MHz Cordenons (IT) 0.00 km FOUND
R5130821 RS41 2020-10-07 04:05:02 47.3068 12.3389 114 ° 39 km/h 3027 m -9.7 m/s 405.50 MHz Bramberg am Wildkogel (AT) 0.00 km UNKNOWN
R5130911 RS41 2020-10-05 04:03:59 48.0868 11.8281 98 ° 50 km/h 1162 m -3.0 m/s 404.10 MHz Vaterstetten (DE) 0.00 km UNKNOWN
R5130912 RS41 2020-10-04 04:31:39 47.9611 12.3643 82 ° 39 km/h 809 m -5.0 m/s 404.10 MHz Traunreut (DE) 0.00 km UNKNOWN
R5130908 RS41 2020-10-03 04:33:54 48.2882 11.8606 321 ° 48 km/h 605 m -4.1 m/s 405.50 MHz Erding (DE) 0.00 km FOUND
R5130909 RS41 2020-10-02 04:36:09 47.5863 12.5727 9 ° 33 km/h 1995 m -5.2 m/s 405.50 MHz Kirchdorf in Tirol (AT) 0.00 km UNKNOWN
R5130910 RS41 2020-10-01 04:01:03 46.9823 11.8271 112 ° 20 km/h 4169 m -10.9 m/s 405.50 MHz Mayrhofen (AT) 0.00 km FOUND
S2530669 RS41 2020-09-30 04:11:15 46.8933 11.99 166 ° 52 km/h 4071 m -8.2 m/s 405.50 MHz Brunico (IT) 0.00 km FOUND
S2530554 RS41 2020-09-29 04:16:04 46.2237 12.2552 161 ° 39 km/h 2466 m -2.3 m/s 405.50 MHz Belluno (IT) 0.00 km UNKNOWN
S2530555 RS41 2020-09-28 03:59:59 47.31 10.8999 210 ° 26 km/h 2799 m -6.9 m/s 404.10 MHz Silz (AT) 0.00 km UNKNOWN
S2421035 RS41 2020-09-27 04:10:57 47.3933 11.3622 55 ° 24 km/h 2582 m -6.8 m/s 404.10 MHz Thaur (AT) 0.00 km UNKNOWN
S2530568 RS41 2020-09-26 04:32:10 47.2349 11.6016 119 ° 33 km/h 2341 m -5.1 m/s 405.50 MHz Wattens (AT) 0.00 km UNKNOWN
S2530558 RS41 2020-09-25 04:18:18 48.1293 12.3398 48 ° 41 km/h 817 m -2.7 m/s 405.50 MHz Waldkraiburg (DE) 0.00 km LOST
S2530557 RS41 2020-09-24 04:08:43 47.325 12.6721 107 ° 28 km/h 2570 m -4.8 m/s 405.50 MHz Niedernsill (AT) 0.00 km UNKNOWN
S2530671 RS41 2020-09-23 04:05:17 47.5369 11.5312 127 ° 11 km/h 1612 m -7.9 m/s 405.50 MHz Achenkirch (AT) 0.00 km UNKNOWN
S2421034 RS41 2020-09-22 04:08:13 47.5011 11.3382 43 ° 9 km/h 1861 m -6.3 m/s 405.50 MHz Garmisch-Partenkirchen (DE) 0.00 km UNKNOWN
S2530569 RS41 2020-09-21 04:29:37 47.3282 11.1106 63 ° 6 km/h 1330 m -4.4 m/s 405.50 MHz Telfs (AT) 0.00 km UNKNOWN
S2530556 RS41 2020-09-19 04:41:05 47.2967 11.491 357 ° 7 km/h 701 m -4.2 m/s 405.50 MHz Thaur (AT) 0.00 km FOUND
S2420908 RS41 2020-09-18 04:13:33 47.1362 11.1794 77 ° 9 km/h 2979 m -3.7 m/s 405.50 MHz Neustift im Stubaital (AT) 0.00 km UNKNOWN
S2420910 RS41 2020-09-17 04:21:25 46.9874 11.3056 189 ° 35 km/h 3648 m -4.9 m/s 405.50 MHz Neustift im Stubaital (AT) 0.00 km UNKNOWN
S2420912 RS41 2020-09-16 04:16:05 47.2728 11.0605 109 ° 11 km/h 2430 m -3.6 m/s 405.50 MHz Rietz (AT) 0.00 km UNKNOWN
S2420911 RS41 2020-09-15 04:24:55 47.5597 11.0651 79 ° 0 km/h 1541 m -7.7 m/s 405.50 MHz Garmisch-Partenkirchen (DE) 0.00 km UNKNOWN
S2421055 RS41 2020-09-14 04:22:50 47.4326 10.7258 205 ° 2 km/h 2049 m -8.8 m/s 404.10 MHz Reutte (AT) 0.00 km UNKNOWN
S2430647 RS41 2020-09-13 04:13:17 47.0551 11.1713 149 ° 17 km/h 3525 m -10.5 m/s 405.50 MHz Neustift im Stubaital (AT) 0.00 km UNKNOWN
S2421036 RS41 2020-09-12 04:11:43 47.3687 11.8042 33 ° 15 km/h 1643 m -12.7 m/s 405.50 MHz Fügen (AT) 0.00 km UNKNOWN
S2421028 RS41 2020-09-11 04:25:05 47.4247 11.8374 188 ° 6 km/h 2162 m -6.3 m/s 405.50 MHz Brixlegg (AT) 0.00 km UNKNOWN
S2421029 RS41 2020-09-10 04:13:35 47.5769 12.0251 107 ° 15 km/h 2099 m -4.5 m/s 405.50 MHz Kirchbichl (AT) 0.00 km UNKNOWN
S2420917 RS41 2020-09-09 04:15:21 47.5115 11.0366 51 ° 9 km/h 2240 m -8.0 m/s 404.10 MHz Garmisch-Partenkirchen (DE) 0.00 km UNKNOWN
S2421027 RS41 2020-09-08 04:11:28 46.9073 10.9311 146 ° 6 km/h 3714 m -7.3 m/s 405.50 MHz Sölden (AT) 0.00 km UNKNOWN
S2421037 RS41 2020-09-07 04:12:08 47.6435 12.5207 261 ° 20 km/h 1654 m -9.8 m/s 405.50 MHz Kössen (AT) 0.00 km UNKNOWN
S2430624 RS41 2020-09-06 04:33:07 47.5243 13.0345 348 ° 9 km/h 2279 m -2.9 m/s 405.50 MHz Werfen (AT) 0.00 km UNKNOWN
S2430645 RS41 2020-09-05 04:05:00 47.1712 12.7461 68 ° 31 km/h 3889 m -6.0 m/s 405.50 MHz Piesendorf (AT) 0.00 km UNKNOWN
S2430627 RS41 2020-09-04 04:07:24 46.8618 12.0896 161 ° 44 km/h 4275 m -8.2 m/s 405.50 MHz Brunico (IT) 0.00 km UNKNOWN
S2430572 RS41 2020-09-03 04:18:06 46.494 12.0862 101 ° 7 km/h 3220 m -4.8 m/s 405.50 MHz Brunico (IT) 0.00 km UNKNOWN
S2420909 RS41 2020-09-02 04:16:44 47.3138 11.8541 106 ° 20 km/h 2649 m -6.2 m/s 405.50 MHz Fügen (AT) 0.00 km UNKNOWN
S2430629 RS41 2020-09-01 04:27:04 47.1612 11.6603 170 ° 31 km/h 3024 m -4.6 m/s 405.50 MHz Wattens (AT) 0.00 km UNKNOWN
S2430646 RS41 2020-08-31 04:37:09 48.2724 13.0813 68 ° 19 km/h 396 m -3.9 m/s 405.50 MHz Sankt Peter (AT) 0.00 km UNKNOWN
S2420915 RS41 2020-08-30 04:13:36 48.3795 12.246 230 ° 6 km/h 1259 m -8.8 m/s 405.50 MHz Landshut (DE) 0.00 km FOUND
S2420913 RS41 2020-08-29 04:39:08 48.1781 12.9999 341 ° 6 km/h 474 m -4.5 m/s 405.50 MHz Neukirchen an der Enknach (AT) 0.00 km UNKNOWN
S2430648 RS41 2020-08-25 04:23:29 46.4464 12.5138 138 ° 7 km/h 2131 m -8.5 m/s 404.10 MHz Maniago (IT) 0.00 km UNKNOWN
S2430630 RS41 2020-08-24 04:32:46 47.3546 12.4399 162 ° 4 km/h 2530 m -5.6 m/s 405.50 MHz Mittersill (AT) 0.00 km UNKNOWN
S2420916 RS41 2020-08-22 04:29:43 47.5837 12.183 105 ° 4 km/h 2091 m -5.2 m/s 405.50 MHz Kufstein (AT) 0.00 km UNKNOWN
S2420914 RS41 2020-08-20 04:35:46 46.7967 11.971 154 ° 54 km/h 4621 m -5.9 m/s 405.50 MHz Brunico (IT) 0.00 km FOUND
S2430619 RS41 2020-08-19 04:29:44 46.7133 12.2304 140 ° 35 km/h 3437 m -5.0 m/s 405.50 MHz Brunico (IT) 0.00 km UNKNOWN
R2510609 RS41 2020-08-18 03:58:53 47.3489 12.0148 145 ° 9 km/h 2900 m -9.3 m/s 404.10 MHz Alpbach (AT) 0.00 km UNKNOWN
R2510947 RS41 2020-08-16 04:07:11 47.2404 11.8963 81 ° 19 km/h 2752 m -6.9 m/s 405.50 MHz Mayrhofen (AT) 0.00 km UNKNOWN
R2520612 RS41 2020-08-15 04:47:26 47.264 11.6326 126 ° 7 km/h 2432 m -9.5 m/s 405.50 MHz Wattens (AT) 0.00 km UNKNOWN
R2520655 RS41 2020-08-15 04:07:45 47.2582 11.7012 135 ° 17 km/h 3068 m -3.8 m/s 404.10 MHz Terfens (AT) 0.00 km UNKNOWN
R2520611 RS41 2020-08-13 04:22:12 47.3333 11.7741 122 ° 13 km/h 2062 m -3.9 m/s 405.50 MHz Fügen (AT) 0.00 km UNKNOWN
R2510948 RS41 2020-08-12 03:49:52 47.1044 11.7553 143 ° 20 km/h 3479 m -6.9 m/s 404.10 MHz Mayrhofen (AT) 0.00 km UNKNOWN
R2510447 RS41 2020-08-11 04:06:39 47.1574 11.6752 171 ° 13 km/h 3212 m -5.4 m/s 405.50 MHz Mayrhofen (AT) 0.00 km UNKNOWN
R2510449 RS41 2020-08-10 04:06:36 47.2086 11.5373 93 ° 15 km/h 2756 m -8.5 m/s 404.10 MHz Sistrans (AT) 0.00 km UNKNOWN
R2510428 RS41 2020-08-09 04:31:06 46.9042 11.3582 132 ° 17 km/h 3974 m -5.6 m/s 405.50 MHz Steinach am Brenner (AT) 0.00 km UNKNOWN
R2510195 RS41 2020-08-08 04:03:30 46.711 11.1017 203 ° 24 km/h 5138 m -7.4 m/s 405.50 MHz Merano (IT) 0.00 km FOUND
R2510203 RS41 2020-08-07 03:36:38 46.9158 11.223 201 ° 20 km/h 3842 m -4.6 m/s 405.50 MHz Sölden (AT) 0.00 km UNKNOWN
R2510202 RS41 2020-08-06 03:53:27 46.9482 11.187 229 ° 15 km/h 4212 m -12.4 m/s 405.50 MHz Sölden (AT) 0.00 km UNKNOWN
R2510193 RS41 2020-08-03 03:12:50 47.566 11.7352 107 ° 20 km/h 2298 m -12.1 m/s 405.50 MHz Achenkirch (AT) 0.00 km UNKNOWN
R2510194 RS41 2020-08-02 04:08:39 47.412 11.892 49 ° 13 km/h 1643 m -7.0 m/s 405.50 MHz Reith im Alpbachtal (AT) 0.00 km UNKNOWN
R2520660 RS41 2020-08-01 04:26:31 46.9638 11.8627 159 ° 39 km/h 3773 m -1.4 m/s 405.50 MHz Brunico (IT) 0.00 km UNKNOWN
R2520659 RS41 2020-07-31 04:26:55 47.0095 11.9576 149 ° 33 km/h 3464 m 0.7 m/s 405.50 MHz Mayrhofen (AT) 0.00 km UNKNOWN
R2510944 RS41 2020-07-30 03:51:17 47.2042 12.4238 99 ° 48 km/h 3693 m -7.5 m/s 404.10 MHz Mittersill (AT) 0.00 km UNKNOWN
R2510946 RS41 2020-07-29 03:39:53 47.2774 12.867 111 ° 48 km/h 3451 m -6.5 m/s 405.50 MHz Bruck an der Großglocknerstraße (AT) 0.00 km UNKNOWN
R2521301 RS41 2020-07-28 04:33:48 47.0408 12.7915 90 ° 31 km/h 4559 m -13.1 m/s 405.50 MHz Matrei in Osttirol (AT) 0.00 km UNKNOWN
R2520658 RS41 2020-07-27 04:04:41 46.7131 12.5486 337 ° 11 km/h 2466 m -8.4 m/s 405.50 MHz Lienz (AT) 0.00 km FOUND
R2521228 RS41 2020-07-26 04:16:59 47.2656 12.5403 97 ° 35 km/h 3146 m -5.7 m/s 405.50 MHz Uttendorf (AT) 0.00 km UNKNOWN
R2521226 RS41 2020-07-25 04:09:52 47.0707 11.6958 167 ° 31 km/h 3433 m -8.9 m/s 405.50 MHz Mayrhofen (AT) 0.00 km UNKNOWN
R2510450 RS41 2020-07-24 04:33:35 47.4911 13.031 124 ° 4 km/h 2324 m -2.4 m/s 404.10 MHz Werfen (AT) 0.00 km UNKNOWN
R2521302 RS41 2020-07-23 04:18:23 47.1312 12.8505 70 ° 11 km/h 3829 m -11.3 m/s 404.10 MHz Bruck an der Großglocknerstraße (AT) 0.00 km UNKNOWN
R2521179 RS41 2020-07-22 04:07:27 47.3599 12.6385 86 ° 33 km/h 2444 m -9.9 m/s 405.50 MHz Niedernsill (AT) 0.00 km UNKNOWN
R2510158 RS41 2020-07-21 04:08:19 47.1993 12.8535 95 ° 50 km/h 4114 m -4.6 m/s 404.10 MHz Bruck an der Großglocknerstraße (AT) 0.00 km UNKNOWN
R2510196 RS41 2020-07-20 04:33:45 47.0518 11.9915 159 ° 19 km/h 3500 m -3.9 m/s 404.10 MHz Mayrhofen (AT) 0.00 km UNKNOWN
R2510198 RS41 2020-07-19 04:07:04 46.7835 11.3632 201 ° 13 km/h 4459 m -8.4 m/s 405.50 MHz Merano (IT) 0.00 km UNKNOWN
R2510157 RS41 2020-07-18 04:24:29 45.8171 11.3578 179 ° 24 km/h 2168 m -6.3 m/s 405.50 MHz Piovene Rocchette (IT) 0.00 km UNKNOWN
R2510162 RS41 2020-07-17 04:18:59 46.5189 12.1639 151 ° 59 km/h 3771 m -5.4 m/s 405.50 MHz Brunico (IT) 0.00 km UNKNOWN
R2510177 RS41 2020-07-16 04:36:49 46.5769 12.2361 150 ° 39 km/h 3308 m -4.4 m/s 404.10 MHz Brunico (IT) 0.00 km UNKNOWN
R2510159 RS41 2020-07-15 04:10:51 47.3125 11.8313 119 ° 9 km/h 2195 m -7.8 m/s 404.10 MHz Fügen (AT) 0.00 km UNKNOWN
R2510197 RS41 2020-07-13 04:17:42 47.0012 12.2073 133 ° 46 km/h 4419 m -3.8 m/s 405.50 MHz Virgen (AT) 0.00 km UNKNOWN
R2510160 RS41 2020-07-12 03:58:16 47.0682 12.6331 130 ° 37 km/h 4296 m -8.4 m/s 404.10 MHz Matrei in Osttirol (AT) 0.00 km UNKNOWN
R2510188 RS41 2020-07-11 04:43:41 47.7168 12.6018 183 ° 17 km/h 1496 m -2.2 m/s 405.50 MHz Kössen (AT) 0.00 km UNKNOWN
R2510191 RS41 2020-07-10 04:15:12 47.3835 12.2647 98 ° 15 km/h 2263 m -8.2 m/s 404.10 MHz Westendorf (AT) 0.00 km UNKNOWN
R2510176 RS41 2020-07-09 04:49:21 47.0393 12.7616 119 ° 46 km/h 3584 m -8.2 m/s 405.50 MHz Matrei in Osttirol (AT) 0.00 km UNKNOWN
R2510187 RS41 2020-07-08 04:17:45 46.99 12.8164 127 ° 56 km/h 3703 m -3.8 m/s 404.10 MHz Dölsach (AT) 0.00 km UNKNOWN
R2510189 RS41 2020-07-07 03:15:53 46.6973 12.4451 155 ° 48 km/h 3627 m -7.2 m/s 405.50 MHz Lienz (AT) 0.00 km UNKNOWN
P4930185 RS41 2020-07-06 04:10:54 47.3433 12.012 97 ° 22 km/h 2553 m -9.5 m/s 404.10 MHz Alpbach (AT) 0.00 km UNKNOWN
P4930079 RS41 2020-07-05 04:33:38 46.6716 11.3197 149 ° 17 km/h 4077 m -3.5 m/s 405.50 MHz Merano (IT) 0.00 km FOUND
P4930089 RS41 2020-07-04 04:15:02 47.151 11.3529 79 ° 4 km/h 2781 m -4.6 m/s 404.10 MHz Fulpmes (AT) 0.00 km UNKNOWN
P4930086 RS41 2020-07-03 04:06:56 47.6177 12.331 129 ° 13 km/h 1618 m -5.6 m/s 405.50 MHz Kössen (AT) 0.00 km UNKNOWN
P4930085 RS41 2020-07-02 04:17:16 47.4399 12.2595 118 ° 26 km/h 2140 m -7.0 m/s 405.50 MHz Brixen im Thale (AT) 0.00 km FOUND
P4930605 RS41 2020-07-01 04:04:43 47.4784 12.3217 78 ° 22 km/h 2451 m -11.7 m/s 405.50 MHz Kirchberg in Tirol (AT) 0.00 km FOUND
P4930082 RS41 2020-06-30 04:42:27 47.242 13.239 84 ° 7 km/h 2453 m -3.3 m/s 405.50 MHz Grossarl (AT) 0.00 km UNKNOWN
P4930081 RS41 2020-06-29 11:11:57 47.586 13.9151 125 ° 46 km/h 2288 m -3.3 m/s 405.50 MHz Bad Aussee (AT) 0.00 km LOST
P4930182 RS41 2020-06-28 04:34:59 47.2973 11.8111 253 ° 7 km/h 1913 m -4.0 m/s 405.50 MHz Fügen (AT) 0.00 km UNKNOWN
P4930683 RS41 2020-06-27 04:17:52 47.4052 12.0147 100 ° 30 km/h 2461 m -11.6 m/s 404.10 MHz Alpbach (AT) 0.00 km UNKNOWN
P4930634 RS41 2020-06-26 04:05:14 46.861 12.0927 123 ° 57 km/h 4144 m -4.6 m/s 405.50 MHz Brunico (IT) 0.00 km UNKNOWN
P4930311 RS41 2020-06-25 04:18:23 46.8046 11.7253 137 ° 46 km/h 4807 m -6.0 m/s 404.10 MHz Bressanone (IT) 0.00 km UNKNOWN
P4930047 RS41 2020-06-24 04:17:45 46.7867 11.5207 159 ° 41 km/h 4909 m -4.3 m/s 404.10 MHz Bressanone (IT) 0.00 km UNKNOWN
P4930048 RS41 2020-06-23 04:09:24 46.7896 11.2402 183 ° 28 km/h 4528 m -6.1 m/s 404.10 MHz Merano (IT) 0.00 km UNKNOWN
P4930046 RS41 2020-06-22 04:28:11 46.6438 11.2358 169 ° 50 km/h 3365 m -5.6 m/s 405.50 MHz Lana (IT) 0.00 km UNKNOWN
P4930090 RS41 2020-06-21 04:20:49 47.1787 11.0885 166 ° 28 km/h 3208 m -6.7 m/s 404.10 MHz Rietz (AT) 0.00 km UNKNOWN
P4930088 RS41 2020-06-20 04:27:17 47.2132 11.4374 149 ° 20 km/h 2932 m -5.7 m/s 404.10 MHz Sistrans (AT) 0.00 km FOUND
P4930603 RS41 2020-06-19 04:34:16 47.5702 11.6267 223 ° 19 km/h 2114 m -4.6 m/s 405.50 MHz Achenkirch (AT) 0.00 km UNKNOWN
P4930388 RS41 2020-06-18 04:14:10 47.5439 11.216 90 ° 20 km/h 1917 m -5.5 m/s 405.50 MHz Garmisch-Partenkirchen (DE) 0.00 km UNKNOWN
P4930080 RS41 2020-06-17 04:20:30 47.5833 11.0221 12 ° 9 km/h 1641 m -4.9 m/s 404.10 MHz Garmisch-Partenkirchen (DE) 0.00 km UNKNOWN
P4930578 RS41 2020-06-16 04:16:58 47.3066 11.2205 217 ° 20 km/h 1695 m -6.4 m/s 404.10 MHz Seefeld in Tirol (AT) 0.00 km UNKNOWN
P4930579 RS41 2020-06-15 04:23:19 47.327 10.8873 66 ° 20 km/h 2438 m -5.8 m/s 404.10 MHz Silz (AT) 0.00 km UNKNOWN
P4930600 RS41 2020-06-14 04:18:03 47.362 10.7477 137 ° 17 km/h 2398 m -9.3 m/s 405.50 MHz Tarrenz (AT) 0.00 km UNKNOWN
P4930598 RS41 2020-06-13 04:11:37 47.5517 11.1558 86 ° 4 km/h 1579 m -9.1 m/s 405.50 MHz Garmisch-Partenkirchen (DE) 0.00 km FOUND
P4930595 RS41 2020-06-12 03:58:53 47.3204 11.3763 323 ° 11 km/h 2747 m -9.2 m/s 404.10 MHz Innsbruck (AT) 0.00 km UNKNOWN
P4930202 RS41 2020-06-11 04:21:42 47.3063 10.9516 126 ° 19 km/h 2515 m -3.2 m/s 405.50 MHz Mieming (AT) 0.00 km UNKNOWN
P4930597 RS41 2020-06-10 04:31:17 47.5679 10.5838 284 ° 7 km/h 1107 m -6.8 m/s 404.10 MHz Reutte (AT) 0.00 km UNKNOWN
P4930593 RS41 2020-06-07 04:10:38 47.613 12.0712 359 ° 17 km/h 1870 m -4.1 m/s 404.10 MHz Kufstein (AT) 0.00 km UNKNOWN
P4930755 RS41 2020-06-06 04:18:36 47.5834 12.5425 351 ° 6 km/h 1114 m -6.7 m/s 405.50 MHz Kirchdorf in Tirol (AT) 0.00 km UNKNOWN
P4930631 RS41 2020-06-05 15:02:55 47.2174 12.2867 53 ° 41 km/h 3474 m -9.8 m/s 405.50 MHz Neukirchen am Großvenediger (AT) 0.00 km UNKNOWN
P4930596 RS41 2020-06-04 04:26:55 47.2511 12.2818 17 ° 28 km/h 2444 m -4.3 m/s 404.10 MHz Neukirchen am Großvenediger (AT) 0.00 km UNKNOWN
P4930636 RS41 2020-06-03 03:57:39 46.7774 11.5295 162 ° 35 km/h 5244 m -14.6 m/s 404.10 MHz Bressanone (IT) 0.00 km UNKNOWN
P4930633 RS41 2020-06-02 04:15:42 46.7346 11.3661 178 ° 35 km/h 4948 m -7.7 m/s 404.10 MHz Merano (IT) 0.00 km UNKNOWN
P4930635 RS41 2020-06-01 04:03:30 46.8066 11.0744 234 ° 22 km/h 4060 m -9.9 m/s 404.10 MHz Merano (IT) 0.00 km UNKNOWN
P4930594 RS41 2020-05-31 04:15:43 46.973 10.8351 147 ° 20 km/h 3532 m -6.8 m/s 405.50 MHz Sölden (AT) 0.00 km UNKNOWN
P4930581 RS41 2020-05-30 04:17:59 46.9259 10.8664 102 ° 20 km/h 3471 m -14.3 m/s 404.10 MHz Sölden (AT) 0.00 km UNKNOWN
P4930589 RS41 2020-05-29 04:01:58 46.8302 10.6864 224 ° 35 km/h 3853 m -5.8 m/s 405.50 MHz Pfunds (AT) 0.00 km UNKNOWN
P4930529 RS41 2020-05-27 04:06:55 46.312 10.9882 229 ° 31 km/h 3865 m -7.4 m/s 404.10 MHz Lavis (IT) 0.00 km FOUND
P4930577 RS41 2020-05-26 04:44:10 45.6545 11.5685 13 ° 7 km/h 1140 m -2.9 m/s 404.10 MHz Dueville (IT) 0.00 km FOUND
P4930599 RS41 2020-05-25 04:10:39 46.2249 12.16 142 ° 19 km/h 2142 m -11.8 m/s 404.10 MHz Belluno (IT) 0.00 km UNKNOWN
P4930533 RS41 2020-05-24 03:32:34 47.1912 12.8131 139 ° 59 km/h 3600 m -2.7 m/s 404.10 MHz Bruck an der Großglocknerstraße (AT) 0.00 km UNKNOWN
P4930560 RS41 2020-05-23 04:14:48 46.729 12.5655 107 ° 41 km/h 2355 m -3.2 m/s 404.10 MHz Lienz (AT) 0.00 km FOUND
P4930097 RS41 2020-05-22 04:11:16 46.233 11.6107 159 ° 43 km/h 3242 m -6.4 m/s 405.50 MHz Laives (IT) 0.00 km UNKNOWN
P4930530 RS41 2020-05-21 04:08:39 46.5321 11.4233 210 ° 57 km/h 3799 m -4.7 m/s 404.10 MHz Bolzano (IT) 0.00 km UNKNOWN
P4930168 RS41 2020-05-20 03:53:03 46.9097 11.2676 222 ° 41 km/h 4182 m -9.2 m/s 404.10 MHz Sölden (AT) 0.00 km UNKNOWN
P4930563 RS41 2020-05-19 04:20:38 47.0848 11.2199 262 ° 9 km/h 3059 m -2.7 m/s 404.10 MHz Neustift im Stubaital (AT) 0.00 km UNKNOWN
P4930144 RS41 2020-05-17 04:13:17 47.544 12.6481 21 ° 9 km/h 2301 m -4.6 m/s 404.10 MHz Fieberbrunn (AT) 0.00 km UNKNOWN
P4930143 RS41 2020-05-16 04:13:18 47.6602 13.0062 273 ° 13 km/h 1745 m -4.7 m/s 404.10 MHz Hallein (AT) 0.00 km UNKNOWN
P4930564 RS41 2020-05-15 04:58:28 47.9485 12.5736 251 ° 39 km/h 800 m -2.6 m/s 405.50 MHz Traunreut (DE) 0.00 km UNKNOWN
P4930562 RS41 2020-05-14 03:57:23 47.6603 12.7826 41 ° 4 km/h 1552 m -6.0 m/s 405.50 MHz Grossgmain (AT) 0.00 km UNKNOWN
P4930773 RS41 2020-05-13 04:12:59 47.62 13.1439 81 ° 11 km/h 1877 m -4.4 m/s 405.50 MHz Kuchl (AT) 0.00 km UNKNOWN
P4930770 RS41 2020-05-12 04:04:40 47.22 12.3158 104 ° 33 km/h 3258 m -5.6 m/s 404.10 MHz Neukirchen am Großvenediger (AT) 0.00 km UNKNOWN
P4930772 RS41 2020-05-11 03:58:52 47.6326 11.9254 355 ° 22 km/h 1691 m -6.2 m/s 404.10 MHz Kirchbichl (AT) 0.00 km UNKNOWN
P4930133 RS41 2020-05-10 03:06:46 47.4276 11.8452 10 ° 17 km/h 2659 m -12.3 m/s 404.10 MHz Brixlegg (AT) 0.00 km UNKNOWN
P4930217 RS41 2020-05-09 04:23:29 47.1621 12.5264 133 ° 20 km/h 3745 m -5.3 m/s 404.10 MHz Uttendorf (AT) 0.00 km UNKNOWN
P4930774 RS41 2020-05-07 04:25:34 46.0813 11.2961 190 ° 28 km/h 2262 m -3.3 m/s 404.10 MHz Pergine Valsugana (IT) 0.00 km FOUND
P4930795 RS41 2020-05-06 03:54:43 46.7512 12.6248 131 ° 7 km/h 2783 m -6.5 m/s 404.10 MHz Lienz (AT) 0.00 km UNKNOWN
P4930796 RS41 2020-05-05 03:43:51 46.723 13.2488 353 ° 13 km/h 1476 m -4.8 m/s 404.10 MHz Kirchbach (AT) 0.00 km FOUND
P4930794 RS41 2020-05-04 04:48:17 45.9486 13.389 280 ° 13 km/h 120 m -1.8 m/s 404.10 MHz Dobrovo (SI) 0.00 km FOUND
P4930141 RS41 2020-05-03 03:06:41 46.7968 12.0807 132 ° 113 km/h 5382 m -13.2 m/s 404.10 MHz Brunico (IT) 0.00 km UNKNOWN
P4930140 RS41 2020-05-02 04:09:07 46.9756 12.55 115 ° 59 km/h 4411 m -6.7 m/s 405.50 MHz Matrei in Osttirol (AT) 0.00 km UNKNOWN
P4930142 RS41 2020-05-01 04:19:55 47.2307 12.5299 133 ° 35 km/h 3734 m -3.2 m/s 405.50 MHz Uttendorf (AT) 0.00 km UNKNOWN
P4930139 RS41 2020-04-30 04:14:04 47.2399 12.4116 66 ° 26 km/h 3395 m -3.8 m/s 404.10 MHz Mittersill (AT) 0.00 km UNKNOWN
P4930798 RS41 2020-04-29 04:22:45 47.4443 11.9054 123 ° 24 km/h 2131 m -1.7 m/s 404.10 MHz Radfeld (AT) 0.00 km UNKNOWN
P4930819 RS41 2020-04-28 04:13:39 47.2919 11.9334 59 ° 11 km/h 2753 m -6.3 m/s 404.10 MHz Fügen (AT) 0.00 km UNKNOWN
P4930826 RS41 2020-04-27 04:16:19 47.1622 12.1168 67 ° 20 km/h 3236 m -3.9 m/s 404.10 MHz Neukirchen am Großvenediger (AT) 0.00 km UNKNOWN
P4930827 RS41 2020-04-26 04:09:19 46.9194 11.8921 131 ° 31 km/h 3865 m -3.9 m/s 404.10 MHz Brunico (IT) 0.00 km UNKNOWN
P4930818 RS41 2020-04-25 04:12:07 46.8533 12.0354 99 ° 41 km/h 4246 m -5.0 m/s 404.10 MHz Brunico (IT) 0.00 km UNKNOWN
P4930820 RS41 2020-04-24 03:57:37 46.8915 11.4944 152 ° 9 km/h 4253 m -7.4 m/s 404.10 MHz Steinach am Brenner (AT) 0.00 km UNKNOWN
P4930825 RS41 2020-04-23 03:05:12 46.99 11.2146 203 ° 24 km/h 3747 m -17.8 m/s 404.10 MHz Neustift im Stubaital (AT) 0.00 km UNKNOWN
P4930824 RS41 2020-04-22 04:08:53 47.0106 10.8372 329 ° 26 km/h 3337 m -9.9 m/s 404.10 MHz Umhausen (AT) 0.00 km UNKNOWN
P4930823 RS41 2020-04-21 03:58:12 47.1926 11.6242 222 ° 4 km/h 2895 m -4.8 m/s 405.50 MHz Wattens (AT) 0.00 km UNKNOWN
P4930817 RS41 2020-04-20 04:00:41 47.2148 12.2265 28 ° 22 km/h 3304 m -5.5 m/s 405.50 MHz Neukirchen am Großvenediger (AT) 0.00 km UNKNOWN
P5010119 RS41 2020-04-19 04:22:56 46.9669 12.7406 110 ° 46 km/h 3524 m -3.1 m/s 404.10 MHz Lienz (AT) 0.00 km UNKNOWN
P4930840 RS41 2020-04-18 04:11:50 46.9687 12.4678 111 ° 35 km/h 4413 m -14.9 m/s 404.10 MHz Virgen (AT) 0.00 km UNKNOWN
P4930828 RS41 2020-04-17 03:55:19 47.0539 12.3201 86 ° 43 km/h 4392 m -8.4 m/s 404.10 MHz Virgen (AT) 0.00 km UNKNOWN
P5010118 RS41 2020-04-16 04:04:33 47.4915 11.8309 109 ° 15 km/h 2055 m -7.2 m/s 404.10 MHz Kramsach (AT) 0.00 km UNKNOWN
P5010054 RS41 2020-04-15 04:06:28 46.6436 11.1217 216 ° 33 km/h 4301 m -5.2 m/s 404.10 MHz Merano (IT) 0.00 km UNKNOWN
P4930821 RS41 2020-04-14 04:17:16 46.8671 13.4397 145 ° 52 km/h 3290 m -5.9 m/s 404.10 MHz Seeboden (AT) 0.00 km UNKNOWN
P4930206 RS41 2020-04-13 04:02:32 47.182 12.5058 119 ° 19 km/h 3590 m -8.3 m/s 404.10 MHz Mittersill (AT) 0.00 km UNKNOWN
P4930205 RS41 2020-04-12 04:33:00 47.2781 12.7331 89 ° 24 km/h 3017 m -4.0 m/s 404.10 MHz Piesendorf (AT) 0.00 km UNKNOWN
P4930214 RS41 2020-04-11 03:05:14 47.1862 11.3776 96 ° 19 km/h 3890 m -7.7 m/s 404.10 MHz Fulpmes (AT) 0.00 km UNKNOWN
P4930225 RS41 2020-04-10 04:09:14 46.921 11.4896 220 ° 17 km/h 4637 m -6.1 m/s 404.10 MHz Steinach am Brenner (AT) 0.00 km UNKNOWN
P4930213 RS41 2020-04-09 04:19:38 47.095 11.5963 220 ° 20 km/h 3383 m -6.9 m/s 404.10 MHz Steinach am Brenner (AT) 0.00 km UNKNOWN
P4930224 RS41 2020-04-08 04:12:17 47.3185 11.5385 57 ° 17 km/h 1029 m -7.3 m/s 404.10 MHz Volders (AT) 0.00 km UNKNOWN
P4930212 RS41 2020-04-07 04:35:17 47.24 11.5912 358 ° 0 km/h 2217 m -0.0 m/s 404.10 MHz Volders (AT) 0.00 km UNKNOWN
P4930580 RS41 2020-04-06 04:39:43 47.5443 11.2973 25 ° 30 km/h 1111 m -5.2 m/s 404.10 MHz Garmisch-Partenkirchen (DE) 0.00 km UNKNOWN
P4930591 RS41 2020-04-05 04:31:03 46.8965 11.2092 221 ° 20 km/h 3947 m -2.8 m/s 404.10 MHz Sölden (AT) 0.00 km UNKNOWN
P4930226 RS41 2020-04-04 04:15:52 46.8914 12.41 161 ° 39 km/h 3755 m -4.6 m/s 404.10 MHz Virgen (AT) 0.00 km UNKNOWN
P4930799 RS41 2020-04-03 04:00:53 47.0947 12.1771 163 ° 19 km/h 3730 m -6.6 m/s 404.10 MHz Neukirchen am Großvenediger (AT) 0.00 km UNKNOWN
P4930216 RS41 2020-04-02 04:02:59 47.1627 11.8112 146 ° 20 km/h 3376 m -8.3 m/s 405.50 MHz Mayrhofen (AT) 0.00 km UNKNOWN
P4930223 RS41 2020-04-02 02:32:55 47.2444 11.4043 96 ° 11 km/h 949 m -19.3 m/s 404.10 MHz Aldrans (AT) 0.00 km UNKNOWN
P4930215 RS41 2020-04-01 03:25:54 46.8516 11.2441 191 ° 44 km/h 4108 m -5.1 m/s 404.10 MHz Merano (IT) 0.00 km UNKNOWN
P4930592 RS41 2020-03-31 04:03:19 46.7546 11.8399 159 ° 57 km/h 4321 m -7.1 m/s 404.10 MHz Brunico (IT) 0.00 km UNKNOWN
P5010121 RS41 2020-03-29 03:55:52 47.022 11.7475 163 ° 17 km/h 3623 m -10.4 m/s 404.10 MHz Mayrhofen (AT) 0.00 km UNKNOWN
P4930776 RS41 2020-03-28 05:04:09 46.9961 11.0544 199 ° 22 km/h 3648 m -7.4 m/s 404.10 MHz Sölden (AT) 0.00 km UNKNOWN
P4930777 RS41 2020-03-27 04:53:04 47.4247 10.9964 240 ° 9 km/h 2687 m -7.2 m/s 405.50 MHz Ehrwald (AT) 0.00 km UNKNOWN
P5010124 RS41 2020-03-26 05:32:08 47.9558 10.8824 301 ° 31 km/h 950 m -3.1 m/s 404.10 MHz Landsberg am Lech (DE) 0.00 km UNKNOWN
P5010120 RS41 2020-03-25 05:14:06 46.8684 9.64234 255 ° 37 km/h 3024 m -2.9 m/s 405.50 MHz Chur (CH) 0.00 km UNKNOWN
P5010132 RS41 2020-03-24 05:12:11 46.2891 10.3914 244 ° 52 km/h 3798 m -5.2 m/s 405.50 MHz Tirano (IT) 0.00 km UNKNOWN
P5010031 RS41 2020-03-23 04:43:52 46.6633 11.4037 200 ° 83 km/h 4808 m -11.3 m/s 405.50 MHz Merano (IT) 0.00 km UNKNOWN
P4930775 RS41 2020-03-22 05:47:01 47.0407 12.6351 156 ° 39 km/h 4277 m -4.5 m/s 404.10 MHz Matrei in Osttirol (AT) 0.00 km UNKNOWN
P5010122 RS41 2020-03-21 05:27:23 46.9732 12.0574 169 ° 37 km/h 3950 m -4.6 m/s 405.50 MHz Brunico (IT) 0.00 km UNKNOWN
P5010123 RS41 2020-03-20 05:08:37 47.5431 11.8003 119 ° 11 km/h 1960 m -3.5 m/s 404.10 MHz Achenkirch (AT) 0.00 km UNKNOWN
P4930781 RS41 2020-03-19 05:00:01 47.2852 11.1916 114 ° 9 km/h 800 m -11.2 m/s 404.10 MHz Inzing (AT) 0.00 km UNKNOWN
P4930778 RS41 2020-03-18 04:11:56 46.8904 11.1313 219 ° 50 km/h 4675 m -10.6 m/s 404.10 MHz Sölden (AT) 0.00 km UNKNOWN
P4930782 RS41 2020-03-17 05:21:18 47.0756 12.0087 165 ° 30 km/h 3498 m -3.6 m/s 404.10 MHz Mayrhofen (AT) 0.00 km UNKNOWN
P4930769 RS41 2020-03-16 05:24:45 47.3763 12.0706 10 ° 11 km/h 2564 m -3.6 m/s 404.10 MHz Alpbach (AT) 0.00 km UNKNOWN
P4930792 RS41 2020-03-15 04:55:01 46.673 12.0189 203 ° 22 km/h 3429 m -4.7 m/s 404.10 MHz Brunico (IT) 0.00 km UNKNOWN
P4930137 RS41 2020-03-14 05:13:39 47.4174 13.5736 99 ° 13 km/h 2543 m -5.4 m/s 404.10 MHz Radstadt (AT) 0.00 km UNKNOWN
P4930786 RS41 2020-03-13 05:10:16 47.4658 13.9408 27 ° 6 km/h 2390 m -7.2 m/s 405.50 MHz Gröbming (AT) 0.00 km UNKNOWN
P4930784 RS41 2020-03-12 04:01:46 47.1174 12.3184 102 ° 80 km/h 4065 m -15.3 m/s 405.50 MHz Neukirchen am Großvenediger (AT) 0.00 km UNKNOWN
P4930771 RS41 2020-03-11 05:00:22 46.3481 12.4659 146 ° 24 km/h 2421 m -3.6 m/s 404.10 MHz Maniago (IT) 0.00 km UNKNOWN
P4930790 RS41 2020-03-10 05:18:04 46.0415 11.7837 87 ° 11 km/h 2306 m -4.4 m/s 404.10 MHz Feltre (IT) 0.00 km UNKNOWN
P4930779 RS41 2020-03-09 05:15:14 47.4648 11.9719 94 ° 17 km/h 2500 m -3.0 m/s 404.10 MHz Kundl (AT) 0.00 km UNKNOWN
P4930791 RS41 2020-03-08 05:06:10 46.4116 11.1687 204 ° 56 km/h 4151 m -4.4 m/s 404.10 MHz Laives (IT) 0.00 km UNKNOWN
P4930233 RS41 2020-03-06 05:02:29 47.5663 12.3568 43 ° 11 km/h 2073 m -9.2 m/s 404.10 MHz Kirchdorf in Tirol (AT) 0.00 km UNKNOWN
P4930787 RS41 2020-03-05 05:45:54 45.8993 13.1546 330 ° 7 km/h 449 m -2.3 m/s 404.10 MHz Campoformido (IT) 0.00 km FOUND
P4930788 RS41 2020-03-04 05:14:47 46.8955 12.2794 72 ° 33 km/h 4083 m -4.8 m/s 404.10 MHz Virgen (AT) 0.00 km UNKNOWN
P5010477 RS41 2020-03-02 04:47:14 47.1709 12.7613 107 ° 98 km/h 3978 m -4.9 m/s 404.10 MHz Piesendorf (AT) 0.00 km UNKNOWN
P5010574 RS41 2020-03-01 04:59:56 47.3134 13.2067 38 ° 35 km/h 2559 m -7.6 m/s 405.50 MHz Sankt Johann im Pongau (AT) 0.00 km UNKNOWN
P5010479 RS41 2020-02-29 05:25:31 46.6782 13.6167 88 ° 69 km/h 2513 m -5.0 m/s 405.50 MHz Paternion (AT) 0.00 km NEED ATTENTION
P5010476 RS41 2020-02-28 04:50:40 46.1095 12.8708 162 ° 50 km/h 1988 m -4.9 m/s 405.50 MHz Spilimbergo (IT) 0.00 km FOUND
DF936FC2 DFM09 2020-02-27 09:00:26 47.2837 12.2112 110 ° 94 km/h 15968 m -10.5 m/s 404.309 MHz Neukirchen am Großvenediger (AT) 0.00 km UNKNOWN
P5010489 RS41 2020-02-27 04:54:28 46.3984 12.7057 140 ° 35 km/h 1774 m -3.7 m/s 404.10 MHz Tolmezzo (IT) 0.00 km UNKNOWN
P5010490 RS41 2020-02-26 05:04:42 47.6032 13.3128 112 ° 67 km/h 1850 m -1.6 m/s 404.10 MHz Abtenau (AT) 0.00 km UNKNOWN
P5010131 RS41 2020-02-25 05:12:11 47.3501 13.6746 90 ° 57 km/h 3310 m -5.3 m/s 404.10 MHz Schladming (AT) 0.00 km UNKNOWN
P5010475 RS41 2020-02-24 05:52:07 46.0653 14.2104 80 ° 33 km/h 920 m -2.9 m/s 404.10 MHz Gorenja Vas (SI) 0.00 km FOUND
P5010572 RS41 2020-02-23 05:10:39 46.3597 13.2303 90 ° 52 km/h 2634 m -4.7 m/s 405.50 MHz Gemona del Friuli (IT) 0.00 km UNKNOWN
P5010488 RS41 2020-02-22 05:23:05 46.4406 12.026 167 ° 57 km/h 3118 m -5.0 m/s 404.10 MHz Belluno (IT) 0.00 km UNKNOWN
P5010487 RS41 2020-02-21 05:21:47 46.7544 13.4163 135 ° 28 km/h 2448 m -2.6 m/s 404.10 MHz Spittal an der Drau (AT) 0.00 km UNKNOWN
DF937F0B DFM09 2020-02-20 15:07:53 47.2339 11.7726 146 ° 117 km/h 10675 m -6.7 m/s 404.311 MHz Mayrhofen (AT) 0.00 km UNKNOWN
P5010478 RS41 2020-02-20 05:03:18 46.0045 12.0623 118 ° 13 km/h 1892 m -4.3 m/s 405.50 MHz Feltre (IT) 0.00 km FOUND
P5010491 RS41 2020-02-19 05:34:46 47.2725 13.4422 57 ° 30 km/h 2888 m -3.5 m/s 405.50 MHz Flachau (AT) 0.00 km UNKNOWN
P5010129 RS41 2020-02-18 05:00:37 47.6455 13.8424 139 ° 80 km/h 2060 m -10.6 m/s 404.10 MHz Bad Aussee (AT) 0.00 km UNKNOWN
P5010576 RS41 2020-02-17 05:40:37 47.5683 13.8177 150 ° 15 km/h 1964 m -3.0 m/s 404.10 MHz Bad Aussee (AT) 0.00 km FOUND
P5010365 RS41 2020-02-15 04:58:35 46.8494 12.7013 192 ° 26 km/h 3853 m -7.5 m/s 405.50 MHz Lienz (AT) 0.00 km UNKNOWN
P5010480 RS41 2020-02-14 04:57:42 46.3446 12.8461 157 ° 63 km/h 2208 m -5.3 m/s 405.50 MHz Tolmezzo (IT) 0.00 km UNKNOWN
P5010125 RS41 2020-02-13 05:13:25 46.7487 14.2433 98 ° 2 km/h 828 m -4.6 m/s 405.50 MHz Liebenfels (AT) 0.00 km FOUND
P4930783 RS41 2020-02-12 04:59:55 46.8122 14.488 152 ° 39 km/h 998 m -4.0 m/s 405.50 MHz Sankt Georgen am Längsee (AT) 0.00 km FOUND
P5010492 RS41 2020-02-11 05:13:03 46.3411 15.328 76 ° 35 km/h 1461 m -2.7 m/s 405.50 MHz Vitanje (SI) 0.00 km FOUND
R2440603 RS41 2020-02-10 05:16:10 46.7672 14.4323 29 ° 13 km/h 724 m -1.7 m/s 405.50 MHz Sankt Georgen am Längsee (AT) 0.00 km NEED ATTENTION
R2440624 RS41 2020-02-09 05:08:50 47.3684 12.6892 62 ° 20 km/h 3282 m -9.7 m/s 405.50 MHz Leogang (AT) 0.00 km UNKNOWN
R2440602 RS41 2020-02-08 05:44:23 47.1265 11.8211 292 ° 9 km/h 3408 m -3.1 m/s 405.50 MHz Mayrhofen (AT) 0.00 km UNKNOWN
R2440612 RS41 2020-02-07 04:59:41 46.6812 11.3588 151 ° 24 km/h 5029 m -5.5 m/s 405.50 MHz Merano (IT) 0.00 km UNKNOWN
R2440614 RS41 2020-02-06 05:05:43 46.1539 11.3141 196 ° 61 km/h 3727 m -11.6 m/s 405.50 MHz Pergine Valsugana (IT) 0.00 km UNKNOWN
R2440608 RS41 2020-02-05 05:09:45 45.4122 11.6245 138 ° 43 km/h 656 m -3.4 m/s 404.10 MHz Teolo (IT) 0.00 km FOUND
P5010364 RS41 2020-02-03 04:41:26 46.4697 13.1369 137 ° 107 km/h 3798 m -10.8 m/s 405.50 MHz Tolmezzo (IT) 0.00 km UNKNOWN
P5010375 RS41 2020-02-02 04:59:18 46.1783 12.8754 114 ° 9 km/h 406 m -5.4 m/s 404.10 MHz Spilimbergo (IT) 0.00 km UNKNOWN
P5010127 RS41 2020-02-01 05:08:59 46.8741 12.5999 54 ° 41 km/h 4057 m -5.2 m/s 404.10 MHz Lienz (AT) 0.00 km UNKNOWN
P5010371 RS41 2020-01-31 05:01:04 46.3737 12.572 100 ° 35 km/h 2245 m -7.7 m/s 404.10 MHz Maniago (IT) 0.00 km UNKNOWN
P5010374 RS41 2020-01-30 04:59:42 45.9137 13.2211 97 ° 4 km/h 804 m -7.0 m/s 405.50 MHz Campoformido (IT) 0.00 km FOUND
P5010368 RS41 2020-01-29 04:58:21 46.517 13.8797 170 ° 19 km/h 1928 m -2.9 m/s 405.50 MHz Kranjska Gora (SI) 0.00 km UNKNOWN
P5010376 RS41 2020-01-28 04:51:39 47.2972 13.5149 74 ° 41 km/h 2929 m -4.7 m/s 404.10 MHz Radstadt (AT) 0.00 km UNKNOWN
P5010362 RS41 2020-01-27 05:05:41 46.9487 12.8102 151 ° 31 km/h 3548 m -9.7 m/s 405.50 MHz Lienz (AT) 0.00 km UNKNOWN
P4930248 RS41 2020-01-25 12:20:28 47.7027 12.7843 278 ° 15 km/h 1908 m -4.7 m/s 404.10 MHz Grossgmain (AT) 0.00 km UNKNOWN
P5010542 RS41 2020-01-23 05:29:18 47.0767 11.727 181 ° 7 km/h 3279 m -3.1 m/s 405.50 MHz Mayrhofen (AT) 0.00 km UNKNOWN
P5010378 RS41 2020-01-22 04:59:53 47.2632 11.808 70 ° 15 km/h 2544 m -8.8 m/s 405.50 MHz Fügen (AT) 0.00 km UNKNOWN
P5010377 RS41 2020-01-21 05:15:32 47.4288 10.5873 18 ° 15 km/h 2094 m -3.8 m/s 405.50 MHz Reutte (AT) 0.00 km UNKNOWN
P5010130 RS41 2020-01-20 04:52:34 46.9849 10.8694 298 ° 17 km/h 3486 m -8.7 m/s 405.50 MHz Sölden (AT) 0.00 km UNKNOWN
P5010466 RS41 2020-01-19 05:23:30 47.0367 12.0955 185 ° 26 km/h 3768 m -2.4 m/s 405.50 MHz Mayrhofen (AT) 0.00 km UNKNOWN
P5010363 RS41 2020-01-18 05:17:36 47.8733 12.0991 121 ° 37 km/h 1134 m -7.6 m/s 405.50 MHz Rosenheim (DE) 0.00 km UNKNOWN
P4930232 RS41 2020-01-17 05:00:11 47.5136 12.0236 79 ° 15 km/h 2589 m -5.0 m/s 405.50 MHz Kirchbichl (AT) 0.00 km UNKNOWN
P5010369 RS41 2020-01-16 05:35:30 47.8955 13.0878 99 ° 11 km/h 854 m -3.0 m/s 405.50 MHz Elixhausen (AT) 0.00 km FOUND
P5010128 RS41 2020-01-15 05:21:00 47.4279 12.4365 60 ° 13 km/h 2607 m -4.4 m/s 405.50 MHz Kitzbühel (AT) 0.00 km UNKNOWN
P5010361 RS41 2020-01-13 05:21:09 47.3339 12.8527 97 ° 30 km/h 3216 m -6.1 m/s 405.50 MHz Zell am See (AT) 0.00 km UNKNOWN
P5010370 RS41 2020-01-12 04:51:11 46.8568 11.1749 271 ° 22 km/h 4080 m -11.4 m/s 405.50 MHz Sölden (AT) 0.00 km UNKNOWN
P4930511 RS41 2020-01-11 04:45:03 46.8463 11.5307 182 ° 35 km/h 4913 m -9.9 m/s 404.10 MHz Bressanone (IT) 0.00 km UNKNOWN
P4930513 RS41 2020-01-10 05:23:48 47.8656 12.3771 102 ° 37 km/h 966 m -3.5 m/s 405.50 MHz Rosenheim (DE) 0.00 km UNKNOWN
P4930566 RS41 2020-01-09 05:10:27 46.996 11.8403 72 ° 11 km/h 4192 m -4.7 m/s 405.50 MHz Mayrhofen (AT) 0.00 km UNKNOWN
P4930512 RS41 2020-01-08 05:01:00 46.271 10.7594 161 ° 7 km/h 3463 m -5.6 m/s 405.50 MHz Lavis (IT) 0.00 km UNKNOWN
P4930197 RS41 2020-01-06 05:17:13 46.2673 11.4529 196 ° 44 km/h 3182 m -5.3 m/s 404.10 MHz Laives (IT) 0.00 km UNKNOWN
P4930540 RS41 2020-01-05 05:28:11 45.3562 11.7478 296 ° 19 km/h 727 m -4.5 m/s 404.10 MHz Abano Terme (IT) 0.00 km UNKNOWN
P4930250 RS41 2020-01-04 05:24:58 46.4275 12.263 171 ° 31 km/h 3490 m -2.7 m/s 405.50 MHz Belluno (IT) 0.00 km UNKNOWN
P4930203 RS41 2020-01-03 04:47:29 46.6826 12.356 143 ° 61 km/h 4593 m -11.2 m/s 405.50 MHz Brunico (IT) 0.00 km UNKNOWN
P4930557 RS41 2020-01-02 05:14:28 47.2928 11.9755 5 ° 24 km/h 2594 m -4.4 m/s 405.50 MHz Alpbach (AT) 0.00 km UNKNOWN
P4930544 RS41 2020-01-01 05:15:20 46.4805 11.7637 194 ° 41 km/h 3903 m -8.3 m/s 405.50 MHz Bressanone (IT) 0.00 km UNKNOWN
P4930199 RS41 2019-12-31 04:56:31 46.671 12.1164 165 ° 41 km/h 3833 m -3.7 m/s 405.50 MHz Brunico (IT) 0.00 km UNKNOWN
P4930201 RS41 2019-12-30 04:59:57 46.187 10.6992 226 ° 37 km/h 3249 m -11.2 m/s 405.50 MHz Lavis (IT) 0.00 km UNKNOWN
P4930535 RS41 2019-12-29 05:22:03 45.678 10.9718 184 ° 39 km/h 1547 m -4.9 m/s 405.50 MHz Ala (IT) 0.00 km UNKNOWN
P4930514 RS41 2019-12-28 05:08:04 45.7252 11.4764 68 ° 13 km/h 1371 m -8.9 m/s 405.50 MHz Thiene (IT) 0.00 km FOUND
P4930195 RS41 2019-12-27 05:13:13 46.628 12.4729 148 ° 59 km/h 3028 m -5.2 m/s 405.50 MHz Lienz (AT) 0.00 km UNKNOWN
P4930193 RS41 2019-12-26 05:32:29 45.8655 13.0169 234 ° 19 km/h 703 m -9.4 m/s 405.50 MHz Latisana (IT) 0.00 km FOUND
P4930194 RS41 2019-12-25 05:21:35 45.9809 13.0472 217 ° 6 km/h 244 m -7.9 m/s 405.50 MHz Codroipo (IT) 0.00 km UNKNOWN
P4930555 RS41 2019-12-24 05:20:46 46.0058 12.6086 263 ° 6 km/h 634 m -4.1 m/s 405.50 MHz Fontanafredda (IT) 0.00 km FOUND
P4930695 RS41 2019-12-23 04:55:32 46.9608 12.331 153 ° 63 km/h 3915 m -20.0 m/s 405.50 MHz Virgen (AT) 0.00 km UNKNOWN
P4930707 RS41 2019-12-22 05:26:05 47.6847 12.7847 293 ° 4 km/h 1230 m -3.8 m/s 405.50 MHz Grossgmain (AT) 0.00 km UNKNOWN
P4930553 RS41 2019-12-20 05:23:09 47.3196 12.325 18 ° 59 km/h 2633 m -1.5 m/s 405.50 MHz Bramberg am Wildkogel (AT) 0.00 km UNKNOWN
P4930708 RS41 2019-12-19 05:24:45 47.8681 11.9226 29 ° 26 km/h 1027 m -5.2 m/s 404.10 MHz Rosenheim (DE) 0.00 km FOUND
P4930569 RS41 2019-12-18 05:16:51 48.0577 12.6255 122 ° 30 km/h 646 m -5.8 m/s 404.10 MHz Traunreut (DE) 0.00 km FOUND
P4930196 RS41 2019-12-17 05:30:58 48.121 12.95 17 ° 20 km/h 588 m -5.8 m/s 405.50 MHz Hochburg-Ach (AT) 0.00 km FOUND
P4930570 RS41 2019-12-16 05:26:01 47.4431 13.3831 44 ° 15 km/h 2465 m -9.9 m/s 405.50 MHz Eben im Pongau (AT) 0.00 km UNKNOWN
P4930534 RS41 2019-12-15 08:57:04 47.3314 13.3503 80 ° 28 km/h 3014 m -5.2 m/s 405.50 MHz Flachau (AT) 0.00 km UNKNOWN
P4930565 RS41 2019-12-14 05:56:18 45.6317 13.8819 156 ° 19 km/h 843 m -2.1 m/s 405.50 MHz Kozina (SI) 0.00 km LOST
P4930531 RS41 2019-12-13 05:07:51 47.0322 12.6454 101 ° 37 km/h 4307 m -9.2 m/s 405.50 MHz Matrei in Osttirol (AT) 0.00 km UNKNOWN
P4930567 RS41 2019-12-12 04:02:01 47.6945 11.429 81 ° 28 km/h 1918 m -9.6 m/s 405.50 MHz Geretsried (DE) 0.00 km UNKNOWN
P4930812 RS41 2019-12-11 05:41:19 46.5168 11.8708 230 ° 30 km/h 3873 m -4.6 m/s 404.10 MHz Bressanone (IT) 0.00 km UNKNOWN
P4930532 RS41 2019-12-10 09:48:14 46.243 11.3317 195 ° 69 km/h 3560 m -4.3 m/s 405.50 MHz Lavis (IT) 0.00 km UNKNOWN
P4930806 RS41 2019-12-09 05:13:23 47.5154 13.0629 140 ° 19 km/h 2260 m -8.9 m/s 404.10 MHz Werfen (AT) 0.00 km UNKNOWN
P4930822 RS41 2019-12-08 05:13:14 46.4093 12.4349 109 ° 52 km/h 3778 m -17.3 m/s 405.50 MHz Belluno (IT) 0.00 km UNKNOWN
P4930808 RS41 2019-12-07 05:23:19 47.0407 13.0876 112 ° 56 km/h 4275 m -2.7 m/s 404.10 MHz Badgastein (AT) 0.00 km UNKNOWN
P5010397 RS41 2019-12-01 04:57:17 46.9921 13.1546 89 ° 22 km/h 3595 m -7.5 m/s 405.50 MHz Obervellach (AT) 0.00 km UNKNOWN
P4930856 RS41 2019-11-30 05:11:45 46.8385 13.4169 113 ° 30 km/h 2994 m -8.1 m/s 405.50 MHz Spittal an der Drau (AT) 0.00 km UNKNOWN
P4830324 RS41 2019-11-29 05:21:44 47.0766 13.6571 98 ° 22 km/h 2459 m -4.7 m/s 405.50 MHz Sankt Michael im Lungau (AT) 0.00 km UNKNOWN
P4930854 RS41 2019-11-28 05:07:15 47.4232 13.2763 88 ° 26 km/h 2740 m -8.5 m/s 405.50 MHz Bischofshofen (AT) 0.00 km UNKNOWN
P5010053 RS41 2019-11-27 04:58:56 47.364 12.9021 65 ° 22 km/h 2980 m -4.9 m/s 405.50 MHz Maishofen (AT) 0.00 km UNKNOWN
P4930810 RS41 2019-11-26 05:13:25 47.0537 12.6984 89 ° 26 km/h 4413 m -6.3 m/s 405.50 MHz Matrei in Osttirol (AT) 0.00 km UNKNOWN
P5010115 RS41 2019-11-25 05:16:31 47.1541 12.3176 31 ° 4 km/h 3777 m -7.8 m/s 405.50 MHz Neukirchen am Großvenediger (AT) 0.00 km UNKNOWN
P4930807 RS41 2019-11-24 05:02:40 47.5293 12.0338 1 ° 37 km/h 2201 m -5.9 m/s 405.50 MHz Kirchbichl (AT) 0.00 km UNKNOWN
P5010398 RS41 2019-11-23 05:11:53 47.5032 12.8151 345 ° 39 km/h 2222 m -7.7 m/s 405.50 MHz Saalfelden am Steinernen Meer (AT) 0.00 km UNKNOWN
P4930858 RS41 2019-11-22 05:27:17 47.6326 12.7651 7 ° 17 km/h 1922 m -9.8 m/s 404.10 MHz Grossgmain (AT) 0.00 km UNKNOWN
P4930855 RS41 2019-11-21 05:00:00 47.6072 11.876 74 ° 11 km/h 2037 m -9.8 m/s 404.10 MHz Achenkirch (AT) 0.00 km UNKNOWN
P5010384 RS41 2019-11-20 05:22:40 47.3794 12.205 41 ° 15 km/h 2594 m -4.4 m/s 405.50 MHz Westendorf (AT) 0.00 km UNKNOWN
P4930857 RS41 2019-11-19 05:38:36 47.6922 12.3828 304 ° 11 km/h 1299 m -4.1 m/s 404.10 MHz Kössen (AT) 0.00 km UNKNOWN
P4830310 RS41 2019-11-18 05:21:46 48.2392 11.0845 69 ° 46 km/h 899 m -5.6 m/s 404.10 MHz Fürstenfeldbruck (DE) 0.00 km UNKNOWN
P4830321 RS41 2019-11-17 05:33:59 48.7112 11.8652 296 ° 39 km/h 1049 m -4.8 m/s 404.10 MHz Landshut (DE) 0.00 km UNKNOWN
P4830319 RS41 2019-11-16 04:57:58 48.5109 12.1756 117 ° 15 km/h 714 m -2.5 m/s 404.10 MHz Landshut (DE) 0.00 km FOUND
P4830308 RS41 2019-11-15 05:28:02 48.2931 12.2047 312 ° 35 km/h 1088 m -3.4 m/s 405.50 MHz Waldkraiburg (DE) 0.00 km FOUND
P4830320 RS41 2019-11-14 14:19:15 47.8924 12.4157 341 ° 13 km/h 984 m -6.1 m/s 405.50 MHz Traunreut (DE) 0.00 km UNKNOWN
P5010004 RS41 2019-11-14 05:41:09 47.7465 12.8212 64 ° 13 km/h 1630 m -2.2 m/s 405.50 MHz Grossgmain (AT) 0.00 km UNKNOWN
P5010002 RS41 2019-11-13 05:09:27 47.5975 12.0087 128 ° 17 km/h 1860 m -8.1 m/s 405.50 MHz Kirchbichl (AT) 0.00 km UNKNOWN
P5010006 RS41 2019-11-12 05:09:34 47.879 12.3227 82 ° 28 km/h 999 m -6.8 m/s 405.50 MHz Rosenheim (DE) 0.00 km UNKNOWN
P5010104 RS41 2019-11-11 05:16:59 47.1671 12.1529 28 ° 59 km/h 3160 m -7.3 m/s 405.50 MHz Neukirchen am Großvenediger (AT) 0.00 km UNKNOWN
P4830307 RS41 2019-11-10 07:13:12 47.4966 12.0769 19 ° 9 km/h 2383 m -5.6 m/s 405.50 MHz Wörgl (AT) 0.00 km UNKNOWN
P4830322 RS41 2019-11-07 05:05:24 47.2466 12.6008 77 ° 26 km/h 3532 m -4.6 m/s 405.50 MHz Uttendorf (AT) 0.00 km UNKNOWN
P4830312 RS41 2019-11-06 05:06:45 47.5968 12.5517 94 ° 15 km/h 2004 m -8.0 m/s 405.50 MHz Kirchdorf in Tirol (AT) 0.00 km UNKNOWN
P4830311 RS41 2019-11-05 05:18:42 47.7708 13.209 327 ° 6 km/h 1050 m -3.3 m/s 405.50 MHz Faistenau (AT) 0.00 km UNKNOWN
P4830309 RS41 2019-11-04 05:28:01 47.3693 13.0515 118 ° 52 km/h 3141 m -4.8 m/s 405.50 MHz Goldegg (AT) 0.00 km UNKNOWN
P5010108 RS41 2019-11-03 05:31:13 47.8422 12.9861 99 ° 22 km/h 1079 m -7.3 m/s 405.50 MHz Bergheim (AT) 0.00 km UNKNOWN
P5010106 RS41 2019-11-02 05:37:31 47.3014 13.2314 76 ° 15 km/h 2514 m -3.4 m/s 405.50 MHz Sankt Johann im Pongau (AT) 0.00 km UNKNOWN
P5010001 RS41 2019-11-01 05:57:35 46.6213 12.5389 357 ° 11 km/h 2590 m -3.9 m/s 405.50 MHz Lienz (AT) 0.00 km UNKNOWN
P5010003 RS41 2019-10-31 04:46:36 46.7371 12.5427 136 ° 22 km/h 2447 m -3.2 m/s 405.50 MHz Lienz (AT) 0.00 km UNKNOWN
P5010005 RS41 2019-10-30 05:33:34 46.938 13.1358 96 ° 48 km/h 3917 m -5.4 m/s 404.10 MHz Obervellach (AT) 0.00 km UNKNOWN
P2440287 RS41 2019-10-29 04:55:58 47.2557 12.6266 110 ° 28 km/h 3260 m -5.6 m/s 405.50 MHz Niedernsill (AT) 0.00 km UNKNOWN
P2440284 RS41 2019-10-28 04:47:21 47.1863 12.3888 93 ° 30 km/h 3652 m -10.3 m/s 405.50 MHz Bramberg am Wildkogel (AT) 0.00 km UNKNOWN
P2440283 RS41 2019-10-27 05:10:57 47.242 11.465 74 ° 13 km/h 982 m -3.8 m/s 404.10 MHz Sistrans (AT) 0.00 km UNKNOWN
P2440290 RS41 2019-10-26 04:07:48 47.1442 11.5518 31 ° 33 km/h 2649 m -8.5 m/s 405.50 MHz Steinach am Brenner (AT) 0.00 km UNKNOWN
P2440260 RS41 2019-10-25 04:32:56 47.6397 12.5329 202 ° 13 km/h 1837 m -12.4 m/s 405.50 MHz Kössen (AT) 0.00 km UNKNOWN
P2440285 RS41 2019-10-24 04:29:45 47.8712 12.2521 23 ° 30 km/h 828 m -4.1 m/s 404.10 MHz Rosenheim (DE) 0.00 km UNKNOWN
P2510114 RS41 2019-10-23 04:24:20 47.6733 12.2326 28 ° 41 km/h 1793 m -9.3 m/s 405.50 MHz Niederndorf (AT) 0.00 km UNKNOWN
P2510110 RS41 2019-10-22 04:11:40 47.6587 12.3456 54 ° 15 km/h 1532 m -8.6 m/s 405.50 MHz Kössen (AT) 0.00 km UNKNOWN
P2510112 RS41 2019-10-21 04:18:22 47.9206 12.5092 34 ° 35 km/h 871 m -12.2 m/s 405.50 MHz Traunreut (DE) 0.00 km UNKNOWN
P2440294 RS41 2019-10-20 04:06:33 47.7532 12.8178 2 ° 20 km/h 1811 m -8.6 m/s 405.50 MHz Grossgmain (AT) 0.00 km UNKNOWN
P2510018 RS41 2019-10-19 04:24:36 47.5881 13.0091 336 ° 4 km/h 1925 m -8.2 m/s 404.10 MHz Hallein (AT) 0.00 km UNKNOWN
P2440277 RS41 2019-10-18 04:14:29 47.7181 12.4693 160 ° 2 km/h 1722 m -7.7 m/s 405.50 MHz Kössen (AT) 0.00 km UNKNOWN
P2510017 RS41 2019-10-17 04:21:44 47.5271 12.19 239 ° 6 km/h 2287 m -4.4 m/s 405.50 MHz Söll (AT) 0.00 km UNKNOWN
P2510026 RS41 2019-10-16 04:27:48 47.6932 12.2644 95 ° 48 km/h 1764 m -3.8 m/s 405.50 MHz Niederndorf (AT) 0.00 km UNKNOWN
P2510046 RS41 2019-10-15 04:34:20 47.995 12.096 104 ° 15 km/h 1020 m -8.2 m/s 405.50 MHz Rosenheim (DE) 0.00 km UNKNOWN
P2440278 RS41 2019-10-14 04:29:01 47.458 12.3176 326 ° 13 km/h 2022 m -5.0 m/s 405.50 MHz Kirchberg in Tirol (AT) 0.00 km UNKNOWN
P2510011 RS41 2019-10-13 04:15:57 47.3545 12.8439 118 ° 31 km/h 2741 m -8.2 m/s 405.50 MHz Maishofen (AT) 0.00 km UNKNOWN
P2510012 RS41 2019-10-12 04:25:15 47.4559 12.8293 91 ° 43 km/h 2893 m -11.8 m/s 405.50 MHz Saalfelden am Steinernen Meer (AT) 0.00 km UNKNOWN
P2510019 RS41 2019-10-11 04:21:21 46.7936 13.19 85 ° 33 km/h 2812 m -5.8 m/s 405.50 MHz Obervellach (AT) 0.00 km UNKNOWN
P2510020 RS41 2019-10-10 04:08:16 47.5272 13.69 126 ° 15 km/h 2176 m -8.9 m/s 405.50 MHz Bad Aussee (AT) 0.00 km UNKNOWN
P2510024 RS41 2019-10-09 04:14:06 47.5656 13.4017 110 ° 33 km/h 2115 m -9.2 m/s 405.50 MHz Abtenau (AT) 0.00 km UNKNOWN
P2440289 RS41 2019-10-08 04:36:21 46.0144 12.1338 133 ° 7 km/h 1590 m -11.9 m/s 404.10 MHz Sedico (IT) 0.00 km UNKNOWN
P2510113 RS41 2019-10-07 04:38:30 46.5786 12.0771 187 ° 37 km/h 3888 m -3.9 m/s 405.50 MHz Brunico (IT) 0.00 km UNKNOWN
P2440291 RS41 2019-10-06 04:08:38 46.7062 13.036 133 ° 46 km/h 2886 m -12.6 m/s 405.50 MHz Kirchbach (AT) 0.00 km UNKNOWN
P2440292 RS41 2019-10-05 04:38:17 46.4464 13.1265 90 ° 6 km/h 1887 m -4.4 m/s 404.10 MHz Tolmezzo (IT) 0.00 km UNKNOWN
P2440293 RS41 2019-10-04 04:11:37 46.6234 12.6721 130 ° 69 km/h 2865 m -9.5 m/s 405.50 MHz Lienz (AT) 0.00 km UNKNOWN
P2440282 RS41 2019-10-03 04:05:11 47.1542 12.3105 173 ° 44 km/h 3659 m -5.6 m/s 405.50 MHz Neukirchen am Großvenediger (AT) 0.00 km UNKNOWN
P2510109 RS41 2019-10-02 04:39:23 47.9546 13.0672 62 ° 41 km/h 836 m -10.1 m/s 405.50 MHz Mattsee (AT) 0.00 km UNKNOWN
P2440296 RS41 2019-10-01 04:21:22 47.3746 13.0339 102 ° 43 km/h 2987 m -5.0 m/s 405.50 MHz Goldegg (AT) 0.00 km UNKNOWN
P2440295 RS41 2019-09-30 04:19:16 46.6822 13.4737 118 ° 70 km/h 3176 m -5.0 m/s 405.50 MHz Hermagor (AT) 0.00 km FOUND
P2440297 RS41 2019-09-29 04:14:12 47.0447 12.9878 114 ° 52 km/h 4146 m -10.4 m/s 405.50 MHz Badgastein (AT) 0.00 km UNKNOWN
P2510016 RS41 2019-09-27 05:35:53 46.5422 13.8825 71 ° 13 km/h 1200 m -3.9 m/s 405.50 MHz Villach (AT) 0.00 km FOUND
P2510015 RS41 2019-09-26 05:14:01 46.3885 13.3305 131 ° 11 km/h 1923 m -6.4 m/s 405.50 MHz Bovec (SI) 0.00 km FOUND
P2510014 RS41 2019-09-25 04:59:16 47.3083 13.4731 117 ° 26 km/h 2825 m -5.0 m/s 405.50 MHz Flachau (AT) 0.00 km UNKNOWN
P2510013 RS41 2019-09-24 04:16:48 46.4897 12.6155 274 ° 15 km/h 2653 m -10.9 m/s 405.50 MHz Tolmezzo (IT) 0.00 km UNKNOWN
P2510007 RS41 2019-09-23 04:11:25 47.4169 12.1405 323 ° 6 km/h 2960 m -11.8 m/s 405.50 MHz Hopfgarten im Brixental (AT) 0.00 km UNKNOWN
DFM3919B DFM 2019-09-22 05:04:17 47.3971 12.4253 35 ° 22 km/h 2720 m -3.9 m/s MHz Kitzbühel (AT) 0.00 km UNKNOWN
P2451068 RS41 2019-09-22 04:35:40 47.3088 12.421 82 ° 24 km/h 3020 m -5.1 m/s 404.10 MHz Mittersill (AT) 0.00 km UNKNOWN
DFM38B01 DFM 2019-09-22 00:34:14 47.3777 12.3088 349 ° 6 km/h 2679 m -3.9 m/s MHz Kirchberg in Tirol (AT) 0.00 km UNKNOWN
DFM38B2B DFM 2019-09-21 21:26:43 47.3099 12.159 81 ° 22 km/h 2849 m -4.6 m/s MHz Westendorf (AT) 0.00 km UNKNOWN
DFM38B80 DFM 2019-09-21 18:41:10 47.3494 12.118 33 ° 13 km/h 2516 m -4.3 m/s MHz Westendorf (AT) 0.00 km UNKNOWN
DFM39EE4 DFM 2019-09-21 16:49:35 47.3109 12.1473 45 ° 26 km/h 2757 m -3.7 m/s 401.110 MHz Westendorf (AT) 0.00 km UNKNOWN
DFM38B7E DFM 2019-09-21 14:55:16 47.2965 12.1765 27 ° 17 km/h 2648 m -4.4 m/s MHz Neukirchen am Großvenediger (AT) 0.00 km UNKNOWN
DFM38B19 DFM 2019-09-21 12:45:35 47.3001 12.1085 317 ° 6 km/h 2599 m -4.2 m/s MHz Westendorf (AT) 0.00 km UNKNOWN
DFM39196 DFM 2019-09-21 07:45:41 47.1924 12.0451 122 ° 11 km/h 3270 m -4.0 m/s 401.150 MHz Mayrhofen (AT) 0.00 km UNKNOWN
DFM3915F DFM 2019-09-21 04:41:56 47.1668 12.0296 143 ° 9 km/h 3585 m -3.7 m/s 401.150 MHz Mayrhofen (AT) 0.00 km UNKNOWN
P2440281 RS41 2019-09-21 03:57:08 47.0974 11.7536 65 ° 17 km/h 3259 m -4.4 m/s 404.10 MHz Mayrhofen (AT) 0.00 km UNKNOWN
P2510010 RS41 2019-09-20 04:03:58 46.6941 11.5955 155 ° 37 km/h 4331 m -10.3 m/s 404.10 MHz Bressanone (IT) 0.00 km UNKNOWN
P2510008 RS41 2019-09-19 04:10:51 46.9103 12.2795 143 ° 30 km/h 4010 m -9.5 m/s 405.50 MHz Virgen (AT) 0.00 km UNKNOWN
P2440264 RS41 2019-09-18 04:05:35 46.8883 12.6298 136 ° 54 km/h 3380 m -8.7 m/s 404.10 MHz Lienz (AT) 0.00 km UNKNOWN
P2440562 RS41 2019-09-17 04:37:25 46.7198 12.5897 108 ° 35 km/h 2868 m -3.3 m/s 405.50 MHz Lienz (AT) 0.00 km UNKNOWN
DFM39148 DFM 2019-09-16 04:28:46 47.1637 11.9349 137 ° 39 km/h 3724 m -5.4 m/s 401.150 MHz Mayrhofen (AT) 0.00 km UNKNOWN
P2440321 RS41 2019-09-16 04:11:32 47.0774 11.7249 140 ° 28 km/h 3322 m -8.8 m/s 404.10 MHz Mayrhofen (AT) 0.00 km UNKNOWN
DFM39198 DFM 2019-09-16 00:51:45 47.1747 11.8508 100 ° 20 km/h 3129 m -3.2 m/s 401.150 MHz Mayrhofen (AT) 0.00 km UNKNOWN
DFM39F08 DFM 2019-09-15 21:45:17 47.1886 11.7456 99 ° 20 km/h 3115 m -3.6 m/s MHz Mayrhofen (AT) 0.00 km UNKNOWN
DFM39160 DFM 2019-09-15 18:50:56 47.1783 11.7059 48 ° 4 km/h 3085 m -3.0 m/s MHz Mayrhofen (AT) 0.00 km UNKNOWN
DFM39188 DFM 2019-09-15 16:56:54 47.1651 11.7363 119 ° 20 km/h 3107 m -3.0 m/s 401.110 MHz Mayrhofen (AT) 0.00 km UNKNOWN
DFM38B24 DFM 2019-09-15 14:50:51 47.1717 11.72 115 ° 11 km/h 3024 m -4.0 m/s MHz Mayrhofen (AT) 0.00 km UNKNOWN
DFM39176 DFM 2019-09-15 12:45:48 47.1422 11.7207 68 ° 13 km/h 3263 m -4.0 m/s 401.110 MHz Mayrhofen (AT) 0.00 km UNKNOWN
DFM39F41 DFM 2019-09-15 10:49:29 47.0831 11.7493 194 ° 4 km/h 3051 m -4.0 m/s MHz Mayrhofen (AT) 0.00 km UNKNOWN
DFM38BC3 DFM 2019-09-15 07:58:58 46.985 11.9023 121 ° 9 km/h 3841 m -4.1 m/s MHz Mayrhofen (AT) 0.00 km UNKNOWN
DFM38E64 DFM 2019-09-15 04:38:17 47.0229 12.0789 71 ° 13 km/h 3817 m -3.0 m/s MHz Mayrhofen (AT) 0.00 km UNKNOWN
P2440328 RS41 2019-09-15 04:01:59 46.9851 11.7758 150 ° 24 km/h 3555 m -12.9 m/s 405.50 MHz Mayrhofen (AT) 0.00 km UNKNOWN
P2440326 RS41 2019-09-14 04:00:15 47.0689 12.4396 149 ° 26 km/h 3980 m -8.2 m/s 405.50 MHz Virgen (AT) 0.00 km UNKNOWN
DFM38E96 DFM 2019-09-14 00:37:01 47.03 12.6648 172 ° 19 km/h 3912 m -3.2 m/s MHz Matrei in Osttirol (AT) 0.00 km UNKNOWN
DFM38E8C DFM 2019-09-13 21:48:57 46.9724 12.6553 134 ° 30 km/h 3897 m -3.2 m/s MHz Matrei in Osttirol (AT) 0.00 km UNKNOWN
DFM38E6C DFM 2019-09-13 18:28:28 47.0022 12.3837 134 ° 39 km/h 4600 m -4.6 m/s MHz Virgen (AT) 0.00 km UNKNOWN
DFM38E6E DFM 2019-09-13 17:00:51 46.8684 12.5591 173 ° 22 km/h 3719 m -3.5 m/s 401.150 MHz Matrei in Osttirol (AT) 0.00 km UNKNOWN
DFM38B3D DFM 2019-09-13 14:45:49 46.8842 12.3913 160 ° 19 km/h 3601 m -4.4 m/s MHz Virgen (AT) 0.00 km UNKNOWN
DFM38E9A DFM 2019-09-13 12:45:46 46.8608 12.3347 173 ° 26 km/h 3999 m -4.3 m/s 401.150 MHz Virgen (AT) 0.00 km UNKNOWN
DFM39EC6 DFM 2019-09-13 10:33:43 46.8601 12.169 188 ° 30 km/h 3850 m -3.5 m/s MHz Brunico (IT) 0.00 km UNKNOWN
DFM39EC2 DFM 2019-09-13 07:48:39 46.7931 12.168 204 ° 19 km/h 3741 m -4.9 m/s MHz Brunico (IT) 0.00 km UNKNOWN
DFM38B3C DFM 2019-09-13 04:45:36 46.7062 12.0834 186 ° 20 km/h 3527 m -3.6 m/s MHz Brunico (IT) 0.00 km UNKNOWN
P2440275 RS41 2019-09-13 04:25:38 46.6797 11.8601 189 ° 26 km/h 4009 m -4.1 m/s 404.10 MHz Brunico (IT) 0.00 km UNKNOWN
DFM39184 DFM 2019-09-13 00:42:30 46.7137 12.0191 187 ° 26 km/h 3558 m -4.7 m/s MHz Brunico (IT) 0.00 km UNKNOWN
P2440272 RS41 2019-09-12 04:31:43 46.265 11.3826 182 ° 48 km/h 3087 m -4.4 m/s 404.10 MHz Laives (IT) 0.00 km UNKNOWN
P2440259 RS41 2019-09-11 04:27:08 47.4859 11.9386 107 ° 9 km/h 2139 m -8.9 m/s 405.50 MHz Breitenbach am Inn (AT) 0.00 km FOUND
P2440262 RS41 2019-09-10 04:30:07 47.6195 12.5751 58 ° 26 km/h 1981 m -4.1 m/s 405.50 MHz Kirchdorf in Tirol (AT) 0.00 km UNKNOWN
P2440325 RS41 2019-09-09 04:15:36 47.4628 11.7043 114 ° 43 km/h 2252 m -4.5 m/s 405.50 MHz Eben am Achensee (AT) 0.00 km UNKNOWN
P2440310 RS41 2019-09-08 04:11:20 47.6643 12.1582 208 ° 4 km/h 1937 m -11.5 m/s 404.10 MHz Niederndorf (AT) 0.00 km UNKNOWN
P2440273 RS41 2019-09-07 04:56:39 47.5824 11.7255 127 ° 20 km/h 2123 m -3.1 m/s 405.50 MHz Achenkirch (AT) 0.00 km UNKNOWN
P2440276 RS41 2019-09-06 04:44:52 47.8312 11.6943 248 ° 22 km/h 1533 m -4.0 m/s 405.50 MHz Geretsried (DE) 0.00 km UNKNOWN
P2440263 RS41 2019-09-05 03:53:16 47.5276 11.9383 125 ° 20 km/h 2103 m -10.5 m/s 404.10 MHz Breitenbach am Inn (AT) 0.00 km UNKNOWN
P2440339 RS41 2019-09-04 04:08:19 47.0822 11.7755 147 ° 17 km/h 3121 m -8.7 m/s 404.10 MHz Mayrhofen (AT) 0.00 km UNKNOWN
P2440307 RS41 2019-09-03 04:20:04 46.3609 11.6866 169 ° 31 km/h 3823 m -5.2 m/s 405.50 MHz Laives (IT) 0.00 km UNKNOWN
P2440311 RS41 2019-09-02 04:17:56 47.4993 11.9985 154 ° 15 km/h 2402 m -6.4 m/s 405.50 MHz Breitenbach am Inn (AT) 0.00 km UNKNOWN
P2440327 RS41 2019-09-01 04:19:00 47.2883 11.6244 94 ° 4 km/h 1012 m -9.3 m/s 404.10 MHz Wattens (AT) 0.00 km UNKNOWN
P2440338 RS41 2019-08-31 04:12:56 47.2843 11.325 267 ° 20 km/h 1903 m -8.7 m/s 404.10 MHz Völs (AT) 0.00 km UNKNOWN
P2440342 RS41 2019-08-30 03:46:59 47.212 11.56 204 ° 6 km/h 2625 m -8.3 m/s 405.50 MHz Volders (AT) 0.00 km UNKNOWN
P2440271 RS41 2019-08-29 04:02:29 47.4567 11.6735 127 ° 17 km/h 2482 m -7.1 m/s 405.50 MHz Eben am Achensee (AT) 0.00 km UNKNOWN
DFM38D77 DFM 2019-08-27 11:10:45 47.4461 12.1928 110 ° 9 km/h 1854 m -3.5 m/s MHz Hopfgarten im Brixental (AT) 0.00 km UNKNOWN
DFM38D17 DFM 2019-08-27 08:04:14 47.3593 12.0689 69 ° 13 km/h 2548 m -4.4 m/s 401.150 MHz Alpbach (AT) 0.00 km UNKNOWN
DFM38E71 DFM 2019-08-27 04:53:59 47.307 12.0838 18 ° 9 km/h 2345 m -3.3 m/s 401.150 MHz Westendorf (AT) 0.00 km UNKNOWN
P2440308 RS41 2019-08-27 04:16:07 47.2686 11.6263 90 ° 15 km/h 1725 m -5.8 m/s 405.50 MHz Wattens (AT) 0.00 km UNKNOWN
DFM38D75 DFM 2019-08-27 00:48:05 47.3026 12.0226 60 ° 11 km/h 2591 m -4.1 m/s 401.150 MHz Alpbach (AT) 0.00 km UNKNOWN
DFM38ED1 DFM 2019-08-26 21:57:21 47.3244 11.999 11 ° 7 km/h 2157 m -4.2 m/s 401.150 MHz Alpbach (AT) 0.00 km UNKNOWN
DFM38D0C DFM 2019-08-26 18:45:51 47.2871 11.899 344 ° 11 km/h 2326 m -4.0 m/s 401.110 MHz Fügen (AT) 0.00 km UNKNOWN
DFM38D7B DFM 2019-08-26 16:36:25 47.2852 11.8514 14 ° 9 km/h 2284 m -3.0 m/s MHz Fügen (AT) 0.00 km UNKNOWN
DFM38D70 DFM 2019-08-26 15:27:05 47.2458 11.8601 69 ° 15 km/h 4529 m -4.2 m/s 401.150 MHz Mayrhofen (AT) 0.00 km UNKNOWN
DFM38E65 DFM 2019-08-26 13:07:30 47.3089 11.8018 23 ° 9 km/h 2533 m -3.4 m/s 401.150 MHz Fügen (AT) 0.00 km UNKNOWN
DFM38E32 DFM 2019-08-26 11:11:37 47.2728 11.737 7 ° 11 km/h 2894 m -4.4 m/s 401.110 MHz Vomp (AT) 0.00 km UNKNOWN
DFM38E67 DFM 2019-08-26 10:57:33 47.2712 11.7302 13 ° 11 km/h 2975 m -3.6 m/s 401.150 MHz Vomp (AT) 0.00 km UNKNOWN
DFM38D74 DFM 2019-08-26 07:45:39 47.2158 11.6897 38 ° 7 km/h 2931 m -4.3 m/s 401.150 MHz Wattens (AT) 0.00 km UNKNOWN
DFM38F8D DFM 2019-08-26 04:37:36 47.2189 11.6662 88 ° 7 km/h 2821 m -13.1 m/s 401.150 MHz Wattens (AT) 0.00 km UNKNOWN
P2440324 RS41 2019-08-26 03:34:39 47.1409 11.3335 96 ° 7 km/h 2770 m -10.9 m/s 405.50 MHz Fulpmes (AT) 0.00 km UNKNOWN
P2440312 RS41 2019-08-25 04:25:15 47.2772 11.2513 140 ° 7 km/h 721 m -11.4 m/s 405.50 MHz Zirl (AT) 0.00 km UNKNOWN
P2341147 RS41 2019-08-24 04:13:39 47.3267 11.2507 358 ° 17 km/h 2203 m -14.4 m/s 405.50 MHz Seefeld in Tirol (AT) 0.00 km UNKNOWN
P2440261 RS41 2019-08-23 04:19:01 47.5362 11.6624 301 ° 11 km/h 1910 m -7.9 m/s 405.50 MHz Achenkirch (AT) 0.00 km UNKNOWN
DFM38EED DFM 2019-08-23 00:59:13 47.5731 12.0589 25 ° 11 km/h 2185 m -4.3 m/s 401.150 MHz Schwoich (AT) 0.00 km UNKNOWN
DFM38E73 DFM 2019-08-22 21:38:50 47.4993 12.0351 305 ° 13 km/h 2426 m -3.2 m/s 401.150 MHz Wörgl (AT) 0.00 km UNKNOWN
DFM39A38 DFM 2019-08-22 18:35:52 47.4889 12.1589 94 ° 6 km/h 2446 m -10.1 m/s 401.150 MHz Söll (AT) 0.00 km UNKNOWN
DFM38F93 DFM 2019-08-22 17:21:17 47.6456 12.6146 131 ° 7 km/h 2209 m -3.2 m/s 401.150 MHz Kirchdorf in Tirol (AT) 0.00 km UNKNOWN
DFM38E81 DFM 2019-08-22 14:57:06 47.6749 12.5949 315 ° 2 km/h 1589 m -3.5 m/s MHz Kössen (AT) 0.00 km UNKNOWN
DFM38E8E DFM 2019-08-22 13:06:27 47.7657 12.6943 294 ° 2 km/h 1268 m -3.3 m/s 401.150 MHz Grossgmain (AT) 0.00 km UNKNOWN
DFM38EAB DFM 2019-08-22 11:18:08 47.7733 12.6912 28 ° 13 km/h 1902 m -2.8 m/s 401.150 MHz Grossgmain (AT) 0.00 km UNKNOWN
DFM39A06 DFM 2019-08-22 07:55:49 47.7527 12.7379 356 ° 6 km/h 1185 m -4.3 m/s MHz Grossgmain (AT) 0.00 km UNKNOWN
DFM38EA3 DFM 2019-08-22 05:09:01 47.7975 12.9353 292 ° 15 km/h 955 m -3.0 m/s 401.150 MHz Viehausen (AT) 0.00 km UNKNOWN
P2440288 RS41 2019-08-22 04:27:19 47.6574 12.2377 36 ° 19 km/h 1881 m -5.6 m/s 405.50 MHz Niederndorf (AT) 0.00 km UNKNOWN
P2440319 RS41 2019-08-21 06:00:28 48.8127 13.2151 176 ° 24 km/h 1345 m -8.6 m/s 405.50 MHz Deggendorf (DE) 0.00 km UNKNOWN
P2440309 RS41 2019-08-20 04:40:47 47.9233 13.2251 255 ° 9 km/h 967 m -6.8 m/s 405.50 MHz Neumarkt am Wallersee (AT) 0.00 km FOUND
P2440332 RS41 2019-08-19 04:33:55 47.9626 12.5968 44 ° 30 km/h 762 m -5.2 m/s 404.10 MHz Traunreut (DE) 0.00 km UNKNOWN
DFM38D6B DFM 2019-08-18 19:11:22 48.0246 13.1 307 ° 22 km/h 651 m -2.9 m/s MHz Mattsee (AT) 0.00 km FOUND
DFM38D0E DFM 2019-08-18 17:12:03 48.0214 13.0355 261 ° 7 km/h 746 m -3.7 m/s MHz Eggelsberg (AT) 0.00 km UNKNOWN
DFM38D54 DFM 2019-08-18 15:13:46 47.9565 13.0768 170 ° 7 km/h 788 m -3.0 m/s MHz Mattsee (AT) 0.00 km UNKNOWN
DFM38E77 DFM 2019-08-18 13:07:10 47.845 13.0665 271 ° 9 km/h 940 m -3.8 m/s MHz Hallwang (AT) 0.00 km UNKNOWN
DFM38C50 DFM 2019-08-18 10:59:31 47.6657 13.0744 254 ° 7 km/h 1310 m -4.4 m/s MHz Hallein (AT) 0.00 km UNKNOWN
DFM38E70 DFM 2019-08-18 08:10:49 47.429 13.145 16 ° 11 km/h 2368 m -3.4 m/s MHz Bischofshofen (AT) 0.00 km UNKNOWN
DFM38D7C DFM 2019-08-18 04:48:30 47.1515 13.1526 108 ° 37 km/h 3512 m -3.0 m/s MHz Bad Hofgastein (AT) 0.00 km UNKNOWN
P2440336 RS41 2019-08-18 04:35:46 47.2012 12.6351 103 ° 50 km/h 3793 m -5.7 m/s 405.50 MHz Uttendorf (AT) 0.00 km UNKNOWN
DFM38D6D DFM 2019-08-18 01:01:36 46.9782 13.221 113 ° 31 km/h 3138 m -2.9 m/s MHz Obervellach (AT) 0.00 km UNKNOWN
DFM38D6F DFM 2019-08-17 21:51:30 46.8135 13.1549 118 ° 22 km/h 3205 m -5.4 m/s MHz Obervellach (AT) 0.00 km UNKNOWN
DFM38EA2 DFM 2019-08-17 18:51:35 46.6756 13.1677 95 ° 22 km/h 3247 m -3.6 m/s MHz Kirchbach (AT) 0.00 km UNKNOWN
DFM39A60 DFM 2019-08-17 17:03:34 46.6893 13.1865 123 ° 30 km/h 3512 m -3.7 m/s MHz Kirchbach (AT) 0.00 km UNKNOWN
P2440301 RS41 2019-08-17 04:26:07 46.7534 12.1431 122 ° 37 km/h 4073 m -11.5 m/s 405.50 MHz Brunico (IT) 0.00 km UNKNOWN
P2440348 RS41 2019-08-16 04:35:38 46.7902 12.5313 138 ° 33 km/h 3126 m -5.7 m/s 405.50 MHz Lienz (AT) 0.00 km UNKNOWN
DFM39A34 DFM 2019-08-15 04:56:15 46.8805 12.7634 136 ° 39 km/h 3774 m -3.4 m/s MHz Lienz (AT) 0.00 km UNKNOWN
P2440340 RS41 2019-08-15 04:39:44 46.9012 12.1814 126 ° 35 km/h 3846 m -5.1 m/s 405.50 MHz Brunico (IT) 0.00 km UNKNOWN
DFM38EA9 DFM 2019-08-15 00:54:25 47.0812 12.5645 144 ° 44 km/h 4342 m -5.0 m/s 401.150 MHz Matrei in Osttirol (AT) 0.00 km UNKNOWN
DFM38E95 DFM 2019-08-14 21:42:42 47.1082 12.4504 132 ° 28 km/h 4106 m -3.7 m/s MHz Virgen (AT) 0.00 km UNKNOWN
DFM38EA4 DFM 2019-08-14 18:52:25 47.2352 12.5775 107 ° 37 km/h 3636 m -4.6 m/s MHz Uttendorf (AT) 0.00 km UNKNOWN
DFM38E92 DFM 2019-08-14 17:14:19 47.3322 12.8557 99 ° 31 km/h 3574 m -3.7 m/s MHz Zell am See (AT) 0.00 km UNKNOWN
DFM39A6C DFM 2019-08-14 14:53:38 47.3656 12.7484 88 ° 33 km/h 2936 m -4.4 m/s MHz Maishofen (AT) 0.00 km UNKNOWN
DFM39A3E DFM 2019-08-14 12:53:35 47.3427 12.6092 92 ° 26 km/h 3417 m -6.6 m/s 401.150 MHz Niedernsill (AT) 0.00 km UNKNOWN
DFM38E80 DFM 2019-08-14 11:04:55 47.3316 12.6528 106 ° 22 km/h 2983 m -4.6 m/s MHz Niedernsill (AT) 0.00 km UNKNOWN
DFM39A61 DFM 2019-08-14 07:58:58 47.3648 12.6677 130 ° 13 km/h 3081 m -4.7 m/s MHz Leogang (AT) 0.00 km UNKNOWN
DFM38D67 DFM 2019-08-14 05:19:23 47.8513 12.9888 103 ° 31 km/h 986 m -3.5 m/s 401.150 MHz Anthering (AT) 0.00 km FOUND
P2440337 RS41 2019-08-14 04:37:30 47.7096 12.3227 158 ° 15 km/h 1835 m -3.1 m/s 405.50 MHz Kössen (AT) 0.00 km UNKNOWN
P2440322 RS41 2019-08-13 04:56:13 48.4463 13.0734 87 ° 31 km/h 692 m -5.6 m/s 405.50 MHz Braunau am Inn (AT) 0.00 km UNKNOWN
P2440320 RS41 2019-08-12 04:23:22 48.1106 12.5153 103 ° 20 km/h 655 m -8.7 m/s 405.50 MHz Waldkraiburg (DE) 0.00 km UNKNOWN
DFM39A41 DFM 2019-08-12 01:27:52 48.3212 13.2672 83 ° 22 km/h 380 m -2.9 m/s 401.150 MHz Altheim (AT) 0.00 km UNKNOWN
DFM38E94 DFM 2019-08-11 22:14:33 48.1593 13.2563 84 ° 11 km/h 614 m -2.3 m/s MHz Mettmach (AT) 0.00 km UNKNOWN
DFM39A5E DFM 2019-08-11 19:20:44 48.1576 13.1788 307 ° 22 km/h 544 m -3.4 m/s MHz Schalchen (AT) 0.00 km UNKNOWN
DFM38EE5 DFM 2019-08-11 17:12:05 48.1921 13.173 272 ° 24 km/h 501 m -3.8 m/s MHz Mauerkirchen (AT) 0.00 km UNKNOWN
DFM38E99 DFM 2019-08-11 15:19:46 48.1926 13.2297 269 ° 31 km/h 538 m -5.0 m/s 401.150 MHz Altheim (AT) 0.00 km UNKNOWN
DFM39A43 DFM 2019-08-11 13:17:10 48.1011 13.2286 231 ° 26 km/h 720 m -3.7 m/s 401.150 MHz Munderfing (AT) 0.00 km UNKNOWN
DFM38D2A DFM 2019-08-11 11:03:57 47.9846 13.2045 274 ° 30 km/h 712 m -4.1 m/s 401.150 MHz Lengau (AT) 0.00 km UNKNOWN
DFM38D7E DFM 2019-08-11 08:14:13 47.9034 13.3319 281 ° 7 km/h 847 m -3.2 m/s 401.150 MHz Mondsee (AT) 0.00 km FOUND
DFM38D65 DFM 2019-08-11 05:20:37 47.8342 13.3587 318 ° 17 km/h 961 m -2.5 m/s 401.150 MHz Sankt Lorenz (AT) 0.00 km FOUND
P2440482 RS41 2019-08-11 04:34:13 47.67 12.4412 180 ° 6 km/h 1707 m -9.8 m/s 405.50 MHz Kössen (AT) 0.00 km FOUND
DFM38EE9 DFM 2019-08-10 05:03:31 47.4323 12.9627 329 ° 20 km/h 2663 m -3.6 m/s 401.150 MHz Saalfelden am Steinernen Meer (AT) 0.00 km UNKNOWN
P2440481 RS41 2019-08-10 04:28:31 47.3663 12.166 339 ° 19 km/h 2626 m -7.0 m/s 405.50 MHz Westendorf (AT) 0.00 km UNKNOWN
DFM399FF DFM 2019-08-10 01:04:18 47.3907 12.9637 124 ° 28 km/h 2993 m -3.6 m/s MHz Saalfelden am Steinernen Meer (AT) 0.00 km UNKNOWN
DFM38D12 DFM 2019-08-09 21:58:43 47.2207 12.9878 120 ° 37 km/h 3430 m -4.0 m/s MHz Rauris (AT) 0.00 km UNKNOWN
DFM38D76 DFM 2019-08-09 18:48:47 47.1373 12.8851 116 ° 33 km/h 4360 m -6.6 m/s MHz Rauris (AT) 0.00 km UNKNOWN
DFM38D5A DFM 2019-08-09 17:06:48 47.1065 13.0741 129 ° 35 km/h 3921 m -4.5 m/s MHz Badgastein (AT) 0.00 km UNKNOWN
DFM38CF9 DFM 2019-08-09 15:09:45 47.1009 12.9716 79 ° 28 km/h 4091 m 0.9 m/s 401.150 MHz Badgastein (AT) 0.00 km UNKNOWN
DFM39A1B DFM 2019-08-09 12:52:20 47.1253 12.7889 106 ° 26 km/h 3632 m -6.9 m/s MHz Bruck an der Großglocknerstraße (AT) 0.00 km UNKNOWN
DFM39A54 DFM 2019-08-09 11:21:15 47.0693 12.9969 98 ° 41 km/h 3908 m -3.4 m/s MHz Badgastein (AT) 0.00 km UNKNOWN
DFM38D72 DFM 2019-08-09 08:32:37 46.9048 13.1167 111 ° 33 km/h 3353 m -3.5 m/s MHz Obervellach (AT) 0.00 km UNKNOWN
DFM38E7F DFM 2019-08-09 05:07:01 46.7609 13.0437 96 ° 30 km/h 3005 m -4.4 m/s MHz Kirchbach (AT) 0.00 km UNKNOWN
P2440474 RS41 2019-08-09 04:38:47 46.773 12.7453 98 ° 37 km/h 3068 m -4.1 m/s 405.50 MHz Lienz (AT) 0.00 km UNKNOWN
DFM38EEC DFM 2019-08-09 01:04:09 46.6483 13.1286 109 ° 26 km/h 3331 m -3.6 m/s MHz Kirchbach (AT) 0.00 km UNKNOWN
DFM38ECE DFM 2019-08-08 22:01:17 46.6583 13.072 96 ° 9 km/h 3048 m -3.7 m/s MHz Kirchbach (AT) 0.00 km UNKNOWN
DFM38D6E DFM 2019-08-08 18:41:43 47.0774 12.7374 87 ° 43 km/h 4015 m -10.7 m/s MHz Matrei in Osttirol (AT) 0.00 km UNKNOWN
DFM38E66 DFM 2019-08-08 17:13:27 47.3778 13.2085 109 ° 20 km/h 2754 m -3.0 m/s MHz Sankt Johann im Pongau (AT) 0.00 km FOUND
DFM38ED0 DFM 2019-08-08 15:09:16 47.4772 13.109 95 ° 20 km/h 2535 m -3.9 m/s MHz Werfen (AT) 0.00 km UNKNOWN
DFM38E74 DFM 2019-08-08 12:57:58 47.5125 13.1065 214 ° 11 km/h 2374 m -2.5 m/s MHz Werfen (AT) 0.00 km UNKNOWN
DFM38E7B DFM 2019-08-08 10:36:15 47.5047 12.9246 81 ° 24 km/h 2463 m -3.7 m/s MHz Saalfelden am Steinernen Meer (AT) 0.00 km UNKNOWN
DFM38E6D DFM 2019-08-08 08:04:02 47.5041 13.3654 92 ° 20 km/h 2274 m -6.1 m/s MHz Abtenau (AT) 0.00 km UNKNOWN
P2440362 RS41 2019-08-08 04:16:55 47.2644 12.7066 105 ° 33 km/h 3412 m -11.7 m/s 404.10 MHz Piesendorf (AT) 0.00 km UNKNOWN
P2440361 RS41 2019-08-07 04:40:59 47.3905 12.6188 100 ° 26 km/h 2608 m -4.8 m/s 404.10 MHz Fieberbrunn (AT) 0.00 km UNKNOWN
P2440490 RS41 2019-08-06 12:26:43 47.257 12.8123 97 ° 39 km/h 2972 m -4.2 m/s 405.50 MHz Bruck an der Großglocknerstraße (AT) 0.00 km UNKNOWN
DFM38E69 DFM 2019-08-06 01:16:03 46.9707 13.4204 141 ° 9 km/h 2458 m -3.3 m/s MHz Gmünd (AT) 0.00 km UNKNOWN
DFM7FB2E DFM 2019-08-05 22:04:34 46.8554 13.3231 96 ° 17 km/h 2843 m -3.2 m/s MHz Obervellach (AT) 0.00 km UNKNOWN
DFM7FB31 DFM 2019-08-05 18:40:18 46.8212 13.03 147 ° 41 km/h 3384 m -5.0 m/s MHz Dölsach (AT) 0.00 km UNKNOWN
DFM7FB24 DFM 2019-08-05 16:50:27 46.7634 13.1007 144 ° 39 km/h 3454 m -3.6 m/s MHz Kirchbach (AT) 0.00 km UNKNOWN
DFM66E0B DFM 2019-08-05 14:55:48 46.7334 13.005 125 ° 43 km/h 3802 m -4.7 m/s MHz Dölsach (AT) 0.00 km UNKNOWN
DFM7FB2F DFM 2019-08-05 12:56:01 46.678 12.9995 127 ° 48 km/h 3940 m -4.7 m/s MHz Kirchbach (AT) 0.00 km UNKNOWN
DFM7FB04 DFM 2019-08-05 10:50:56 46.6678 12.8501 133 ° 54 km/h 3957 m -3.9 m/s MHz Dölsach (AT) 0.00 km UNKNOWN
DFM63EB2 DFM 2019-08-05 08:00:59 46.6261 12.9147 115 ° 37 km/h 4083 m -4.3 m/s MHz Kirchbach (AT) 0.00 km UNKNOWN
DFM67979 DFM 2019-08-05 05:11:13 46.8889 12.9366 136 ° 24 km/h 3156 m -3.6 m/s MHz Dölsach (AT) 0.00 km UNKNOWN
P2440485 RS41 2019-08-05 04:39:07 46.9195 12.3994 140 ° 52 km/h 4278 m -8.6 m/s 405.50 MHz Virgen (AT) 0.00 km UNKNOWN
P2440371 RS41 2019-08-04 04:30:53 46.9086 12.3762 129 ° 28 km/h 4497 m -7.0 m/s 405.50 MHz Virgen (AT) 0.00 km UNKNOWN
DFM66EC8 DFM 2019-08-03 16:43:08 46.7016 13.125 124 ° 107 km/h 8174 m -5.5 m/s MHz Kirchbach (AT) 0.00 km UNKNOWN
DFM7FC90 DFM 2019-08-03 12:42:14 46.7222 13.1723 124 ° 54 km/h 6114 m -4.4 m/s MHz Kirchbach (AT) 0.00 km UNKNOWN
DFM38E9C DFM 2019-08-03 10:40:33 46.7811 13.0288 121 ° 59 km/h 6242 m -4.8 m/s MHz Dölsach (AT) 0.00 km UNKNOWN
DFM38EAA DFM 2019-08-03 07:37:28 46.8482 12.9306 125 ° 35 km/h 5551 m -10.5 m/s MHz Dölsach (AT) 0.00 km UNKNOWN
P2440370 RS41 2019-08-03 04:27:34 46.9838 13.0378 144 ° 13 km/h 4634 m -6.9 m/s 405.50 MHz Obervellach (AT) 0.00 km UNKNOWN
P2440492 RS41 2019-08-02 04:29:55 47.4647 12.3085 106 ° 13 km/h 2352 m -7.2 m/s 405.50 MHz Kirchberg in Tirol (AT) 0.00 km UNKNOWN
P2450144 RS41 2019-08-01 04:32:34 47.2395 12.5514 66 ° 33 km/h 3210 m -8.1 m/s 405.50 MHz Uttendorf (AT) 0.00 km UNKNOWN
P2440377 RS41 2019-07-31 04:26:06 47.7853 12.11 128 ° 20 km/h 1253 m -7.2 m/s 405.50 MHz Rosenheim (DE) 0.00 km LOST
P2440376 RS41 2019-07-30 05:02:14 47.1647 11.5175 218 ° 0 km/h 2476 m 0.0 m/s 405.50 MHz Sistrans (AT) 0.00 km UNKNOWN
P2440491 RS41 2019-07-29 04:34:11 47.118 11.0175 189 ° 35 km/h 3245 m -4.9 m/s 405.50 MHz Umhausen (AT) 0.00 km UNKNOWN
P2450143 RS41 2019-07-28 04:56:40 47.7365 11.0385 135 ° 9 km/h 1323 m -3.8 m/s 405.50 MHz Weilheim in Oberbayern (DE) 0.00 km UNKNOWN
P2440472 RS41 2019-07-27 04:52:23 47.3825 11.2902 183 ° 4 km/h 2233 m -4.3 m/s 405.50 MHz Seefeld in Tirol (AT) 0.00 km UNKNOWN
P2440470 RS41 2019-07-26 04:27:32 47.1143 11.3195 130 ° 20 km/h 3029 m -12.7 m/s 405.50 MHz Neustift im Stubaital (AT) 0.00 km UNKNOWN
P2440369 RS41 2019-07-25 04:41:46 47.1843 11.3811 222 ° 2 km/h 2157 m -5.9 m/s 404.10 MHz Fulpmes (AT) 0.00 km UNKNOWN
P2440303 RS41 2019-07-24 04:39:51 47.1587 11.1896 138 ° 9 km/h 2507 m -10.1 m/s 405.50 MHz Neustift im Stubaital (AT) 0.00 km UNKNOWN
P2450137 RS41 2019-07-23 05:10:21 46.7963 10.8994 187 ° 15 km/h 4138 m -9.9 m/s 405.50 MHz Sölden (AT) 0.00 km UNKNOWN
P2440367 RS41 2019-07-22 04:15:10 46.6811 11.8089 147 ° 44 km/h 4397 m -8.3 m/s 404.10 MHz Bressanone (IT) 0.00 km UNKNOWN
P2440378 RS41 2019-07-21 04:05:58 47.232 12.3307 94 ° 24 km/h 3126 m -9.7 m/s 405.50 MHz Bramberg am Wildkogel (AT) 0.00 km UNKNOWN
P2440375 RS41 2019-07-20 04:41:54 47.1007 11.9412 116 ° 20 km/h 3746 m -5.8 m/s 405.50 MHz Mayrhofen (AT) 0.00 km UNKNOWN
P2440374 RS41 2019-07-19 04:51:56 46.8191 11.8872 277 ° 4 km/h 1351 m -5.1 m/s 404.10 MHz Brunico (IT) 0.00 km FOUND
P2440380 RS41 2019-07-18 04:33:23 47.0836 11.7561 136 ° 17 km/h 3093 m -10.5 m/s 404.10 MHz Mayrhofen (AT) 0.00 km UNKNOWN
P2440383 RS41 2019-07-17 04:43:18 47.127 11.8204 90 ° 13 km/h 3446 m -5.8 m/s 405.50 MHz Mayrhofen (AT) 0.00 km UNKNOWN
P2440382 RS41 2019-07-16 04:20:26 46.5979 11.3249 200 ° 37 km/h 4814 m -5.3 m/s 405.50 MHz Bolzano (IT) 0.00 km UNKNOWN
P2440379 RS41 2019-07-15 04:07:48 47.0435 11.8865 270 ° 7 km/h 3388 m -8.5 m/s 404.10 MHz Mayrhofen (AT) 0.00 km UNKNOWN
P2440473 RS41 2019-07-14 04:39:57 46.4333 12.1904 141 ° 13 km/h 3042 m -5.1 m/s 405.50 MHz Belluno (IT) 0.00 km UNKNOWN
P2440365 RS41 2019-07-13 04:55:15 46.5584 13.2129 137 ° 24 km/h 2223 m -7.7 m/s 405.50 MHz Kirchbach (AT) 0.00 km UNKNOWN
P2440364 RS41 2019-07-12 04:25:43 46.551 12.7883 150 ° 35 km/h 2960 m -4.2 m/s 405.50 MHz Tolmezzo (IT) 0.00 km UNKNOWN
P2440373 RS41 2019-07-11 05:03:56 46.3821 12.5573 155 ° 24 km/h 2446 m -3.1 m/s 404.10 MHz Maniago (IT) 0.00 km UNKNOWN
P2440384 RS41 2019-07-10 04:33:21 46.7536 12.3636 161 ° 15 km/h 2672 m -5.8 m/s 404.10 MHz Virgen (AT) 0.00 km UNKNOWN
P2440381 RS41 2019-07-09 04:22:33 46.975 13.2526 96 ° 57 km/h 4014 m -8.0 m/s 405.50 MHz Obervellach (AT) 0.00 km UNKNOWN
P2440323 RS41 2019-07-08 04:17:19 47.0063 12.7044 113 ° 57 km/h 4481 m -7.2 m/s 404.10 MHz Matrei in Osttirol (AT) 0.00 km UNKNOWN
P2440333 RS41 2019-07-07 04:07:20 47.3107 13.1121 97 ° 65 km/h 3227 m -6.2 m/s 404.10 MHz Goldegg (AT) 0.00 km UNKNOWN
P2440334 RS41 2019-07-06 04:22:57 47.0598 12.2539 121 ° 50 km/h 4273 m -10.0 m/s 404.10 MHz Virgen (AT) 0.00 km UNKNOWN
P2440335 RS41 2019-07-05 04:47:01 46.8317 11.9936 93 ° 13 km/h 2184 m -7.4 m/s 404.10 MHz Brunico (IT) 0.00 km UNKNOWN
P2440363 RS41 2019-07-04 04:59:25 47.2449 12.3702 136 ° 17 km/h 3325 m -6.2 m/s 404.10 MHz Bramberg am Wildkogel (AT) 0.00 km UNKNOWN
P2440520 RS41 2019-07-03 04:49:51 47.3194 12.3083 100 ° 24 km/h 2779 m -4.9 m/s 404.10 MHz Bramberg am Wildkogel (AT) 0.00 km UNKNOWN
P2440534 RS41 2019-07-02 04:34:17 47.3684 12.3987 146 ° 20 km/h 2954 m -2.2 m/s 405.50 MHz Kitzbühel (AT) 0.00 km UNKNOWN
P2440493 RS41 2019-07-01 04:37:35 47.1989 11.6123 102 ° 13 km/h 2955 m -9.4 m/s 404.10 MHz Wattens (AT) 0.00 km UNKNOWN
P2440478 RS41 2019-06-30 04:03:12 47.0073 11.4624 180 ° 6 km/h 3690 m -10.6 m/s 404.10 MHz Steinach am Brenner (AT) 0.00 km UNKNOWN
P2440518 RS41 2019-06-29 04:48:50 46.5232 10.8509 212 ° 31 km/h 5681 m -5.6 m/s 404.10 MHz Lana (IT) 0.00 km UNKNOWN
P2440519 RS41 2019-06-28 04:27:06 46.6251 11.601 163 ° 57 km/h 4911 m -9.0 m/s 404.10 MHz Bressanone (IT) 0.00 km UNKNOWN
P2440539 RS41 2019-06-27 04:29:56 46.8947 11.2684 169 ° 35 km/h 4080 m -5.9 m/s 404.10 MHz Sölden (AT) 0.00 km UNKNOWN
P2440507 RS41 2019-06-26 04:19:04 46.9598 11.0304 169 ° 33 km/h 3894 m -9.4 m/s 404.10 MHz Sölden (AT) 0.00 km UNKNOWN
P2440480 RS41 2019-06-25 04:46:50 46.8605 11.0744 154 ° 48 km/h 3676 m -6.0 m/s 405.50 MHz Sölden (AT) 0.00 km UNKNOWN
P2440522 RS41 2019-06-24 03:29:58 46.7559 11.7302 177 ° 31 km/h 4762 m -4.0 m/s 405.50 MHz Bressanone (IT) 0.00 km UNKNOWN
P2440570 RS41 2019-06-23 04:29:39 47.1189 11.1434 135 ° 9 km/h 3192 m -10.2 m/s 405.50 MHz Neustift im Stubaital (AT) 0.00 km UNKNOWN
P2440521 RS41 2019-06-22 04:09:05 47.5716 11.7025 313 ° 2 km/h 1772 m -8.8 m/s 405.50 MHz Achenkirch (AT) 0.00 km UNKNOWN
P2440543 RS41 2019-06-21 04:42:30 47.6181 11.8842 24 ° 7 km/h 1857 m -6.7 m/s 404.10 MHz Achenkirch (AT) 0.00 km UNKNOWN
P2440486 RS41 2019-06-19 04:20:32 47.5838 11.6193 74 ° 24 km/h 1867 m -7.6 m/s 404.10 MHz Achenkirch (AT) 0.00 km UNKNOWN
P2440531 RS41 2019-06-18 04:36:17 47.3029 11.4801 140 ° 2 km/h 827 m -7.3 m/s 404.10 MHz Thaur (AT) 0.00 km UNKNOWN
P2510025 RS41 2019-06-17 04:03:18 47.4943 11.6207 281 ° 7 km/h 1939 m -7.1 m/s 404.10 MHz Achenkirch (AT) 0.00 km UNKNOWN
P2440515 RS41 2019-06-16 04:26:25 47.578 11.4955 77 ° 20 km/h 1662 m -7.2 m/s 405.50 MHz Achenkirch (AT) 0.00 km UNKNOWN
P2440505 RS41 2019-06-15 04:02:03 47.8698 11.7698 353 ° 35 km/h 1038 m -8.1 m/s 404.10 MHz Geretsried (DE) 0.00 km UNKNOWN
P2440504 RS41 2019-06-14 04:22:59 47.7066 12.4812 322 ° 9 km/h 1676 m -4.8 m/s 404.10 MHz Kössen (AT) 0.00 km UNKNOWN
P2341167 RS41 2019-06-13 04:50:16 48.3451 11.7688 135 ° 11 km/h 719 m -4.7 m/s 404.10 MHz Freising (DE) 0.00 km FOUND
DFM3917E DFM 2019-06-12 15:48:03 48.7264 11.6963 142 ° 15 km/h 1066 m -4.0 m/s MHz Ingolstadt (DE) 0.00 km FOUND
DFM3917D DFM 2019-06-12 13:11:50 48.8183 11.4874 13 ° 72 km/h 4755 m -5.5 m/s MHz Ingolstadt (DE) 0.00 km FOUND
DFM38B40 DFM 2019-06-12 10:15:33 48.8952 11.0832 6 ° 94 km/h 7328 m -5.0 m/s MHz Neuburg an der Donau (DE) 0.00 km UNKNOWN
P2450129 RS41 2019-06-12 04:55:38 48.5521 11.4272 257 ° 26 km/h 1000 m -4.3 m/s 404.10 MHz Pfaffenhofen an der Ilm (DE) 0.00 km UNKNOWN
DFM39194 DFM 2019-06-11 16:34:27 48.6792 11.369 153 ° 9 km/h 819 m -4.8 m/s MHz Ingolstadt (DE) 0.00 km FOUND
DFM38B06 DFM 2019-06-11 14:15:05 49.8753 11.2481 328 ° 17 km/h 17457 m 1.1 m/s MHz Bayreuth (DE) 0.00 km UNKNOWN
DFM39152 DFM 2019-06-11 09:56:42 48.6511 10.8163 12 ° 59 km/h 2925 m -7.6 m/s MHz Dillingen (DE) 0.00 km UNKNOWN
P2440488 RS41 2019-06-11 04:14:50 48.3988 11.2243 100 ° 39 km/h 767 m -9.6 m/s 404.10 MHz Aichach (DE) 0.00 km UNKNOWN
P2450135 RS41 2019-06-10 04:57:16 48.1171 11.8159 179 ° 6 km/h 1081 m -2.5 m/s 404.10 MHz Vaterstetten (DE) 0.00 km NEED ATTENTION
P2440479 RS41 2019-06-09 04:28:15 47.7365 12.4263 45 ° 20 km/h 999 m -3.3 m/s 404.10 MHz Kössen (AT) 0.00 km FOUND
P2440544 RS41 2019-06-07 04:13:54 47.6584 11.9726 16 ° 37 km/h 1680 m -6.8 m/s 404.10 MHz Kufstein (AT) 0.00 km UNKNOWN
P2440511 RS41 2019-06-06 04:41:58 47.7803 11.615 118 ° 39 km/h 1721 m -2.9 m/s 405.50 MHz Geretsried (DE) 0.00 km UNKNOWN
P2440537 RS41 2019-06-05 04:23:44 47.1824 11.127 189 ° 22 km/h 3164 m -7.3 m/s 405.50 MHz Inzing (AT) 0.00 km UNKNOWN
P2440542 RS41 2019-06-04 04:52:18 47.179 11.4952 276 ° 7 km/h 2801 m -2.0 m/s 404.10 MHz Sistrans (AT) 0.00 km UNKNOWN
P2440533 RS41 2019-06-03 03:55:54 47.1326 11.4037 144 ° 19 km/h 2754 m -5.9 m/s 404.10 MHz Fulpmes (AT) 0.00 km UNKNOWN
P2440477 RS41 2019-06-02 03:59:43 47.0327 11.1714 243 ° 17 km/h 3616 m -8.1 m/s 404.10 MHz Neustift im Stubaital (AT) 0.00 km UNKNOWN
P2440546 RS41 2019-06-01 04:00:32 46.6869 10.8938 228 ° 43 km/h 4476 m -7.3 m/s 404.10 MHz Merano (IT) 0.00 km UNKNOWN
P2450132 RS41 2019-05-30 04:36:46 47.1273 11.1834 185 ° 30 km/h 3068 m -4.0 m/s 405.50 MHz Neustift im Stubaital (AT) 0.00 km UNKNOWN
P2440564 RS41 2019-05-29 04:11:51 47.6289 11.5336 147 ° 28 km/h 1839 m -5.8 m/s 405.50 MHz Achenkirch (AT) 0.00 km UNKNOWN
P2450130 RS41 2019-05-28 04:40:51 47.4972 11.8287 147 ° 41 km/h 2335 m -10.4 m/s 405.50 MHz Kramsach (AT) 0.00 km UNKNOWN
P2450136 RS41 2019-05-27 04:20:58 47.5908 11.6799 25 ° 7 km/h 2083 m -6.7 m/s 404.10 MHz Achenkirch (AT) 0.00 km UNKNOWN
P2440298 RS41 2019-05-25 04:32:39 47.2528 11.7742 84 ° 7 km/h 2946 m -8.4 m/s 405.50 MHz Fügen (AT) 0.00 km UNKNOWN
P2450134 RS41 2019-05-24 04:41:20 46.8793 11.5404 144 ° 13 km/h 3278 m -4.8 m/s 404.10 MHz Bressanone (IT) 0.00 km UNKNOWN
P2450133 RS41 2019-05-23 04:06:42 46.9195 11.2776 171 ° 19 km/h 4356 m -10.6 m/s 405.50 MHz Neustift im Stubaital (AT) 0.00 km UNKNOWN
P2440299 RS41 2019-05-22 04:36:20 46.9881 11.5178 153 ° 44 km/h 3835 m -4.3 m/s 404.10 MHz Steinach am Brenner (AT) 0.00 km UNKNOWN
P2510028 RS41 2019-05-21 04:16:10 46.9482 11.4032 156 ° 70 km/h 4025 m -13.4 m/s 405.50 MHz Steinach am Brenner (AT) 0.00 km UNKNOWN
P2450209 RS41 2019-05-20 04:21:42 47.3182 10.679 156 ° 20 km/h 2402 m -7.2 m/s 405.50 MHz Tarrenz (AT) 0.00 km UNKNOWN
P2510032 RS41 2019-05-19 03:56:25 47.5992 11.141 238 ° 4 km/h 1672 m -8.9 m/s 405.50 MHz Garmisch-Partenkirchen (DE) 0.00 km UNKNOWN
P2510027 RS41 2019-05-18 03:50:19 47.5224 11.2317 4 ° 20 km/h 2025 m -11.5 m/s 404.10 MHz Garmisch-Partenkirchen (DE) 0.00 km UNKNOWN
P2510029 RS41 2019-05-17 04:01:40 47.1618 11.6275 83 ° 30 km/h 3015 m -11.3 m/s 405.50 MHz Wattens (AT) 0.00 km UNKNOWN
P2510002 RS41 2019-05-16 03:53:52 47.048 11.2529 94 ° 6 km/h 3431 m -9.5 m/s 405.50 MHz Neustift im Stubaital (AT) 0.00 km UNKNOWN
P2510036 RS41 2019-05-15 03:46:29 47.0264 10.5342 231 ° 39 km/h 3391 m -6.4 m/s 404.10 MHz Pfunds (AT) 0.00 km UNKNOWN
DF9051452 DFM09 2019-05-14 17:05:00 47.0985 10.6858 171 ° 70 km/h 10962 m -7.2 m/s 404.290 MHz Fliess (AT) 0.00 km UNKNOWN
P2510043 RS41 2019-05-14 03:27:13 46.3611 10.91 185 ° 48 km/h 5431 m -5.0 m/s 404.10 MHz Lavis (IT) 0.00 km UNKNOWN
P2510047 RS41 2019-05-13 03:54:57 47.1193 11.0952 248 ° 30 km/h 3128 m -7.1 m/s 404.10 MHz Umhausen (AT) 0.00 km UNKNOWN
P2451063 RS41 2019-05-12 03:55:44 47.3657 11.4155 145 ° 35 km/h 2557 m -6.7 m/s 404.10 MHz Thaur (AT) 0.00 km UNKNOWN
P2451064 RS41 2019-05-11 03:38:19 47.2154 12.3953 84 ° 41 km/h 3611 m -8.4 m/s 405.50 MHz Bramberg am Wildkogel (AT) 0.00 km UNKNOWN
P2451066 RS41 2019-05-10 03:58:12 47.106 12.5177 106 ° 44 km/h 3832 m -7.1 m/s 404.10 MHz Matrei in Osttirol (AT) 0.00 km UNKNOWN
P2440300 RS41 2019-05-09 04:04:50 47.6115 12.2721 61 ° 26 km/h 2046 m -8.8 m/s 404.10 MHz Ebbs (AT) 0.00 km UNKNOWN
P2451067 RS41 2019-05-08 03:37:15 47.0181 12.5494 93 ° 54 km/h 4076 m -8.9 m/s 405.50 MHz Matrei in Osttirol (AT) 0.00 km UNKNOWN
P2510048 RS41 2019-05-07 03:32:34 46.9737 12.049 166 ° 33 km/h 4162 m -10.1 m/s 405.50 MHz Brunico (IT) 0.00 km UNKNOWN
P2510030 RS41 2019-05-06 03:40:41 47.1437 11.3485 183 ° 28 km/h 2634 m -6.7 m/s 404.10 MHz Fulpmes (AT) 0.00 km UNKNOWN
P2510045 RS41 2019-05-04 04:33:15 47.3849 12.6935 331 ° 6 km/h 3050 m -4.8 m/s 404.10 MHz Leogang (AT) 0.00 km UNKNOWN
P2510044 RS41 2019-05-03 04:28:41 47.3598 12.7611 114 ° 39 km/h 2824 m -6.2 m/s 404.10 MHz Maishofen (AT) 0.00 km UNKNOWN
P2440244 RS41 2019-05-02 04:06:34 46.9373 12.056 138 ° 13 km/h 4333 m -8.6 m/s 405.50 MHz Brunico (IT) 0.00 km UNKNOWN
P2510035 RS41 2019-05-01 04:15:22 46.7887 11.6482 206 ° 26 km/h 4573 m -8.6 m/s 405.50 MHz Bressanone (IT) 0.00 km UNKNOWN
P2440584 RS41 2019-04-30 04:06:20 46.735 11.2423 232 ° 72 km/h 4565 m -7.8 m/s 405.50 MHz Merano (IT) 0.00 km UNKNOWN
P2450223 RS41 2019-04-29 04:29:02 47.0479 11.1491 231 ° 44 km/h 3685 m -4.5 m/s 405.50 MHz Neustift im Stubaital (AT) 0.00 km UNKNOWN
P2450224 RS41 2019-04-28 04:14:41 47.2741 12.0769 147 ° 15 km/h 2809 m -8.4 m/s 404.10 MHz Neukirchen am Großvenediger (AT) 0.00 km UNKNOWN
P2440242 RS41 2019-04-27 04:09:17 47.1956 11.6427 140 ° 31 km/h 3005 m -3.9 m/s 404.10 MHz Wattens (AT) 0.00 km UNKNOWN
P2510034 RS41 2019-04-26 04:36:34 47.7187 12.1558 336 ° 13 km/h 1282 m -9.3 m/s 405.50 MHz Niederndorf (AT) 0.00 km UNKNOWN
P2440241 RS41 2019-04-25 04:13:08 47.5015 12.1679 49 ° 63 km/h 2442 m -4.6 m/s 405.50 MHz Söll (AT) 0.00 km FOUND
P2450227 RS41 2019-04-24 04:31:12 47.5984 11.9706 17 ° 52 km/h 1992 m -6.0 m/s 405.50 MHz Kirchbichl (AT) 0.00 km UNKNOWN
P2451062 RS41 2019-04-23 04:20:53 47.3207 11.4016 348 ° 48 km/h 2669 m -8.1 m/s 404.10 MHz Rum (AT) 0.00 km UNKNOWN
P2451027 RS41 2019-04-22 04:33:48 47.1128 11.7862 42 ° 31 km/h 3222 m -7.4 m/s 405.50 MHz Mayrhofen (AT) 0.00 km UNKNOWN
P2450371 RS41 2019-04-21 04:02:01 46.8256 11.6206 191 ° 17 km/h 4620 m -10.3 m/s 405.50 MHz Bressanone (IT) 0.00 km UNKNOWN
P2451029 RS41 2019-04-20 04:20:42 46.8074 11.4328 282 ° 28 km/h 5111 m -7.6 m/s 405.50 MHz Bressanone (IT) 0.00 km UNKNOWN
P2450208 RS41 2019-04-19 04:04:47 46.9398 11.1814 285 ° 26 km/h 4201 m -7.8 m/s 405.50 MHz Sölden (AT) 0.00 km UNKNOWN
P2450207 RS41 2019-04-18 04:16:55 46.2994 12.0085 206 ° 19 km/h 4581 m -7.7 m/s 405.50 MHz Sedico (IT) 0.00 km UNKNOWN
P2341170 RS41 2019-04-17 04:13:21 46.6471 12.0046 137 ° 54 km/h 5623 m -5.4 m/s 405.50 MHz Brunico (IT) 0.00 km UNKNOWN
P2341168 RS41 2019-04-16 03:55:52 46.5378 12.1177 135 ° 37 km/h 6283 m -10.4 m/s 405.50 MHz Brunico (IT) 0.00 km UNKNOWN
P2341077 RS41 2019-04-15 03:44:37 46.8396 11.3605 286 ° 39 km/h 4238 m -11.7 m/s 405.50 MHz Merano (IT) 0.00 km UNKNOWN
P2341161 RS41 2019-04-14 04:12:46 47.3797 11.5382 232 ° 31 km/h 2564 m -5.3 m/s 404.10 MHz Terfens (AT) 0.00 km UNKNOWN
P2341159 RS41 2019-04-13 04:09:36 47.3044 11.7989 62 ° 2 km/h 1921 m -5.8 m/s 405.50 MHz Fügen (AT) 0.00 km UNKNOWN
P2440591 RS41 2019-04-12 03:51:39 47.3742 11.5414 29 ° 4 km/h 2632 m -9.8 m/s 405.50 MHz Terfens (AT) 0.00 km UNKNOWN
P2440589 RS41 2019-04-11 04:15:54 47.3997 11.2862 232 ° 35 km/h 2353 m -6.3 m/s 405.50 MHz Seefeld in Tirol (AT) 0.00 km UNKNOWN
P2450206 RS41 2019-04-10 04:19:15 47.4576 11.442 272 ° 11 km/h 2163 m -4.5 m/s 405.50 MHz Thaur (AT) 0.00 km UNKNOWN
P2440583 RS41 2019-04-08 04:13:37 47.5414 11.21 86 ° 9 km/h 2231 m -9.7 m/s 405.50 MHz Garmisch-Partenkirchen (DE) 0.00 km UNKNOWN
P2450234 RS41 2019-04-04 04:17:03 47.7761 12.0771 356 ° 19 km/h 1163 m -3.3 m/s 405.50 MHz Rosenheim (DE) 0.00 km UNKNOWN
P2510164 RS41 2019-04-03 04:12:19 47.68 12.0324 20 ° 20 km/h 1372 m -6.4 m/s 404.10 MHz Niederndorf (AT) 0.00 km UNKNOWN
P2510163 RS41 2019-04-02 04:11:49 47.2965 12.225 84 ° 24 km/h 3070 m -8.2 m/s 405.50 MHz Neukirchen am Großvenediger (AT) 0.00 km UNKNOWN
P2341164 RS41 2019-04-01 04:07:58 47.3151 11.9994 22 ° 17 km/h 2750 m -9.5 m/s 405.50 MHz Alpbach (AT) 0.00 km UNKNOWN
P2341169 RS41 2019-03-31 04:20:32 47.5925 11.8933 292 ° 9 km/h 1766 m -5.6 m/s 404.10 MHz Breitenbach am Inn (AT) 0.00 km UNKNOWN
P2341160 RS41 2019-03-30 05:08:34 47.661 11.1461 149 ° 7 km/h 1153 m -6.2 m/s 405.50 MHz Garmisch-Partenkirchen (DE) 0.00 km FOUND
P2341163 RS41 2019-03-29 05:10:47 47.0394 10.9391 308 ° 15 km/h 3154 m -5.4 m/s 405.50 MHz Umhausen (AT) 0.00 km UNKNOWN
P2440592 RS41 2019-03-28 05:21:14 46.7711 10.9746 244 ° 37 km/h 4243 m -5.5 m/s 405.50 MHz Merano (IT) 0.00 km UNKNOWN
P2440590 RS41 2019-03-26 05:05:18 46.745 11.7771 224 ° 35 km/h 4271 m -10.2 m/s 404.10 MHz Bressanone (IT) 0.00 km UNKNOWN
P2440585 RS41 2019-03-25 05:06:50 46.9419 12.8089 113 ° 72 km/h 5073 m -7.2 m/s 404.10 MHz Lienz (AT) 0.00 km UNKNOWN
P2440588 RS41 2019-03-24 05:14:34 47.3719 11.858 87 ° 15 km/h 2509 m -4.0 m/s 404.10 MHz Fügen (AT) 0.00 km UNKNOWN
P2440586 RS41 2019-03-23 05:18:59 46.9838 10.9314 220 ° 9 km/h 3496 m -12.4 m/s 404.10 MHz Sölden (AT) 0.00 km UNKNOWN
P2450210 RS41 2019-03-22 05:19:23 46.9315 10.716 321 ° 26 km/h 3623 m -4.8 m/s 405.50 MHz Pfunds (AT) 0.00 km UNKNOWN
P2450205 RS41 2019-03-21 05:12:28 46.7545 10.2762 268 ° 52 km/h 3985 m -4.4 m/s 404.10 MHz Pfunds (AT) 0.00 km LOST
P2450228 RS41 2019-03-20 04:55:34 46.501 10.6962 220 ° 52 km/h 4338 m -11.0 m/s 405.50 MHz Lana (IT) 0.00 km UNKNOWN
P2450226 RS41 2019-03-19 04:38:29 46.9466 11.5859 215 ° 22 km/h 4277 m -10.6 m/s 405.50 MHz Steinach am Brenner (AT) 0.00 km UNKNOWN
P2450225 RS41 2019-03-18 05:17:45 47.7358 13.3459 106 ° 28 km/h 1480 m -7.9 m/s 405.50 MHz Sankt Gilgen (AT) 0.00 km UNKNOWN
P2510190 RS41 2019-03-17 05:01:40 47.1737 13.1344 91 ° 52 km/h 3858 m -3.4 m/s 405.50 MHz Bad Hofgastein (AT) 0.00 km UNKNOWN
P2450233 RS41 2019-03-16 04:57:47 46.4646 13.0076 119 ° 93 km/h 6858 m -10.6 m/s 405.50 MHz Tolmezzo (IT) 0.00 km UNKNOWN
P2510159 RS41 2019-03-15 05:19:10 45.7857 13.0623 151 ° 74 km/h 3780 m -6.6 m/s 405.50 MHz Latisana (IT) 0.00 km LOST
P2510158 RS41 2019-03-14 04:48:53 46.3975 12.4194 146 ° 61 km/h 4121 m -7.5 m/s 405.50 MHz Belluno (IT) 0.00 km UNKNOWN
P2510162 RS41 2019-03-13 04:49:57 47.4561 13.2237 146 ° 7 km/h 2692 m -5.7 m/s 405.50 MHz Werfen (AT) 0.00 km UNKNOWN
N4941052 RS41 2019-03-12 05:08:10 45.5656 12.1801 191 ° 46 km/h 2311 m -3.2 m/s 404.10 MHz Martellago (IT) 0.00 km UNKNOWN
N4941053 RS41 2019-03-11 05:02:59 47.1003 13.9506 112 ° 106 km/h 4155 m -4.9 m/s 405.50 MHz Tamsweg (AT) 0.00 km UNKNOWN
N4941029 RS41 2019-03-10 05:03:04 46.5274 13.8303 78 ° 63 km/h 2533 m -6.8 m/s 404.10 MHz Kranjska Gora (SI) 0.00 km UNKNOWN
N5010117 RS41 2019-03-09 04:27:24 46.4348 12.2439 143 ° 74 km/h 6805 m -4.0 m/s 404.10 MHz Belluno (IT) 0.00 km UNKNOWN
N5010121 RS41 2019-03-08 05:43:27 47.5027 13.3569 109 ° 33 km/h 2297 m -5.8 m/s 405.50 MHz Abtenau (AT) 0.00 km UNKNOWN
N5010136 RS41 2019-03-07 05:52:08 47.9478 13.8996 10 ° 24 km/h 755 m -5.2 m/s 404.10 MHz Gschwandt (AT) 0.00 km FOUND
N5010137 RS41 2019-03-06 05:50:32 46.498 13.7044 103 ° 4 km/h 1975 m -3.1 m/s 404.10 MHz Arnoldstein (AT) 0.00 km UNKNOWN
N5010134 RS41 2019-03-05 05:20:42 47.1626 13.9059 116 ° 78 km/h 3832 m -6.2 m/s 404.10 MHz Tamsweg (AT) 0.00 km UNKNOWN
N5010135 RS41 2019-03-04 05:16:10 47.2123 13.076 112 ° 80 km/h 3865 m -3.3 m/s 404.10 MHz Bad Hofgastein (AT) 0.00 km UNKNOWN
N5010143 RS41 2019-03-03 05:06:19 46.5497 11.9251 190 ° 70 km/h 6255 m -7.7 m/s 405.50 MHz Brunico (IT) 0.00 km UNKNOWN
N5010142 RS41 2019-03-02 05:37:45 46.1582 12.37 154 ° 65 km/h 6689 m -5.1 m/s 405.50 MHz Belluno (IT) 0.00 km FOUND
N5010133 RS41 2019-03-01 05:01:46 46.7765 12.4361 117 ° 67 km/h 5436 m -9.1 m/s 405.50 MHz Virgen (AT) 0.00 km UNKNOWN
N5010144 RS41 2019-02-28 05:31:18 46.4987 11.7822 153 ° 52 km/h 5942 m -7.1 m/s 405.50 MHz Bressanone (IT) 0.00 km UNKNOWN
N5010141 RS41 2019-02-27 05:12:32 46.4061 10.701 230 ° 74 km/h 4466 m -10.7 m/s 404.10 MHz Lana (IT) 0.00 km UNKNOWN
N5010112 RS41 2019-02-26 05:23:38 46.3385 10.2352 233 ° 52 km/h 3945 m -2.8 m/s 405.50 MHz Tirano (IT) 0.00 km UNKNOWN
N5010108 RS41 2019-02-25 05:07:02 46.281 10.59 243 ° 65 km/h 3925 m -7.4 m/s 404.10 MHz Tirano (IT) 0.00 km UNKNOWN
N5010106 RS41 2019-02-24 05:30:17 46.0203 9.6014 99 ° 4 km/h 2082 m -3.7 m/s 405.50 MHz Morbegno (IT) 0.00 km UNKNOWN
N5010115 RS41 2019-02-23 05:48:10 45.4491 10.1995 297 ° 52 km/h 383 m -9.8 m/s 404.10 MHz Bagnolo Mella (IT) 0.00 km UNKNOWN
N5010105 RS41 2019-02-22 05:58:10 45.3675 11.0892 77 ° 4 km/h 558 m -2.9 m/s 405.50 MHz Zevio (IT) 0.00 km UNKNOWN
N5010113 RS41 2019-02-21 05:42:35 46.5177 11.4788 182 ° 24 km/h 4294 m -4.8 m/s 405.50 MHz Bolzano (IT) 0.00 km UNKNOWN
N5010111 RS41 2019-02-20 05:14:08 46.8303 12.1141 145 ° 26 km/h 4400 m -10.4 m/s 404.10 MHz Brunico (IT) 0.00 km UNKNOWN
N5010103 RS41 2019-02-19 05:20:22 47.3806 12.2903 132 ° 11 km/h 2365 m -6.5 m/s 404.10 MHz Westendorf (AT) 0.00 km UNKNOWN
N5010138 RS41 2019-02-18 05:23:13 47.3469 11.9303 3 ° 9 km/h 2274 m -11.9 m/s 405.50 MHz Alpbach (AT) 0.00 km UNKNOWN
N5010107 RS41 2019-02-17 05:42:13 47.0582 12.0595 158 ° 15 km/h 3810 m -3.1 m/s 405.50 MHz Mayrhofen (AT) 0.00 km UNKNOWN
N5010124 RS41 2019-02-16 05:25:38 46.7029 11.3194 204 ° 41 km/h 4403 m -10.9 m/s 404.10 MHz Merano (IT) 0.00 km UNKNOWN
N5010123 RS41 2019-02-15 05:10:42 46.6244 11.0762 249 ° 30 km/h 4852 m -8.9 m/s 405.50 MHz Lana (IT) 0.00 km UNKNOWN
N5010122 RS41 2019-02-14 05:32:36 45.9 11.896 185 ° 78 km/h 8560 m -4.7 m/s 404.10 MHz Valdobbiadene (IT) 0.00 km UNKNOWN
N5010109 RS41 2019-02-13 05:43:05 45.563 11.4144 60 ° 11 km/h 1526 m -3.5 m/s 405.50 MHz Trissino (IT) 0.00 km UNKNOWN
N5010114 RS41 2019-02-12 05:19:16 45.3219 11.2437 184 ° 50 km/h 1161 m -5.9 m/s 404.10 MHz Oppeano (IT) 0.00 km UNKNOWN
N5010130 RS41 2019-02-11 05:06:03 47.1569 12.9844 135 ° 89 km/h 3570 m -3.2 m/s 404.10 MHz Rauris (AT) 0.00 km UNKNOWN
N5010128 RS41 2019-02-10 05:33:00 47.2081 13.979 38 ° 33 km/h 3260 m -6.1 m/s 405.50 MHz Tamsweg (AT) 0.00 km UNKNOWN
N5010119 RS41 2019-02-09 05:19:05 47.4785 13.2394 103 ° 31 km/h 2538 m -8.3 m/s 405.50 MHz Werfen (AT) 0.00 km UNKNOWN
N5010125 RS41 2019-02-08 05:40:10 47.5896 12.7447 144 ° 26 km/h 2152 m -2.8 m/s 404.10 MHz Leogang (AT) 0.00 km UNKNOWN
N5010126 RS41 2019-02-07 04:56:03 47.1856 12.1967 96 ° 19 km/h 3132 m -11.1 m/s 405.50 MHz Neukirchen am Großvenediger (AT) 0.00 km UNKNOWN
N4540780 RS41 2019-02-07 00:49:05 47.3781 12.1807 92 ° 11 km/h 2482 m -3.5 m/s 403.93 MHz Westendorf (AT) 0.00 km UNKNOWN
N4540765 RS41 2019-02-06 19:33:11 47.1861 11.8381 132 ° 15 km/h 3567 m -6.2 m/s 403.93 MHz Mayrhofen (AT) 0.00 km UNKNOWN
N4941070 RS41 2019-02-06 04:31:47 46.7369 11.481 189 ° 26 km/h 4888 m -3.5 m/s 405.50 MHz Bressanone (IT) 0.00 km UNKNOWN
N4540763 RS41 2019-02-05 23:36:31 46.9829 11.5729 183 ° 43 km/h 4899 m -13.7 m/s 403.93 MHz Steinach am Brenner (AT) 0.00 km UNKNOWN
N4540767 RS41 2019-02-05 19:47:15 46.7978 11.4861 196 ° 41 km/h 5822 m -4.9 m/s 403.93 MHz Bressanone (IT) 0.00 km UNKNOWN
N5010132 RS41 2019-02-05 04:16:57 47.1129 11.6297 110 ° 13 km/h 2630 m -22.5 m/s 405.50 MHz Steinach am Brenner (AT) 0.00 km UNKNOWN
N5010131 RS41 2019-02-04 04:58:54 47.1922 11.6814 244 ° 19 km/h 3103 m -4.5 m/s 405.50 MHz Wattens (AT) 0.00 km UNKNOWN
N5010129 RS41 2019-02-03 13:20:52 47.4312 11.5634 117 ° 30 km/h 2282 m -9.2 m/s 405.50 MHz Terfens (AT) 0.00 km UNKNOWN
N5010104 RS41 2019-02-03 04:48:19 47.561 11.3975 147 ° 28 km/h 1772 m -10.0 m/s 404.10 MHz Achenkirch (AT) 0.00 km UNKNOWN
N5030044 RS41 2019-02-02 05:10:46 48.2215 12.2766 70 ° 9 km/h 825 m -5.8 m/s 405.50 MHz Waldkraiburg (DE) 0.00 km LOST
N5030769 RS41 2019-02-01 05:00:23 47.3589 12.9613 69 ° 44 km/h 3021 m -6.2 m/s 404.10 MHz Taxenbach (AT) 0.00 km UNKNOWN
N5030771 RS41 2019-01-31 04:41:07 47.5138 11.8067 353 ° 15 km/h 2170 m -9.8 m/s 405.50 MHz Achenkirch (AT) 0.00 km UNKNOWN
N5030770 RS41 2019-01-30 15:13:37 47.6927 11.6658 102 ° 13 km/h 1476 m -5.0 m/s 404.10 MHz Achenkirch (AT) 0.00 km UNKNOWN
N5030754 RS41 2019-01-29 04:54:09 47.0775 11.9927 146 ° 35 km/h 3438 m -10.7 m/s 404.10 MHz Mayrhofen (AT) 0.00 km UNKNOWN
N5030012 RS41 2019-01-28 05:07:32 47.3773 12.1446 87 ° 31 km/h 2396 m -4.6 m/s 404.10 MHz Westendorf (AT) 0.00 km UNKNOWN
N5030001 RS41 2019-01-27 17:15:09 47.719 12.8327 312 ° 22 km/h 1839 m -2.4 m/s 405.50 MHz Grossgmain (AT) 0.00 km UNKNOWN
N5030002 RS41 2019-01-25 04:44:31 46.8134 11.3232 184 ° 11 km/h 4140 m -3.7 m/s 404.10 MHz Merano (IT) 0.00 km UNKNOWN
N5010168 RS41 2019-01-24 04:53:36 47.163 11.2388 151 ° 9 km/h 2459 m -7.1 m/s 404.10 MHz Neustift im Stubaital (AT) 0.00 km UNKNOWN
N5030006 RS41 2019-01-23 13:50:01 47.3977 11.2376 196 ° 9 km/h 1614 m -8.7 m/s 404.10 MHz Leutasch (AT) 0.00 km UNKNOWN
N5030760 RS41 2019-01-22 04:57:46 47.0526 11.6758 200 ° 11 km/h 3372 m -10.0 m/s 404.10 MHz Steinach am Brenner (AT) 0.00 km UNKNOWN
N5030745 RS41 2019-01-20 05:01:39 47.2052 12.0766 151 ° 17 km/h 3304 m -3.9 m/s 404.10 MHz Neukirchen am Großvenediger (AT) 0.00 km UNKNOWN
N5030762 RS41 2019-01-19 05:12:01 47.2339 12.361 184 ° 9 km/h 3429 m -8.1 m/s 404.10 MHz Bramberg am Wildkogel (AT) 0.00 km UNKNOWN
N5030661 RS41 2019-01-18 04:59:29 47.4464 12.6387 111 ° 41 km/h 2507 m -4.8 m/s 405.50 MHz Fieberbrunn (AT) 0.00 km UNKNOWN
N5030663 RS41 2019-01-17 05:32:38 47.6079 12.913 263 ° 17 km/h 1444 m -2.7 m/s 404.10 MHz Grossgmain (AT) 0.00 km UNKNOWN
N5030776 RS41 2019-01-16 04:59:09 46.6349 11.9714 157 ° 57 km/h 6230 m -14.3 m/s 405.50 MHz Brunico (IT) 0.00 km UNKNOWN
N5030777 RS41 2019-01-15 04:56:15 46.0577 11.7855 168 ° 94 km/h 2552 m -14.0 m/s 404.10 MHz Feltre (IT) 0.00 km UNKNOWN
N4941055 RS41 2019-01-14 04:44:53 46.3118 12.3755 144 ° 85 km/h 5485 m -5.4 m/s 404.10 MHz Belluno (IT) 0.00 km UNKNOWN
N5030779 RS41 2019-01-13 05:29:00 45.469 11.5825 148 ° 67 km/h 3822 m -1.2 m/s 405.50 MHz Arcugnano (IT) 0.00 km UNKNOWN
N5030778 RS41 2019-01-12 05:10:00 46.2162 10.9318 182 ° 70 km/h 3141 m -4.0 m/s 405.50 MHz Lavis (IT) 0.00 km UNKNOWN
N5030780 RS41 2019-01-11 04:43:30 46.3014 10.3384 233 ° 39 km/h 3917 m -13.4 m/s 405.50 MHz Tirano (IT) 0.00 km UNKNOWN
N4941038 RS41 2019-01-10 04:53:45 46.6089 10.8949 212 ° 72 km/h 4702 m -12.8 m/s 405.50 MHz Lana (IT) 0.00 km UNKNOWN
N4941037 RS41 2019-01-09 04:32:14 46.5137 12.2621 149 ° 96 km/h 6446 m -10.5 m/s 405.50 MHz Brunico (IT) 0.00 km UNKNOWN
N4941035 RS41 2019-01-08 04:58:30 46.1661 12.0538 144 ° 31 km/h 2638 m -7.4 m/s 404.10 MHz Sedico (IT) 0.00 km UNKNOWN
N4941048 RS41 2019-01-07 05:06:45 45.8483 11.3266 170 ° 61 km/h 2366 m -7.2 m/s 404.10 MHz Piovene Rocchette (IT) 0.00 km UNKNOWN
N4941036 RS41 2019-01-06 04:59:15 45.9744 11.77 180 ° 89 km/h 3201 m -13.2 m/s 404.10 MHz Feltre (IT) 0.00 km UNKNOWN
N5030753 RS41 2019-01-05 05:05:15 45.8995 10.972 163 ° 17 km/h 2070 m -7.9 m/s 404.10 MHz Rovereto (IT) 0.00 km UNKNOWN
N5030752 RS41 2019-01-04 05:29:45 45.6614 10.2999 57 ° 15 km/h 1368 m -3.5 m/s 405.50 MHz Sarezzo (IT) 0.00 km UNKNOWN
N5030774 RS41 2019-01-03 04:41:30 46.1337 11.2469 180 ° 67 km/h 2412 m -10.3 m/s 405.50 MHz Pergine Valsugana (IT) 0.00 km UNKNOWN
N5030758 RS41 2019-01-02 04:53:32 46.1134 12.5477 131 ° 81 km/h 8308 m -4.6 m/s 405.50 MHz Aviano (IT) 0.00 km UNKNOWN
N5030761 RS41 2019-01-01 04:54:15 46.198 11.3231 175 ° 57 km/h 2908 m -8.7 m/s 404.10 MHz Pergine Valsugana (IT) 0.00 km UNKNOWN
N5030662 RS41 2018-12-31 05:33:45 45.5168 10.838 125 ° 13 km/h 287 m -4.8 m/s 404.10 MHz Pescantina (IT) 0.00 km UNKNOWN
N5030664 RS41 2018-12-30 04:57:45 45.7505 11.8923 154 ° 57 km/h 1549 m -5.7 m/s 404.10 MHz Loria (IT) 0.00 km UNKNOWN
N5030665 RS41 2018-12-29 05:01:22 46.799 11.8011 129 ° 39 km/h 5068 m -3.0 m/s 404.10 MHz Brunico (IT) 0.00 km UNKNOWN
N5030666 RS41 2018-12-28 05:00:18 46.6968 11.9837 138 ° 50 km/h 5488 m -3.6 m/s 404.10 MHz Brunico (IT) 0.00 km UNKNOWN
N5030775 RS41 2018-12-27 04:47:41 46.7105 11.8057 179 ° 39 km/h 5430 m -9.6 m/s 405.50 MHz Bressanone (IT) 0.00 km UNKNOWN
N4941033 RS41 2018-12-26 05:40:45 46.0262 12.1186 42 ° 9 km/h 2119 m -2.4 m/s 405.50 MHz Sedico (IT) 0.00 km UNKNOWN
N4941056 RS41 2018-12-24 06:00:02 45.4236 15.2631 83 ° 109 km/h 1852 m -4.4 m/s 404.10 MHz Bosiljevo (HR) 0.00 km UNKNOWN
N4941034 RS41 2018-12-23 06:00:22 45.2996 15.4421 134 ° 167 km/h 8838 m -14.8 m/s 405.50 MHz Generalski Stol (HR) 0.00 km UNKNOWN
N4941054 RS41 2018-12-22 06:52:41 46.2351 17.125 75 ° 48 km/h 421 m -2.7 m/s 404.10 MHz Berzence (HU) 0.00 km UNKNOWN
N5010102 RS41 2018-12-21 06:08:05 46.2276 15.1956 51 ° 7 km/h 368 m -7.9 m/s 404.10 MHz Žalec (SI) 0.00 km FOUND
N5020281 RS41 2018-12-20 05:24:47 47.723 13.2511 49 ° 24 km/h 1408 m -9.3 m/s 404.10 MHz Faistenau (AT) 0.00 km UNKNOWN
N5020282 RS41 2018-12-19 05:38:38 47.1667 12.9999 115 ° 13 km/h 3646 m -3.5 m/s 404.10 MHz Rauris (AT) 0.00 km UNKNOWN
N5020258 RS41 2018-12-18 05:13:27 46.373 12.6539 173 ° 156 km/h 8249 m -9.3 m/s 405.50 MHz Maniago (IT) 0.00 km UNKNOWN
N5020259 RS41 2018-12-17 05:37:28 47.6213 13.377 110 ° 7 km/h 1947 m -10.6 m/s 404.10 MHz Abtenau (AT) 0.00 km UNKNOWN
N5020260 RS41 2018-12-16 05:40:02 46.6132 13.5765 133 ° 126 km/h 6073 m -4.6 m/s 404.10 MHz Bleiberg ob Villach (AT) 0.00 km UNKNOWN
N5020262 RS41 2018-12-15 05:23:53 46.4565 12.0936 157 ° 69 km/h 7097 m -3.6 m/s 405.50 MHz Belluno (IT) 0.00 km UNKNOWN
N5020263 RS41 2018-12-14 05:26:59 47.0818 12.3236 168 ° 17 km/h 3566 m -11.4 m/s 404.10 MHz Virgen (AT) 0.00 km UNKNOWN
N5020261 RS41 2018-12-12 05:00:21 46.2982 12.2958 144 ° 159 km/h 8472 m -3.8 m/s 405.50 MHz Belluno (IT) 0.00 km UNKNOWN
N5020277 RS41 2018-12-11 05:06:44 46.2562 12.0745 167 ° 54 km/h 6968 m -9.1 m/s 404.10 MHz Sedico (IT) 0.00 km UNKNOWN
N5020252 RS41 2018-12-10 05:05:27 46.5854 12.4206 73 ° 30 km/h 6358 m -6.1 m/s 405.50 MHz Lienz (AT) 0.00 km UNKNOWN
N5020268 RS41 2018-12-09 05:32:53 46.445 13.8079 93 ° 81 km/h 2920 m -1.9 m/s 405.50 MHz Kranjska Gora (SI) 0.00 km UNKNOWN
N5020266 RS41 2018-12-08 05:21:52 47.193 12.9002 128 ° 87 km/h 3756 m -6.7 m/s 405.50 MHz Rauris (AT) 0.00 km UNKNOWN
N5020254 RS41 2018-12-07 05:13:51 46.1216 12.32 152 ° 67 km/h 8491 m -10.4 m/s 404.10 MHz Belluno (IT) 0.00 km UNKNOWN
N5020249 RS41 2018-12-06 05:11:18 46.9003 12.5157 128 ° 35 km/h 4675 m -4.4 m/s 404.10 MHz Matrei in Osttirol (AT) 0.00 km UNKNOWN
N5020294 RS41 2018-12-05 05:23:15 46.0414 13.6456 147 ° 106 km/h 4780 m -5.3 m/s 404.10 MHz Kanal (SI) 0.00 km UNKNOWN
N5020256 RS41 2018-12-04 05:04:45 46.7146 13.019 104 ° 41 km/h 5675 m -4.3 m/s 404.10 MHz Kirchbach (AT) 0.00 km UNKNOWN
N5020290 RS41 2018-12-03 05:27:12 46.6476 13.3116 97 ° 30 km/h 2335 m -9.1 m/s 404.10 MHz Hermagor (AT) 0.00 km UNKNOWN
N5020236 RS41 2018-12-02 04:45:12 46.7596 12.1687 132 ° 46 km/h 4988 m -8.1 m/s 404.10 MHz Brunico (IT) 0.00 km UNKNOWN
N5020267 RS41 2018-12-01 05:18:10 47.0409 12.4355 96 ° 19 km/h 4073 m -4.2 m/s 405.50 MHz Virgen (AT) 0.00 km UNKNOWN
N5020278 RS41 2018-11-30 05:08:03 47.3224 12.5134 5 ° 15 km/h 3057 m -3.6 m/s 404.10 MHz Mittersill (AT) 0.00 km UNKNOWN
N5020270 RS41 2018-11-29 05:04:21 46.3466 12.0772 165 ° 87 km/h 7454 m -4.2 m/s 405.50 MHz Belluno (IT) 0.00 km UNKNOWN
N5020269 RS41 2018-11-28 04:39:05 46.5759 11.7504 195 ° 37 km/h 5572 m -14.7 m/s 404.10 MHz Bressanone (IT) 0.00 km UNKNOWN
N5020251 RS41 2018-11-27 05:04:44 47.2615 11.8373 139 ° 37 km/h 2842 m -6.2 m/s 405.50 MHz Fügen (AT) 0.00 km UNKNOWN
N4940189 RS41 2018-11-26 05:02:28 47.5208 11.6679 248 ° 15 km/h 2412 m -4.0 m/s 405.50 MHz Achenkirch (AT) 0.00 km UNKNOWN
N4941089 RS41 2018-11-25 05:01:56 47.6225 12.3322 256 ° 6 km/h 1789 m -9.6 m/s 404.10 MHz Kössen (AT) 0.00 km UNKNOWN
N5020279 RS41 2018-11-24 04:49:24 47.689 12.3893 5 ° 22 km/h 1235 m -9.9 m/s 405.50 MHz Kössen (AT) 0.00 km UNKNOWN
N5020235 RS41 2018-11-23 04:48:54 47.2845 12.7748 89 ° 24 km/h 3452 m -4.0 m/s 405.50 MHz Kaprun (AT) 0.00 km UNKNOWN
N5020255 RS41 2018-11-22 04:51:30 47.3928 11.5518 94 ° 17 km/h 2676 m -8.0 m/s 405.50 MHz Terfens (AT) 0.00 km UNKNOWN
N5020292 RS41 2018-11-21 04:34:24 47.615 11.6308 317 ° 19 km/h 1883 m -11.1 m/s 404.10 MHz Achenkirch (AT) 0.00 km UNKNOWN
N5020291 RS41 2018-11-20 04:06:50 47.7662 11.5729 305 ° 39 km/h 1680 m -19.7 m/s 404.10 MHz Geretsried (DE) 0.00 km UNKNOWN
N5020257 RS41 2018-11-19 04:47:29 47.1774 11.2163 195 ° 4 km/h 1678 m -8.7 m/s 405.50 MHz Axams (AT) 0.00 km UNKNOWN
N5010101 RS41 2018-11-18 05:08:36 47.0063 9.57811 288 ° 22 km/h 2495 m -2.7 m/s 404.10 MHz Landquart (CH) 0.00 km UNKNOWN
N5020289 RS41 2018-11-17 05:22:04 46.3123 9.38473 231 ° 43 km/h 4527 m -2.8 m/s 404.10 MHz Colico (IT) 0.00 km UNKNOWN
N4941091 RS41 2018-11-16 05:01:24 46.414 10.4667 213 ° 46 km/h 5663 m -8.1 m/s 405.50 MHz Tirano (IT) 0.00 km UNKNOWN
N4940190 RS41 2018-11-15 05:05:24 46.9255 11.1397 162 ° 2 km/h 3647 m -5.2 m/s 404.10 MHz Sölden (AT) 0.00 km UNKNOWN
N5020280 RS41 2018-11-14 05:06:42 46.764 12.492 132 ° 52 km/h 5509 m -5.4 m/s 405.50 MHz Lienz (AT) 0.00 km UNKNOWN
N5020241 RS41 2018-11-13 05:08:42 47.7084 12.8556 359 ° 4 km/h 1554 m -4.8 m/s 405.50 MHz Grossgmain (AT) 0.00 km UNKNOWN
N5020242 RS41 2018-11-12 05:21:05 47.5844 12.7532 322 ° 11 km/h 2178 m -10.6 m/s 404.10 MHz Leogang (AT) 0.00 km UNKNOWN
N5020237 RS41 2018-11-11 05:00:01 47.1883 12.614 73 ° 63 km/h 3943 m -10.7 m/s 405.50 MHz Uttendorf (AT) 0.00 km UNKNOWN
N5020243 RS41 2018-11-10 04:47:22 47.2906 11.8018 113 ° 7 km/h 2208 m -4.5 m/s 405.50 MHz Fügen (AT) 0.00 km UNKNOWN
N4940235 RS41 2018-11-09 05:04:18 47.6932 12.5595 51 ° 15 km/h 1844 m -9.2 m/s 405.50 MHz Kössen (AT) 0.00 km UNKNOWN
N4940236 RS41 2018-11-08 05:01:57 47.7846 11.7758 234 ° 20 km/h 1774 m -9.9 m/s 405.50 MHz Geretsried (DE) 0.00 km UNKNOWN
N5020172 RS41 2018-11-07 05:02:39 47.9135 11.5055 3 ° 28 km/h 1792 m -7.1 m/s 405.50 MHz Geretsried (DE) 0.00 km UNKNOWN
N5020133 RS41 2018-11-06 05:17:37 47.6875 11.8895 14 ° 63 km/h 1499 m -7.7 m/s 404.10 MHz Achenkirch (AT) 0.00 km UNKNOWN
N5020184 RS41 2018-11-05 04:55:23 47.8687 11.0305 347 ° 4 km/h 2457 m -6.8 m/s 405.50 MHz Weilheim in Oberbayern (DE) 0.00 km UNKNOWN
N5020186 RS41 2018-11-04 05:45:41 48.024 11.4516 15 ° 11 km/h 1906 m -2.8 m/s 405.50 MHz Starnberg (DE) 0.00 km UNKNOWN
N4940169 RS41 2018-11-03 05:07:39 47.7724 11.7271 349 ° 28 km/h 2568 m -4.4 m/s 405.50 MHz Geretsried (DE) 0.00 km UNKNOWN
N5020166 RS41 2018-11-02 05:29:46 48.461 12.5095 330 ° 11 km/h 1145 m -4.5 m/s 404.10 MHz Landshut (DE) 0.00 km UNKNOWN
N4940188 RS41 2018-11-01 05:36:18 48.6038 12.0821 341 ° 43 km/h 1667 m -3.1 m/s 405.50 MHz Landshut (DE) 0.00 km UNKNOWN
N5020167 RS41 2018-10-31 05:05:56 47.9412 12.3662 289 ° 28 km/h 872 m -9.5 m/s 404.10 MHz Traunreut (DE) 0.00 km UNKNOWN
N4940217 RS41 2018-10-30 05:21:50 48.4843 11.9026 14 ° 48 km/h 1683 m -4.5 m/s 405.50 MHz Freising (DE) 0.00 km FOUND
N4940191 RS41 2018-10-29 05:04:18 48.12 12.0032 307 ° 43 km/h 1085 m -4.4 m/s 404.10 MHz Vaterstetten (DE) 0.00 km FOUND
N4941092 RS41 2018-10-28 05:39:29 48.2722 12.5192 234 ° 39 km/h 724 m -3.2 m/s 404.10 MHz Waldkraiburg (DE) 0.00 km UNKNOWN
N5020239 RS41 2018-10-27 04:32:41 47.8123 13.6212 124 ° 33 km/h 1682 m -5.5 m/s 405.50 MHz Bad Ischl (AT) 0.00 km UNKNOWN
N5020245 RS41 2018-10-26 04:34:08 46.9363 13.1543 109 ° 56 km/h 4953 m -4.5 m/s 405.50 MHz Obervellach (AT) 0.00 km UNKNOWN
N5010190 RS41 2018-10-25 03:11:12 46.5219 11.8547 159 ° 102 km/h 7177 m -8.4 m/s 405.50 MHz Bressanone (IT) 0.00 km UNKNOWN
N5020238 RS41 2018-10-24 04:07:23 46.1433 12.006 147 ° 70 km/h 9592 m -8.9 m/s 405.50 MHz Sedico (IT) 0.00 km UNKNOWN
N5020240 RS41 2018-10-22 04:10:40 46.395 9.94297 233 ° 139 km/h 6842 m -8.0 m/s 405.50 MHz Sondrio (IT) 0.00 km UNKNOWN
N4940218 RS41 2018-10-21 04:18:01 46.099 10.7529 198 ° 113 km/h 8037 m -7.7 m/s 405.50 MHz Arco (IT) 0.00 km UNKNOWN
N4940192 RS41 2018-10-20 03:57:10 46.9267 11.8566 161 ° 37 km/h 3922 m -10.5 m/s 404.10 MHz Brunico (IT) 0.00 km UNKNOWN
N5020244 RS41 2018-10-19 04:02:52 46.8141 11.7594 153 ° 30 km/h 4695 m -7.9 m/s 404.10 MHz Brunico (IT) 0.00 km UNKNOWN
N4940212 RS41 2018-10-18 04:05:35 46.9065 11.3921 100 ° 11 km/h 3905 m -7.3 m/s 404.10 MHz Steinach am Brenner (AT) 0.00 km UNKNOWN
N4940237 RS41 2018-10-17 04:12:14 47.1359 11.7651 123 ° 19 km/h 3289 m -4.0 m/s 404.10 MHz Mayrhofen (AT) 0.00 km UNKNOWN
N4940215 RS41 2018-10-16 04:06:51 47.1356 11.9569 185 ° 6 km/h 3356 m -10.5 m/s 404.10 MHz Mayrhofen (AT) 0.00 km UNKNOWN
N4940214 RS41 2018-10-15 04:20:43 47.3629 11.1604 76 ° 15 km/h 1386 m -7.4 m/s 404.10 MHz Leutasch (AT) 0.00 km UNKNOWN
N5020163 RS41 2018-10-14 04:38:56 47.143 10.7178 312 ° 20 km/h 4406 m -3.5 m/s 405.50 MHz Fliess (AT) 0.00 km UNKNOWN
N5020168 RS41 2018-10-13 04:15:55 46.5178 11.0128 252 ° 13 km/h 5165 m -6.8 m/s 404.10 MHz Lana (IT) 0.00 km UNKNOWN
N4940187 RS41 2018-10-12 04:17:45 47.1897 11.6579 173 ° 17 km/h 3109 m -13.6 m/s 404.10 MHz Wattens (AT) 0.00 km UNKNOWN
N5020246 RS41 2018-10-11 04:34:25 47.6402 11.3754 19 ° 37 km/h 1303 m -6.0 m/s 404.10 MHz Geretsried (DE) 0.00 km UNKNOWN
N4940238 RS41 2018-10-10 04:15:14 47.411 10.5095 6 ° 9 km/h 2229 m -8.1 m/s 404.10 MHz Reutte (AT) 0.00 km UNKNOWN
N4940216 RS41 2018-10-09 04:10:29 46.9871 10.804 306 ° 11 km/h 3387 m -6.3 m/s 404.10 MHz Sölden (AT) 0.00 km UNKNOWN
N5020185 RS41 2018-10-08 04:39:28 47.1071 11.237 219 ° 24 km/h 3865 m -3.2 m/s 405.50 MHz Neustift im Stubaital (AT) 0.00 km UNKNOWN
N4940173 RS41 2018-10-07 04:13:47 47.405 11.781 153 ° 17 km/h 2673 m -8.6 m/s 404.10 MHz Jenbach (AT) 0.00 km UNKNOWN
N5020171 RS41 2018-10-06 03:01:45 47.5366 11.3177 239 ° 24 km/h 3713 m -15.8 m/s 404.10 MHz Garmisch-Partenkirchen (DE) 0.00 km UNKNOWN
N4940211 RS41 2018-10-05 03:12:08 47.2174 11.2465 358 ° 13 km/h 3805 m -22.3 m/s 405.50 MHz Axams (AT) 0.00 km UNKNOWN
N4940172 RS41 2018-10-04 04:12:54 46.8988 11.9757 148 ° 33 km/h 4672 m -8.7 m/s 405.50 MHz Brunico (IT) 0.00 km UNKNOWN
N4940174 RS41 2018-10-03 04:11:16 46.6668 12.1956 141 ° 48 km/h 5999 m -6.3 m/s 405.50 MHz Brunico (IT) 0.00 km UNKNOWN
N5020165 RS41 2018-10-02 04:00:20 46.3581 11.3613 189 ° 56 km/h 6570 m -11.9 m/s 405.50 MHz Laives (IT) 0.00 km UNKNOWN
N4940213 RS41 2018-10-01 04:33:03 47.732 11.9373 145 ° 19 km/h 1755 m -11.7 m/s 405.50 MHz Rosenheim (DE) 0.00 km UNKNOWN
N5020344 RS41 2018-09-30 04:10:00 47.4061 11.2667 100 ° 33 km/h 2775 m -9.4 m/s 405.50 MHz Leutasch (AT) 0.00 km FOUND
N4940131 RS41 2018-09-29 02:58:21 47.0883 11.5762 1 ° 20 km/h 11479 m 0.0 m/s 404.10 MHz Steinach am Brenner (AT) 0.00 km UNKNOWN
N4940195 RS41 2018-09-28 04:11:12 47.0302 11.9186 138 ° 28 km/h 4292 m -6.1 m/s 404.10 MHz Mayrhofen (AT) 0.00 km UNKNOWN
N4940159 RS41 2018-09-27 04:22:01 46.6146 11.4142 162 ° 48 km/h 6347 m -3.5 m/s 404.10 MHz Bolzano (IT) 0.00 km UNKNOWN
DFM38860 DFM 2018-09-26 08:26:43 46.9353 10.5637 212 ° 91 km/h 13964 m -7.5 m/s MHz Pfunds (AT) 0.00 km UNKNOWN
N4940160 RS41 2018-09-26 04:03:36 46.2185 11.17 183 ° 78 km/h 6628 m -9.7 m/s 404.10 MHz Lavis (IT) 0.00 km UNKNOWN
DFM96A80 DFM 2018-09-25 14:52:03 46.6729 11.9351 155 ° 115 km/h 8214 m -6.2 m/s MHz Brunico (IT) 0.00 km UNKNOWN
N5020345 RS41 2018-09-25 03:10:11 46.7211 12.2792 123 ° 137 km/h 8825 m -24.3 m/s 404.10 MHz Brunico (IT) 0.00 km UNKNOWN
N4940158 RS41 2018-09-24 04:09:04 47.2251 13.7485 124 ° 102 km/h 3687 m -6.6 m/s 404.10 MHz Mariapfarr (AT) 0.00 km UNKNOWN
N4940221 RS41 2018-09-23 04:11:44 46.7777 12.7648 123 ° 89 km/h 5489 m -12.0 m/s 405.50 MHz Lienz (AT) 0.00 km UNKNOWN
N4940182 RS41 2018-09-22 04:24:47 46.8619 13.321 55 ° 59 km/h 4728 m -2.3 m/s 404.10 MHz Obervellach (AT) 0.00 km UNKNOWN
N5020331 RS41 2018-09-21 04:08:47 47.1758 11.8082 80 ° 13 km/h 3952 m -11.3 m/s 405.50 MHz Mayrhofen (AT) 0.00 km UNKNOWN
N4940162 RS41 2018-09-20 04:18:54 47.0419 11.6853 181 ° 13 km/h 4309 m -13.0 m/s 405.50 MHz Steinach am Brenner (AT) 0.00 km UNKNOWN
N4940219 RS41 2018-09-19 04:44:31 47.0909 12.2996 147 ° 28 km/h 4055 m -5.0 m/s 405.50 MHz Virgen (AT) 0.00 km UNKNOWN
N5020343 RS41 2018-09-18 04:16:20 47.4445 10.9842 80 ° 24 km/h 2400 m -11.0 m/s 404.10 MHz Ehrwald (AT) 0.00 km UNKNOWN
N4940181 RS41 2018-09-17 04:12:44 47.1963 11.9673 319 ° 6 km/h 3939 m -8.0 m/s 405.50 MHz Mayrhofen (AT) 0.00 km UNKNOWN
N5020332 RS41 2018-09-16 04:16:53 47.0666 12.0309 79 ° 33 km/h 4739 m -5.9 m/s 405.50 MHz Mayrhofen (AT) 0.00 km UNKNOWN
N4940196 RS41 2018-09-15 04:55:11 47.064 12.7734 111 ° 20 km/h 3625 m -4.1 m/s 404.10 MHz Matrei in Osttirol (AT) 0.00 km FOUND
N5020173 RS41 2018-09-14 04:19:15 47.3349 12.2908 62 ° 6 km/h 2692 m -7.3 m/s 404.10 MHz Bramberg am Wildkogel (AT) 0.00 km UNKNOWN
N4940186 RS41 2018-09-13 04:26:01 47.3433 12.0968 112 ° 13 km/h 3306 m -3.5 m/s 405.50 MHz Westendorf (AT) 0.00 km UNKNOWN
N5020194 RS41 2018-09-12 04:11:22 47.2424 11.7944 45 ° 22 km/h 3139 m -5.3 m/s 404.10 MHz Mayrhofen (AT) 0.00 km UNKNOWN
N4950384 RS41 2018-09-11 04:03:21 46.6588 11.5841 177 ° 39 km/h 6359 m -9.4 m/s 404.10 MHz Bressanone (IT) 0.00 km UNKNOWN
N4940220 RS41 2018-09-10 04:31:21 47.0856 12.1811 141 ° 24 km/h 3969 m -2.8 m/s 405.50 MHz Neukirchen am Großvenediger (AT) 0.00 km UNKNOWN
N4950390 RS41 2018-09-09 04:25:28 47.059 12.1835 94 ° 28 km/h 4219 m -6.1 m/s 405.50 MHz Virgen (AT) 0.00 km UNKNOWN
N4940193 RS41 2018-09-08 03:59:39 47.2318 11.9542 113 ° 26 km/h 3969 m -17.7 m/s 405.50 MHz Mayrhofen (AT) 0.00 km UNKNOWN
N4940157 RS41 2018-09-07 04:30:45 47.3998 11.9537 133 ° 13 km/h 2875 m -2.7 m/s 405.50 MHz Alpbach (AT) 0.00 km UNKNOWN
N4950389 RS41 2018-09-06 04:06:23 47.1724 11.9952 117 ° 20 km/h 3129 m -10.2 m/s 405.50 MHz Mayrhofen (AT) 0.00 km UNKNOWN
N4940170 RS41 2018-09-05 04:32:41 46.9003 11.7511 108 ° 13 km/h 4948 m -3.6 m/s 405.50 MHz Brunico (IT) 0.00 km UNKNOWN
N4940161 RS41 2018-09-04 03:54:53 47.0455 11.2211 196 ° 19 km/h 5253 m -3.7 m/s 405.50 MHz Neustift im Stubaital (AT) 0.00 km UNKNOWN
N5020333 RS41 2018-09-03 04:02:45 47.4651 10.9914 221 ° 7 km/h 2417 m -10.5 m/s 405.50 MHz Garmisch-Partenkirchen (DE) 0.00 km UNKNOWN
N4940185 RS41 2018-09-02 04:12:35 47.2283 10.8699 258 ° 28 km/h 2694 m -11.1 m/s 405.50 MHz Haiming (AT) 0.00 km UNKNOWN
N4950374 RS41 2018-09-01 04:52:26 47.7827 11.3846 210 ° 11 km/h 1695 m -3.8 m/s 405.50 MHz Geretsried (DE) 0.00 km UNKNOWN
N4940183 RS41 2018-08-31 04:04:38 47.4593 11.9712 35 ° 24 km/h 2753 m -7.4 m/s 405.50 MHz Kundl (AT) 0.00 km UNKNOWN
N4950383 RS41 2018-08-30 04:20:27 47.658 11.9064 73 ° 26 km/h 1802 m -5.4 m/s 404.10 MHz Kirchbichl (AT) 0.00 km UNKNOWN
N5020330 RS41 2018-08-29 04:34:59 47.2864 11.9837 89 ° 24 km/h 3260 m -5.7 m/s 404.10 MHz Alpbach (AT) 0.00 km UNKNOWN
N5020196 RS41 2018-08-28 03:50:41 47.0256 12.2004 138 ° 30 km/h 4299 m -11.3 m/s 404.10 MHz Virgen (AT) 0.00 km UNKNOWN
N5040332 RS41 2018-08-27 04:04:06 46.878 11.8528 157 ° 46 km/h 4381 m -8.5 m/s 405.50 MHz Brunico (IT) 0.00 km UNKNOWN
N4950373 RS41 2018-08-26 04:17:52 47.7647 11.9423 164 ° 26 km/h 1494 m -7.4 m/s 405.50 MHz Rosenheim (DE) 0.00 km UNKNOWN
N5020195 RS41 2018-08-25 04:18:41 47.6453 12.5854 96 ° 26 km/h 1971 m -5.8 m/s 405.50 MHz Kössen (AT) 0.00 km UNKNOWN
N4940198 RS41 2018-08-24 04:13:51 47.4657 11.8811 90 ° 15 km/h 2599 m -9.0 m/s 404.10 MHz Kramsach (AT) 0.00 km UNKNOWN
N4950381 RS41 2018-08-23 04:24:58 47.3083 11.2854 218 ° 7 km/h 2943 m -4.1 m/s 405.50 MHz Zirl (AT) 0.00 km UNKNOWN
N4940222 RS41 2018-08-22 04:24:57 47.3832 11.1666 18 ° 15 km/h 1862 m -5.3 m/s 404.10 MHz Leutasch (AT) 0.00 km UNKNOWN
N5040333 RS41 2018-08-21 03:30:52 47.1349 11.2267 146 ° 7 km/h 3356 m -9.6 m/s 405.50 MHz Neustift im Stubaital (AT) 0.00 km UNKNOWN
N5020348 RS41 2018-08-20 03:32:00 47.1098 11.0397 213 ° 17 km/h 4402 m -4.9 m/s 405.50 MHz Umhausen (AT) 0.00 km UNKNOWN
N5020347 RS41 2018-08-19 04:36:56 47.0728 11.0342 39 ° 13 km/h 4467 m -2.8 m/s 405.50 MHz Umhausen (AT) 0.00 km UNKNOWN
N5040331 RS41 2018-08-18 04:42:35 47.3285 11.7175 179 ° 7 km/h 2819 m -3.2 m/s 405.50 MHz Schwaz (AT) 0.00 km UNKNOWN
N5020326 RS41 2018-08-17 04:35:35 47.2766 11.6464 99 ° 15 km/h 3078 m -3.3 m/s 405.50 MHz Wattens (AT) 0.00 km UNKNOWN
N5020346 RS41 2018-08-16 04:05:25 46.9763 11.3363 214 ° 28 km/h 5633 m -7.8 m/s 405.50 MHz Neustift im Stubaital (AT) 0.00 km UNKNOWN
N5020328 RS41 2018-08-15 04:28:40 46.9251 11.4237 227 ° 7 km/h 4299 m -3.2 m/s 404.10 MHz Steinach am Brenner (AT) 0.00 km UNKNOWN
N5020327 RS41 2018-08-14 05:12:44 47.7006 12.1006 93 ° 26 km/h 1639 m -2.4 m/s 405.50 MHz Niederndorf (AT) 0.00 km UNKNOWN
N4940171 RS41 2018-08-13 03:06:44 47.3681 11.6254 86 ° 39 km/h 6861 m -21.3 m/s 405.50 MHz Terfens (AT) 0.00 km UNKNOWN
N4941074 RS41 2018-08-12 04:12:34 47.137 12.1121 65 ° 26 km/h 3385 m -3.9 m/s 404.10 MHz Neukirchen am Großvenediger (AT) 0.00 km UNKNOWN
N5020320 RS41 2018-08-11 04:35:35 47.4715 12.3757 130 ° 31 km/h 2310 m -4.8 m/s 405.50 MHz Kitzbühel (AT) 0.00 km UNKNOWN
N5020336 RS41 2018-08-10 04:22:01 48.0048 12.0167 127 ° 13 km/h 979 m -7.9 m/s 404.10 MHz Rosenheim (DE) 0.00 km UNKNOWN
N5020335 RS41 2018-08-09 04:30:57 47.7013 11.7142 350 ° 9 km/h 1725 m -4.3 m/s 405.50 MHz Achenkirch (AT) 0.00 km UNKNOWN
N5020319 RS41 2018-08-08 04:16:21 47.355 11.6854 65 ° 26 km/h 2606 m -5.2 m/s 404.10 MHz Schwaz (AT) 0.00 km UNKNOWN
N4941085 RS41 2018-08-07 04:14:11 47.2871 11.5141 298 ° 4 km/h 3053 m -12.5 m/s 404.10 MHz Absam (AT) 0.00 km UNKNOWN
N4941086 RS41 2018-08-06 04:20:31 47.2364 11.9123 78 ° 11 km/h 3298 m -5.3 m/s 405.50 MHz Mayrhofen (AT) 0.00 km FOUND
N4941069 RS41 2018-08-05 04:40:21 46.9236 11.2283 168 ° 20 km/h 3958 m -4.6 m/s 404.10 MHz Sölden (AT) 0.00 km UNKNOWN
N5020329 RS41 2018-08-04 04:12:17 47.0627 11.0642 202 ° 17 km/h 4364 m -9.0 m/s 405.50 MHz Sölden (AT) 0.00 km UNKNOWN
N5020334 RS41 2018-08-03 04:02:30 47.1646 11.1151 269 ° 31 km/h 3231 m -4.6 m/s 405.50 MHz Inzing (AT) 0.00 km UNKNOWN
N4941063 RS41 2018-08-02 04:14:56 47.3183 11.1212 296 ° 20 km/h 3278 m -10.5 m/s 405.50 MHz Telfs (AT) 0.00 km UNKNOWN
N4941093 RS41 2018-08-01 03:41:00 47.2054 11.5988 236 ° 15 km/h 3673 m -8.1 m/s 405.50 MHz Volders (AT) 0.00 km UNKNOWN
N4941081 RS41 2018-07-31 04:27:06 47.0292 11.2616 109 ° 17 km/h 5014 m -9.4 m/s 405.50 MHz Neustift im Stubaital (AT) 0.00 km UNKNOWN
N4941098 RS41 2018-07-30 03:57:50 47.3083 11.7312 124 ° 22 km/h 2876 m -7.8 m/s 405.50 MHz Schwaz (AT) 0.00 km UNKNOWN
N4941084 RS41 2018-07-29 04:33:23 46.9955 11.9133 66 ° 26 km/h 4181 m -4.8 m/s 405.50 MHz Mayrhofen (AT) 0.00 km UNKNOWN
N4941083 RS41 2018-07-28 04:12:27 47.1956 11.8029 143 ° 31 km/h 3612 m -3.2 m/s 405.50 MHz Mayrhofen (AT) 0.00 km UNKNOWN
N4941031 RS41 2018-07-27 04:07:44 47.0441 11.168 177 ° 20 km/h 4924 m -11.3 m/s 405.50 MHz Neustift im Stubaital (AT) 0.00 km UNKNOWN
N4941094 RS41 2018-07-26 04:17:49 46.8285 11.0176 201 ° 35 km/h 6032 m -5.0 m/s 405.50 MHz Sölden (AT) 0.00 km UNKNOWN
N4941095 RS41 2018-07-25 04:39:22 46.9712 10.9001 200 ° 26 km/h 5404 m -5.0 m/s 405.50 MHz Sölden (AT) 0.00 km UNKNOWN
N4941096 RS41 2018-07-24 04:18:55 46.6383 11.2197 198 ° 41 km/h 5237 m -12.4 m/s 405.50 MHz Lana (IT) 0.00 km FOUND
N4941071 RS41 2018-07-23 04:03:31 46.7956 11.2102 208 ° 33 km/h 4370 m -8.5 m/s 405.50 MHz Merano (IT) 0.00 km FOUND
N4941072 RS41 2018-07-22 04:45:14 47.2742 11.4381 136 ° 31 km/h 3521 m -4.8 m/s 405.50 MHz Rum (AT) 0.00 km UNKNOWN
N4941076 RS41 2018-07-21 04:30:48 47.6948 11.761 169 ° 6 km/h 1716 m -4.2 m/s 404.10 MHz Achenkirch (AT) 0.00 km UNKNOWN
N4941075 RS41 2018-07-20 04:17:02 47.2399 12.3379 96 ° 30 km/h 3232 m -5.1 m/s 404.10 MHz Bramberg am Wildkogel (AT) 0.00 km UNKNOWN
N4941073 RS41 2018-07-19 04:31:26 47.1853 11.8307 130 ° 28 km/h 3125 m -2.4 m/s 404.10 MHz Mayrhofen (AT) 0.00 km UNKNOWN
N4941077 RS41 2018-07-18 04:04:37 46.9774 11.9312 145 ° 54 km/h 4019 m -11.2 m/s 404.10 MHz Brunico (IT) 0.00 km UNKNOWN
N4941078 RS41 2018-07-17 04:31:45 47.0945 11.551 169 ° 31 km/h 3915 m -19.8 m/s 404.10 MHz Steinach am Brenner (AT) 0.00 km UNKNOWN
N4941079 RS41 2018-07-16 04:35:55 47.4824 13.0208 22 ° 11 km/h 2379 m -8.6 m/s 404.10 MHz Werfen (AT) 0.00 km UNKNOWN
N4941080 RS41 2018-07-15 04:45:43 47.2378 12.8938 92 ° 13 km/h 3527 m -4.8 m/s 404.10 MHz Bruck an der Großglocknerstraße (AT) 0.00 km UNKNOWN
N5020323 RS41 2018-07-14 04:09:41 47.0318 13.4384 110 ° 56 km/h 4124 m -7.1 m/s 404.10 MHz Gmünd (AT) 0.00 km UNKNOWN
N5020324 RS41 2018-07-13 04:21:14 47.2549 12.006 138 ° 22 km/h 3733 m -7.5 m/s 405.50 MHz Mayrhofen (AT) 0.00 km UNKNOWN
N5020176 RS41 2018-07-12 04:26:52 47.2419 12.4966 93 ° 50 km/h 3542 m -5.4 m/s 405.50 MHz Mittersill (AT) 0.00 km UNKNOWN
N5020175 RS41 2018-07-11 04:49:29 47.2612 12.3939 38 ° 26 km/h 3529 m -5.9 m/s 404.10 MHz Bramberg am Wildkogel (AT) 0.00 km UNKNOWN
N5020174 RS41 2018-07-10 04:45:51 46.6299 11.3245 161 ° 63 km/h 6974 m -5.5 m/s 405.50 MHz Lana (IT) 0.00 km UNKNOWN
N4941027 RS41 2018-07-09 04:12:34 46.3873 11.1884 174 ° 63 km/h 6224 m -7.6 m/s 405.50 MHz Laives (IT) 0.00 km UNKNOWN
N5020271 RS41 2018-07-08 05:04:48 46.3602 10.7902 188 ° 63 km/h 5776 m -3.2 m/s 404.10 MHz Lavis (IT) 0.00 km UNKNOWN
N5020321 RS41 2018-07-06 04:32:58 47.3106 11.6286 137 ° 4 km/h 684 m -5.4 m/s 405.50 MHz Terfens (AT) 0.00 km UNKNOWN
N5020179 RS41 2018-07-05 04:52:18 47.2981 12.2706 67 ° 24 km/h 2817 m -4.4 m/s 404.10 MHz Neukirchen am Großvenediger (AT) 0.00 km UNKNOWN
N5020288 RS41 2018-07-04 04:21:25 47.3767 12.0457 140 ° 30 km/h 2890 m -5.1 m/s 405.50 MHz Alpbach (AT) 0.00 km UNKNOWN
N5020275 RS41 2018-07-03 03:53:00 47.113 12.0937 131 ° 35 km/h 3913 m -7.1 m/s 404.10 MHz Mayrhofen (AT) 0.00 km UNKNOWN
N5020198 RS41 2018-07-02 03:39:47 46.9045 12.1636 130 ° 72 km/h 4210 m -9.6 m/s 404.10 MHz Brunico (IT) 0.00 km UNKNOWN
N5020197 RS41 2018-07-01 04:27:44 46.6391 11.9619 125 ° 67 km/h 5684 m -5.6 m/s 405.50 MHz Brunico (IT) 0.00 km UNKNOWN
N5020272 RS41 2018-06-30 03:59:13 46.9237 11.3685 154 ° 24 km/h 4586 m -9.5 m/s 404.10 MHz Steinach am Brenner (AT) 0.00 km UNKNOWN
N5020181 RS41 2018-06-29 04:06:10 47.1661 10.5037 270 ° 39 km/h 2965 m -6.0 m/s 404.10 MHz Landeck (AT) 0.00 km UNKNOWN
N5020285 RS41 2018-06-28 04:01:16 47.1346 10.5482 242 ° 50 km/h 4330 m -4.1 m/s 405.50 MHz Landeck (AT) 0.00 km UNKNOWN
N4941064 RS41 2018-06-27 04:34:07 46.4783 10.9785 183 ° 107 km/h 7665 m -10.0 m/s 405.50 MHz Lana (IT) 0.00 km UNKNOWN
N5020177 RS41 2018-06-26 04:09:26 46.4216 10.5265 207 ° 104 km/h 7611 m -9.2 m/s 405.50 MHz Tirano (IT) 0.00 km UNKNOWN
N5020187 RS41 2018-06-25 03:56:43 46.3789 11.1809 188 ° 100 km/h 9004 m -8.3 m/s 405.50 MHz Laives (IT) 0.00 km UNKNOWN
N4941068 RS41 2018-06-24 03:57:44 46.7102 11.5842 159 ° 48 km/h 6017 m -7.4 m/s 405.50 MHz Bressanone (IT) 0.00 km UNKNOWN
N5020273 RS41 2018-06-23 04:34:18 46.5825 12.0245 123 ° 65 km/h 5859 m -4.2 m/s 404.10 MHz Brunico (IT) 0.00 km UNKNOWN
N5020178 RS41 2018-06-22 04:40:02 47.3249 12.9163 125 ° 72 km/h 3164 m -5.4 m/s 405.50 MHz Taxenbach (AT) 0.00 km UNKNOWN
N5020264 RS41 2018-06-21 04:31:21 47.1614 11.3017 79 ° 13 km/h 2774 m -10.3 m/s 404.10 MHz Fulpmes (AT) 0.00 km UNKNOWN
N5020287 RS41 2018-06-20 04:03:25 47.1692 10.972 253 ° 20 km/h 3114 m -10.9 m/s 404.10 MHz Oetz (AT) 0.00 km UNKNOWN
N5020189 RS41 2018-06-19 04:25:27 46.6854 10.9193 211 ° 41 km/h 5040 m -5.1 m/s 405.50 MHz Merano (IT) 0.00 km UNKNOWN
N5020191 RS41 2018-06-18 03:43:01 47.0154 11.6634 101 ° 20 km/h 5318 m -5.2 m/s 405.50 MHz Steinach am Brenner (AT) 0.00 km UNKNOWN
N5020190 RS41 2018-06-17 04:25:50 47.3366 11.5171 169 ° 31 km/h 3185 m -6.5 m/s 405.50 MHz Thaur (AT) 0.00 km UNKNOWN
N5010099 RS41 2018-06-16 04:55:49 46.9907 11.2382 230 ° 30 km/h 5628 m -3.8 m/s 405.50 MHz Neustift im Stubaital (AT) 0.00 km UNKNOWN
N4941066 RS41 2018-06-14 04:38:50 47.0644 11.1058 259 ° 15 km/h 4699 m -3.4 m/s 405.50 MHz Sölden (AT) 0.00 km UNKNOWN
N5020283 RS41 2018-06-12 04:44:14 47.6232 11.8289 117 ° 19 km/h 1985 m -2.7 m/s 404.10 MHz Achenkirch (AT) 0.00 km UNKNOWN
N5020284 RS41 2018-06-11 03:46:18 47.436 12.0773 135 ° 24 km/h 2489 m -4.9 m/s 404.10 MHz Wörgl (AT) 0.00 km UNKNOWN
N4941065 RS41 2018-06-10 04:04:36 47.202 11.9116 104 ° 15 km/h 3247 m -8.6 m/s 404.10 MHz Mayrhofen (AT) 0.00 km UNKNOWN
N5010100 RS41 2018-06-09 04:04:21 47.1931 11.5762 185 ° 13 km/h 2655 m -6.5 m/s 404.10 MHz Volders (AT) 0.00 km UNKNOWN
N5010098 RS41 2018-06-08 04:18:23 47.4117 11.2514 22 ° 13 km/h 2242 m -11.6 m/s 404.10 MHz Leutasch (AT) 0.00 km UNKNOWN
N5010097 RS41 2018-06-07 04:05:00 47.3677 11.4857 146 ° 13 km/h 3270 m -8.0 m/s 405.50 MHz Thaur (AT) 0.00 km UNKNOWN
N4941030 RS41 2018-06-06 04:35:44 47.3596 11.5609 23 ° 30 km/h 2530 m -4.2 m/s 404.10 MHz Terfens (AT) 0.00 km UNKNOWN
N4941050 RS41 2018-06-05 04:41:01 46.9836 10.9801 306 ° 19 km/h 3213 m -4.0 m/s 404.10 MHz Sölden (AT) 0.00 km UNKNOWN
N4941062 RS41 2018-06-04 04:49:45 47.0875 11.3852 83 ° 9 km/h 2711 m -3.4 m/s 404.10 MHz Steinach am Brenner (AT) 0.00 km UNKNOWN
N5020182 RS41 2018-06-03 03:58:54 47.1094 12.0257 80 ° 20 km/h 3516 m -3.3 m/s 405.50 MHz Mayrhofen (AT) 0.00 km UNKNOWN
N5020192 RS41 2018-06-02 04:14:16 47.3848 11.3466 72 ° 6 km/h 3161 m -7.6 m/s 405.50 MHz Seefeld in Tirol (AT) 0.00 km UNKNOWN
N4941042 RS41 2018-06-01 04:40:39 47.5729 10.9744 129 ° 28 km/h 2062 m -3.6 m/s 404.10 MHz Garmisch-Partenkirchen (DE) 0.00 km UNKNOWN
N4941059 RS41 2018-05-31 04:42:09 47.4861 11.2993 326 ° 19 km/h 1996 m -5.5 m/s 404.10 MHz Garmisch-Partenkirchen (DE) 0.00 km UNKNOWN
N4941044 RS41 2018-05-30 05:03:39 47.5196 11.4511 231 ° 9 km/h 2193 m -4.0 m/s 404.10 MHz Achenkirch (AT) 0.00 km UNKNOWN
N4941049 RS41 2018-05-29 04:56:51 47.4566 11.3074 59 ° 13 km/h 2267 m -1.7 m/s 404.10 MHz Leutasch (AT) 0.00 km UNKNOWN
N4941097 RS41 2018-05-28 05:05:27 47.2809 11.2018 137 ° 17 km/h 881 m -3.8 m/s 404.10 MHz Inzing (AT) 0.00 km UNKNOWN
N4941067 RS41 2018-05-27 04:58:09 47.4245 11.5541 27 ° 9 km/h 2049 m -2.1 m/s 404.10 MHz Terfens (AT) 0.00 km UNKNOWN
N4941041 RS41 2018-05-26 04:32:37 47.1159 11.5749 112 ° 26 km/h 3293 m -7.9 m/s 404.10 MHz Steinach am Brenner (AT) 0.00 km UNKNOWN
N4941047 RS41 2018-05-25 04:18:28 47.1462 11.7474 149 ° 24 km/h 3503 m -9.9 m/s 404.10 MHz Mayrhofen (AT) 0.00 km UNKNOWN
N4941058 RS41 2018-05-24 04:17:45 47.4647 11.2413 14 ° 6 km/h 2212 m -8.0 m/s 404.10 MHz Garmisch-Partenkirchen (DE) 0.00 km UNKNOWN
N4941040 RS41 2018-05-23 04:30:55 47.5631 11.4703 97 ° 9 km/h 1652 m -5.4 m/s 404.10 MHz Achenkirch (AT) 0.00 km UNKNOWN
N4941061 RS41 2018-05-22 04:13:17 47.4618 11.4936 67 ° 4 km/h 1982 m -9.6 m/s 404.10 MHz Achenkirch (AT) 0.00 km UNKNOWN
N4941045 RS41 2018-05-21 03:58:38 47.3841 11.3855 53 ° 6 km/h 3495 m -7.7 m/s 405.50 MHz Thaur (AT) 0.00 km UNKNOWN
N4941060 RS41 2018-05-20 04:50:21 47.3625 11.7894 110 ° 9 km/h 1387 m -3.8 m/s 404.10 MHz Jenbach (AT) 0.00 km UNKNOWN
N4941046 RS41 2018-05-19 04:24:51 47.2617 11.73 360 ° 7 km/h 2200 m -4.0 m/s 404.10 MHz Terfens (AT) 0.00 km UNKNOWN
P1440924 RS41 2018-05-18 04:39:48 47.1271 11.3097 227 ° 20 km/h 2308 m -5.0 m/s 404.10 MHz Neustift im Stubaital (AT) 0.00 km UNKNOWN
N4941043 RS41 2018-05-17 14:52:59 47.1925 10.9566 99 ° 11 km/h 2806 m -3.8 m/s 404.10 MHz Oetz (AT) 0.00 km UNKNOWN
P1440920 RS41 2018-05-17 04:29:50 47.1593 11.3632 65 ° 4 km/h 1269 m -9.2 m/s 404.10 MHz Fulpmes (AT) 0.00 km UNKNOWN
P1440942 RS41 2018-05-16 17:12:01 47.2514 11.82 116 ° 43 km/h 2982 m -6.3 m/s 405.50 MHz Mayrhofen (AT) 0.00 km UNKNOWN
N1423343 RS92 2018-05-15 04:26:04 46.9722 11.1148 177 ° 48 km/h 3484 m -9.4 m/s 404.10 MHz Sölden (AT) 0.00 km UNKNOWN
N1423327 RS92 2018-05-14 04:08:50 47.5183 10.7085 306 ° 19 km/h 1410 m -6.3 m/s 404.10 MHz Reutte (AT) 0.00 km UNKNOWN
N1423339 RS92 2018-05-13 02:46:47 47.3227 11.3836 84 ° 9 km/h 2544 m -25.6 m/s 404.10 MHz Innsbruck (AT) 0.00 km UNKNOWN
N1423527 RS92 2018-05-12 04:12:46 47.2436 11.5635 264 ° 9 km/h 1665 m -4.1 m/s 404.10 MHz Volders (AT) 0.00 km UNKNOWN
N1414002 RS92 2018-05-11 04:19:17 47.3277 11.5431 331 ° 13 km/h 1411 m -4.2 m/s 404.10 MHz Volders (AT) 0.00 km UNKNOWN
N1423521 RS92 2018-05-10 04:11:51 47.5417 11.501 25 ° 13 km/h 2147 m -5.6 m/s 404.10 MHz Achenkirch (AT) 0.00 km UNKNOWN
N1513146 RS92 2018-05-07 04:06:49 47.1239 11.1808 75 ° 11 km/h 3111 m -4.3 m/s 404.10 MHz Neustift im Stubaital (AT) 0.00 km UNKNOWN
N1423338 RS92 2018-05-06 04:18:27 47.1025 10.9708 238 ° 24 km/h 2997 m -5.5 m/s 404.10 MHz Umhausen (AT) 0.00 km UNKNOWN
N1423367 RS92 2018-05-04 04:21:18 47.3331 10.7791 300 ° 24 km/h 2257 m -5.8 m/s 404.10 MHz Tarrenz (AT) 0.00 km UNKNOWN
N1423578 RS92 2018-05-03 04:25:44 47.8073 11.2878 110 ° 13 km/h 1104 m -4.8 m/s 404.10 MHz Weilheim in Oberbayern (DE) 0.00 km UNKNOWN
N1423336 RS92 2018-05-01 03:19:18 47.8233 12.0769 114 ° 15 km/h 1280 m -5.3 m/s 404.10 MHz Rosenheim (DE) 0.00 km UNKNOWN
N1423364 RS92 2018-04-30 04:43:37 48.1165 11.4796 93 ° 22 km/h 2209 m -4.4 m/s 405.50 MHz München (DE) 0.00 km UNKNOWN
N1513141 RS92 2018-04-30 03:47:16 47.8566 11.4862 107 ° 26 km/h 1758 m -10.8 m/s 404.10 MHz Geretsried (DE) 0.00 km UNKNOWN
N1423620 RS92 2018-04-29 02:49:15 47.4025 11.5323 47 ° 57 km/h 12299 m -52.1 m/s 404.10 MHz Terfens (AT) 0.00 km UNKNOWN
N1413993 RS92 2018-04-28 02:53:51 47.4378 11.6507 42 ° 61 km/h 6450 m -28.0 m/s 404.10 MHz Eben am Achensee (AT) 0.00 km UNKNOWN
N1423554 RS92 2018-04-27 02:45:05 47.2292 11.7514 105 ° 52 km/h 4171 m -27.1 m/s 404.10 MHz Mayrhofen (AT) 0.00 km UNKNOWN
N1423347 RS92 2018-04-26 03:58:01 47.4409 12.4452 113 ° 15 km/h 2619 m -14.3 m/s 404.10 MHz Kitzbühel (AT) 0.00 km UNKNOWN
N1423566 RS92 2018-04-24 04:02:18 47.0816 11.8195 105 ° 28 km/h 3631 m -5.4 m/s 404.10 MHz Mayrhofen (AT) 0.00 km UNKNOWN
N1423359 RS92 2018-04-23 04:16:07 47.2583 11.992 129 ° 24 km/h 2782 m -5.4 m/s 404.10 MHz Mayrhofen (AT) 0.00 km UNKNOWN
N1433073 RS92 2018-04-22 04:11:00 47.2364 11.7091 69 ° 24 km/h 3050 m -6.7 m/s 404.10 MHz Wattens (AT) 0.00 km UNKNOWN
N1433083 RS92 2018-04-21 03:54:37 47.3836 11.2007 248 ° 2 km/h 2538 m -7.7 m/s 404.10 MHz Leutasch (AT) 0.00 km UNKNOWN
N1423514 RS92 2018-04-20 04:20:39 47.0047 10.5012 283 ° 30 km/h 3465 m -5.0 m/s 404.10 MHz Pfunds (AT) 0.00 km UNKNOWN
N1423330 RS92 2018-04-19 04:12:07 47.0654 10.5883 332 ° 20 km/h 3084 m -11.1 m/s 404.10 MHz Fliess (AT) 0.00 km UNKNOWN
N1424073 RS92 2018-04-18 02:59:19 46.9298 10.8674 249 ° 72 km/h 3842 m -27.8 m/s 404.10 MHz Sölden (AT) 0.00 km UNKNOWN
N1423515 RS92 2018-04-17 04:04:55 47.0202 11.5347 209 ° 30 km/h 3410 m -5.7 m/s 404.10 MHz Steinach am Brenner (AT) 0.00 km UNKNOWN
N1423345 RS92 2018-04-16 04:26:01 47.689 11.4387 95 ° 19 km/h 1597 m -4.3 m/s 404.10 MHz Geretsried (DE) 0.00 km UNKNOWN
N1413988 RS92 2018-04-15 04:26:04 47.6711 11.8 16 ° 17 km/h 1642 m -4.6 m/s 404.10 MHz Achenkirch (AT) 0.00 km UNKNOWN
M3923118 RS92 2018-04-14 04:12:44 47.5077 12.2823 274 ° 6 km/h 1713 m -5.4 m/s 404.10 MHz Ellmau (AT) 0.00 km FOUND
N1413999 RS92 2018-04-13 03:29:38 47.6 11.2667 251 ° 13 km/h 22509 m 4.7 m/s 404.10 MHz Garmisch-Partenkirchen (DE) 0.00 km UNKNOWN
N1423340 RS92 2018-04-12 04:20:29 47.9695 11.4457 21 ° 39 km/h 2306 m -6.6 m/s 405.50 MHz Starnberg (DE) 0.00 km UNKNOWN
N1433088 RS92 2018-04-12 04:17:13 48.1619 11.4696 305 ° 39 km/h 907 m -4.9 m/s 404.10 MHz Germering (DE) 0.00 km UNKNOWN
N1414005 RS92 2018-04-11 05:12:37 47.7461 12.0602 59 ° 85 km/h 8652 m -2.4 m/s 404.10 MHz Rosenheim (DE) 0.00 km UNKNOWN
N1433223 RS92 2018-04-10 04:36:34 47.4469 11.4072 1 ° 0 km/h 2379 m 0.0 m/s 404.10 MHz Thaur (AT) 0.00 km UNKNOWN
N1433168 RS92 2018-04-09 02:45:26 47.3839 11.383 16 ° 28 km/h 3246 m -33.0 m/s 404.10 MHz Thaur (AT) 0.00 km UNKNOWN
N1424086 RS92 2018-04-08 02:51:38 47.1784 11.4669 101 ° 17 km/h 3500 m -22.0 m/s 404.10 MHz Sistrans (AT) 0.00 km UNKNOWN
N1413973 RS92 2018-04-07 03:44:50 47.1398 11.5207 17 ° 26 km/h 3113 m -8.7 m/s 404.10 MHz Steinach am Brenner (AT) 0.00 km UNKNOWN
N1424028 RS92 2018-04-06 03:43:02 46.8934 11.9275 179 ° 52 km/h 4674 m -5.5 m/s 404.10 MHz Brunico (IT) 0.00 km UNKNOWN
N1433167 RS92 2018-04-05 04:10:14 47.6409 12.1513 47 ° 24 km/h 1779 m -4.4 m/s 404.10 MHz Ebbs (AT) 0.00 km UNKNOWN
N1433065 RS92 2018-04-04 03:52:28 47.6895 12.3813 31 ° 30 km/h 1225 m -7.2 m/s 404.10 MHz Kössen (AT) 0.00 km UNKNOWN
N1423517 RS92 2018-04-03 02:40:46 47.3553 11.6976 26 ° 31 km/h 2168 m -25.3 m/s 404.10 MHz Schwaz (AT) 0.00 km UNKNOWN
N1433220 RS92 2018-04-02 02:45:34 47.0516 11.8641 139 ° 104 km/h 4878 m -31.5 m/s 404.10 MHz Mayrhofen (AT) 0.00 km UNKNOWN
N1433216 RS92 2018-04-01 04:01:17 47.1242 12.1267 170 ° 37 km/h 3539 m -2.9 m/s 404.10 MHz Neukirchen am Großvenediger (AT) 0.00 km UNKNOWN
N1424084 RS92 2018-03-31 03:56:57 47.9037 12.0531 164 ° 31 km/h 1290 m -3.6 m/s 404.10 MHz Rosenheim (DE) 0.00 km UNKNOWN
M3913311 RS92 2018-03-30 02:57:53 47.4629 12.0214 56 ° 52 km/h 3249 m -37.6 m/s 404.10 MHz Kundl (AT) 0.00 km UNKNOWN
M3843146 RS92 2018-03-29 03:49:12 47.354 12.6877 67 ° 19 km/h 3413 m -6.0 m/s 404.10 MHz Niedernsill (AT) 0.00 km UNKNOWN
N1424034 RS92 2018-03-28 03:40:28 46.426 12.2065 156 ° 131 km/h 6677 m -9.3 m/s 404.10 MHz Belluno (IT) 0.00 km UNKNOWN
M3913301 RS92 2018-03-27 03:55:21 46.9782 11.9968 133 ° 48 km/h 4234 m -8.1 m/s 404.10 MHz Brunico (IT) 0.00 km UNKNOWN
M3913226 RS92 2018-03-26 03:56:16 47.0775 11.3603 190 ° 28 km/h 3484 m -6.2 m/s 404.10 MHz Neustift im Stubaital (AT) 0.00 km UNKNOWN
N1424035 RS92 2018-03-25 04:58:51 47.2272 11.1108 270 ° 15 km/h 2698 m -4.6 m/s 404.10 MHz Inzing (AT) 0.00 km UNKNOWN
N1424026 RS92 2018-03-24 04:57:51 46.9107 10.956 193 ° 26 km/h 3642 m -5.2 m/s 404.10 MHz Sölden (AT) 0.00 km UNKNOWN
M3923272 RS92 2018-03-23 03:53:06 46.9956 11.0818 197 ° 61 km/h 3911 m -27.4 m/s 404.10 MHz Sölden (AT) 0.00 km UNKNOWN
M3923279 RS92 2018-03-22 04:46:38 46.8133 11.0241 182 ° 54 km/h 3988 m -6.4 m/s 404.10 MHz Sölden (AT) 0.00 km UNKNOWN
M3936301 RS92 2018-03-21 04:55:14 47.2004 11.4092 123 ° 22 km/h 1128 m -3.9 m/s 404.10 MHz Mutters (AT) 0.00 km UNKNOWN
M3936298 RS92 2018-03-20 04:31:21 47.1034 11.3879 150 ° 20 km/h 2665 m -4.5 m/s 404.10 MHz Neustift im Stubaital (AT) 0.00 km UNKNOWN
M3923100 RS92 2018-03-19 05:04:51 47.4247 11.5343 276 ° 22 km/h 2592 m -4.9 m/s 404.10 MHz Terfens (AT) 0.00 km UNKNOWN
M3933610 RS92 2018-03-18 04:54:45 47.5706 11.6691 339 ° 20 km/h 2249 m -5.2 m/s 404.10 MHz Achenkirch (AT) 0.00 km FOUND
M3923271 RS92 2018-03-17 05:00:59 47.7834 12.5457 278 ° 26 km/h 1122 m -4.7 m/s 404.10 MHz Kössen (AT) 0.00 km UNKNOWN
M3933769 RS92 2018-03-16 03:48:02 47.4036 11.5544 147 ° 13 km/h 3372 m -29.6 m/s 404.10 MHz Terfens (AT) 0.00 km UNKNOWN
M3933591 RS92 2018-03-14 04:58:09 47.0638 12.2022 111 ° 37 km/h 3918 m -4.5 m/s 404.10 MHz Virgen (AT) 0.00 km UNKNOWN
M3936311 RS92 2018-03-13 04:56:54 47.4047 12.2968 139 ° 24 km/h 2289 m -4.4 m/s 404.10 MHz Kirchberg in Tirol (AT) 0.00 km UNKNOWN
M3923286 RS92 2018-03-12 04:51:10 47.5623 12.0037 53 ° 37 km/h 2193 m -6.1 m/s 404.10 MHz Kirchbichl (AT) 0.00 km UNKNOWN
M3923267 RS92 2018-03-11 04:48:11 47.4668 12.4795 247 ° 15 km/h 2427 m -5.9 m/s 404.10 MHz Fieberbrunn (AT) 0.00 km UNKNOWN
M3933775 RS92 2018-03-10 05:02:20 47.0757 13.0611 115 ° 46 km/h 4438 m -4.4 m/s 404.10 MHz Badgastein (AT) 0.00 km UNKNOWN
M3933582 RS92 2018-03-09 04:47:01 46.8427 12.8292 113 ° 102 km/h 5426 m -7.6 m/s 404.10 MHz Dölsach (AT) 0.00 km UNKNOWN
M3826116 RS92 2018-03-08 04:42:26 46.9462 12.4751 93 ° 30 km/h 4975 m -4.8 m/s 404.10 MHz Virgen (AT) 0.00 km UNKNOWN
M3923110 RS92 2018-03-07 04:56:53 47.4353 12.0399 55 ° 26 km/h 2438 m -4.2 m/s 404.10 MHz Kundl (AT) 0.00 km UNKNOWN
M3933771 RS92 2018-03-06 04:56:45 47.6248 11.5764 43 ° 19 km/h 2015 m -4.7 m/s 404.10 MHz Achenkirch (AT) 0.00 km UNKNOWN
M3936299 RS92 2018-03-05 04:36:36 47.6058 11.8232 126 ° 6 km/h 2035 m -8.9 m/s 404.10 MHz Achenkirch (AT) 0.00 km UNKNOWN
M3913215 RS92 2018-03-04 04:55:34 47.2562 12.5639 134 ° 41 km/h 3313 m -5.0 m/s 404.10 MHz Uttendorf (AT) 0.00 km UNKNOWN
M3923288 RS92 2018-03-03 04:38:38 47.239 12.18 114 ° 50 km/h 3032 m -14.9 m/s 404.10 MHz Neukirchen am Großvenediger (AT) 0.00 km UNKNOWN
M3826044 RS92 2018-03-02 03:37:17 47.2854 11.4371 79 ° 17 km/h 6163 m -28.2 m/s 404.10 MHz Rum (AT) 0.00 km UNKNOWN
M3933772 RS92 2018-03-01 04:33:58 47.2273 12.7294 99 ° 56 km/h 3634 m -5.7 m/s 404.10 MHz Piesendorf (AT) 0.00 km UNKNOWN
M3826104 RS92 2018-02-28 04:47:57 47.0544 12.0309 227 ° 17 km/h 3712 m -4.3 m/s 404.10 MHz Mayrhofen (AT) 0.00 km UNKNOWN
M3933779 RS92 2018-02-27 04:45:29 47.1597 11.2878 275 ° 31 km/h 3809 m -5.2 m/s 404.10 MHz Fulpmes (AT) 0.00 km UNKNOWN
M3826121 RS92 2018-02-26 03:39:46 47.2224 11.2792 287 ° 6 km/h 1214 m -26.2 m/s 404.10 MHz Axams (AT) 0.00 km UNKNOWN
M3936308 RS92 2018-02-25 04:33:37 46.8524 11.5893 151 ° 54 km/h 7213 m -18.2 m/s 404.10 MHz Bressanone (IT) 0.00 km UNKNOWN
M3936297 RS92 2018-02-24 04:56:49 47.0993 11.3174 105 ° 7 km/h 1966 m -6.3 m/s 404.10 MHz Neustift im Stubaital (AT) 0.00 km UNKNOWN
M3936296 RS92 2018-02-23 04:57:05 47.3854 11.3264 298 ° 20 km/h 3483 m -6.1 m/s 404.10 MHz Seefeld in Tirol (AT) 0.00 km UNKNOWN
M3936304 RS92 2018-02-22 04:54:58 47.2936 11.1435 343 ° 41 km/h 3711 m -6.3 m/s 404.10 MHz Inzing (AT) 0.00 km UNKNOWN
N1433244 RS92 2018-02-21 04:38:35 46.9561 10.8778 273 ° 37 km/h 5337 m -4.7 m/s 404.10 MHz Sölden (AT) 0.00 km UNKNOWN
N1424085 RS92 2018-02-20 04:47:49 46.7397 11.3765 27 ° 26 km/h 5657 m -5.4 m/s 404.10 MHz Merano (IT) 0.00 km UNKNOWN
N1424052 RS92 2018-02-19 04:59:22 46.9329 11.3186 180 ° 41 km/h 4977 m -5.7 m/s 404.10 MHz Neustift im Stubaital (AT) 0.00 km UNKNOWN
M3836054 RS92 2018-02-18 04:51:02 47.1466 12.011 165 ° 37 km/h 3869 m -3.8 m/s 404.10 MHz Mayrhofen (AT) 0.00 km UNKNOWN
M3933618 RS92 2018-02-17 04:42:50 47.0677 12.684 99 ° 67 km/h 4325 m -3.9 m/s 404.10 MHz Matrei in Osttirol (AT) 0.00 km UNKNOWN
M3933778 RS92 2018-02-16 04:54:06 46.9899 12.9169 130 ° 85 km/h 4843 m -5.7 m/s 404.10 MHz Dölsach (AT) 0.00 km UNKNOWN
M3936306 RS92 2018-02-14 04:40:18 47.046 11.8402 155 ° 35 km/h 4517 m -10.6 m/s 404.10 MHz Mayrhofen (AT) 0.00 km UNKNOWN
M3936309 RS92 2018-02-13 05:01:00 47.2537 11.9055 236 ° 19 km/h 3449 m -9.7 m/s 404.10 MHz Mayrhofen (AT) 0.00 km UNKNOWN
M3923104 RS92 2018-02-12 03:54:23 47.4035 11.7832 29 ° 96 km/h 6333 m -33.9 m/s 404.10 MHz Jenbach (AT) 0.00 km UNKNOWN
M3923116 RS92 2018-02-11 05:04:48 46.8097 11.314 187 ° 85 km/h 7444 m -8.2 m/s 404.10 MHz Merano (IT) 0.00 km UNKNOWN
M3923108 RS92 2018-02-10 04:15:21 47.1309 11.2743 221 ° 11 km/h 3910 m -4.6 m/s 404.10 MHz Neustift im Stubaital (AT) 0.00 km UNKNOWN
N1433074 RS92 2018-02-09 04:26:55 47.2973 11.5061 300 ° 22 km/h 21420 m 3.7 m/s 404.10 MHz Absam (AT) 0.00 km UNKNOWN
N1424079 RS92 2018-02-08 04:28:55 47.3208 11.5121 132 ° 20 km/h 3261 m -4.7 m/s 404.10 MHz Thaur (AT) 0.00 km UNKNOWN
N1433203 RS92 2018-02-07 04:18:02 47.5333 11.5494 1 ° 28 km/h 18793 m 0.0 m/s 404.10 MHz Achenkirch (AT) 0.00 km UNKNOWN
M4933205 RS92 2018-02-05 04:39:21 47.2807 12.2633 103 ° 35 km/h 3075 m -4.7 m/s 404.10 MHz Neukirchen am Großvenediger (AT) 0.00 km UNKNOWN
N1424046 RS92 2018-02-04 04:44:58 47.041 12.4107 110 ° 39 km/h 4362 m -5.4 m/s 404.10 MHz Virgen (AT) 0.00 km UNKNOWN
N1433196 RS92 2018-02-03 04:55:45 47.4061 12.5165 165 ° 22 km/h 2850 m -4.9 m/s 404.10 MHz Fieberbrunn (AT) 0.00 km UNKNOWN
N1424065 RS92 2018-02-02 05:02:40 47.8109 13.4862 24 ° 26 km/h 1262 m -4.5 m/s 404.10 MHz Sankt Wolfgang im Salzkammergut (AT) 0.00 km UNKNOWN
N1424031 RS92 2018-02-01 05:03:58 47.6379 13.4349 246 ° 13 km/h 1710 m -3.0 m/s 404.10 MHz Strobl (AT) 0.00 km UNKNOWN
M3913208 RS92 2018-01-30 04:38:09 46.8482 12.9973 142 ° 93 km/h 4940 m -6.8 m/s 404.10 MHz Dölsach (AT) 0.00 km UNKNOWN
N1424047 RS92 2018-01-29 04:51:11 46.7551 12.5611 118 ° 41 km/h 5548 m -6.2 m/s 404.10 MHz Lienz (AT) 0.00 km UNKNOWN
M3913399 RS92 2018-01-28 04:40:37 46.7195 12.0435 171 ° 44 km/h 5897 m -5.1 m/s 404.10 MHz Brunico (IT) 0.00 km UNKNOWN
N0213049 RS92 2018-01-27 05:02:11 47.4408 13.0252 25 ° 24 km/h 2498 m -4.9 m/s 404.10 MHz Werfen (AT) 0.00 km UNKNOWN
M3923293 RS92 2018-01-26 09:30:45 47.4482 11.6111 87 ° 50 km/h 4816 m -34.7 m/s 404.10 MHz Eben am Achensee (AT) 0.00 km UNKNOWN
N1424057 RS92 2018-01-26 04:20:37 47.7016 12.6728 78 ° 178 km/h 22581 m 5.7 m/s 404.10 MHz Grossgmain (AT) 0.00 km UNKNOWN
N1433067 RS92 2018-01-25 10:41:00 47.5571 13.006 323 ° 17 km/h 2068 m -9.4 m/s 404.10 MHz Golling an der Salzach (AT) 0.00 km UNKNOWN
N1433161 RS92 2018-01-25 03:53:11 47.3448 11.8108 77 ° 81 km/h 7873 m -37.8 m/s 404.10 MHz Fügen (AT) 0.00 km UNKNOWN
M3933615 RS92 2018-01-24 09:42:11 46.6898 12.568 190 ° 39 km/h 5754 m -5.5 m/s 404.10 MHz Lienz (AT) 0.00 km UNKNOWN
N1024065 RS92 2018-01-24 04:55:04 46.5563 12.4565 154 ° 72 km/h 6816 m -5.9 m/s 404.10 MHz Lienz (AT) 0.00 km UNKNOWN
M3923109 RS92 2018-01-23 09:42:39 46.3928 12.2627 168 ° 131 km/h 8280 m -10.8 m/s 404.10 MHz Belluno (IT) 0.00 km UNKNOWN
M3923278 RS92 2018-01-23 04:19:22 46.5775 12.1452 107 ° 128 km/h 22589 m 6.5 m/s 404.10 MHz Brunico (IT) 0.00 km UNKNOWN
N1133216 RS92 2018-01-22 10:13:31 46.4057 13.254 146 ° 156 km/h 7241 m -6.5 m/s 404.10 MHz Gemona del Friuli (IT) 0.00 km UNKNOWN
N1423949 RS92 2018-01-22 04:49:38 46.3152 13.339 135 ° 143 km/h 7063 m -7.9 m/s 404.10 MHz Tarcento (IT) 0.00 km UNKNOWN
N1424029 RS92 2018-01-21 04:34:43 46.1892 13.0321 154 ° 244 km/h 9223 m -7.4 m/s 404.10 MHz San Daniele del Friuli (IT) 0.00 km UNKNOWN
N1253119 RS92 2018-01-20 04:42:49 47.0131 13.0478 109 ° 76 km/h 4681 m -6.2 m/s 404.10 MHz Badgastein (AT) 0.00 km UNKNOWN
N1424042 RS92 2018-01-17 05:03:36 47.1375 14.0717 98 ° 76 km/h 3335 m -6.0 m/s 404.10 MHz Murau (AT) 0.00 km UNKNOWN
N1423960 RS92 2018-01-16 04:30:50 46.6715 12.5996 110 ° 83 km/h 6796 m -15.7 m/s 404.10 MHz Lienz (AT) 0.00 km UNKNOWN
N1424033 RS92 2018-01-15 04:46:57 46.5492 11.6824 143 ° 65 km/h 6130 m -6.0 m/s 404.10 MHz Bressanone (IT) 0.00 km UNKNOWN
N1433218 RS92 2018-01-14 04:39:52 46.9693 11.8717 175 ° 33 km/h 4387 m -6.1 m/s 404.10 MHz Brunico (IT) 0.00 km UNKNOWN
N1424062 RS92 2018-01-13 04:10:36 47.3277 11.0889 266 ° 17 km/h 4303 m -5.8 m/s 404.10 MHz Telfs (AT) 0.00 km UNKNOWN
N1433085 RS92 2018-01-12 04:55:13 47.2489 11.5502 242 ° 17 km/h 3503 m -5.3 m/s 404.10 MHz Volders (AT) 0.00 km UNKNOWN
N1433215 RS92 2018-01-11 04:41:14 47.3567 11.5641 85 ° 43 km/h 17492 m 5.3 m/s 404.10 MHz Terfens (AT) 0.00 km UNKNOWN
N1424050 RS92 2018-01-11 04:19:28 47.3173 11.3904 238 ° 7 km/h 3545 m -28.2 m/s 405.50 MHz Innsbruck (AT) 0.00 km UNKNOWN
M3813398 RS92 2018-01-10 05:04:38 47.5614 12.2399 195 ° 17 km/h 2149 m -4.0 m/s 404.10 MHz Kufstein (AT) 0.00 km UNKNOWN
M3933075 RS92 2018-01-09 04:24:24 47.8251 11.8898 86 ° 76 km/h 23222 m -38.6 m/s 404.10 MHz Rosenheim (DE) 0.00 km UNKNOWN
M3913209 RS92 2018-01-08 05:11:12 47.8609 12.177 45 ° 37 km/h 1386 m -1.7 m/s 404.10 MHz Rosenheim (DE) 0.00 km UNKNOWN
N1433158 RS92 2018-01-06 05:28:45 47.778 12.7807 252 ° 20 km/h 1351 m -3.1 m/s 405.50 MHz Grossgmain (AT) 0.00 km UNKNOWN
M3843178 RS92 2018-01-05 05:02:30 46.8338 13.5092 107 ° 122 km/h 5173 m -6.1 m/s 404.10 MHz Seeboden (AT) 0.00 km UNKNOWN
M3913296 RS92 2018-01-04 04:35:00 46.3694 12.6332 144 ° 246 km/h 7225 m -12.2 m/s 404.10 MHz Maniago (IT) 0.00 km UNKNOWN
N1424036 RS92 2018-01-03 05:14:37 46.652 12.4777 153 ° 148 km/h 6478 m -6.6 m/s 405.50 MHz Lienz (AT) 0.00 km UNKNOWN
M3913284 RS92 2018-01-02 04:48:50 47.3086 12.2257 118 ° 74 km/h 4367 m -10.5 m/s 404.10 MHz Neukirchen am Großvenediger (AT) 0.00 km UNKNOWN
M3923106 RS92 2018-01-01 05:11:09 47.9441 12.8583 89 ° 46 km/h 889 m -4.7 m/s 404.10 MHz Sankt Georgen bei Salzburg (AT) 0.00 km UNKNOWN
M3923119 RS92 2017-12-31 04:41:09 46.7317 12.6356 120 ° 94 km/h 6639 m -16.9 m/s 404.10 MHz Lienz (AT) 0.00 km UNKNOWN
M3913193 RS92 2017-12-30 04:33:53 46.3569 12.4882 155 ° 228 km/h 8725 m -15.8 m/s 404.10 MHz Maniago (IT) 0.00 km UNKNOWN
N1424048 RS92 2017-12-29 05:04:24 46.9538 12.3297 72 ° 28 km/h 4973 m -10.1 m/s 405.50 MHz Virgen (AT) 0.00 km UNKNOWN
M3913401 RS92 2017-12-28 05:06:28 47.5267 12.6061 108 ° 57 km/h 2497 m -5.1 m/s 404.10 MHz Fieberbrunn (AT) 0.00 km UNKNOWN
M3826081 RS92 2017-12-27 05:01:16 47.7058 12.9868 31 ° 41 km/h 1911 m -3.6 m/s 404.10 MHz Grödig (AT) 0.00 km UNKNOWN
M3913230 RS92 2017-12-26 05:04:13 47.8758 12.7839 345 ° 4 km/h 671 m -4.0 m/s 404.10 MHz Oberndorf bei Salzburg (AT) 0.00 km UNKNOWN
M3836106 RS92 2017-12-25 04:51:15 47.0996 12.3072 123 ° 39 km/h 3976 m -5.8 m/s 404.10 MHz Virgen (AT) 0.00 km UNKNOWN
M3923276 RS92 2017-12-23 04:58:12 46.3598 11.4074 183 ° 87 km/h 7045 m -6.6 m/s 404.10 MHz Laives (IT) 0.00 km UNKNOWN
M3923094 RS92 2017-12-22 04:21:24 46.7029 11.6917 90 ° 54 km/h 19817 m 5.9 m/s 404.10 MHz Bressanone (IT) 0.00 km UNKNOWN
M3923275 RS92 2017-12-21 04:59:00 46.2671 11.0942 210 ° 156 km/h 9060 m -7.0 m/s 404.10 MHz Lavis (IT) 0.00 km UNKNOWN
M3923098 RS92 2017-12-20 05:04:14 45.9798 11.0045 214 ° 172 km/h 10572 m -7.9 m/s 404.10 MHz Rovereto (IT) 0.00 km UNKNOWN
M3923277 RS92 2017-12-18 04:52:11 46.4184 12.0554 174 ° 107 km/h 7491 m -12.8 m/s 404.10 MHz Belluno (IT) 0.00 km UNKNOWN
M3923117 RS92 2017-12-17 05:09:17 46.8221 12.7639 182 ° 31 km/h 5118 m -6.0 m/s 404.10 MHz Lienz (AT) 0.00 km UNKNOWN
M3913435 RS92 2017-12-16 05:15:57 47.4127 13.3168 136 ° 33 km/h 2915 m -6.1 m/s 404.10 MHz Eben im Pongau (AT) 0.00 km UNKNOWN
M3913217 RS92 2017-12-15 05:06:07 47.5773 14.2408 27 ° 41 km/h 2706 m -5.3 m/s 404.10 MHz Liezen (AT) 0.00 km UNKNOWN
M3913567 RS92 2017-12-14 05:13:53 47.304 14.5177 81 ° 65 km/h 3353 m -5.8 m/s 404.10 MHz Pöls (AT) 0.00 km UNKNOWN
M3826114 RS92 2017-12-13 05:19:13 47.4543 13.481 100 ° 20 km/h 2372 m -6.1 m/s 404.10 MHz Radstadt (AT) 0.00 km UNKNOWN
M3913223 RS92 2017-12-12 04:56:17 48.6791 13.5044 8 ° 33 km/h 662 m -5.6 m/s 404.10 MHz Passau (DE) 0.00 km UNKNOWN
M3923102 RS92 2017-12-11 22:56:32 48.8401 13.6407 85 ° 44 km/h 1620 m -3.7 m/s 404.10 MHz Vimperk (CZ) 0.00 km UNKNOWN
M3826083 RS92 2017-12-11 20:05:13 48.6164 13.6163 329 ° 24 km/h 938 m -5.4 m/s 404.10 MHz Esternberg (AT) 0.00 km UNKNOWN
M3923091 RS92 2017-12-11 07:12:12 47.6949 13.1892 56 ° 109 km/h 4425 m -5.6 m/s 404.10 MHz Adnet (AT) 0.00 km UNKNOWN
M3943649 RS92 2017-12-11 04:39:51 47.5682 13.2379 50 ° 9 km/h 1781 m -2.2 m/s 404.10 MHz Golling an der Salzach (AT) 0.00 km UNKNOWN
M3913225 RS92 2017-12-10 22:42:26 47.6106 13.9038 56 ° 57 km/h 2387 m -5.8 m/s 404.10 MHz Bad Aussee (AT) 0.00 km LOST
M3843179 RS92 2017-12-10 18:34:05 47.3645 12.0738 72 ° 72 km/h 3024 m -4.6 m/s 404.10 MHz Westendorf (AT) 0.00 km UNKNOWN
M3913231 RS92 2017-12-10 16:15:07 47.2097 13.2446 69 ° 72 km/h 2844 m -16.0 m/s 404.10 MHz Grossarl (AT) 0.00 km UNKNOWN
M3913227 RS92 2017-12-10 13:45:18 46.9971 13.785 96 ° 120 km/h 4307 m -5.4 m/s 404.10 MHz Tamsweg (AT) 0.00 km UNKNOWN
M3923107 RS92 2017-12-10 10:19:53 46.7689 13.0058 113 ° 107 km/h 5309 m -6.6 m/s 404.10 MHz Dölsach (AT) 0.00 km UNKNOWN
M3923122 RS92 2017-12-10 07:18:58 46.6302 12.9246 127 ° 143 km/h 6426 m -16.8 m/s 404.10 MHz Kirchbach (AT) 0.00 km UNKNOWN
M3913207 RS92 2017-12-10 04:45:19 46.4879 13.1814 137 ° 150 km/h 7256 m -6.3 m/s 404.10 MHz Tolmezzo (IT) 0.00 km UNKNOWN
M3923125 RS92 2017-12-09 22:32:31 46.5504 12.7378 142 ° 157 km/h 7172 m -6.4 m/s 404.10 MHz Tolmezzo (IT) 0.00 km UNKNOWN
M3826097 RS92 2017-12-09 04:47:20 47.3139 12.6587 148 ° 69 km/h 3241 m -5.3 m/s 404.10 MHz Niedernsill (AT) 0.00 km UNKNOWN
M3843161 RS92 2017-12-08 10:42:25 47.6204 13.0658 101 ° 11 km/h 1430 m -4.3 m/s 404.10 MHz Hallein (AT) 0.00 km UNKNOWN
M3936307 RS92 2017-12-08 07:29:02 47.4562 12.797 92 ° 30 km/h 2549 m -3.9 m/s 404.10 MHz Saalfelden am Steinernen Meer (AT) 0.00 km UNKNOWN
M3753588 RS92 2017-12-08 05:00:15 47.3445 12.8367 65 ° 35 km/h 2889 m -4.4 m/s 404.10 MHz Maishofen (AT) 0.00 km UNKNOWN
M3913433 RS92 2017-12-07 22:30:14 47.2999 12.3328 70 ° 46 km/h 3081 m -7.1 m/s 404.10 MHz Bramberg am Wildkogel (AT) 0.00 km UNKNOWN
M3913410 RS92 2017-12-06 04:52:37 46.7423 12.0601 195 ° 46 km/h 5651 m -5.0 m/s 404.10 MHz Brunico (IT) 0.00 km UNKNOWN
M1323354 RS92 2017-12-05 04:39:01 46.6465 11.8404 156 ° 87 km/h 12519 m -10.9 m/s 404.10 MHz Bressanone (IT) 0.00 km UNKNOWN
M1323346 RS92 2017-12-04 04:47:53 46.6028 11.8003 186 ° 76 km/h 6078 m -5.8 m/s 404.10 MHz Bressanone (IT) 0.00 km UNKNOWN
M3913206 RS92 2017-12-03 04:45:32 47.2268 11.7233 231 ° 20 km/h 3789 m -4.3 m/s 404.10 MHz Wattens (AT) 0.00 km UNKNOWN
M1323366 RS92 2017-12-02 05:00:04 47.6677 12.2544 248 ° 26 km/h 1950 m -4.4 m/s 404.10 MHz Niederndorf (AT) 0.00 km UNKNOWN
M3913232 RS92 2017-12-01 04:50:17 47.6301 12.9087 269 ° 4 km/h 1577 m -7.5 m/s 404.10 MHz Grossgmain (AT) 0.00 km UNKNOWN
M3913224 RS92 2017-11-30 05:00:42 47.5382 12.8892 152 ° 30 km/h 1913 m -5.8 m/s 404.10 MHz Saalfelden am Steinernen Meer (AT) 0.00 km UNKNOWN
M3923101 RS92 2017-11-29 05:03:45 47.468 13.2475 61 ° 22 km/h 2503 m -4.0 m/s 404.10 MHz Werfen (AT) 0.00 km UNKNOWN
M3913198 RS92 2017-11-28 10:45:41 47.3836 13.2117 244 ° 24 km/h 2071 m -4.2 m/s 404.10 MHz Bischofshofen (AT) 0.00 km UNKNOWN
M3913315 RS92 2017-11-28 07:48:08 47.2301 13.244 85 ° 28 km/h 2768 m -4.5 m/s 404.10 MHz Grossarl (AT) 0.00 km UNKNOWN
M3913221 RS92 2017-11-28 03:41:08 47.2397 11.6387 96 ° 50 km/h 3962 m -27.5 m/s 404.10 MHz Wattens (AT) 0.00 km UNKNOWN
M3853181 RS92 2017-11-27 23:34:02 46.8745 12.9114 125 ° 61 km/h 5502 m -5.6 m/s 404.10 MHz Dölsach (AT) 0.00 km UNKNOWN
M3913423 RS92 2017-11-27 04:54:51 46.8023 12.5109 176 ° 50 km/h 5865 m -4.3 m/s 404.10 MHz Lienz (AT) 0.00 km UNKNOWN
M3913289 RS92 2017-11-26 05:08:47 47.7304 12.9536 128 ° 19 km/h 1305 m -3.2 m/s 404.10 MHz Grossgmain (AT) 0.00 km UNKNOWN
M3913414 RS92 2017-11-25 19:50:56 47.7197 13.0192 298 ° 9 km/h 1460 m -3.5 m/s 404.10 MHz Grödig (AT) 0.00 km UNKNOWN
M3936310 RS92 2017-11-25 16:55:23 47.6835 13.0981 77 ° 15 km/h 1240 m -4.8 m/s 404.10 MHz Oberalm (AT) 0.00 km UNKNOWN
M3913481 RS92 2017-11-25 12:32:54 47.6373 12.5831 113 ° 35 km/h 2067 m -9.8 m/s 404.10 MHz Kirchdorf in Tirol (AT) 0.00 km UNKNOWN
M3826048 RS92 2017-11-25 10:08:24 47.521 12.2816 79 ° 50 km/h 19923 m -33.1 m/s 404.10 MHz Ellmau (AT) 0.00 km UNKNOWN
M3923076 RS92 2017-11-25 07:53:39 47.6854 12.9571 21 ° 28 km/h 1914 m -3.4 m/s 404.10 MHz Grossgmain (AT) 0.00 km UNKNOWN
M3853012 RS92 2017-11-25 04:18:48 47.4957 12.2638 37 ° 28 km/h 2578 m -6.4 m/s 404.10 MHz Ellmau (AT) 0.00 km UNKNOWN
M3913925 RS92 2017-11-24 22:23:42 47.4713 12.5711 50 ° 31 km/h 2836 m -8.6 m/s 404.10 MHz Fieberbrunn (AT) 0.00 km UNKNOWN
M3913282 RS92 2017-11-24 20:34:56 47.5979 12.8602 241 ° 20 km/h 2084 m -6.6 m/s 404.10 MHz Grossgmain (AT) 0.00 km UNKNOWN
M3933066 RS92 2017-11-24 12:37:48 47.28 11.911 112 ° 52 km/h 4669 m -25.1 m/s 404.10 MHz Fügen (AT) 0.00 km UNKNOWN
M1323182 RS92 2017-11-24 10:33:51 47.191 12.6031 85 ° 46 km/h 3861 m -4.5 m/s 404.10 MHz Uttendorf (AT) 0.00 km UNKNOWN
M1323323 RS92 2017-11-24 07:45:27 47.1317 12.7143 93 ° 48 km/h 4261 m -4.0 m/s 404.10 MHz Piesendorf (AT) 0.00 km UNKNOWN
M1223415 RS92 2017-11-24 04:56:25 47.3085 12.5775 87 ° 28 km/h 3027 m -3.9 m/s 404.10 MHz Uttendorf (AT) 0.00 km UNKNOWN
M1323380 RS92 2017-11-23 12:59:31 47.6817 12.8377 27 ° 24 km/h 1583 m -4.7 m/s 404.10 MHz Grossgmain (AT) 0.00 km UNKNOWN
M1343368 RS92 2017-11-23 05:10:18 47.5857 12.4155 170 ° 7 km/h 2079 m -5.0 m/s 404.10 MHz Kirchdorf in Tirol (AT) 0.00 km UNKNOWN
M3826092 RS92 2017-11-22 22:35:40 47.3157 12.4039 72 ° 26 km/h 3187 m -7.4 m/s 404.10 MHz Bramberg am Wildkogel (AT) 0.00 km UNKNOWN
M1323324 RS92 2017-11-21 03:49:44 46.9068 11.6402 178 ° 89 km/h 7419 m -30.5 m/s 404.10 MHz Bressanone (IT) 0.00 km UNKNOWN
M1343465 RS92 2017-11-19 04:51:46 46.5921 12.8082 115 ° 126 km/h 6518 m -6.2 m/s 404.10 MHz Dölsach (AT) 0.00 km UNKNOWN
M3923093 RS92 2017-11-18 05:27:28 46.8672 11.9477 91 ° 28 km/h 4815 m -5.4 m/s 405.50 MHz Brunico (IT) 0.00 km UNKNOWN
M1343352 RS92 2017-11-17 03:44:52 47.1853 11.4259 130 ° 24 km/h 7233 m -36.1 m/s 404.10 MHz Sistrans (AT) 0.00 km UNKNOWN
M1323494 RS92 2017-11-16 04:50:13 47.093 11.4121 259 ° 13 km/h 3887 m -9.9 m/s 404.10 MHz Steinach am Brenner (AT) 0.00 km UNKNOWN
M1343488 RS92 2017-11-15 03:50:42 47.1562 11.1675 223 ° 41 km/h 7061 m -32.4 m/s 404.10 MHz Neustift im Stubaital (AT) 0.00 km UNKNOWN
M1343484 RS92 2017-11-14 04:33:53 46.7334 11.095 97 ° 69 km/h 24261 m 6.5 m/s 404.10 MHz Merano (IT) 0.00 km UNKNOWN
M1243364 RS92 2017-11-13 04:00:10 47.4093 11.5749 150 ° 44 km/h 3178 m -29.7 m/s 404.10 MHz Terfens (AT) 0.00 km UNKNOWN
M1343348 RS92 2017-11-12 14:11:52 47.3817 13.3096 22 ° 54 km/h 2818 m -5.2 m/s 404.10 MHz Wagrain (AT) 0.00 km UNKNOWN
M1243352 RS92 2017-11-12 10:50:17 47.1581 12.8486 96 ° 56 km/h 4606 m -6.7 m/s 404.10 MHz Bruck an der Großglocknerstraße (AT) 0.00 km UNKNOWN
M1323370 RS92 2017-11-12 04:57:32 46.8357 12.8651 121 ° 91 km/h 5497 m -17.4 m/s 404.10 MHz Dölsach (AT) 0.00 km UNKNOWN
M1344072 RS92 2017-11-09 05:04:52 47.3447 11.6831 8 ° 22 km/h 3072 m -5.4 m/s 404.10 MHz Vomp (AT) 0.00 km UNKNOWN
M1223397 RS92 2017-11-08 04:59:30 47.5089 11.4542 95 ° 28 km/h 3092 m -4.5 m/s 404.10 MHz Achenkirch (AT) 0.00 km UNKNOWN
M1343345 RS92 2017-11-07 04:50:32 47.4802 10.6747 275 ° 65 km/h 4352 m -5.5 m/s 404.10 MHz Reutte (AT) 0.00 km UNKNOWN
M1323357 RS92 2017-11-05 17:41:08 48.4057 12.2307 105 ° 57 km/h 1267 m -4.3 m/s 405.50 MHz Landshut (DE) 0.00 km UNKNOWN
M1243367 RS92 2017-11-05 13:46:42 48.0501 12.0942 76 ° 41 km/h 1128 m -4.2 m/s 405.50 MHz Rosenheim (DE) 0.00 km UNKNOWN
M1323327 RS92 2017-11-05 10:43:32 47.9395 12.166 128 ° 37 km/h 1233 m -3.8 m/s 405.50 MHz Rosenheim (DE) 0.00 km UNKNOWN
M1323343 RS92 2017-11-05 07:07:18 47.4565 11.5555 42 ° 59 km/h 6747 m -32.7 m/s 405.50 MHz Achenkirch (AT) 0.00 km UNKNOWN
M1213306 RS92 2017-11-05 04:47:38 47.6347 12.3094 29 ° 41 km/h 1677 m -10.0 m/s 404.10 MHz Ebbs (AT) 0.00 km UNKNOWN
M1213316 RS92 2017-11-04 22:34:41 47.8138 12.2304 107 ° 20 km/h 1034 m -3.9 m/s 404.10 MHz Rosenheim (DE) 0.00 km UNKNOWN
M1343469 RS92 2017-11-04 20:05:43 47.7372 12.3671 342 ° 22 km/h 1614 m -5.8 m/s 404.10 MHz Kössen (AT) 0.00 km UNKNOWN
M1343473 RS92 2017-11-04 16:40:58 47.8073 12.2243 303 ° 15 km/h 1181 m -5.5 m/s 404.10 MHz Rosenheim (DE) 0.00 km UNKNOWN
M1323363 RS92 2017-11-04 13:50:39 47.8457 12.25 111 ° 20 km/h 1002 m -3.6 m/s 404.10 MHz Rosenheim (DE) 0.00 km UNKNOWN
M1213309 RS92 2017-11-04 10:27:02 47.6442 11.9675 102 ° 7 km/h 1835 m -11.1 m/s 404.10 MHz Kirchbichl (AT) 0.00 km UNKNOWN
M1344060 RS92 2017-11-04 06:35:08 47.4089 11.5428 24 ° 46 km/h 13615 m 1.8 m/s 404.10 MHz Terfens (AT) 0.00 km UNKNOWN
M1343478 RS92 2017-11-04 03:57:46 47.5091 12.0467 106 ° 33 km/h 2512 m -5.6 m/s 404.10 MHz Kirchbichl (AT) 0.00 km UNKNOWN
M1333018 RS92 2017-11-03 02:47:20 47.0289 11.698 136 ° 72 km/h 6046 m -28.5 m/s 404.10 MHz Steinach am Brenner (AT) 0.00 km UNKNOWN
M1333023 RS92 2017-11-02 02:57:18 47.0806 11.7819 119 ° 30 km/h 4301 m -5.4 m/s 404.10 MHz Mayrhofen (AT) 0.00 km UNKNOWN
M1343479 RS92 2017-10-31 03:45:26 46.6422 12.2846 149 ° 56 km/h 7089 m -18.7 m/s 404.10 MHz Brunico (IT) 0.00 km UNKNOWN
M1343333 RS92 2017-10-28 03:57:56 46.2074 11.5667 174 ° 124 km/h 8830 m -6.3 m/s 404.10 MHz Levico Terme (IT) 0.00 km UNKNOWN
M1343466 RS92 2017-10-27 02:45:33 47.129 11.8303 103 ° 91 km/h 5284 m -29.3 m/s 404.10 MHz Mayrhofen (AT) 0.00 km UNKNOWN
M1243335 RS92 2017-10-26 03:59:15 46.7657 12.2142 113 ° 44 km/h 6001 m -7.3 m/s 404.10 MHz Brunico (IT) 0.00 km UNKNOWN
M1213318 RS92 2017-10-25 03:50:39 46.505 11.7759 152 ° 80 km/h 8304 m -7.1 m/s 404.10 MHz Bressanone (IT) 0.00 km UNKNOWN
M1343494 RS92 2017-10-24 03:40:05 46.2052 11.5864 189 ° 176 km/h 10279 m -9.0 m/s 404.10 MHz Levico Terme (IT) 0.00 km UNKNOWN
M1343477 RS92 2017-10-23 03:56:37 46.7938 11.9633 227 ° 33 km/h 5486 m -7.2 m/s 404.10 MHz Brunico (IT) 0.00 km UNKNOWN
M1343475 RS92 2017-10-22 02:43:18 47.4416 11.7535 62 ° 141 km/h 11624 m 16.8 m/s 404.10 MHz Eben am Achensee (AT) 0.00 km UNKNOWN
M1243343 RS92 2017-10-21 03:55:54 46.6871 12.2957 123 ° 56 km/h 6740 m -6.7 m/s 404.10 MHz Brunico (IT) 0.00 km UNKNOWN
M1323337 RS92 2017-10-20 04:12:55 47.187 12.0897 249 ° 24 km/h 3243 m -5.3 m/s 404.10 MHz Neukirchen am Großvenediger (AT) 0.00 km UNKNOWN
M1344093 RS92 2017-10-19 04:08:08 47.272 11.8975 79 ° 19 km/h 3212 m -5.1 m/s 404.10 MHz Fügen (AT) 0.00 km UNKNOWN
M1343476 RS92 2017-10-18 04:07:06 47.5232 11.6313 121 ° 11 km/h 2398 m -9.5 m/s 404.10 MHz Achenkirch (AT) 0.00 km UNKNOWN
M1333012 RS92 2017-10-17 04:11:06 47.4627 11.8112 31 ° 24 km/h 2667 m -3.8 m/s 404.10 MHz Kramsach (AT) 0.00 km UNKNOWN
M1343474 RS92 2017-10-16 03:58:01 47.546 11.9267 132 ° 13 km/h 2017 m -5.0 m/s 404.10 MHz Breitenbach am Inn (AT) 0.00 km UNKNOWN
M1343461 RS92 2017-10-15 02:41:06 47.3103 11.4153 7 ° 33 km/h 10428 m 8.5 m/s 404.10 MHz Rum (AT) 0.00 km UNKNOWN
M1343481 RS92 2017-10-14 03:46:24 47.0473 11.2989 103 ° 22 km/h 4439 m -13.4 m/s 404.10 MHz Neustift im Stubaital (AT) 0.00 km UNKNOWN
M1323338 RS92 2017-10-13 03:55:51 46.673 12.0304 146 ° 57 km/h 6151 m -8.6 m/s 404.10 MHz Brunico (IT) 0.00 km UNKNOWN
M1343376 RS92 2017-10-12 02:59:44 47.265 11.9396 88 ° 57 km/h 4540 m -33.4 m/s 404.10 MHz Mayrhofen (AT) 0.00 km UNKNOWN
M1323377 RS92 2017-10-11 04:05:11 46.6118 11.781 250 ° 30 km/h 6589 m -5.9 m/s 404.10 MHz Bressanone (IT) 0.00 km UNKNOWN
M1343360 RS92 2017-10-10 04:03:41 46.7776 12.2998 138 ° 59 km/h 5185 m -8.5 m/s 404.10 MHz Virgen (AT) 0.00 km UNKNOWN
M1234403 RS92 2017-10-09 03:11:53 46.6865 11.808 151 ° 61 km/h 6312 m -6.3 m/s 404.10 MHz Bressanone (IT) 0.00 km UNKNOWN
M1323331 RS92 2017-10-08 03:51:02 46.9089 12.4263 134 ° 70 km/h 5455 m -5.8 m/s 404.10 MHz Virgen (AT) 0.00 km UNKNOWN
M1323322 RS92 2017-10-07 03:49:32 46.2828 11.7796 178 ° 174 km/h 9764 m -8.8 m/s 404.10 MHz Sedico (IT) 0.00 km UNKNOWN
M1323330 RS92 2017-10-06 02:43:12 47.1359 11.9036 106 ° 122 km/h 5914 m -33.4 m/s 404.10 MHz Mayrhofen (AT) 0.00 km UNKNOWN
M1343470 RS92 2017-10-05 03:51:28 46.8777 12.4149 87 ° 59 km/h 5448 m -8.3 m/s 404.10 MHz Virgen (AT) 0.00 km UNKNOWN
M1323379 RS92 2017-10-04 03:48:59 46.6875 11.8907 145 ° 56 km/h 6213 m -13.0 m/s 404.10 MHz Brunico (IT) 0.00 km UNKNOWN
M1323378 RS92 2017-10-03 04:11:16 47.0168 12.4576 94 ° 50 km/h 4909 m -6.4 m/s 404.10 MHz Virgen (AT) 0.00 km UNKNOWN
M1323329 RS92 2017-10-02 03:48:07 46.3895 11.0758 195 ° 85 km/h 8347 m -9.7 m/s 404.10 MHz Laives (IT) 0.00 km UNKNOWN
M1343366 RS92 2017-10-01 03:18:44 47.3873 11.4936 185 ° 11 km/h 2983 m -5.5 m/s 404.10 MHz Thaur (AT) 0.00 km UNKNOWN
J4143663 RS92 2017-09-30 02:55:22 47.0508 11.4862 201 ° 28 km/h 14993 m 9.2 m/s 404.10 MHz Steinach am Brenner (AT) 0.00 km UNKNOWN
J4143680 RS92 2017-09-29 03:50:09 46.727 11.4323 167 ° 54 km/h 6387 m -11.7 m/s 404.10 MHz Bressanone (IT) 0.00 km UNKNOWN
M1343361 RS92 2017-09-28 03:54:09 46.7553 11.5723 195 ° 41 km/h 6187 m -7.9 m/s 404.10 MHz Bressanone (IT) 0.00 km UNKNOWN
M1343365 RS92 2017-09-27 04:03:13 47.2696 11.5476 191 ° 9 km/h 3329 m -4.1 m/s 404.10 MHz Volders (AT) 0.00 km UNKNOWN
M1343337 RS92 2017-09-26 04:09:16 47.0188 11.6692 266 ° 22 km/h 4260 m -5.2 m/s 404.10 MHz Steinach am Brenner (AT) 0.00 km UNKNOWN
M1243349 RS92 2017-09-24 04:15:47 47.262 11.698 58 ° 20 km/h 3392 m -5.1 m/s 404.10 MHz Terfens (AT) 0.00 km UNKNOWN
M1243358 RS92 2017-09-23 04:15:27 47.2657 11.877 175 ° 35 km/h 3308 m -4.7 m/s 404.10 MHz Fügen (AT) 0.00 km UNKNOWN
M1323349 RS92 2017-09-22 04:06:33 46.8954 11.9038 160 ° 50 km/h 4860 m -5.4 m/s 404.10 MHz Brunico (IT) 0.00 km UNKNOWN
M1213307 RS92 2017-09-21 04:05:05 46.4544 11.3922 185 ° 122 km/h 7271 m -11.1 m/s 404.10 MHz Laives (IT) 0.00 km UNKNOWN
M1323496 RS92 2017-09-20 04:23:28 46.9321 11.2936 156 ° 28 km/h 5250 m -6.4 m/s 404.10 MHz Neustift im Stubaital (AT) 0.00 km UNKNOWN
M1323345 RS92 2017-09-19 02:55:45 47.468 11.4773 69 ° 65 km/h 13599 m -58.9 m/s 404.10 MHz Achenkirch (AT) 0.00 km UNKNOWN
M1213315 RS92 2017-09-16 04:21:35 48.3709 12.7716 251 ° 9 km/h 803 m -6.0 m/s 404.10 MHz Braunau am Inn (AT) 0.00 km UNKNOWN
M1344054 RS92 2017-09-15 04:20:16 47.7842 13.4066 72 ° 30 km/h 1244 m -8.2 m/s 404.10 MHz Sankt Gilgen (AT) 0.00 km UNKNOWN
M1323350 RS92 2017-09-13 04:12:31 46.8896 12.3622 112 ° 72 km/h 4766 m -6.0 m/s 405.50 MHz Virgen (AT) 0.00 km UNKNOWN
M1233041 RS92 2017-09-12 02:46:33 47.4263 11.6717 17 ° 63 km/h 4185 m -25.6 m/s 404.10 MHz Eben am Achensee (AT) 0.00 km UNKNOWN
M1344053 RS92 2017-09-10 04:11:34 48.2143 12.2386 110 ° 30 km/h 842 m -4.4 m/s 404.10 MHz Waldkraiburg (DE) 0.00 km LOST
M1323162 RS92 2017-09-09 03:32:45 47.6157 11.9656 85 ° 65 km/h 17033 m -12.2 m/s 404.10 MHz Kirchbichl (AT) 0.00 km UNKNOWN
M1344056 RS92 2017-09-08 03:58:44 47.0932 11.9677 47 ° 31 km/h 3889 m -5.3 m/s 404.10 MHz Mayrhofen (AT) 0.00 km UNKNOWN
M1233816 RS92 2017-09-07 04:07:38 47.1477 12.392 120 ° 41 km/h 4176 m -4.0 m/s 404.10 MHz Bramberg am Wildkogel (AT) 0.00 km UNKNOWN
M1323179 RS92 2017-09-06 04:11:07 47.0536 12.287 124 ° 39 km/h 4422 m -7.0 m/s 404.10 MHz Virgen (AT) 0.00 km UNKNOWN
M1224305 RS92 2017-09-05 03:26:35 46.4236 11.607 172 ° 163 km/h 7592 m -14.9 m/s 404.10 MHz Laives (IT) 0.00 km UNKNOWN
M1323342 RS92 2017-09-04 03:46:17 46.7872 12.1765 144 ° 72 km/h 5749 m -4.8 m/s 404.10 MHz Brunico (IT) 0.00 km UNKNOWN
M1233653 RS92 2017-09-03 03:58:25 47.147 11.415 216 ° 57 km/h 3960 m -6.2 m/s 404.10 MHz Fulpmes (AT) 0.00 km UNKNOWN
J4153538 RS92 2017-09-02 04:06:08 47.831 12.0562 244 ° 24 km/h 1252 m -5.8 m/s 404.10 MHz Rosenheim (DE) 0.00 km UNKNOWN
J4143704 RS92 2017-09-01 04:07:22 48.0427 11.9616 165 ° 22 km/h 1090 m -5.3 m/s 404.10 MHz Vaterstetten (DE) 0.00 km UNKNOWN
J3233287 RS92 2017-08-08 04:05:51 47.5283 12.001 48 ° 20 km/h 2172 m -8.6 m/s 404.10 MHz Kirchbichl (AT) 0.00 km UNKNOWN
M1233017 RS92 2017-08-07 04:11:41 47.2915 12.1404 23 ° 15 km/h 3111 m -5.0 m/s 404.10 MHz Neukirchen am Großvenediger (AT) 0.00 km UNKNOWN
J3243290 RS92 2017-08-06 04:28:38 47.8566 12.4771 121 ° 11 km/h 906 m -5.5 m/s 404.10 MHz Traunreut (DE) 0.00 km UNKNOWN
M1344098 RS92 2017-08-04 04:01:40 47.3392 12.2224 9 ° 15 km/h 2519 m -6.8 m/s 404.10 MHz Westendorf (AT) 0.00 km UNKNOWN
M1234409 RS92 2017-08-03 04:10:21 47.3412 12.1199 126 ° 43 km/h 3102 m -5.5 m/s 404.10 MHz Westendorf (AT) 0.00 km UNKNOWN
M1234422 RS92 2017-08-02 04:02:52 47.5777 12.5433 214 ° 24 km/h 2146 m -5.5 m/s 404.10 MHz Kirchdorf in Tirol (AT) 0.00 km UNKNOWN
M1224293 RS92 2017-07-30 04:41:55 47.5239 11.744 240 ° 13 km/h 2387 m -4.1 m/s 405.50 MHz Achenkirch (AT) 0.00 km UNKNOWN
M1344104 RS92 2017-07-29 04:08:32 47.1205 12.2954 104 ° 50 km/h 3908 m -6.6 m/s 404.10 MHz Neukirchen am Großvenediger (AT) 0.00 km UNKNOWN
M1344071 RS92 2017-07-28 03:56:48 46.882 12.6783 117 ° 57 km/h 5226 m -5.9 m/s 404.10 MHz Lienz (AT) 0.00 km UNKNOWN
M1224509 RS92 2017-07-27 04:25:34 46.5987 11.6919 172 ° 61 km/h 6335 m -6.8 m/s 405.50 MHz Bressanone (IT) 0.00 km UNKNOWN
M1323160 RS92 2017-07-26 04:13:06 47.0001 11.9467 135 ° 76 km/h 3818 m -5.3 m/s 404.10 MHz Mayrhofen (AT) 0.00 km UNKNOWN
J4323098 RS92 2017-07-25 04:09:16 47.3745 12.1754 126 ° 54 km/h 2922 m -4.8 m/s 404.10 MHz Westendorf (AT) 0.00 km UNKNOWN
M1333046 RS92 2017-07-24 04:27:01 47.5396 12.1033 141 ° 28 km/h 2443 m -5.8 m/s 404.10 MHz Schwoich (AT) 0.00 km UNKNOWN
M1344049 RS92 2017-07-21 04:03:48 47.5078 11.7842 110 ° 11 km/h 2982 m -8.6 m/s 404.10 MHz Achenkirch (AT) 0.00 km UNKNOWN
M1333057 RS92 2017-07-20 04:17:03 47.3277 11.8051 20 ° 28 km/h 3213 m -6.1 m/s 404.10 MHz Fügen (AT) 0.00 km UNKNOWN
M1323175 RS92 2017-07-19 04:25:20 47.3504 11.8789 115 ° 43 km/h 3133 m -5.1 m/s 404.10 MHz Fügen (AT) 0.00 km UNKNOWN
J1033298 RS92 2017-07-17 04:09:51 46.8098 11.6687 181 ° 43 km/h 5944 m -6.3 m/s 404.10 MHz Bressanone (IT) 0.00 km UNKNOWN
M1344050 RS92 2017-07-16 04:02:43 46.1535 11.2205 178 ° 152 km/h 8493 m -9.3 m/s 404.10 MHz Lavis (IT) 0.00 km UNKNOWN
J3233290 RS92 2017-07-15 04:23:31 46.6682 12.6962 129 ° 124 km/h 5798 m -6.6 m/s 404.10 MHz Lienz (AT) 0.00 km UNKNOWN
J1013579 RS92 2017-07-14 04:17:33 47.3894 12.6575 115 ° 56 km/h 3269 m -9.9 m/s 404.10 MHz Leogang (AT) 0.00 km UNKNOWN
J1013555 RS92 2017-07-13 04:35:12 46.8653 13.1588 109 ° 54 km/h 5132 m -5.2 m/s 404.10 MHz Obervellach (AT) 0.00 km UNKNOWN
J0843255 RS92 2017-07-12 04:17:38 46.9556 12.8539 89 ° 57 km/h 4709 m -7.9 m/s 404.10 MHz Dölsach (AT) 0.00 km UNKNOWN
M1323181 RS92 2017-07-11 04:36:12 47.9005 12.8302 74 ° 35 km/h 885 m -4.9 m/s 404.10 MHz Oberndorf bei Salzburg (AT) 0.00 km UNKNOWN
J0923422 RS92 2017-07-10 04:10:14 47.7253 12.3458 98 ° 19 km/h 1671 m -3.9 m/s 404.10 MHz Kössen (AT) 0.00 km UNKNOWN
M1344058 RS92 2017-07-09 04:22:59 47.1569 12.1267 110 ° 44 km/h 3527 m -4.9 m/s 404.10 MHz Neukirchen am Großvenediger (AT) 0.00 km UNKNOWN
M1323164 RS92 2017-07-08 04:29:21 46.9962 12.2389 143 ° 61 km/h 4500 m -6.2 m/s 404.10 MHz Virgen (AT) 0.00 km UNKNOWN
J4323105 RS92 2017-07-07 04:25:28 47.0203 12.6612 146 ° 39 km/h 4276 m -6.4 m/s 404.10 MHz Matrei in Osttirol (AT) 0.00 km UNKNOWN
J4024579 RS92 2017-07-06 04:14:30 46.9655 12.6534 129 ° 31 km/h 4543 m -6.2 m/s 404.10 MHz Matrei in Osttirol (AT) 0.00 km UNKNOWN
J4024583 RS92 2017-07-05 04:02:39 47.0563 12.1565 119 ° 28 km/h 4162 m -15.2 m/s 404.10 MHz Neukirchen am Großvenediger (AT) 0.00 km UNKNOWN
J4323102 RS92 2017-07-04 04:26:25 46.936 12.0673 149 ° 44 km/h 4728 m -6.9 m/s 404.10 MHz Brunico (IT) 0.00 km UNKNOWN
J4153294 RS92 2017-06-30 04:32:23 48.0776 12.4809 6 ° 28 km/h 730 m -4.8 m/s 404.10 MHz Traunreut (DE) 0.00 km UNKNOWN
J0943652 RS92 2017-06-29 04:27:12 47.6518 11.7362 85 ° 65 km/h 1998 m -5.2 m/s 404.10 MHz Achenkirch (AT) 0.00 km UNKNOWN
J1033845 RS92 2017-06-28 04:14:38 47.7845 11.7911 74 ° 20 km/h 1888 m -12.1 m/s 404.10 MHz Geretsried (DE) 0.00 km UNKNOWN
J1033739 RS92 2017-06-27 04:24:59 47.6701 12.0137 352 ° 19 km/h 1654 m -4.8 m/s 404.10 MHz Kufstein (AT) 0.00 km UNKNOWN
J1033182 RS92 2017-06-26 04:30:20 46.964 12.161 125 ° 48 km/h 4257 m -5.6 m/s 404.10 MHz Virgen (AT) 0.00 km UNKNOWN
J3233510 RS92 2017-06-25 04:31:02 47.4708 12.3277 125 ° 24 km/h 2263 m -3.7 m/s 404.10 MHz Kirchberg in Tirol (AT) 0.00 km UNKNOWN
J0943747 RS92 2017-06-24 04:25:04 47.2142 11.9269 135 ° 59 km/h 3794 m -5.3 m/s 404.10 MHz Mayrhofen (AT) 0.00 km UNKNOWN
J0933703 2017-06-23 04:18:58 46.97 12.2579 131 ° 67 km/h 4677 m -4.0 m/s 404.10 MHz Virgen (AT) 0.00 km UNKNOWN
J0913289 2017-06-21 04:16:17 46.7921 11.9968 107 ° 39 km/h 5108 m -5.0 m/s 404.10 MHz Brunico (IT) 0.00 km UNKNOWN